<?xml version="1.0" encoding="UTF-8" standalone="no" ?>
<gpx xmlns="http://www.topografix.com/GPX/1/1" xmlns:xsi="http://www.w3.org/2001/XMLSchema-instance" xsi:schemaLocation="http://www.topografix.com/GPX/1/1 http://www.topografix.com/GPX/1/1/gpx.xsd" version="1.1" creator="VisuGPX - https://www.visugpx.com">
  <metadata>
    <name>Les collines du perche prés de Souvigné sur Même</name>
    <desc><![CDATA[Belle randonnée pédestre entre prés et forêts dans les collines du perche aux alentours de Souvigné sur Même.]]></desc>
  </metadata>
  <trk>
    <name><![CDATA[]]></name>
    <trkseg>
      <trkpt lat="48.21912" lon="0.63683">
        <ele>110</ele>
        <time>2012-03-23T09:29:01Z</time>
      </trkpt>
      <trkpt lat="48.21931" lon="0.63717">
        <ele>103</ele>
        <time>2012-03-23T09:31:48Z</time>
      </trkpt>
      <trkpt lat="48.21933" lon="0.63721">
        <ele>103</ele>
        <time>2012-03-23T09:31:52Z</time>
      </trkpt>
      <trkpt lat="48.21936" lon="0.63727">
        <ele>102</ele>
        <time>2012-03-23T09:31:56Z</time>
      </trkpt>
      <trkpt lat="48.21941" lon="0.6373">
        <ele>102</ele>
        <time>2012-03-23T09:32:00Z</time>
      </trkpt>
      <trkpt lat="48.21942" lon="0.63736">
        <ele>102</ele>
        <time>2012-03-23T09:32:04Z</time>
      </trkpt>
      <trkpt lat="48.21944" lon="0.6374">
        <ele>102</ele>
        <time>2012-03-23T09:32:08Z</time>
      </trkpt>
      <trkpt lat="48.21945" lon="0.63746">
        <ele>102</ele>
        <time>2012-03-23T09:32:12Z</time>
      </trkpt>
      <trkpt lat="48.21947" lon="0.63751">
        <ele>102</ele>
        <time>2012-03-23T09:32:16Z</time>
      </trkpt>
      <trkpt lat="48.21947" lon="0.63756">
        <ele>102</ele>
        <time>2012-03-23T09:32:20Z</time>
      </trkpt>
      <trkpt lat="48.21948" lon="0.63762">
        <ele>102</ele>
        <time>2012-03-23T09:32:24Z</time>
      </trkpt>
      <trkpt lat="48.21948" lon="0.63766">
        <ele>102</ele>
        <time>2012-03-23T09:32:27Z</time>
      </trkpt>
      <trkpt lat="48.21948" lon="0.6377">
        <ele>102</ele>
        <time>2012-03-23T09:32:29Z</time>
      </trkpt>
      <trkpt lat="48.21948" lon="0.63775">
        <ele>102</ele>
        <time>2012-03-23T09:32:33Z</time>
      </trkpt>
      <trkpt lat="48.21948" lon="0.6378">
        <ele>102</ele>
        <time>2012-03-23T09:32:36Z</time>
      </trkpt>
      <trkpt lat="48.21947" lon="0.63785">
        <ele>101</ele>
        <time>2012-03-23T09:32:40Z</time>
      </trkpt>
      <trkpt lat="48.21946" lon="0.6379">
        <ele>100</ele>
        <time>2012-03-23T09:32:44Z</time>
      </trkpt>
      <trkpt lat="48.21944" lon="0.63794">
        <ele>100</ele>
        <time>2012-03-23T09:32:47Z</time>
      </trkpt>
      <trkpt lat="48.21941" lon="0.63798">
        <ele>100</ele>
        <time>2012-03-23T09:32:51Z</time>
      </trkpt>
      <trkpt lat="48.21938" lon="0.63801">
        <ele>100</ele>
        <time>2012-03-23T09:32:55Z</time>
      </trkpt>
      <trkpt lat="48.21933" lon="0.63805">
        <ele>100</ele>
        <time>2012-03-23T09:32:59Z</time>
      </trkpt>
      <trkpt lat="48.21929" lon="0.63808">
        <ele>100</ele>
        <time>2012-03-23T09:33:03Z</time>
      </trkpt>
      <trkpt lat="48.21926" lon="0.6381">
        <ele>100</ele>
        <time>2012-03-23T09:33:06Z</time>
      </trkpt>
      <trkpt lat="48.21923" lon="0.63812">
        <ele>100</ele>
        <time>2012-03-23T09:33:08Z</time>
      </trkpt>
      <trkpt lat="48.2192" lon="0.63814">
        <ele>100</ele>
        <time>2012-03-23T09:33:11Z</time>
      </trkpt>
      <trkpt lat="48.21916" lon="0.63817">
        <ele>101</ele>
        <time>2012-03-23T09:33:15Z</time>
      </trkpt>
      <trkpt lat="48.21913" lon="0.63818">
        <ele>101</ele>
        <time>2012-03-23T09:33:18Z</time>
      </trkpt>
      <trkpt lat="48.2191" lon="0.6382">
        <ele>101</ele>
        <time>2012-03-23T09:33:22Z</time>
      </trkpt>
      <trkpt lat="48.21906" lon="0.63822">
        <ele>101</ele>
        <time>2012-03-23T09:33:26Z</time>
      </trkpt>
      <trkpt lat="48.21903" lon="0.63826">
        <ele>101</ele>
        <time>2012-03-23T09:33:30Z</time>
      </trkpt>
      <trkpt lat="48.21903" lon="0.63832">
        <ele>101</ele>
        <time>2012-03-23T09:33:34Z</time>
      </trkpt>
      <trkpt lat="48.21905" lon="0.63836">
        <ele>101</ele>
        <time>2012-03-23T09:33:38Z</time>
      </trkpt>
      <trkpt lat="48.21907" lon="0.63838">
        <ele>102</ele>
        <time>2012-03-23T09:33:42Z</time>
      </trkpt>
      <trkpt lat="48.2191" lon="0.63842">
        <ele>103</ele>
        <time>2012-03-23T09:33:47Z</time>
      </trkpt>
      <trkpt lat="48.21913" lon="0.63844">
        <ele>104</ele>
        <time>2012-03-23T09:33:51Z</time>
      </trkpt>
      <trkpt lat="48.21916" lon="0.63846">
        <ele>104</ele>
        <time>2012-03-23T09:33:53Z</time>
      </trkpt>
      <trkpt lat="48.21919" lon="0.6385">
        <ele>104</ele>
        <time>2012-03-23T09:33:57Z</time>
      </trkpt>
      <trkpt lat="48.21923" lon="0.63853">
        <ele>105</ele>
        <time>2012-03-23T09:34:01Z</time>
      </trkpt>
      <trkpt lat="48.21927" lon="0.63857">
        <ele>106</ele>
        <time>2012-03-23T09:34:05Z</time>
      </trkpt>
      <trkpt lat="48.2193" lon="0.63859">
        <ele>106</ele>
        <time>2012-03-23T09:34:08Z</time>
      </trkpt>
      <trkpt lat="48.21933" lon="0.63863">
        <ele>107</ele>
        <time>2012-03-23T09:34:12Z</time>
      </trkpt>
      <trkpt lat="48.21937" lon="0.63867">
        <ele>108</ele>
        <time>2012-03-23T09:34:16Z</time>
      </trkpt>
      <trkpt lat="48.2194" lon="0.63872">
        <ele>109</ele>
        <time>2012-03-23T09:34:20Z</time>
      </trkpt>
      <trkpt lat="48.21942" lon="0.63876">
        <ele>109</ele>
        <time>2012-03-23T09:34:23Z</time>
      </trkpt>
      <trkpt lat="48.21944" lon="0.63882">
        <ele>110</ele>
        <time>2012-03-23T09:34:28Z</time>
      </trkpt>
      <trkpt lat="48.21946" lon="0.63887">
        <ele>110</ele>
        <time>2012-03-23T09:34:32Z</time>
      </trkpt>
      <trkpt lat="48.21947" lon="0.63892">
        <ele>110</ele>
        <time>2012-03-23T09:34:36Z</time>
      </trkpt>
      <trkpt lat="48.2195" lon="0.63896">
        <ele>110</ele>
        <time>2012-03-23T09:34:40Z</time>
      </trkpt>
      <trkpt lat="48.21952" lon="0.639">
        <ele>110</ele>
        <time>2012-03-23T09:34:44Z</time>
      </trkpt>
      <trkpt lat="48.21954" lon="0.63906">
        <ele>110</ele>
        <time>2012-03-23T09:34:48Z</time>
      </trkpt>
      <trkpt lat="48.21957" lon="0.6391">
        <ele>110</ele>
        <time>2012-03-23T09:34:52Z</time>
      </trkpt>
      <trkpt lat="48.21959" lon="0.63914">
        <ele>110</ele>
        <time>2012-03-23T09:34:56Z</time>
      </trkpt>
      <trkpt lat="48.21962" lon="0.63919">
        <ele>110</ele>
        <time>2012-03-23T09:35:00Z</time>
      </trkpt>
      <trkpt lat="48.21963" lon="0.63925">
        <ele>110</ele>
        <time>2012-03-23T09:35:04Z</time>
      </trkpt>
      <trkpt lat="48.21964" lon="0.6393">
        <ele>110</ele>
        <time>2012-03-23T09:35:08Z</time>
      </trkpt>
      <trkpt lat="48.21966" lon="0.63936">
        <ele>110</ele>
        <time>2012-03-23T09:35:12Z</time>
      </trkpt>
      <trkpt lat="48.21968" lon="0.63941">
        <ele>110</ele>
        <time>2012-03-23T09:35:16Z</time>
      </trkpt>
      <trkpt lat="48.2197" lon="0.63946">
        <ele>110</ele>
        <time>2012-03-23T09:35:20Z</time>
      </trkpt>
      <trkpt lat="48.2197" lon="0.63952">
        <ele>110</ele>
        <time>2012-03-23T09:35:23Z</time>
      </trkpt>
      <trkpt lat="48.21972" lon="0.63957">
        <ele>110</ele>
        <time>2012-03-23T09:35:28Z</time>
      </trkpt>
      <trkpt lat="48.21973" lon="0.63962">
        <ele>110</ele>
        <time>2012-03-23T09:35:32Z</time>
      </trkpt>
      <trkpt lat="48.21974" lon="0.63967">
        <ele>110</ele>
        <time>2012-03-23T09:35:36Z</time>
      </trkpt>
      <trkpt lat="48.21976" lon="0.63971">
        <ele>110</ele>
        <time>2012-03-23T09:35:40Z</time>
      </trkpt>
      <trkpt lat="48.21979" lon="0.63976">
        <ele>110</ele>
        <time>2012-03-23T09:35:44Z</time>
      </trkpt>
      <trkpt lat="48.21981" lon="0.6398">
        <ele>111</ele>
        <time>2012-03-23T09:35:48Z</time>
      </trkpt>
      <trkpt lat="48.21984" lon="0.63984">
        <ele>112</ele>
        <time>2012-03-23T09:35:52Z</time>
      </trkpt>
      <trkpt lat="48.21986" lon="0.63989">
        <ele>113</ele>
        <time>2012-03-23T09:35:55Z</time>
      </trkpt>
      <trkpt lat="48.21987" lon="0.63994">
        <ele>114</ele>
        <time>2012-03-23T09:35:59Z</time>
      </trkpt>
      <trkpt lat="48.21989" lon="0.63999">
        <ele>115</ele>
        <time>2012-03-23T09:36:03Z</time>
      </trkpt>
      <trkpt lat="48.21991" lon="0.64003">
        <ele>115</ele>
        <time>2012-03-23T09:36:07Z</time>
      </trkpt>
      <trkpt lat="48.21992" lon="0.64009">
        <ele>116</ele>
        <time>2012-03-23T09:36:11Z</time>
      </trkpt>
      <trkpt lat="48.21993" lon="0.64014">
        <ele>116</ele>
        <time>2012-03-23T09:36:15Z</time>
      </trkpt>
      <trkpt lat="48.21995" lon="0.64018">
        <ele>118</ele>
        <time>2012-03-23T09:36:19Z</time>
      </trkpt>
      <trkpt lat="48.21996" lon="0.64023">
        <ele>119</ele>
        <time>2012-03-23T09:36:22Z</time>
      </trkpt>
      <trkpt lat="48.21998" lon="0.64028">
        <ele>119</ele>
        <time>2012-03-23T09:36:26Z</time>
      </trkpt>
      <trkpt lat="48.21999" lon="0.64031">
        <ele>119</ele>
        <time>2012-03-23T09:36:31Z</time>
      </trkpt>
      <trkpt lat="48.22001" lon="0.64035">
        <ele>121</ele>
        <time>2012-03-23T09:36:36Z</time>
      </trkpt>
      <trkpt lat="48.22002" lon="0.64039">
        <ele>121</ele>
        <time>2012-03-23T09:36:40Z</time>
      </trkpt>
      <trkpt lat="48.22003" lon="0.64044">
        <ele>122</ele>
        <time>2012-03-23T09:36:45Z</time>
      </trkpt>
      <trkpt lat="48.22003" lon="0.6405">
        <ele>123</ele>
        <time>2012-03-23T09:36:49Z</time>
      </trkpt>
      <trkpt lat="48.22003" lon="0.64055">
        <ele>124</ele>
        <time>2012-03-23T09:36:53Z</time>
      </trkpt>
      <trkpt lat="48.22004" lon="0.64059">
        <ele>124</ele>
        <time>2012-03-23T09:36:57Z</time>
      </trkpt>
      <trkpt lat="48.22005" lon="0.64065">
        <ele>125</ele>
        <time>2012-03-23T09:37:01Z</time>
      </trkpt>
      <trkpt lat="48.22004" lon="0.64068">
        <ele>125</ele>
        <time>2012-03-23T09:37:05Z</time>
      </trkpt>
      <trkpt lat="48.22003" lon="0.64073">
        <ele>127</ele>
        <time>2012-03-23T09:37:09Z</time>
      </trkpt>
      <trkpt lat="48.22002" lon="0.64078">
        <ele>128</ele>
        <time>2012-03-23T09:37:13Z</time>
      </trkpt>
      <trkpt lat="48.22003" lon="0.64084">
        <ele>128</ele>
        <time>2012-03-23T09:37:17Z</time>
      </trkpt>
      <trkpt lat="48.22004" lon="0.6409">
        <ele>129</ele>
        <time>2012-03-23T09:37:21Z</time>
      </trkpt>
      <trkpt lat="48.22006" lon="0.64094">
        <ele>131</ele>
        <time>2012-03-23T09:37:25Z</time>
      </trkpt>
      <trkpt lat="48.22007" lon="0.64097">
        <ele>131</ele>
        <time>2012-03-23T09:37:27Z</time>
      </trkpt>
      <trkpt lat="48.22009" lon="0.64101">
        <ele>132</ele>
        <time>2012-03-23T09:37:31Z</time>
      </trkpt>
      <trkpt lat="48.22011" lon="0.64106">
        <ele>132</ele>
        <time>2012-03-23T09:37:35Z</time>
      </trkpt>
      <trkpt lat="48.22012" lon="0.6411">
        <ele>132</ele>
        <time>2012-03-23T09:37:39Z</time>
      </trkpt>
      <trkpt lat="48.22014" lon="0.64115">
        <ele>132</ele>
        <time>2012-03-23T09:37:43Z</time>
      </trkpt>
      <trkpt lat="48.22015" lon="0.64119">
        <ele>133</ele>
        <time>2012-03-23T09:37:47Z</time>
      </trkpt>
      <trkpt lat="48.22016" lon="0.64123">
        <ele>134</ele>
        <time>2012-03-23T09:37:51Z</time>
      </trkpt>
      <trkpt lat="48.22018" lon="0.64127">
        <ele>135</ele>
        <time>2012-03-23T09:37:55Z</time>
      </trkpt>
      <trkpt lat="48.2202" lon="0.64131">
        <ele>135</ele>
        <time>2012-03-23T09:38:00Z</time>
      </trkpt>
      <trkpt lat="48.22023" lon="0.64135">
        <ele>135</ele>
        <time>2012-03-23T09:38:03Z</time>
      </trkpt>
      <trkpt lat="48.22026" lon="0.64137">
        <ele>137</ele>
        <time>2012-03-23T09:38:08Z</time>
      </trkpt>
      <trkpt lat="48.22029" lon="0.64142">
        <ele>138</ele>
        <time>2012-03-23T09:38:12Z</time>
      </trkpt>
      <trkpt lat="48.22032" lon="0.64145">
        <ele>139</ele>
        <time>2012-03-23T09:38:16Z</time>
      </trkpt>
      <trkpt lat="48.22036" lon="0.64151">
        <ele>141</ele>
        <time>2012-03-23T09:38:21Z</time>
      </trkpt>
      <trkpt lat="48.22038" lon="0.64154">
        <ele>141</ele>
        <time>2012-03-23T09:38:25Z</time>
      </trkpt>
      <trkpt lat="48.2204" lon="0.64158">
        <ele>143</ele>
        <time>2012-03-23T09:38:31Z</time>
      </trkpt>
      <trkpt lat="48.22042" lon="0.64162">
        <ele>143</ele>
        <time>2012-03-23T09:38:35Z</time>
      </trkpt>
      <trkpt lat="48.22045" lon="0.64165">
        <ele>143</ele>
        <time>2012-03-23T09:38:40Z</time>
      </trkpt>
      <trkpt lat="48.22046" lon="0.64169">
        <ele>144</ele>
        <time>2012-03-23T09:38:44Z</time>
      </trkpt>
      <trkpt lat="48.22049" lon="0.64173">
        <ele>145</ele>
        <time>2012-03-23T09:38:48Z</time>
      </trkpt>
      <trkpt lat="48.22051" lon="0.64176">
        <ele>145</ele>
        <time>2012-03-23T09:38:51Z</time>
      </trkpt>
      <trkpt lat="48.22055" lon="0.64178">
        <ele>145</ele>
        <time>2012-03-23T09:38:53Z</time>
      </trkpt>
      <trkpt lat="48.22058" lon="0.64181">
        <ele>147</ele>
        <time>2012-03-23T09:38:57Z</time>
      </trkpt>
      <trkpt lat="48.22061" lon="0.64184">
        <ele>148</ele>
        <time>2012-03-23T09:39:00Z</time>
      </trkpt>
      <trkpt lat="48.22063" lon="0.64187">
        <ele>148</ele>
        <time>2012-03-23T09:39:03Z</time>
      </trkpt>
      <trkpt lat="48.22066" lon="0.64192">
        <ele>148</ele>
        <time>2012-03-23T09:39:08Z</time>
      </trkpt>
      <trkpt lat="48.22069" lon="0.64195">
        <ele>148</ele>
        <time>2012-03-23T09:39:13Z</time>
      </trkpt>
      <trkpt lat="48.22072" lon="0.64196">
        <ele>148</ele>
        <time>2012-03-23T09:39:17Z</time>
      </trkpt>
      <trkpt lat="48.22075" lon="0.64197">
        <ele>148</ele>
        <time>2012-03-23T09:39:20Z</time>
      </trkpt>
      <trkpt lat="48.22078" lon="0.642">
        <ele>148</ele>
        <time>2012-03-23T09:39:24Z</time>
      </trkpt>
      <trkpt lat="48.22081" lon="0.64202">
        <ele>148</ele>
        <time>2012-03-23T09:39:28Z</time>
      </trkpt>
      <trkpt lat="48.22084" lon="0.64204">
        <ele>149</ele>
        <time>2012-03-23T09:39:31Z</time>
      </trkpt>
      <trkpt lat="48.22087" lon="0.64206">
        <ele>150</ele>
        <time>2012-03-23T09:39:34Z</time>
      </trkpt>
      <trkpt lat="48.2209" lon="0.64208">
        <ele>150</ele>
        <time>2012-03-23T09:39:37Z</time>
      </trkpt>
      <trkpt lat="48.22093" lon="0.64209">
        <ele>150</ele>
        <time>2012-03-23T09:39:40Z</time>
      </trkpt>
      <trkpt lat="48.22097" lon="0.64212">
        <ele>150</ele>
        <time>2012-03-23T09:39:43Z</time>
      </trkpt>
      <trkpt lat="48.221" lon="0.64214">
        <ele>150</ele>
        <time>2012-03-23T09:39:46Z</time>
      </trkpt>
      <trkpt lat="48.22104" lon="0.64216">
        <ele>150</ele>
        <time>2012-03-23T09:39:49Z</time>
      </trkpt>
      <trkpt lat="48.22107" lon="0.64218">
        <ele>150</ele>
        <time>2012-03-23T09:39:51Z</time>
      </trkpt>
      <trkpt lat="48.2211" lon="0.6422">
        <ele>150</ele>
        <time>2012-03-23T09:39:55Z</time>
      </trkpt>
      <trkpt lat="48.22112" lon="0.64221">
        <ele>150</ele>
        <time>2012-03-23T09:39:57Z</time>
      </trkpt>
      <trkpt lat="48.22115" lon="0.64223">
        <ele>150</ele>
        <time>2012-03-23T09:40:00Z</time>
      </trkpt>
      <trkpt lat="48.22118" lon="0.64224">
        <ele>150</ele>
        <time>2012-03-23T09:40:02Z</time>
      </trkpt>
      <trkpt lat="48.22122" lon="0.64225">
        <ele>150</ele>
        <time>2012-03-23T09:40:06Z</time>
      </trkpt>
      <trkpt lat="48.22125" lon="0.64227">
        <ele>150</ele>
        <time>2012-03-23T09:40:10Z</time>
      </trkpt>
      <trkpt lat="48.22128" lon="0.64229">
        <ele>150</ele>
        <time>2012-03-23T09:40:13Z</time>
      </trkpt>
      <trkpt lat="48.22131" lon="0.6423">
        <ele>150</ele>
        <time>2012-03-23T09:40:16Z</time>
      </trkpt>
      <trkpt lat="48.22134" lon="0.64229">
        <ele>150</ele>
        <time>2012-03-23T09:40:20Z</time>
      </trkpt>
      <trkpt lat="48.22136" lon="0.64228">
        <ele>150</ele>
        <time>2012-03-23T09:40:25Z</time>
      </trkpt>
      <trkpt lat="48.22137" lon="0.64225">
        <ele>150</ele>
        <time>2012-03-23T09:40:32Z</time>
      </trkpt>
      <trkpt lat="48.2214" lon="0.64223">
        <ele>150</ele>
        <time>2012-03-23T09:40:39Z</time>
      </trkpt>
      <trkpt lat="48.22143" lon="0.64221">
        <ele>150</ele>
        <time>2012-03-23T09:40:45Z</time>
      </trkpt>
      <trkpt lat="48.22146" lon="0.64222">
        <ele>150</ele>
        <time>2012-03-23T09:40:50Z</time>
      </trkpt>
      <trkpt lat="48.22149" lon="0.6422">
        <ele>150</ele>
        <time>2012-03-23T09:40:54Z</time>
      </trkpt>
      <trkpt lat="48.22153" lon="0.64219">
        <ele>150</ele>
        <time>2012-03-23T09:40:58Z</time>
      </trkpt>
      <trkpt lat="48.22156" lon="0.64218">
        <ele>150</ele>
        <time>2012-03-23T09:41:01Z</time>
      </trkpt>
      <trkpt lat="48.2216" lon="0.64218">
        <ele>150</ele>
        <time>2012-03-23T09:41:05Z</time>
      </trkpt>
      <trkpt lat="48.22165" lon="0.64219">
        <ele>150</ele>
        <time>2012-03-23T09:41:08Z</time>
      </trkpt>
      <trkpt lat="48.22167" lon="0.6422">
        <ele>150</ele>
        <time>2012-03-23T09:41:10Z</time>
      </trkpt>
      <trkpt lat="48.2217" lon="0.6422">
        <ele>150</ele>
        <time>2012-03-23T09:41:12Z</time>
      </trkpt>
      <trkpt lat="48.22174" lon="0.64221">
        <ele>150</ele>
        <time>2012-03-23T09:41:16Z</time>
      </trkpt>
      <trkpt lat="48.22177" lon="0.64221">
        <ele>150</ele>
        <time>2012-03-23T09:41:19Z</time>
      </trkpt>
      <trkpt lat="48.2218" lon="0.64222">
        <ele>150</ele>
        <time>2012-03-23T09:41:22Z</time>
      </trkpt>
      <trkpt lat="48.22184" lon="0.64223">
        <ele>150</ele>
        <time>2012-03-23T09:41:26Z</time>
      </trkpt>
      <trkpt lat="48.22188" lon="0.64224">
        <ele>150</ele>
        <time>2012-03-23T09:41:30Z</time>
      </trkpt>
      <trkpt lat="48.22192" lon="0.64226">
        <ele>150</ele>
        <time>2012-03-23T09:41:34Z</time>
      </trkpt>
      <trkpt lat="48.22196" lon="0.64227">
        <ele>150</ele>
        <time>2012-03-23T09:41:38Z</time>
      </trkpt>
      <trkpt lat="48.222" lon="0.64228">
        <ele>149</ele>
        <time>2012-03-23T09:41:41Z</time>
      </trkpt>
      <trkpt lat="48.22203" lon="0.64229">
        <ele>149</ele>
        <time>2012-03-23T09:41:44Z</time>
      </trkpt>
      <trkpt lat="48.22207" lon="0.6423">
        <ele>148</ele>
        <time>2012-03-23T09:41:47Z</time>
      </trkpt>
      <trkpt lat="48.2221" lon="0.6423">
        <ele>148</ele>
        <time>2012-03-23T09:41:49Z</time>
      </trkpt>
      <trkpt lat="48.22213" lon="0.64231">
        <ele>148</ele>
        <time>2012-03-23T09:41:51Z</time>
      </trkpt>
      <trkpt lat="48.22216" lon="0.64231">
        <ele>148</ele>
        <time>2012-03-23T09:41:53Z</time>
      </trkpt>
      <trkpt lat="48.22219" lon="0.64232">
        <ele>148</ele>
        <time>2012-03-23T09:41:56Z</time>
      </trkpt>
      <trkpt lat="48.22223" lon="0.64232">
        <ele>148</ele>
        <time>2012-03-23T09:41:58Z</time>
      </trkpt>
      <trkpt lat="48.22226" lon="0.64232">
        <ele>148</ele>
        <time>2012-03-23T09:42:00Z</time>
      </trkpt>
      <trkpt lat="48.22229" lon="0.64232">
        <ele>150</ele>
        <time>2012-03-23T09:42:04Z</time>
      </trkpt>
      <trkpt lat="48.22234" lon="0.64233">
        <ele>151</ele>
        <time>2012-03-23T09:42:08Z</time>
      </trkpt>
      <trkpt lat="48.22237" lon="0.64233">
        <ele>151</ele>
        <time>2012-03-23T09:42:10Z</time>
      </trkpt>
      <trkpt lat="48.2224" lon="0.64234">
        <ele>151</ele>
        <time>2012-03-23T09:42:14Z</time>
      </trkpt>
      <trkpt lat="48.22243" lon="0.64235">
        <ele>151</ele>
        <time>2012-03-23T09:42:17Z</time>
      </trkpt>
      <trkpt lat="48.22247" lon="0.64236">
        <ele>151</ele>
        <time>2012-03-23T09:42:21Z</time>
      </trkpt>
      <trkpt lat="48.22251" lon="0.64237">
        <ele>151</ele>
        <time>2012-03-23T09:42:26Z</time>
      </trkpt>
      <trkpt lat="48.22254" lon="0.64238">
        <ele>151</ele>
        <time>2012-03-23T09:42:29Z</time>
      </trkpt>
      <trkpt lat="48.22258" lon="0.6424">
        <ele>151</ele>
        <time>2012-03-23T09:42:33Z</time>
      </trkpt>
      <trkpt lat="48.22261" lon="0.6424">
        <ele>151</ele>
        <time>2012-03-23T09:42:37Z</time>
      </trkpt>
      <trkpt lat="48.22264" lon="0.6424">
        <ele>151</ele>
        <time>2012-03-23T09:42:40Z</time>
      </trkpt>
      <trkpt lat="48.22267" lon="0.64241">
        <ele>152</ele>
        <time>2012-03-23T09:42:45Z</time>
      </trkpt>
      <trkpt lat="48.22271" lon="0.64241">
        <ele>152</ele>
        <time>2012-03-23T09:42:49Z</time>
      </trkpt>
      <trkpt lat="48.22274" lon="0.64242">
        <ele>152</ele>
        <time>2012-03-23T09:42:53Z</time>
      </trkpt>
      <trkpt lat="48.22278" lon="0.64243">
        <ele>152</ele>
        <time>2012-03-23T09:42:57Z</time>
      </trkpt>
      <trkpt lat="48.22281" lon="0.64244">
        <ele>153</ele>
        <time>2012-03-23T09:43:00Z</time>
      </trkpt>
      <trkpt lat="48.22285" lon="0.64245">
        <ele>153</ele>
        <time>2012-03-23T09:43:03Z</time>
      </trkpt>
      <trkpt lat="48.22289" lon="0.64245">
        <ele>153</ele>
        <time>2012-03-23T09:43:07Z</time>
      </trkpt>
      <trkpt lat="48.22292" lon="0.64245">
        <ele>153</ele>
        <time>2012-03-23T09:43:10Z</time>
      </trkpt>
      <trkpt lat="48.22294" lon="0.64245">
        <ele>153</ele>
        <time>2012-03-23T09:43:12Z</time>
      </trkpt>
      <trkpt lat="48.22299" lon="0.64246">
        <ele>153</ele>
        <time>2012-03-23T09:43:16Z</time>
      </trkpt>
      <trkpt lat="48.22301" lon="0.64246">
        <ele>153</ele>
        <time>2012-03-23T09:43:18Z</time>
      </trkpt>
      <trkpt lat="48.22304" lon="0.64246">
        <ele>153</ele>
        <time>2012-03-23T09:43:20Z</time>
      </trkpt>
      <trkpt lat="48.22306" lon="0.64246">
        <ele>153</ele>
        <time>2012-03-23T09:43:22Z</time>
      </trkpt>
      <trkpt lat="48.22309" lon="0.64247">
        <ele>153</ele>
        <time>2012-03-23T09:43:24Z</time>
      </trkpt>
      <trkpt lat="48.22311" lon="0.64248">
        <ele>154</ele>
        <time>2012-03-23T09:43:26Z</time>
      </trkpt>
      <trkpt lat="48.22314" lon="0.64247">
        <ele>154</ele>
        <time>2012-03-23T09:43:28Z</time>
      </trkpt>
      <trkpt lat="48.22317" lon="0.64246">
        <ele>154</ele>
        <time>2012-03-23T09:43:31Z</time>
      </trkpt>
      <trkpt lat="48.2232" lon="0.64246">
        <ele>154</ele>
        <time>2012-03-23T09:43:33Z</time>
      </trkpt>
      <trkpt lat="48.22322" lon="0.64246">
        <ele>154</ele>
        <time>2012-03-23T09:43:35Z</time>
      </trkpt>
      <trkpt lat="48.22325" lon="0.64246">
        <ele>154</ele>
        <time>2012-03-23T09:43:37Z</time>
      </trkpt>
      <trkpt lat="48.22328" lon="0.64246">
        <ele>154</ele>
        <time>2012-03-23T09:43:39Z</time>
      </trkpt>
      <trkpt lat="48.2233" lon="0.64246">
        <ele>155</ele>
        <time>2012-03-23T09:43:41Z</time>
      </trkpt>
      <trkpt lat="48.22333" lon="0.64246">
        <ele>155</ele>
        <time>2012-03-23T09:43:43Z</time>
      </trkpt>
      <trkpt lat="48.22335" lon="0.64245">
        <ele>156</ele>
        <time>2012-03-23T09:43:45Z</time>
      </trkpt>
      <trkpt lat="48.22338" lon="0.64245">
        <ele>156</ele>
        <time>2012-03-23T09:43:47Z</time>
      </trkpt>
      <trkpt lat="48.2234" lon="0.64246">
        <ele>156</ele>
        <time>2012-03-23T09:43:49Z</time>
      </trkpt>
      <trkpt lat="48.22343" lon="0.64246">
        <ele>157</ele>
        <time>2012-03-23T09:43:51Z</time>
      </trkpt>
      <trkpt lat="48.22345" lon="0.64246">
        <ele>157</ele>
        <time>2012-03-23T09:43:53Z</time>
      </trkpt>
      <trkpt lat="48.22347" lon="0.64246">
        <ele>157</ele>
        <time>2012-03-23T09:43:55Z</time>
      </trkpt>
      <trkpt lat="48.2235" lon="0.64247">
        <ele>157</ele>
        <time>2012-03-23T09:43:57Z</time>
      </trkpt>
      <trkpt lat="48.22352" lon="0.64247">
        <ele>157</ele>
        <time>2012-03-23T09:43:59Z</time>
      </trkpt>
      <trkpt lat="48.22356" lon="0.64248">
        <ele>157</ele>
        <time>2012-03-23T09:44:02Z</time>
      </trkpt>
      <trkpt lat="48.22358" lon="0.64248">
        <ele>157</ele>
        <time>2012-03-23T09:44:04Z</time>
      </trkpt>
      <trkpt lat="48.22361" lon="0.64249">
        <ele>157</ele>
        <time>2012-03-23T09:44:08Z</time>
      </trkpt>
      <trkpt lat="48.22364" lon="0.64249">
        <ele>157</ele>
        <time>2012-03-23T09:44:11Z</time>
      </trkpt>
      <trkpt lat="48.22368" lon="0.6425">
        <ele>157</ele>
        <time>2012-03-23T09:44:15Z</time>
      </trkpt>
      <trkpt lat="48.22372" lon="0.6425">
        <ele>157</ele>
        <time>2012-03-23T09:44:18Z</time>
      </trkpt>
      <trkpt lat="48.22375" lon="0.6425">
        <ele>157</ele>
        <time>2012-03-23T09:44:21Z</time>
      </trkpt>
      <trkpt lat="48.22377" lon="0.64251">
        <ele>157</ele>
        <time>2012-03-23T09:44:23Z</time>
      </trkpt>
      <trkpt lat="48.2238" lon="0.64252">
        <ele>157</ele>
        <time>2012-03-23T09:44:25Z</time>
      </trkpt>
      <trkpt lat="48.22383" lon="0.64253">
        <ele>157</ele>
        <time>2012-03-23T09:44:28Z</time>
      </trkpt>
      <trkpt lat="48.22387" lon="0.64256">
        <ele>157</ele>
        <time>2012-03-23T09:44:32Z</time>
      </trkpt>
      <trkpt lat="48.22391" lon="0.64258">
        <ele>157</ele>
        <time>2012-03-23T09:44:36Z</time>
      </trkpt>
      <trkpt lat="48.22394" lon="0.64258">
        <ele>157</ele>
        <time>2012-03-23T09:44:40Z</time>
      </trkpt>
      <trkpt lat="48.22396" lon="0.64258">
        <ele>157</ele>
        <time>2012-03-23T09:44:44Z</time>
      </trkpt>
      <trkpt lat="48.22401" lon="0.64258">
        <ele>157</ele>
        <time>2012-03-23T09:44:48Z</time>
      </trkpt>
      <trkpt lat="48.22404" lon="0.64258">
        <ele>157</ele>
        <time>2012-03-23T09:44:51Z</time>
      </trkpt>
      <trkpt lat="48.22407" lon="0.64257">
        <ele>157</ele>
        <time>2012-03-23T09:44:55Z</time>
      </trkpt>
      <trkpt lat="48.2241" lon="0.64258">
        <ele>157</ele>
        <time>2012-03-23T09:44:58Z</time>
      </trkpt>
      <trkpt lat="48.22414" lon="0.64257">
        <ele>157</ele>
        <time>2012-03-23T09:45:02Z</time>
      </trkpt>
      <trkpt lat="48.22418" lon="0.64255">
        <ele>157</ele>
        <time>2012-03-23T09:45:06Z</time>
      </trkpt>
      <trkpt lat="48.22421" lon="0.64254">
        <ele>157</ele>
        <time>2012-03-23T09:45:09Z</time>
      </trkpt>
      <trkpt lat="48.22425" lon="0.64254">
        <ele>157</ele>
        <time>2012-03-23T09:45:13Z</time>
      </trkpt>
      <trkpt lat="48.22429" lon="0.64253">
        <ele>157</ele>
        <time>2012-03-23T09:45:17Z</time>
      </trkpt>
      <trkpt lat="48.22432" lon="0.64253">
        <ele>157</ele>
        <time>2012-03-23T09:45:20Z</time>
      </trkpt>
      <trkpt lat="48.22435" lon="0.64253">
        <ele>157</ele>
        <time>2012-03-23T09:45:22Z</time>
      </trkpt>
      <trkpt lat="48.22439" lon="0.64253">
        <ele>157</ele>
        <time>2012-03-23T09:45:26Z</time>
      </trkpt>
      <trkpt lat="48.22443" lon="0.64253">
        <ele>157</ele>
        <time>2012-03-23T09:45:31Z</time>
      </trkpt>
      <trkpt lat="48.22446" lon="0.64253">
        <ele>156</ele>
        <time>2012-03-23T09:45:35Z</time>
      </trkpt>
      <trkpt lat="48.22449" lon="0.64254">
        <ele>156</ele>
        <time>2012-03-23T09:45:38Z</time>
      </trkpt>
      <trkpt lat="48.22454" lon="0.64254">
        <ele>155</ele>
        <time>2012-03-23T09:45:43Z</time>
      </trkpt>
      <trkpt lat="48.22457" lon="0.64254">
        <ele>155</ele>
        <time>2012-03-23T09:45:46Z</time>
      </trkpt>
      <trkpt lat="48.22461" lon="0.64254">
        <ele>155</ele>
        <time>2012-03-23T09:45:50Z</time>
      </trkpt>
      <trkpt lat="48.22465" lon="0.64256">
        <ele>155</ele>
        <time>2012-03-23T09:45:54Z</time>
      </trkpt>
      <trkpt lat="48.22469" lon="0.64257">
        <ele>153</ele>
        <time>2012-03-23T09:45:58Z</time>
      </trkpt>
      <trkpt lat="48.22472" lon="0.64258">
        <ele>153</ele>
        <time>2012-03-23T09:46:01Z</time>
      </trkpt>
      <trkpt lat="48.22476" lon="0.6426">
        <ele>153</ele>
        <time>2012-03-23T09:46:05Z</time>
      </trkpt>
      <trkpt lat="48.2248" lon="0.64259">
        <ele>153</ele>
        <time>2012-03-23T09:46:09Z</time>
      </trkpt>
      <trkpt lat="48.22483" lon="0.64261">
        <ele>153</ele>
        <time>2012-03-23T09:46:13Z</time>
      </trkpt>
      <trkpt lat="48.22486" lon="0.64263">
        <ele>153</ele>
        <time>2012-03-23T09:46:17Z</time>
      </trkpt>
      <trkpt lat="48.22489" lon="0.64263">
        <ele>153</ele>
        <time>2012-03-23T09:46:20Z</time>
      </trkpt>
      <trkpt lat="48.22493" lon="0.64262">
        <ele>153</ele>
        <time>2012-03-23T09:46:23Z</time>
      </trkpt>
      <trkpt lat="48.22496" lon="0.6426">
        <ele>153</ele>
        <time>2012-03-23T09:46:26Z</time>
      </trkpt>
      <trkpt lat="48.22499" lon="0.64259">
        <ele>153</ele>
        <time>2012-03-23T09:46:30Z</time>
      </trkpt>
      <trkpt lat="48.22503" lon="0.64261">
        <ele>153</ele>
        <time>2012-03-23T09:46:34Z</time>
      </trkpt>
      <trkpt lat="48.22507" lon="0.6426">
        <ele>153</ele>
        <time>2012-03-23T09:46:38Z</time>
      </trkpt>
      <trkpt lat="48.22511" lon="0.64261">
        <ele>153</ele>
        <time>2012-03-23T09:46:41Z</time>
      </trkpt>
      <trkpt lat="48.22515" lon="0.64261">
        <ele>153</ele>
        <time>2012-03-23T09:46:45Z</time>
      </trkpt>
      <trkpt lat="48.22519" lon="0.6426">
        <ele>153</ele>
        <time>2012-03-23T09:46:49Z</time>
      </trkpt>
      <trkpt lat="48.22522" lon="0.6426">
        <ele>153</ele>
        <time>2012-03-23T09:46:53Z</time>
      </trkpt>
      <trkpt lat="48.22525" lon="0.6426">
        <ele>153</ele>
        <time>2012-03-23T09:46:55Z</time>
      </trkpt>
      <trkpt lat="48.22528" lon="0.6426">
        <ele>153</ele>
        <time>2012-03-23T09:46:58Z</time>
      </trkpt>
      <trkpt lat="48.2253" lon="0.6426">
        <ele>153</ele>
        <time>2012-03-23T09:47:00Z</time>
      </trkpt>
      <trkpt lat="48.22534" lon="0.6426">
        <ele>153</ele>
        <time>2012-03-23T09:47:03Z</time>
      </trkpt>
      <trkpt lat="48.22537" lon="0.6426">
        <ele>153</ele>
        <time>2012-03-23T09:47:06Z</time>
      </trkpt>
      <trkpt lat="48.22541" lon="0.64261">
        <ele>153</ele>
        <time>2012-03-23T09:47:10Z</time>
      </trkpt>
      <trkpt lat="48.22544" lon="0.64261">
        <ele>153</ele>
        <time>2012-03-23T09:47:13Z</time>
      </trkpt>
      <trkpt lat="48.22547" lon="0.64264">
        <ele>153</ele>
        <time>2012-03-23T09:47:17Z</time>
      </trkpt>
      <trkpt lat="48.22551" lon="0.64262">
        <ele>153</ele>
        <time>2012-03-23T09:47:20Z</time>
      </trkpt>
      <trkpt lat="48.22554" lon="0.64261">
        <ele>154</ele>
        <time>2012-03-23T09:47:23Z</time>
      </trkpt>
      <trkpt lat="48.22558" lon="0.6426">
        <ele>154</ele>
        <time>2012-03-23T09:47:26Z</time>
      </trkpt>
      <trkpt lat="48.2256" lon="0.64259">
        <ele>154</ele>
        <time>2012-03-23T09:47:28Z</time>
      </trkpt>
      <trkpt lat="48.22564" lon="0.6426">
        <ele>155</ele>
        <time>2012-03-23T09:47:32Z</time>
      </trkpt>
      <trkpt lat="48.22567" lon="0.64262">
        <ele>155</ele>
        <time>2012-03-23T09:47:35Z</time>
      </trkpt>
      <trkpt lat="48.22571" lon="0.64262">
        <ele>155</ele>
        <time>2012-03-23T09:47:39Z</time>
      </trkpt>
      <trkpt lat="48.22574" lon="0.64264">
        <ele>155</ele>
        <time>2012-03-23T09:47:43Z</time>
      </trkpt>
      <trkpt lat="48.22578" lon="0.64265">
        <ele>155</ele>
        <time>2012-03-23T09:47:47Z</time>
      </trkpt>
      <trkpt lat="48.2258" lon="0.64265">
        <ele>155</ele>
        <time>2012-03-23T09:47:49Z</time>
      </trkpt>
      <trkpt lat="48.22584" lon="0.64266">
        <ele>155</ele>
        <time>2012-03-23T09:47:53Z</time>
      </trkpt>
      <trkpt lat="48.22588" lon="0.64267">
        <ele>155</ele>
        <time>2012-03-23T09:47:57Z</time>
      </trkpt>
      <trkpt lat="48.2259" lon="0.64267">
        <ele>155</ele>
        <time>2012-03-23T09:47:59Z</time>
      </trkpt>
      <trkpt lat="48.22593" lon="0.64268">
        <ele>155</ele>
        <time>2012-03-23T09:48:02Z</time>
      </trkpt>
      <trkpt lat="48.22597" lon="0.6427">
        <ele>155</ele>
        <time>2012-03-23T09:48:06Z</time>
      </trkpt>
      <trkpt lat="48.226" lon="0.6427">
        <ele>155</ele>
        <time>2012-03-23T09:48:09Z</time>
      </trkpt>
      <trkpt lat="48.22604" lon="0.6427">
        <ele>155</ele>
        <time>2012-03-23T09:48:13Z</time>
      </trkpt>
      <trkpt lat="48.22607" lon="0.6427">
        <ele>155</ele>
        <time>2012-03-23T09:48:16Z</time>
      </trkpt>
      <trkpt lat="48.22611" lon="0.6427">
        <ele>155</ele>
        <time>2012-03-23T09:48:20Z</time>
      </trkpt>
      <trkpt lat="48.22615" lon="0.64268">
        <ele>155</ele>
        <time>2012-03-23T09:48:24Z</time>
      </trkpt>
      <trkpt lat="48.22619" lon="0.64268">
        <ele>155</ele>
        <time>2012-03-23T09:48:28Z</time>
      </trkpt>
      <trkpt lat="48.22623" lon="0.64269">
        <ele>156</ele>
        <time>2012-03-23T09:48:32Z</time>
      </trkpt>
      <trkpt lat="48.22625" lon="0.64269">
        <ele>157</ele>
        <time>2012-03-23T09:48:34Z</time>
      </trkpt>
      <trkpt lat="48.22628" lon="0.64269">
        <ele>157</ele>
        <time>2012-03-23T09:48:36Z</time>
      </trkpt>
      <trkpt lat="48.2263" lon="0.64268">
        <ele>158</ele>
        <time>2012-03-23T09:48:38Z</time>
      </trkpt>
      <trkpt lat="48.22633" lon="0.64268">
        <ele>158</ele>
        <time>2012-03-23T09:48:40Z</time>
      </trkpt>
      <trkpt lat="48.22635" lon="0.64268">
        <ele>158</ele>
        <time>2012-03-23T09:48:42Z</time>
      </trkpt>
      <trkpt lat="48.22638" lon="0.64268">
        <ele>158</ele>
        <time>2012-03-23T09:48:44Z</time>
      </trkpt>
      <trkpt lat="48.2264" lon="0.64268">
        <ele>158</ele>
        <time>2012-03-23T09:48:46Z</time>
      </trkpt>
      <trkpt lat="48.22643" lon="0.64268">
        <ele>159</ele>
        <time>2012-03-23T09:48:49Z</time>
      </trkpt>
      <trkpt lat="48.22646" lon="0.64268">
        <ele>159</ele>
        <time>2012-03-23T09:48:52Z</time>
      </trkpt>
      <trkpt lat="48.2265" lon="0.64268">
        <ele>159</ele>
        <time>2012-03-23T09:48:56Z</time>
      </trkpt>
      <trkpt lat="48.22652" lon="0.64269">
        <ele>159</ele>
        <time>2012-03-23T09:48:58Z</time>
      </trkpt>
      <trkpt lat="48.22655" lon="0.6427">
        <ele>159</ele>
        <time>2012-03-23T09:49:01Z</time>
      </trkpt>
      <trkpt lat="48.22658" lon="0.6427">
        <ele>159</ele>
        <time>2012-03-23T09:49:03Z</time>
      </trkpt>
      <trkpt lat="48.22661" lon="0.6427">
        <ele>159</ele>
        <time>2012-03-23T09:49:06Z</time>
      </trkpt>
      <trkpt lat="48.22664" lon="0.6427">
        <ele>159</ele>
        <time>2012-03-23T09:49:08Z</time>
      </trkpt>
      <trkpt lat="48.22667" lon="0.64271">
        <ele>160</ele>
        <time>2012-03-23T09:49:11Z</time>
      </trkpt>
      <trkpt lat="48.2267" lon="0.64271">
        <ele>161</ele>
        <time>2012-03-23T09:49:14Z</time>
      </trkpt>
      <trkpt lat="48.22673" lon="0.64272">
        <ele>161</ele>
        <time>2012-03-23T09:49:17Z</time>
      </trkpt>
      <trkpt lat="48.22676" lon="0.64272">
        <ele>161</ele>
        <time>2012-03-23T09:49:19Z</time>
      </trkpt>
      <trkpt lat="48.22678" lon="0.64273">
        <ele>162</ele>
        <time>2012-03-23T09:49:21Z</time>
      </trkpt>
      <trkpt lat="48.22684" lon="0.64273">
        <ele>162</ele>
        <time>2012-03-23T09:49:26Z</time>
      </trkpt>
      <trkpt lat="48.22687" lon="0.64274">
        <ele>162</ele>
        <time>2012-03-23T09:49:29Z</time>
      </trkpt>
      <trkpt lat="48.2269" lon="0.64274">
        <ele>163</ele>
        <time>2012-03-23T09:49:32Z</time>
      </trkpt>
      <trkpt lat="48.22693" lon="0.64275">
        <ele>163</ele>
        <time>2012-03-23T09:49:35Z</time>
      </trkpt>
      <trkpt lat="48.22698" lon="0.64276">
        <ele>163</ele>
        <time>2012-03-23T09:49:39Z</time>
      </trkpt>
      <trkpt lat="48.227" lon="0.64277">
        <ele>163</ele>
        <time>2012-03-23T09:49:41Z</time>
      </trkpt>
      <trkpt lat="48.22703" lon="0.64278">
        <ele>163</ele>
        <time>2012-03-23T09:49:44Z</time>
      </trkpt>
      <trkpt lat="48.22705" lon="0.6428">
        <ele>163</ele>
        <time>2012-03-23T09:49:46Z</time>
      </trkpt>
      <trkpt lat="48.22709" lon="0.64281">
        <ele>163</ele>
        <time>2012-03-23T09:49:49Z</time>
      </trkpt>
      <trkpt lat="48.22712" lon="0.64283">
        <ele>163</ele>
        <time>2012-03-23T09:49:53Z</time>
      </trkpt>
      <trkpt lat="48.22715" lon="0.64283">
        <ele>163</ele>
        <time>2012-03-23T09:49:55Z</time>
      </trkpt>
      <trkpt lat="48.22718" lon="0.64284">
        <ele>163</ele>
        <time>2012-03-23T09:49:59Z</time>
      </trkpt>
      <trkpt lat="48.22722" lon="0.64287">
        <ele>162</ele>
        <time>2012-03-23T09:50:03Z</time>
      </trkpt>
      <trkpt lat="48.22727" lon="0.64289">
        <ele>162</ele>
        <time>2012-03-23T09:50:07Z</time>
      </trkpt>
      <trkpt lat="48.2273" lon="0.6429">
        <ele>162</ele>
        <time>2012-03-23T09:50:09Z</time>
      </trkpt>
      <trkpt lat="48.22733" lon="0.6429">
        <ele>162</ele>
        <time>2012-03-23T09:50:11Z</time>
      </trkpt>
      <trkpt lat="48.22736" lon="0.64292">
        <ele>162</ele>
        <time>2012-03-23T09:50:14Z</time>
      </trkpt>
      <trkpt lat="48.22739" lon="0.64293">
        <ele>162</ele>
        <time>2012-03-23T09:50:16Z</time>
      </trkpt>
      <trkpt lat="48.22742" lon="0.64294">
        <ele>162</ele>
        <time>2012-03-23T09:50:18Z</time>
      </trkpt>
      <trkpt lat="48.22745" lon="0.64297">
        <ele>162</ele>
        <time>2012-03-23T09:50:22Z</time>
      </trkpt>
      <trkpt lat="48.22748" lon="0.64301">
        <ele>162</ele>
        <time>2012-03-23T09:50:26Z</time>
      </trkpt>
      <trkpt lat="48.22751" lon="0.64303">
        <ele>162</ele>
        <time>2012-03-23T09:50:30Z</time>
      </trkpt>
      <trkpt lat="48.22755" lon="0.64306">
        <ele>162</ele>
        <time>2012-03-23T09:50:33Z</time>
      </trkpt>
      <trkpt lat="48.22758" lon="0.64308">
        <ele>162</ele>
        <time>2012-03-23T09:50:36Z</time>
      </trkpt>
      <trkpt lat="48.22763" lon="0.64309">
        <ele>162</ele>
        <time>2012-03-23T09:50:39Z</time>
      </trkpt>
      <trkpt lat="48.22766" lon="0.64312">
        <ele>164</ele>
        <time>2012-03-23T09:50:43Z</time>
      </trkpt>
      <trkpt lat="48.2277" lon="0.64314">
        <ele>164</ele>
        <time>2012-03-23T09:50:47Z</time>
      </trkpt>
      <trkpt lat="48.22773" lon="0.64316">
        <ele>164</ele>
        <time>2012-03-23T09:50:49Z</time>
      </trkpt>
      <trkpt lat="48.22776" lon="0.64317">
        <ele>164</ele>
        <time>2012-03-23T09:50:51Z</time>
      </trkpt>
      <trkpt lat="48.2278" lon="0.64319">
        <ele>164</ele>
        <time>2012-03-23T09:50:55Z</time>
      </trkpt>
      <trkpt lat="48.22784" lon="0.6432">
        <ele>164</ele>
        <time>2012-03-23T09:50:59Z</time>
      </trkpt>
      <trkpt lat="48.22786" lon="0.64321">
        <ele>165</ele>
        <time>2012-03-23T09:51:02Z</time>
      </trkpt>
      <trkpt lat="48.22789" lon="0.64323">
        <ele>165</ele>
        <time>2012-03-23T09:51:06Z</time>
      </trkpt>
      <trkpt lat="48.22794" lon="0.64323">
        <ele>165</ele>
        <time>2012-03-23T09:51:10Z</time>
      </trkpt>
      <trkpt lat="48.22796" lon="0.64323">
        <ele>165</ele>
        <time>2012-03-23T09:51:12Z</time>
      </trkpt>
      <trkpt lat="48.228" lon="0.64323">
        <ele>165</ele>
        <time>2012-03-23T09:51:15Z</time>
      </trkpt>
      <trkpt lat="48.22803" lon="0.64322">
        <ele>165</ele>
        <time>2012-03-23T09:51:19Z</time>
      </trkpt>
      <trkpt lat="48.22805" lon="0.64323">
        <ele>165</ele>
        <time>2012-03-23T09:51:21Z</time>
      </trkpt>
      <trkpt lat="48.2281" lon="0.64322">
        <ele>166</ele>
        <time>2012-03-23T09:51:24Z</time>
      </trkpt>
      <trkpt lat="48.22814" lon="0.6432">
        <ele>166</ele>
        <time>2012-03-23T09:51:27Z</time>
      </trkpt>
      <trkpt lat="48.22818" lon="0.64319">
        <ele>168</ele>
        <time>2012-03-23T09:51:30Z</time>
      </trkpt>
      <trkpt lat="48.2282" lon="0.64319">
        <ele>169</ele>
        <time>2012-03-23T09:51:32Z</time>
      </trkpt>
      <trkpt lat="48.22824" lon="0.64318">
        <ele>172</ele>
        <time>2012-03-23T09:51:35Z</time>
      </trkpt>
      <trkpt lat="48.22828" lon="0.64318">
        <ele>175</ele>
        <time>2012-03-23T09:51:38Z</time>
      </trkpt>
      <trkpt lat="48.2283" lon="0.64318">
        <ele>177</ele>
        <time>2012-03-23T09:51:40Z</time>
      </trkpt>
      <trkpt lat="48.22834" lon="0.64316">
        <ele>177</ele>
        <time>2012-03-23T09:51:44Z</time>
      </trkpt>
      <trkpt lat="48.22837" lon="0.64315">
        <ele>177</ele>
        <time>2012-03-23T09:51:46Z</time>
      </trkpt>
      <trkpt lat="48.22839" lon="0.64314">
        <ele>177</ele>
        <time>2012-03-23T09:51:48Z</time>
      </trkpt>
      <trkpt lat="48.22843" lon="0.64311">
        <ele>177</ele>
        <time>2012-03-23T09:51:51Z</time>
      </trkpt>
      <trkpt lat="48.22846" lon="0.64309">
        <ele>177</ele>
        <time>2012-03-23T09:51:54Z</time>
      </trkpt>
      <trkpt lat="48.22849" lon="0.64307">
        <ele>177</ele>
        <time>2012-03-23T09:51:57Z</time>
      </trkpt>
      <trkpt lat="48.22852" lon="0.64305">
        <ele>177</ele>
        <time>2012-03-23T09:52:00Z</time>
      </trkpt>
      <trkpt lat="48.22856" lon="0.64301">
        <ele>177</ele>
        <time>2012-03-23T09:52:04Z</time>
      </trkpt>
      <trkpt lat="48.22858" lon="0.643">
        <ele>177</ele>
        <time>2012-03-23T09:52:06Z</time>
      </trkpt>
      <trkpt lat="48.22861" lon="0.64299">
        <ele>177</ele>
        <time>2012-03-23T09:52:08Z</time>
      </trkpt>
      <trkpt lat="48.22865" lon="0.64298">
        <ele>177</ele>
        <time>2012-03-23T09:52:12Z</time>
      </trkpt>
      <trkpt lat="48.22868" lon="0.64298">
        <ele>176</ele>
        <time>2012-03-23T09:52:15Z</time>
      </trkpt>
      <trkpt lat="48.22873" lon="0.64296">
        <ele>175</ele>
        <time>2012-03-23T09:52:19Z</time>
      </trkpt>
      <trkpt lat="48.22876" lon="0.64293">
        <ele>175</ele>
        <time>2012-03-23T09:52:23Z</time>
      </trkpt>
      <trkpt lat="48.22881" lon="0.64291">
        <ele>173</ele>
        <time>2012-03-23T09:52:27Z</time>
      </trkpt>
      <trkpt lat="48.22883" lon="0.64291">
        <ele>173</ele>
        <time>2012-03-23T09:52:29Z</time>
      </trkpt>
      <trkpt lat="48.22886" lon="0.64291">
        <ele>173</ele>
        <time>2012-03-23T09:52:31Z</time>
      </trkpt>
      <trkpt lat="48.22889" lon="0.6429">
        <ele>173</ele>
        <time>2012-03-23T09:52:33Z</time>
      </trkpt>
      <trkpt lat="48.22892" lon="0.6429">
        <ele>173</ele>
        <time>2012-03-23T09:52:35Z</time>
      </trkpt>
      <trkpt lat="48.22895" lon="0.64289">
        <ele>173</ele>
        <time>2012-03-23T09:52:37Z</time>
      </trkpt>
      <trkpt lat="48.22898" lon="0.64289">
        <ele>173</ele>
        <time>2012-03-23T09:52:39Z</time>
      </trkpt>
      <trkpt lat="48.22901" lon="0.64289">
        <ele>173</ele>
        <time>2012-03-23T09:52:41Z</time>
      </trkpt>
      <trkpt lat="48.22905" lon="0.64289">
        <ele>173</ele>
        <time>2012-03-23T09:52:44Z</time>
      </trkpt>
      <trkpt lat="48.22908" lon="0.6429">
        <ele>173</ele>
        <time>2012-03-23T09:52:46Z</time>
      </trkpt>
      <trkpt lat="48.2291" lon="0.64292">
        <ele>173</ele>
        <time>2012-03-23T09:52:48Z</time>
      </trkpt>
      <trkpt lat="48.22913" lon="0.64293">
        <ele>173</ele>
        <time>2012-03-23T09:52:51Z</time>
      </trkpt>
      <trkpt lat="48.22916" lon="0.64293">
        <ele>171</ele>
        <time>2012-03-23T09:52:53Z</time>
      </trkpt>
      <trkpt lat="48.2292" lon="0.64293">
        <ele>171</ele>
        <time>2012-03-23T09:52:57Z</time>
      </trkpt>
      <trkpt lat="48.22924" lon="0.64294">
        <ele>171</ele>
        <time>2012-03-23T09:53:00Z</time>
      </trkpt>
      <trkpt lat="48.22926" lon="0.64295">
        <ele>170</ele>
        <time>2012-03-23T09:53:02Z</time>
      </trkpt>
      <trkpt lat="48.22928" lon="0.64295">
        <ele>169</ele>
        <time>2012-03-23T09:53:04Z</time>
      </trkpt>
      <trkpt lat="48.22931" lon="0.64294">
        <ele>168</ele>
        <time>2012-03-23T09:53:06Z</time>
      </trkpt>
      <trkpt lat="48.22934" lon="0.64295">
        <ele>168</ele>
        <time>2012-03-23T09:53:08Z</time>
      </trkpt>
      <trkpt lat="48.22937" lon="0.64295">
        <ele>168</ele>
        <time>2012-03-23T09:53:10Z</time>
      </trkpt>
      <trkpt lat="48.22941" lon="0.64296">
        <ele>166</ele>
        <time>2012-03-23T09:53:14Z</time>
      </trkpt>
      <trkpt lat="48.22943" lon="0.64296">
        <ele>166</ele>
        <time>2012-03-23T09:53:16Z</time>
      </trkpt>
      <trkpt lat="48.22947" lon="0.64296">
        <ele>166</ele>
        <time>2012-03-23T09:53:19Z</time>
      </trkpt>
      <trkpt lat="48.2295" lon="0.64294">
        <ele>166</ele>
        <time>2012-03-23T09:53:22Z</time>
      </trkpt>
      <trkpt lat="48.22953" lon="0.64294">
        <ele>166</ele>
        <time>2012-03-23T09:53:24Z</time>
      </trkpt>
      <trkpt lat="48.22957" lon="0.64292">
        <ele>166</ele>
        <time>2012-03-23T09:53:26Z</time>
      </trkpt>
      <trkpt lat="48.2296" lon="0.64292">
        <ele>166</ele>
        <time>2012-03-23T09:53:28Z</time>
      </trkpt>
      <trkpt lat="48.22963" lon="0.64291">
        <ele>166</ele>
        <time>2012-03-23T09:53:30Z</time>
      </trkpt>
      <trkpt lat="48.22967" lon="0.64289">
        <ele>166</ele>
        <time>2012-03-23T09:53:34Z</time>
      </trkpt>
      <trkpt lat="48.22971" lon="0.64288">
        <ele>166</ele>
        <time>2012-03-23T09:53:37Z</time>
      </trkpt>
      <trkpt lat="48.22974" lon="0.64286">
        <ele>166</ele>
        <time>2012-03-23T09:53:40Z</time>
      </trkpt>
      <trkpt lat="48.22977" lon="0.64285">
        <ele>166</ele>
        <time>2012-03-23T09:53:43Z</time>
      </trkpt>
      <trkpt lat="48.22982" lon="0.64282">
        <ele>166</ele>
        <time>2012-03-23T09:53:47Z</time>
      </trkpt>
      <trkpt lat="48.22984" lon="0.64281">
        <ele>166</ele>
        <time>2012-03-23T09:53:49Z</time>
      </trkpt>
      <trkpt lat="48.22987" lon="0.6428">
        <ele>166</ele>
        <time>2012-03-23T09:53:51Z</time>
      </trkpt>
      <trkpt lat="48.2299" lon="0.64278">
        <ele>166</ele>
        <time>2012-03-23T09:53:54Z</time>
      </trkpt>
      <trkpt lat="48.22994" lon="0.64276">
        <ele>166</ele>
        <time>2012-03-23T09:53:57Z</time>
      </trkpt>
      <trkpt lat="48.22996" lon="0.64275">
        <ele>166</ele>
        <time>2012-03-23T09:53:59Z</time>
      </trkpt>
      <trkpt lat="48.22999" lon="0.64272">
        <ele>166</ele>
        <time>2012-03-23T09:54:02Z</time>
      </trkpt>
      <trkpt lat="48.23003" lon="0.64271">
        <ele>166</ele>
        <time>2012-03-23T09:54:04Z</time>
      </trkpt>
      <trkpt lat="48.23005" lon="0.64271">
        <ele>166</ele>
        <time>2012-03-23T09:54:07Z</time>
      </trkpt>
      <trkpt lat="48.23008" lon="0.6427">
        <ele>166</ele>
        <time>2012-03-23T09:54:10Z</time>
      </trkpt>
      <trkpt lat="48.23011" lon="0.64269">
        <ele>166</ele>
        <time>2012-03-23T09:54:12Z</time>
      </trkpt>
      <trkpt lat="48.23014" lon="0.64268">
        <ele>166</ele>
        <time>2012-03-23T09:54:15Z</time>
      </trkpt>
      <trkpt lat="48.23016" lon="0.64268">
        <ele>166</ele>
        <time>2012-03-23T09:54:17Z</time>
      </trkpt>
      <trkpt lat="48.23019" lon="0.64267">
        <ele>166</ele>
        <time>2012-03-23T09:54:19Z</time>
      </trkpt>
      <trkpt lat="48.23021" lon="0.64267">
        <ele>166</ele>
        <time>2012-03-23T09:54:21Z</time>
      </trkpt>
      <trkpt lat="48.23025" lon="0.64266">
        <ele>166</ele>
        <time>2012-03-23T09:54:24Z</time>
      </trkpt>
      <trkpt lat="48.23027" lon="0.64266">
        <ele>166</ele>
        <time>2012-03-23T09:54:26Z</time>
      </trkpt>
      <trkpt lat="48.2303" lon="0.64267">
        <ele>166</ele>
        <time>2012-03-23T09:54:29Z</time>
      </trkpt>
      <trkpt lat="48.23033" lon="0.64267">
        <ele>166</ele>
        <time>2012-03-23T09:54:31Z</time>
      </trkpt>
      <trkpt lat="48.23035" lon="0.64268">
        <ele>166</ele>
        <time>2012-03-23T09:54:33Z</time>
      </trkpt>
      <trkpt lat="48.23037" lon="0.64268">
        <ele>166</ele>
        <time>2012-03-23T09:54:35Z</time>
      </trkpt>
      <trkpt lat="48.2304" lon="0.64269">
        <ele>166</ele>
        <time>2012-03-23T09:54:37Z</time>
      </trkpt>
      <trkpt lat="48.23042" lon="0.64269">
        <ele>166</ele>
        <time>2012-03-23T09:54:39Z</time>
      </trkpt>
      <trkpt lat="48.23046" lon="0.64268">
        <ele>166</ele>
        <time>2012-03-23T09:54:43Z</time>
      </trkpt>
      <trkpt lat="48.23051" lon="0.64266">
        <ele>165</ele>
        <time>2012-03-23T09:54:48Z</time>
      </trkpt>
      <trkpt lat="48.23055" lon="0.64264">
        <ele>165</ele>
        <time>2012-03-23T09:54:52Z</time>
      </trkpt>
      <trkpt lat="48.23058" lon="0.64262">
        <ele>164</ele>
        <time>2012-03-23T09:54:55Z</time>
      </trkpt>
      <trkpt lat="48.23062" lon="0.64261">
        <ele>163</ele>
        <time>2012-03-23T09:54:59Z</time>
      </trkpt>
      <trkpt lat="48.23064" lon="0.64259">
        <ele>163</ele>
        <time>2012-03-23T09:55:01Z</time>
      </trkpt>
      <trkpt lat="48.23068" lon="0.64257">
        <ele>163</ele>
        <time>2012-03-23T09:55:05Z</time>
      </trkpt>
      <trkpt lat="48.23071" lon="0.64256">
        <ele>162</ele>
        <time>2012-03-23T09:55:07Z</time>
      </trkpt>
      <trkpt lat="48.23073" lon="0.64255">
        <ele>161</ele>
        <time>2012-03-23T09:55:09Z</time>
      </trkpt>
      <trkpt lat="48.23077" lon="0.64253">
        <ele>159</ele>
        <time>2012-03-23T09:55:13Z</time>
      </trkpt>
      <trkpt lat="48.23081" lon="0.64252">
        <ele>158</ele>
        <time>2012-03-23T09:55:16Z</time>
      </trkpt>
      <trkpt lat="48.23083" lon="0.64252">
        <ele>158</ele>
        <time>2012-03-23T09:55:18Z</time>
      </trkpt>
      <trkpt lat="48.23087" lon="0.64252">
        <ele>158</ele>
        <time>2012-03-23T09:55:21Z</time>
      </trkpt>
      <trkpt lat="48.2309" lon="0.64251">
        <ele>158</ele>
        <time>2012-03-23T09:55:24Z</time>
      </trkpt>
      <trkpt lat="48.23095" lon="0.6425">
        <ele>158</ele>
        <time>2012-03-23T09:55:28Z</time>
      </trkpt>
      <trkpt lat="48.23098" lon="0.64249">
        <ele>158</ele>
        <time>2012-03-23T09:55:32Z</time>
      </trkpt>
      <trkpt lat="48.23102" lon="0.64248">
        <ele>158</ele>
        <time>2012-03-23T09:55:35Z</time>
      </trkpt>
      <trkpt lat="48.23106" lon="0.64246">
        <ele>158</ele>
        <time>2012-03-23T09:55:38Z</time>
      </trkpt>
      <trkpt lat="48.23109" lon="0.64245">
        <ele>158</ele>
        <time>2012-03-23T09:55:41Z</time>
      </trkpt>
      <trkpt lat="48.23112" lon="0.64245">
        <ele>158</ele>
        <time>2012-03-23T09:55:43Z</time>
      </trkpt>
      <trkpt lat="48.23115" lon="0.64244">
        <ele>157</ele>
        <time>2012-03-23T09:55:46Z</time>
      </trkpt>
      <trkpt lat="48.23117" lon="0.64244">
        <ele>157</ele>
        <time>2012-03-23T09:55:48Z</time>
      </trkpt>
      <trkpt lat="48.2312" lon="0.64244">
        <ele>157</ele>
        <time>2012-03-23T09:55:50Z</time>
      </trkpt>
      <trkpt lat="48.23122" lon="0.64243">
        <ele>157</ele>
        <time>2012-03-23T09:55:52Z</time>
      </trkpt>
      <trkpt lat="48.23124" lon="0.64243">
        <ele>157</ele>
        <time>2012-03-23T09:55:54Z</time>
      </trkpt>
      <trkpt lat="48.23127" lon="0.64242">
        <ele>157</ele>
        <time>2012-03-23T09:55:56Z</time>
      </trkpt>
      <trkpt lat="48.2313" lon="0.64241">
        <ele>157</ele>
        <time>2012-03-23T09:55:58Z</time>
      </trkpt>
      <trkpt lat="48.23133" lon="0.6424">
        <ele>157</ele>
        <time>2012-03-23T09:56:00Z</time>
      </trkpt>
      <trkpt lat="48.23136" lon="0.6424">
        <ele>157</ele>
        <time>2012-03-23T09:56:02Z</time>
      </trkpt>
      <trkpt lat="48.23138" lon="0.64239">
        <ele>157</ele>
        <time>2012-03-23T09:56:04Z</time>
      </trkpt>
      <trkpt lat="48.23141" lon="0.64238">
        <ele>157</ele>
        <time>2012-03-23T09:56:06Z</time>
      </trkpt>
      <trkpt lat="48.23143" lon="0.64237">
        <ele>157</ele>
        <time>2012-03-23T09:56:08Z</time>
      </trkpt>
      <trkpt lat="48.23146" lon="0.64236">
        <ele>157</ele>
        <time>2012-03-23T09:56:10Z</time>
      </trkpt>
      <trkpt lat="48.23148" lon="0.64235">
        <ele>157</ele>
        <time>2012-03-23T09:56:12Z</time>
      </trkpt>
      <trkpt lat="48.23151" lon="0.64232">
        <ele>157</ele>
        <time>2012-03-23T09:56:15Z</time>
      </trkpt>
      <trkpt lat="48.23154" lon="0.64231">
        <ele>157</ele>
        <time>2012-03-23T09:56:17Z</time>
      </trkpt>
      <trkpt lat="48.23156" lon="0.64229">
        <ele>158</ele>
        <time>2012-03-23T09:56:19Z</time>
      </trkpt>
      <trkpt lat="48.23159" lon="0.64226">
        <ele>158</ele>
        <time>2012-03-23T09:56:22Z</time>
      </trkpt>
      <trkpt lat="48.23162" lon="0.64223">
        <ele>159</ele>
        <time>2012-03-23T09:56:25Z</time>
      </trkpt>
      <trkpt lat="48.23165" lon="0.64219">
        <ele>159</ele>
        <time>2012-03-23T09:56:28Z</time>
      </trkpt>
      <trkpt lat="48.23169" lon="0.64214">
        <ele>159</ele>
        <time>2012-03-23T09:56:32Z</time>
      </trkpt>
      <trkpt lat="48.23172" lon="0.64209">
        <ele>159</ele>
        <time>2012-03-23T09:56:36Z</time>
      </trkpt>
      <trkpt lat="48.23176" lon="0.64203">
        <ele>159</ele>
        <time>2012-03-23T09:56:40Z</time>
      </trkpt>
      <trkpt lat="48.23179" lon="0.64198">
        <ele>159</ele>
        <time>2012-03-23T09:56:44Z</time>
      </trkpt>
      <trkpt lat="48.23183" lon="0.64193">
        <ele>159</ele>
        <time>2012-03-23T09:56:48Z</time>
      </trkpt>
      <trkpt lat="48.23186" lon="0.64188">
        <ele>159</ele>
        <time>2012-03-23T09:56:52Z</time>
      </trkpt>
      <trkpt lat="48.23189" lon="0.64183">
        <ele>159</ele>
        <time>2012-03-23T09:56:56Z</time>
      </trkpt>
      <trkpt lat="48.23192" lon="0.64177">
        <ele>160</ele>
        <time>2012-03-23T09:57:00Z</time>
      </trkpt>
      <trkpt lat="48.23195" lon="0.64171">
        <ele>160</ele>
        <time>2012-03-23T09:57:04Z</time>
      </trkpt>
      <trkpt lat="48.23198" lon="0.64166">
        <ele>160</ele>
        <time>2012-03-23T09:57:07Z</time>
      </trkpt>
      <trkpt lat="48.23201" lon="0.64161">
        <ele>160</ele>
        <time>2012-03-23T09:57:11Z</time>
      </trkpt>
      <trkpt lat="48.23203" lon="0.64155">
        <ele>161</ele>
        <time>2012-03-23T09:57:15Z</time>
      </trkpt>
      <trkpt lat="48.23206" lon="0.64148">
        <ele>161</ele>
        <time>2012-03-23T09:57:19Z</time>
      </trkpt>
      <trkpt lat="48.23209" lon="0.64143">
        <ele>161</ele>
        <time>2012-03-23T09:57:23Z</time>
      </trkpt>
      <trkpt lat="48.23212" lon="0.64138">
        <ele>161</ele>
        <time>2012-03-23T09:57:27Z</time>
      </trkpt>
      <trkpt lat="48.23215" lon="0.64132">
        <ele>161</ele>
        <time>2012-03-23T09:57:31Z</time>
      </trkpt>
      <trkpt lat="48.23216" lon="0.64127">
        <ele>161</ele>
        <time>2012-03-23T09:57:35Z</time>
      </trkpt>
      <trkpt lat="48.23215" lon="0.64123">
        <ele>161</ele>
        <time>2012-03-23T09:57:44Z</time>
      </trkpt>
      <trkpt lat="48.23214" lon="0.64119">
        <ele>161</ele>
        <time>2012-03-23T09:57:48Z</time>
      </trkpt>
      <trkpt lat="48.23214" lon="0.64113">
        <ele>161</ele>
        <time>2012-03-23T09:57:52Z</time>
      </trkpt>
      <trkpt lat="48.23216" lon="0.6411">
        <ele>161</ele>
        <time>2012-03-23T09:57:56Z</time>
      </trkpt>
      <trkpt lat="48.23215" lon="0.64107">
        <ele>161</ele>
        <time>2012-03-23T09:58:06Z</time>
      </trkpt>
      <trkpt lat="48.23217" lon="0.64103">
        <ele>163</ele>
        <time>2012-03-23T09:58:15Z</time>
      </trkpt>
      <trkpt lat="48.23218" lon="0.641">
        <ele>163</ele>
        <time>2012-03-23T09:58:21Z</time>
      </trkpt>
      <trkpt lat="48.23219" lon="0.64097">
        <ele>163</ele>
        <time>2012-03-23T09:58:36Z</time>
      </trkpt>
      <trkpt lat="48.23219" lon="0.64093">
        <ele>163</ele>
        <time>2012-03-23T09:58:44Z</time>
      </trkpt>
      <trkpt lat="48.2322" lon="0.6409">
        <ele>163</ele>
        <time>2012-03-23T09:58:53Z</time>
      </trkpt>
      <trkpt lat="48.23221" lon="0.64085">
        <ele>163</ele>
        <time>2012-03-23T09:59:00Z</time>
      </trkpt>
      <trkpt lat="48.23222" lon="0.64082">
        <ele>163</ele>
        <time>2012-03-23T09:59:09Z</time>
      </trkpt>
      <trkpt lat="48.23222" lon="0.64077">
        <ele>163</ele>
        <time>2012-03-23T09:59:13Z</time>
      </trkpt>
      <trkpt lat="48.23223" lon="0.64073">
        <ele>163</ele>
        <time>2012-03-23T09:59:17Z</time>
      </trkpt>
      <trkpt lat="48.23223" lon="0.6407">
        <ele>163</ele>
        <time>2012-03-23T09:59:21Z</time>
      </trkpt>
      <trkpt lat="48.23223" lon="0.64065">
        <ele>163</ele>
        <time>2012-03-23T09:59:25Z</time>
      </trkpt>
      <trkpt lat="48.23223" lon="0.6406">
        <ele>162</ele>
        <time>2012-03-23T09:59:29Z</time>
      </trkpt>
      <trkpt lat="48.23222" lon="0.64056">
        <ele>161</ele>
        <time>2012-03-23T09:59:33Z</time>
      </trkpt>
      <trkpt lat="48.23221" lon="0.64052">
        <ele>161</ele>
        <time>2012-03-23T09:59:37Z</time>
      </trkpt>
      <trkpt lat="48.23221" lon="0.64048">
        <ele>161</ele>
        <time>2012-03-23T09:59:41Z</time>
      </trkpt>
      <trkpt lat="48.23221" lon="0.64043">
        <ele>161</ele>
        <time>2012-03-23T09:59:45Z</time>
      </trkpt>
      <trkpt lat="48.2322" lon="0.64037">
        <ele>161</ele>
        <time>2012-03-23T09:59:49Z</time>
      </trkpt>
      <trkpt lat="48.23219" lon="0.64033">
        <ele>161</ele>
        <time>2012-03-23T09:59:52Z</time>
      </trkpt>
      <trkpt lat="48.23218" lon="0.64027">
        <ele>161</ele>
        <time>2012-03-23T09:59:56Z</time>
      </trkpt>
      <trkpt lat="48.23217" lon="0.64022">
        <ele>161</ele>
        <time>2012-03-23T09:59:59Z</time>
      </trkpt>
      <trkpt lat="48.23216" lon="0.64017">
        <ele>161</ele>
        <time>2012-03-23T10:00:02Z</time>
      </trkpt>
      <trkpt lat="48.23215" lon="0.64013">
        <ele>161</ele>
        <time>2012-03-23T10:00:05Z</time>
      </trkpt>
      <trkpt lat="48.23215" lon="0.64008">
        <ele>161</ele>
        <time>2012-03-23T10:00:08Z</time>
      </trkpt>
      <trkpt lat="48.23214" lon="0.64002">
        <ele>161</ele>
        <time>2012-03-23T10:00:12Z</time>
      </trkpt>
      <trkpt lat="48.23212" lon="0.63998">
        <ele>161</ele>
        <time>2012-03-23T10:00:15Z</time>
      </trkpt>
      <trkpt lat="48.23212" lon="0.63993">
        <ele>160</ele>
        <time>2012-03-23T10:00:20Z</time>
      </trkpt>
      <trkpt lat="48.23211" lon="0.63988">
        <ele>160</ele>
        <time>2012-03-23T10:00:24Z</time>
      </trkpt>
      <trkpt lat="48.23209" lon="0.63984">
        <ele>160</ele>
        <time>2012-03-23T10:00:29Z</time>
      </trkpt>
      <trkpt lat="48.23208" lon="0.6398">
        <ele>160</ele>
        <time>2012-03-23T10:00:33Z</time>
      </trkpt>
      <trkpt lat="48.23207" lon="0.63974">
        <ele>160</ele>
        <time>2012-03-23T10:00:37Z</time>
      </trkpt>
      <trkpt lat="48.23206" lon="0.63971">
        <ele>160</ele>
        <time>2012-03-23T10:00:40Z</time>
      </trkpt>
      <trkpt lat="48.23205" lon="0.63967">
        <ele>160</ele>
        <time>2012-03-23T10:00:43Z</time>
      </trkpt>
      <trkpt lat="48.23204" lon="0.63961">
        <ele>160</ele>
        <time>2012-03-23T10:00:47Z</time>
      </trkpt>
      <trkpt lat="48.23203" lon="0.63956">
        <ele>160</ele>
        <time>2012-03-23T10:00:51Z</time>
      </trkpt>
      <trkpt lat="48.23201" lon="0.63951">
        <ele>160</ele>
        <time>2012-03-23T10:00:54Z</time>
      </trkpt>
      <trkpt lat="48.232" lon="0.63946">
        <ele>160</ele>
        <time>2012-03-23T10:00:58Z</time>
      </trkpt>
      <trkpt lat="48.23198" lon="0.63941">
        <ele>160</ele>
        <time>2012-03-23T10:01:02Z</time>
      </trkpt>
      <trkpt lat="48.23196" lon="0.63936">
        <ele>160</ele>
        <time>2012-03-23T10:01:05Z</time>
      </trkpt>
      <trkpt lat="48.23196" lon="0.63931">
        <ele>160</ele>
        <time>2012-03-23T10:01:08Z</time>
      </trkpt>
      <trkpt lat="48.23194" lon="0.63926">
        <ele>160</ele>
        <time>2012-03-23T10:01:12Z</time>
      </trkpt>
      <trkpt lat="48.23191" lon="0.63921">
        <ele>160</ele>
        <time>2012-03-23T10:01:16Z</time>
      </trkpt>
      <trkpt lat="48.23188" lon="0.63918">
        <ele>160</ele>
        <time>2012-03-23T10:01:21Z</time>
      </trkpt>
      <trkpt lat="48.23185" lon="0.63915">
        <ele>160</ele>
        <time>2012-03-23T10:01:30Z</time>
      </trkpt>
      <trkpt lat="48.23185" lon="0.63913">
        <ele>161</ele>
        <time>2012-03-23T10:02:20Z</time>
      </trkpt>
      <trkpt lat="48.23183" lon="0.63911">
        <ele>161</ele>
        <time>2012-03-23T10:03:11Z</time>
      </trkpt>
      <trkpt lat="48.23186" lon="0.63909">
        <ele>161</ele>
        <time>2012-03-23T10:03:57Z</time>
      </trkpt>
      <trkpt lat="48.23183" lon="0.63907">
        <ele>162</ele>
        <time>2012-03-23T10:04:17Z</time>
      </trkpt>
      <trkpt lat="48.23181" lon="0.63905">
        <ele>162</ele>
        <time>2012-03-23T10:04:26Z</time>
      </trkpt>
      <trkpt lat="48.23179" lon="0.63903">
        <ele>162</ele>
        <time>2012-03-23T10:04:31Z</time>
      </trkpt>
      <trkpt lat="48.23176" lon="0.63901">
        <ele>162</ele>
        <time>2012-03-23T10:04:36Z</time>
      </trkpt>
      <trkpt lat="48.23173" lon="0.63898">
        <ele>162</ele>
        <time>2012-03-23T10:04:40Z</time>
      </trkpt>
      <trkpt lat="48.2317" lon="0.63896">
        <ele>162</ele>
        <time>2012-03-23T10:04:44Z</time>
      </trkpt>
      <trkpt lat="48.23167" lon="0.63892">
        <ele>162</ele>
        <time>2012-03-23T10:04:48Z</time>
      </trkpt>
      <trkpt lat="48.23164" lon="0.63889">
        <ele>162</ele>
        <time>2012-03-23T10:04:52Z</time>
      </trkpt>
      <trkpt lat="48.23161" lon="0.63887">
        <ele>162</ele>
        <time>2012-03-23T10:04:56Z</time>
      </trkpt>
      <trkpt lat="48.23158" lon="0.63883">
        <ele>162</ele>
        <time>2012-03-23T10:05:00Z</time>
      </trkpt>
      <trkpt lat="48.23155" lon="0.6388">
        <ele>162</ele>
        <time>2012-03-23T10:05:03Z</time>
      </trkpt>
      <trkpt lat="48.23152" lon="0.63877">
        <ele>162</ele>
        <time>2012-03-23T10:05:07Z</time>
      </trkpt>
      <trkpt lat="48.23149" lon="0.63873">
        <ele>162</ele>
        <time>2012-03-23T10:05:11Z</time>
      </trkpt>
      <trkpt lat="48.23146" lon="0.63868">
        <ele>162</ele>
        <time>2012-03-23T10:05:15Z</time>
      </trkpt>
      <trkpt lat="48.23144" lon="0.63865">
        <ele>159</ele>
        <time>2012-03-23T10:05:19Z</time>
      </trkpt>
      <trkpt lat="48.23142" lon="0.63861">
        <ele>159</ele>
        <time>2012-03-23T10:05:23Z</time>
      </trkpt>
      <trkpt lat="48.2314" lon="0.63856">
        <ele>159</ele>
        <time>2012-03-23T10:05:28Z</time>
      </trkpt>
      <trkpt lat="48.23138" lon="0.63851">
        <ele>159</ele>
        <time>2012-03-23T10:05:32Z</time>
      </trkpt>
      <trkpt lat="48.23135" lon="0.63846">
        <ele>158</ele>
        <time>2012-03-23T10:05:36Z</time>
      </trkpt>
      <trkpt lat="48.23132" lon="0.6384">
        <ele>158</ele>
        <time>2012-03-23T10:05:40Z</time>
      </trkpt>
      <trkpt lat="48.23131" lon="0.63835">
        <ele>158</ele>
        <time>2012-03-23T10:05:44Z</time>
      </trkpt>
      <trkpt lat="48.23129" lon="0.63831">
        <ele>158</ele>
        <time>2012-03-23T10:05:48Z</time>
      </trkpt>
      <trkpt lat="48.23127" lon="0.63827">
        <ele>158</ele>
        <time>2012-03-23T10:05:52Z</time>
      </trkpt>
      <trkpt lat="48.23124" lon="0.63824">
        <ele>158</ele>
        <time>2012-03-23T10:05:56Z</time>
      </trkpt>
      <trkpt lat="48.23121" lon="0.6382">
        <ele>158</ele>
        <time>2012-03-23T10:06:01Z</time>
      </trkpt>
      <trkpt lat="48.23118" lon="0.63817">
        <ele>157</ele>
        <time>2012-03-23T10:06:06Z</time>
      </trkpt>
      <trkpt lat="48.23116" lon="0.63814">
        <ele>157</ele>
        <time>2012-03-23T10:06:10Z</time>
      </trkpt>
      <trkpt lat="48.23114" lon="0.6381">
        <ele>156</ele>
        <time>2012-03-23T10:06:14Z</time>
      </trkpt>
      <trkpt lat="48.23111" lon="0.63807">
        <ele>156</ele>
        <time>2012-03-23T10:06:18Z</time>
      </trkpt>
      <trkpt lat="48.23109" lon="0.63803">
        <ele>156</ele>
        <time>2012-03-23T10:06:22Z</time>
      </trkpt>
      <trkpt lat="48.23106" lon="0.63798">
        <ele>156</ele>
        <time>2012-03-23T10:06:27Z</time>
      </trkpt>
      <trkpt lat="48.23103" lon="0.63794">
        <ele>155</ele>
        <time>2012-03-23T10:06:32Z</time>
      </trkpt>
      <trkpt lat="48.23101" lon="0.6379">
        <ele>155</ele>
        <time>2012-03-23T10:06:35Z</time>
      </trkpt>
      <trkpt lat="48.23099" lon="0.63786">
        <ele>154</ele>
        <time>2012-03-23T10:06:38Z</time>
      </trkpt>
      <trkpt lat="48.23096" lon="0.63782">
        <ele>154</ele>
        <time>2012-03-23T10:06:42Z</time>
      </trkpt>
      <trkpt lat="48.23094" lon="0.63778">
        <ele>152</ele>
        <time>2012-03-23T10:06:46Z</time>
      </trkpt>
      <trkpt lat="48.23092" lon="0.63773">
        <ele>152</ele>
        <time>2012-03-23T10:06:50Z</time>
      </trkpt>
      <trkpt lat="48.2309" lon="0.63768">
        <ele>152</ele>
        <time>2012-03-23T10:06:54Z</time>
      </trkpt>
      <trkpt lat="48.23087" lon="0.63763">
        <ele>152</ele>
        <time>2012-03-23T10:06:58Z</time>
      </trkpt>
      <trkpt lat="48.23085" lon="0.63758">
        <ele>152</ele>
        <time>2012-03-23T10:07:01Z</time>
      </trkpt>
      <trkpt lat="48.23082" lon="0.63753">
        <ele>150</ele>
        <time>2012-03-23T10:07:05Z</time>
      </trkpt>
      <trkpt lat="48.2308" lon="0.63748">
        <ele>149</ele>
        <time>2012-03-23T10:07:09Z</time>
      </trkpt>
      <trkpt lat="48.23077" lon="0.63742">
        <ele>147</ele>
        <time>2012-03-23T10:07:13Z</time>
      </trkpt>
      <trkpt lat="48.23075" lon="0.63737">
        <ele>146</ele>
        <time>2012-03-23T10:07:17Z</time>
      </trkpt>
      <trkpt lat="48.23072" lon="0.63732">
        <ele>145</ele>
        <time>2012-03-23T10:07:21Z</time>
      </trkpt>
      <trkpt lat="48.23071" lon="0.63728">
        <ele>145</ele>
        <time>2012-03-23T10:07:23Z</time>
      </trkpt>
      <trkpt lat="48.2307" lon="0.63724">
        <ele>145</ele>
        <time>2012-03-23T10:07:26Z</time>
      </trkpt>
      <trkpt lat="48.23069" lon="0.6372">
        <ele>144</ele>
        <time>2012-03-23T10:07:30Z</time>
      </trkpt>
      <trkpt lat="48.23065" lon="0.63716">
        <ele>142</ele>
        <time>2012-03-23T10:07:34Z</time>
      </trkpt>
      <trkpt lat="48.23063" lon="0.63712">
        <ele>142</ele>
        <time>2012-03-23T10:07:37Z</time>
      </trkpt>
      <trkpt lat="48.23061" lon="0.63707">
        <ele>141</ele>
        <time>2012-03-23T10:07:41Z</time>
      </trkpt>
      <trkpt lat="48.23058" lon="0.63703">
        <ele>139</ele>
        <time>2012-03-23T10:07:45Z</time>
      </trkpt>
      <trkpt lat="48.23055" lon="0.63699">
        <ele>136</ele>
        <time>2012-03-23T10:07:49Z</time>
      </trkpt>
      <trkpt lat="48.23054" lon="0.63696">
        <ele>135</ele>
        <time>2012-03-23T10:07:51Z</time>
      </trkpt>
      <trkpt lat="48.23054" lon="0.63691">
        <ele>134</ele>
        <time>2012-03-23T10:07:54Z</time>
      </trkpt>
      <trkpt lat="48.23055" lon="0.63687">
        <ele>134</ele>
        <time>2012-03-23T10:07:58Z</time>
      </trkpt>
      <trkpt lat="48.23058" lon="0.63682">
        <ele>134</ele>
        <time>2012-03-23T10:08:03Z</time>
      </trkpt>
      <trkpt lat="48.23061" lon="0.6368">
        <ele>134</ele>
        <time>2012-03-23T10:08:06Z</time>
      </trkpt>
      <trkpt lat="48.23064" lon="0.63677">
        <ele>134</ele>
        <time>2012-03-23T10:08:09Z</time>
      </trkpt>
      <trkpt lat="48.23067" lon="0.63677">
        <ele>134</ele>
        <time>2012-03-23T10:08:11Z</time>
      </trkpt>
      <trkpt lat="48.2307" lon="0.63675">
        <ele>134</ele>
        <time>2012-03-23T10:08:13Z</time>
      </trkpt>
      <trkpt lat="48.23074" lon="0.63673">
        <ele>134</ele>
        <time>2012-03-23T10:08:17Z</time>
      </trkpt>
      <trkpt lat="48.23076" lon="0.63671">
        <ele>134</ele>
        <time>2012-03-23T10:08:20Z</time>
      </trkpt>
      <trkpt lat="48.23079" lon="0.63669">
        <ele>134</ele>
        <time>2012-03-23T10:08:23Z</time>
      </trkpt>
      <trkpt lat="48.23082" lon="0.63668">
        <ele>134</ele>
        <time>2012-03-23T10:08:25Z</time>
      </trkpt>
      <trkpt lat="48.23085" lon="0.63668">
        <ele>133</ele>
        <time>2012-03-23T10:08:29Z</time>
      </trkpt>
      <trkpt lat="48.23089" lon="0.63667">
        <ele>131</ele>
        <time>2012-03-23T10:08:33Z</time>
      </trkpt>
      <trkpt lat="48.23092" lon="0.63667">
        <ele>130</ele>
        <time>2012-03-23T10:08:37Z</time>
      </trkpt>
      <trkpt lat="48.23096" lon="0.63668">
        <ele>129</ele>
        <time>2012-03-23T10:08:40Z</time>
      </trkpt>
      <trkpt lat="48.231" lon="0.63669">
        <ele>127</ele>
        <time>2012-03-23T10:08:44Z</time>
      </trkpt>
      <trkpt lat="48.23103" lon="0.63669">
        <ele>127</ele>
        <time>2012-03-23T10:08:47Z</time>
      </trkpt>
      <trkpt lat="48.23107" lon="0.63668">
        <ele>127</ele>
        <time>2012-03-23T10:08:49Z</time>
      </trkpt>
      <trkpt lat="48.23112" lon="0.63665">
        <ele>127</ele>
        <time>2012-03-23T10:08:54Z</time>
      </trkpt>
      <trkpt lat="48.23114" lon="0.63662">
        <ele>127</ele>
        <time>2012-03-23T10:08:58Z</time>
      </trkpt>
      <trkpt lat="48.23117" lon="0.63659">
        <ele>127</ele>
        <time>2012-03-23T10:09:01Z</time>
      </trkpt>
      <trkpt lat="48.2312" lon="0.63657">
        <ele>127</ele>
        <time>2012-03-23T10:09:03Z</time>
      </trkpt>
      <trkpt lat="48.23123" lon="0.63654">
        <ele>127</ele>
        <time>2012-03-23T10:09:06Z</time>
      </trkpt>
      <trkpt lat="48.23125" lon="0.6365">
        <ele>127</ele>
        <time>2012-03-23T10:09:10Z</time>
      </trkpt>
      <trkpt lat="48.23128" lon="0.63646">
        <ele>127</ele>
        <time>2012-03-23T10:09:14Z</time>
      </trkpt>
      <trkpt lat="48.23132" lon="0.63643">
        <ele>127</ele>
        <time>2012-03-23T10:09:18Z</time>
      </trkpt>
      <trkpt lat="48.23135" lon="0.63639">
        <ele>127</ele>
        <time>2012-03-23T10:09:22Z</time>
      </trkpt>
      <trkpt lat="48.23137" lon="0.63634">
        <ele>127</ele>
        <time>2012-03-23T10:09:26Z</time>
      </trkpt>
      <trkpt lat="48.2314" lon="0.63629">
        <ele>127</ele>
        <time>2012-03-23T10:09:30Z</time>
      </trkpt>
      <trkpt lat="48.23143" lon="0.63627">
        <ele>125</ele>
        <time>2012-03-23T10:09:33Z</time>
      </trkpt>
      <trkpt lat="48.23146" lon="0.63623">
        <ele>124</ele>
        <time>2012-03-23T10:09:37Z</time>
      </trkpt>
      <trkpt lat="48.23148" lon="0.6362">
        <ele>124</ele>
        <time>2012-03-23T10:09:40Z</time>
      </trkpt>
      <trkpt lat="48.2315" lon="0.63616">
        <ele>124</ele>
        <time>2012-03-23T10:09:43Z</time>
      </trkpt>
      <trkpt lat="48.23153" lon="0.63611">
        <ele>124</ele>
        <time>2012-03-23T10:09:46Z</time>
      </trkpt>
      <trkpt lat="48.23155" lon="0.63609">
        <ele>124</ele>
        <time>2012-03-23T10:09:48Z</time>
      </trkpt>
      <trkpt lat="48.23158" lon="0.63607">
        <ele>124</ele>
        <time>2012-03-23T10:09:51Z</time>
      </trkpt>
      <trkpt lat="48.23161" lon="0.63604">
        <ele>124</ele>
        <time>2012-03-23T10:09:55Z</time>
      </trkpt>
      <trkpt lat="48.23164" lon="0.63602">
        <ele>124</ele>
        <time>2012-03-23T10:09:59Z</time>
      </trkpt>
      <trkpt lat="48.23167" lon="0.63599">
        <ele>120</ele>
        <time>2012-03-23T10:10:03Z</time>
      </trkpt>
      <trkpt lat="48.2317" lon="0.63596">
        <ele>117</ele>
        <time>2012-03-23T10:10:07Z</time>
      </trkpt>
      <trkpt lat="48.23173" lon="0.63593">
        <ele>115</ele>
        <time>2012-03-23T10:10:10Z</time>
      </trkpt>
      <trkpt lat="48.23177" lon="0.63589">
        <ele>112</ele>
        <time>2012-03-23T10:10:14Z</time>
      </trkpt>
      <trkpt lat="48.2318" lon="0.63584">
        <ele>111</ele>
        <time>2012-03-23T10:10:18Z</time>
      </trkpt>
      <trkpt lat="48.23181" lon="0.63579">
        <ele>109</ele>
        <time>2012-03-23T10:10:22Z</time>
      </trkpt>
      <trkpt lat="48.23183" lon="0.63574">
        <ele>107</ele>
        <time>2012-03-23T10:10:26Z</time>
      </trkpt>
      <trkpt lat="48.23185" lon="0.63569">
        <ele>106</ele>
        <time>2012-03-23T10:10:29Z</time>
      </trkpt>
      <trkpt lat="48.23188" lon="0.63564">
        <ele>104</ele>
        <time>2012-03-23T10:10:33Z</time>
      </trkpt>
      <trkpt lat="48.23189" lon="0.6356">
        <ele>102</ele>
        <time>2012-03-23T10:10:36Z</time>
      </trkpt>
      <trkpt lat="48.23193" lon="0.63554">
        <ele>101</ele>
        <time>2012-03-23T10:10:39Z</time>
      </trkpt>
      <trkpt lat="48.23194" lon="0.6355">
        <ele>101</ele>
        <time>2012-03-23T10:10:41Z</time>
      </trkpt>
      <trkpt lat="48.23196" lon="0.63546">
        <ele>101</ele>
        <time>2012-03-23T10:10:43Z</time>
      </trkpt>
      <trkpt lat="48.23198" lon="0.63539">
        <ele>101</ele>
        <time>2012-03-23T10:10:47Z</time>
      </trkpt>
      <trkpt lat="48.23199" lon="0.63535">
        <ele>102</ele>
        <time>2012-03-23T10:10:50Z</time>
      </trkpt>
      <trkpt lat="48.232" lon="0.63529">
        <ele>104</ele>
        <time>2012-03-23T10:10:53Z</time>
      </trkpt>
      <trkpt lat="48.23202" lon="0.63524">
        <ele>106</ele>
        <time>2012-03-23T10:10:56Z</time>
      </trkpt>
      <trkpt lat="48.23202" lon="0.6352">
        <ele>107</ele>
        <time>2012-03-23T10:10:58Z</time>
      </trkpt>
      <trkpt lat="48.23203" lon="0.63516">
        <ele>108</ele>
        <time>2012-03-23T10:11:00Z</time>
      </trkpt>
      <trkpt lat="48.23204" lon="0.63512">
        <ele>108</ele>
        <time>2012-03-23T10:11:02Z</time>
      </trkpt>
      <trkpt lat="48.23205" lon="0.63506">
        <ele>108</ele>
        <time>2012-03-23T10:11:06Z</time>
      </trkpt>
      <trkpt lat="48.23207" lon="0.635">
        <ele>108</ele>
        <time>2012-03-23T10:11:10Z</time>
      </trkpt>
      <trkpt lat="48.23208" lon="0.63496">
        <ele>108</ele>
        <time>2012-03-23T10:11:13Z</time>
      </trkpt>
      <trkpt lat="48.23211" lon="0.6349">
        <ele>108</ele>
        <time>2012-03-23T10:11:17Z</time>
      </trkpt>
      <trkpt lat="48.23213" lon="0.63484">
        <ele>108</ele>
        <time>2012-03-23T10:11:21Z</time>
      </trkpt>
      <trkpt lat="48.23213" lon="0.6348">
        <ele>108</ele>
        <time>2012-03-23T10:11:23Z</time>
      </trkpt>
      <trkpt lat="48.23213" lon="0.63476">
        <ele>108</ele>
        <time>2012-03-23T10:11:25Z</time>
      </trkpt>
      <trkpt lat="48.23214" lon="0.63472">
        <ele>108</ele>
        <time>2012-03-23T10:11:27Z</time>
      </trkpt>
      <trkpt lat="48.23215" lon="0.63468">
        <ele>109</ele>
        <time>2012-03-23T10:11:29Z</time>
      </trkpt>
      <trkpt lat="48.23215" lon="0.63465">
        <ele>110</ele>
        <time>2012-03-23T10:11:31Z</time>
      </trkpt>
      <trkpt lat="48.23216" lon="0.63461">
        <ele>111</ele>
        <time>2012-03-23T10:11:33Z</time>
      </trkpt>
      <trkpt lat="48.23217" lon="0.63457">
        <ele>111</ele>
        <time>2012-03-23T10:11:35Z</time>
      </trkpt>
      <trkpt lat="48.23217" lon="0.63453">
        <ele>111</ele>
        <time>2012-03-23T10:11:37Z</time>
      </trkpt>
      <trkpt lat="48.23217" lon="0.63447">
        <ele>111</ele>
        <time>2012-03-23T10:11:39Z</time>
      </trkpt>
      <trkpt lat="48.23218" lon="0.63444">
        <ele>111</ele>
        <time>2012-03-23T10:11:41Z</time>
      </trkpt>
      <trkpt lat="48.23219" lon="0.6344">
        <ele>111</ele>
        <time>2012-03-23T10:11:43Z</time>
      </trkpt>
      <trkpt lat="48.23221" lon="0.63435">
        <ele>111</ele>
        <time>2012-03-23T10:11:46Z</time>
      </trkpt>
      <trkpt lat="48.23222" lon="0.6343">
        <ele>111</ele>
        <time>2012-03-23T10:11:49Z</time>
      </trkpt>
      <trkpt lat="48.23223" lon="0.63426">
        <ele>111</ele>
        <time>2012-03-23T10:11:51Z</time>
      </trkpt>
      <trkpt lat="48.23223" lon="0.63423">
        <ele>111</ele>
        <time>2012-03-23T10:11:53Z</time>
      </trkpt>
      <trkpt lat="48.23224" lon="0.63419">
        <ele>111</ele>
        <time>2012-03-23T10:11:55Z</time>
      </trkpt>
      <trkpt lat="48.23224" lon="0.63415">
        <ele>111</ele>
        <time>2012-03-23T10:11:57Z</time>
      </trkpt>
      <trkpt lat="48.23225" lon="0.63411">
        <ele>111</ele>
        <time>2012-03-23T10:11:59Z</time>
      </trkpt>
      <trkpt lat="48.23225" lon="0.63407">
        <ele>111</ele>
        <time>2012-03-23T10:12:01Z</time>
      </trkpt>
      <trkpt lat="48.23225" lon="0.63404">
        <ele>111</ele>
        <time>2012-03-23T10:12:03Z</time>
      </trkpt>
      <trkpt lat="48.23225" lon="0.634">
        <ele>111</ele>
        <time>2012-03-23T10:12:05Z</time>
      </trkpt>
      <trkpt lat="48.23226" lon="0.63395">
        <ele>111</ele>
        <time>2012-03-23T10:12:08Z</time>
      </trkpt>
      <trkpt lat="48.23226" lon="0.6339">
        <ele>110</ele>
        <time>2012-03-23T10:12:11Z</time>
      </trkpt>
      <trkpt lat="48.23225" lon="0.63384">
        <ele>108</ele>
        <time>2012-03-23T10:12:15Z</time>
      </trkpt>
      <trkpt lat="48.23225" lon="0.6338">
        <ele>108</ele>
        <time>2012-03-23T10:12:17Z</time>
      </trkpt>
      <trkpt lat="48.23225" lon="0.63376">
        <ele>107</ele>
        <time>2012-03-23T10:12:19Z</time>
      </trkpt>
      <trkpt lat="48.23224" lon="0.63372">
        <ele>107</ele>
        <time>2012-03-23T10:12:21Z</time>
      </trkpt>
      <trkpt lat="48.23223" lon="0.63368">
        <ele>106</ele>
        <time>2012-03-23T10:12:23Z</time>
      </trkpt>
      <trkpt lat="48.23222" lon="0.63362">
        <ele>106</ele>
        <time>2012-03-23T10:12:26Z</time>
      </trkpt>
      <trkpt lat="48.23221" lon="0.63357">
        <ele>106</ele>
        <time>2012-03-23T10:12:29Z</time>
      </trkpt>
      <trkpt lat="48.2322" lon="0.63351">
        <ele>106</ele>
        <time>2012-03-23T10:12:32Z</time>
      </trkpt>
      <trkpt lat="48.23219" lon="0.63347">
        <ele>106</ele>
        <time>2012-03-23T10:12:34Z</time>
      </trkpt>
      <trkpt lat="48.23217" lon="0.63341">
        <ele>106</ele>
        <time>2012-03-23T10:12:38Z</time>
      </trkpt>
      <trkpt lat="48.23216" lon="0.63337">
        <ele>106</ele>
        <time>2012-03-23T10:12:40Z</time>
      </trkpt>
      <trkpt lat="48.23215" lon="0.63333">
        <ele>106</ele>
        <time>2012-03-23T10:12:42Z</time>
      </trkpt>
      <trkpt lat="48.23214" lon="0.6333">
        <ele>105</ele>
        <time>2012-03-23T10:12:44Z</time>
      </trkpt>
      <trkpt lat="48.23214" lon="0.63326">
        <ele>104</ele>
        <time>2012-03-23T10:12:46Z</time>
      </trkpt>
      <trkpt lat="48.23215" lon="0.6332">
        <ele>103</ele>
        <time>2012-03-23T10:12:49Z</time>
      </trkpt>
      <trkpt lat="48.23215" lon="0.63315">
        <ele>103</ele>
        <time>2012-03-23T10:12:52Z</time>
      </trkpt>
      <trkpt lat="48.23216" lon="0.63311">
        <ele>103</ele>
        <time>2012-03-23T10:12:55Z</time>
      </trkpt>
      <trkpt lat="48.23218" lon="0.63305">
        <ele>103</ele>
        <time>2012-03-23T10:12:58Z</time>
      </trkpt>
      <trkpt lat="48.2322" lon="0.633">
        <ele>99</ele>
        <time>2012-03-23T10:13:03Z</time>
      </trkpt>
      <trkpt lat="48.23222" lon="0.63295">
        <ele>95</ele>
        <time>2012-03-23T10:13:07Z</time>
      </trkpt>
      <trkpt lat="48.23223" lon="0.6329">
        <ele>93</ele>
        <time>2012-03-23T10:13:10Z</time>
      </trkpt>
      <trkpt lat="48.23224" lon="0.63286">
        <ele>93</ele>
        <time>2012-03-23T10:13:12Z</time>
      </trkpt>
      <trkpt lat="48.23227" lon="0.63281">
        <ele>93</ele>
        <time>2012-03-23T10:13:15Z</time>
      </trkpt>
      <trkpt lat="48.23229" lon="0.63276">
        <ele>93</ele>
        <time>2012-03-23T10:13:19Z</time>
      </trkpt>
      <trkpt lat="48.23232" lon="0.63271">
        <ele>93</ele>
        <time>2012-03-23T10:13:22Z</time>
      </trkpt>
      <trkpt lat="48.23235" lon="0.63266">
        <ele>93</ele>
        <time>2012-03-23T10:13:26Z</time>
      </trkpt>
      <trkpt lat="48.23238" lon="0.6326">
        <ele>93</ele>
        <time>2012-03-23T10:13:30Z</time>
      </trkpt>
      <trkpt lat="48.23241" lon="0.63257">
        <ele>93</ele>
        <time>2012-03-23T10:13:33Z</time>
      </trkpt>
      <trkpt lat="48.23244" lon="0.63257">
        <ele>93</ele>
        <time>2012-03-23T10:13:35Z</time>
      </trkpt>
      <trkpt lat="48.23247" lon="0.63261">
        <ele>93</ele>
        <time>2012-03-23T10:13:39Z</time>
      </trkpt>
      <trkpt lat="48.2325" lon="0.63266">
        <ele>93</ele>
        <time>2012-03-23T10:13:43Z</time>
      </trkpt>
      <trkpt lat="48.23253" lon="0.63271">
        <ele>92</ele>
        <time>2012-03-23T10:13:47Z</time>
      </trkpt>
      <trkpt lat="48.23255" lon="0.63275">
        <ele>92</ele>
        <time>2012-03-23T10:13:49Z</time>
      </trkpt>
      <trkpt lat="48.23258" lon="0.63279">
        <ele>90</ele>
        <time>2012-03-23T10:13:53Z</time>
      </trkpt>
      <trkpt lat="48.23261" lon="0.63284">
        <ele>90</ele>
        <time>2012-03-23T10:13:57Z</time>
      </trkpt>
      <trkpt lat="48.23264" lon="0.63289">
        <ele>90</ele>
        <time>2012-03-23T10:14:01Z</time>
      </trkpt>
      <trkpt lat="48.23267" lon="0.63294">
        <ele>90</ele>
        <time>2012-03-23T10:14:05Z</time>
      </trkpt>
      <trkpt lat="48.23271" lon="0.633">
        <ele>90</ele>
        <time>2012-03-23T10:14:09Z</time>
      </trkpt>
      <trkpt lat="48.23274" lon="0.63305">
        <ele>90</ele>
        <time>2012-03-23T10:14:13Z</time>
      </trkpt>
      <trkpt lat="48.23278" lon="0.6331">
        <ele>90</ele>
        <time>2012-03-23T10:14:17Z</time>
      </trkpt>
      <trkpt lat="48.23281" lon="0.63316">
        <ele>90</ele>
        <time>2012-03-23T10:14:21Z</time>
      </trkpt>
      <trkpt lat="48.23285" lon="0.63319">
        <ele>90</ele>
        <time>2012-03-23T10:14:24Z</time>
      </trkpt>
      <trkpt lat="48.23287" lon="0.63321">
        <ele>90</ele>
        <time>2012-03-23T10:14:26Z</time>
      </trkpt>
      <trkpt lat="48.23291" lon="0.63327">
        <ele>90</ele>
        <time>2012-03-23T10:14:30Z</time>
      </trkpt>
      <trkpt lat="48.23293" lon="0.63332">
        <ele>90</ele>
        <time>2012-03-23T10:14:33Z</time>
      </trkpt>
      <trkpt lat="48.23294" lon="0.63337">
        <ele>90</ele>
        <time>2012-03-23T10:14:36Z</time>
      </trkpt>
      <trkpt lat="48.23295" lon="0.63341">
        <ele>90</ele>
        <time>2012-03-23T10:14:38Z</time>
      </trkpt>
      <trkpt lat="48.23296" lon="0.63345">
        <ele>90</ele>
        <time>2012-03-23T10:14:40Z</time>
      </trkpt>
      <trkpt lat="48.23297" lon="0.63348">
        <ele>90</ele>
        <time>2012-03-23T10:14:42Z</time>
      </trkpt>
      <trkpt lat="48.23299" lon="0.63353">
        <ele>90</ele>
        <time>2012-03-23T10:14:45Z</time>
      </trkpt>
      <trkpt lat="48.23302" lon="0.63359">
        <ele>90</ele>
        <time>2012-03-23T10:14:49Z</time>
      </trkpt>
      <trkpt lat="48.23304" lon="0.63363">
        <ele>90</ele>
        <time>2012-03-23T10:14:52Z</time>
      </trkpt>
      <trkpt lat="48.23306" lon="0.63367">
        <ele>90</ele>
        <time>2012-03-23T10:14:55Z</time>
      </trkpt>
      <trkpt lat="48.2331" lon="0.63372">
        <ele>90</ele>
        <time>2012-03-23T10:14:59Z</time>
      </trkpt>
      <trkpt lat="48.23313" lon="0.63375">
        <ele>90</ele>
        <time>2012-03-23T10:15:02Z</time>
      </trkpt>
      <trkpt lat="48.23316" lon="0.63378">
        <ele>90</ele>
        <time>2012-03-23T10:15:04Z</time>
      </trkpt>
      <trkpt lat="48.23318" lon="0.63382">
        <ele>90</ele>
        <time>2012-03-23T10:15:07Z</time>
      </trkpt>
      <trkpt lat="48.23321" lon="0.63387">
        <ele>90</ele>
        <time>2012-03-23T10:15:11Z</time>
      </trkpt>
      <trkpt lat="48.23325" lon="0.6339">
        <ele>90</ele>
        <time>2012-03-23T10:15:14Z</time>
      </trkpt>
      <trkpt lat="48.23329" lon="0.63396">
        <ele>90</ele>
        <time>2012-03-23T10:15:18Z</time>
      </trkpt>
      <trkpt lat="48.23332" lon="0.634">
        <ele>90</ele>
        <time>2012-03-23T10:15:22Z</time>
      </trkpt>
      <trkpt lat="48.23335" lon="0.63404">
        <ele>90</ele>
        <time>2012-03-23T10:15:25Z</time>
      </trkpt>
      <trkpt lat="48.23339" lon="0.6341">
        <ele>90</ele>
        <time>2012-03-23T10:15:28Z</time>
      </trkpt>
      <trkpt lat="48.23343" lon="0.63415">
        <ele>90</ele>
        <time>2012-03-23T10:15:33Z</time>
      </trkpt>
      <trkpt lat="48.23347" lon="0.6342">
        <ele>90</ele>
        <time>2012-03-23T10:15:37Z</time>
      </trkpt>
      <trkpt lat="48.2335" lon="0.63425">
        <ele>90</ele>
        <time>2012-03-23T10:15:41Z</time>
      </trkpt>
      <trkpt lat="48.23352" lon="0.63429">
        <ele>90</ele>
        <time>2012-03-23T10:15:43Z</time>
      </trkpt>
      <trkpt lat="48.23355" lon="0.63434">
        <ele>90</ele>
        <time>2012-03-23T10:15:47Z</time>
      </trkpt>
      <trkpt lat="48.23357" lon="0.63438">
        <ele>90</ele>
        <time>2012-03-23T10:15:50Z</time>
      </trkpt>
      <trkpt lat="48.2336" lon="0.63442">
        <ele>90</ele>
        <time>2012-03-23T10:15:54Z</time>
      </trkpt>
      <trkpt lat="48.23364" lon="0.63447">
        <ele>90</ele>
        <time>2012-03-23T10:15:58Z</time>
      </trkpt>
      <trkpt lat="48.23367" lon="0.63453">
        <ele>90</ele>
        <time>2012-03-23T10:16:02Z</time>
      </trkpt>
      <trkpt lat="48.2337" lon="0.63456">
        <ele>90</ele>
        <time>2012-03-23T10:16:05Z</time>
      </trkpt>
      <trkpt lat="48.23373" lon="0.63461">
        <ele>90</ele>
        <time>2012-03-23T10:16:09Z</time>
      </trkpt>
      <trkpt lat="48.23376" lon="0.63466">
        <ele>90</ele>
        <time>2012-03-23T10:16:13Z</time>
      </trkpt>
      <trkpt lat="48.2338" lon="0.63471">
        <ele>90</ele>
        <time>2012-03-23T10:16:16Z</time>
      </trkpt>
      <trkpt lat="48.23383" lon="0.63475">
        <ele>90</ele>
        <time>2012-03-23T10:16:19Z</time>
      </trkpt>
      <trkpt lat="48.23386" lon="0.63477">
        <ele>90</ele>
        <time>2012-03-23T10:16:21Z</time>
      </trkpt>
      <trkpt lat="48.23389" lon="0.63481">
        <ele>90</ele>
        <time>2012-03-23T10:16:24Z</time>
      </trkpt>
      <trkpt lat="48.23392" lon="0.63485">
        <ele>90</ele>
        <time>2012-03-23T10:16:28Z</time>
      </trkpt>
      <trkpt lat="48.23395" lon="0.63489">
        <ele>90</ele>
        <time>2012-03-23T10:16:31Z</time>
      </trkpt>
      <trkpt lat="48.23398" lon="0.63492">
        <ele>90</ele>
        <time>2012-03-23T10:16:34Z</time>
      </trkpt>
      <trkpt lat="48.23401" lon="0.63495">
        <ele>91</ele>
        <time>2012-03-23T10:16:37Z</time>
      </trkpt>
      <trkpt lat="48.23404" lon="0.63498">
        <ele>91</ele>
        <time>2012-03-23T10:16:40Z</time>
      </trkpt>
      <trkpt lat="48.23409" lon="0.63502">
        <ele>91</ele>
        <time>2012-03-23T10:16:44Z</time>
      </trkpt>
      <trkpt lat="48.23411" lon="0.63504">
        <ele>91</ele>
        <time>2012-03-23T10:16:46Z</time>
      </trkpt>
      <trkpt lat="48.23414" lon="0.63508">
        <ele>91</ele>
        <time>2012-03-23T10:16:49Z</time>
      </trkpt>
      <trkpt lat="48.23417" lon="0.6351">
        <ele>91</ele>
        <time>2012-03-23T10:16:51Z</time>
      </trkpt>
      <trkpt lat="48.2342" lon="0.63514">
        <ele>91</ele>
        <time>2012-03-23T10:16:55Z</time>
      </trkpt>
      <trkpt lat="48.23423" lon="0.63517">
        <ele>91</ele>
        <time>2012-03-23T10:16:58Z</time>
      </trkpt>
      <trkpt lat="48.23427" lon="0.63519">
        <ele>91</ele>
        <time>2012-03-23T10:17:01Z</time>
      </trkpt>
      <trkpt lat="48.2343" lon="0.6352">
        <ele>90</ele>
        <time>2012-03-23T10:17:03Z</time>
      </trkpt>
      <trkpt lat="48.23433" lon="0.63523">
        <ele>90</ele>
        <time>2012-03-23T10:17:06Z</time>
      </trkpt>
      <trkpt lat="48.23436" lon="0.63524">
        <ele>90</ele>
        <time>2012-03-23T10:17:10Z</time>
      </trkpt>
      <trkpt lat="48.2344" lon="0.63527">
        <ele>90</ele>
        <time>2012-03-23T10:17:14Z</time>
      </trkpt>
      <trkpt lat="48.23443" lon="0.63528">
        <ele>90</ele>
        <time>2012-03-23T10:17:17Z</time>
      </trkpt>
      <trkpt lat="48.23447" lon="0.63529">
        <ele>90</ele>
        <time>2012-03-23T10:17:19Z</time>
      </trkpt>
      <trkpt lat="48.2345" lon="0.63529">
        <ele>91</ele>
        <time>2012-03-23T10:17:21Z</time>
      </trkpt>
      <trkpt lat="48.23455" lon="0.6353">
        <ele>92</ele>
        <time>2012-03-23T10:17:26Z</time>
      </trkpt>
      <trkpt lat="48.23458" lon="0.6353">
        <ele>92</ele>
        <time>2012-03-23T10:17:28Z</time>
      </trkpt>
      <trkpt lat="48.23461" lon="0.63532">
        <ele>92</ele>
        <time>2012-03-23T10:17:30Z</time>
      </trkpt>
      <trkpt lat="48.23464" lon="0.63533">
        <ele>92</ele>
        <time>2012-03-23T10:17:32Z</time>
      </trkpt>
      <trkpt lat="48.23468" lon="0.63534">
        <ele>92</ele>
        <time>2012-03-23T10:17:36Z</time>
      </trkpt>
      <trkpt lat="48.23471" lon="0.63536">
        <ele>92</ele>
        <time>2012-03-23T10:17:39Z</time>
      </trkpt>
      <trkpt lat="48.23476" lon="0.63536">
        <ele>92</ele>
        <time>2012-03-23T10:17:43Z</time>
      </trkpt>
      <trkpt lat="48.2348" lon="0.63536">
        <ele>92</ele>
        <time>2012-03-23T10:17:46Z</time>
      </trkpt>
      <trkpt lat="48.23484" lon="0.63536">
        <ele>92</ele>
        <time>2012-03-23T10:17:49Z</time>
      </trkpt>
      <trkpt lat="48.23486" lon="0.63537">
        <ele>92</ele>
        <time>2012-03-23T10:17:51Z</time>
      </trkpt>
      <trkpt lat="48.2349" lon="0.63537">
        <ele>91</ele>
        <time>2012-03-23T10:17:54Z</time>
      </trkpt>
      <trkpt lat="48.23493" lon="0.63537">
        <ele>91</ele>
        <time>2012-03-23T10:17:57Z</time>
      </trkpt>
      <trkpt lat="48.23496" lon="0.63536">
        <ele>91</ele>
        <time>2012-03-23T10:17:59Z</time>
      </trkpt>
      <trkpt lat="48.23499" lon="0.63535">
        <ele>91</ele>
        <time>2012-03-23T10:18:01Z</time>
      </trkpt>
      <trkpt lat="48.23501" lon="0.63535">
        <ele>91</ele>
        <time>2012-03-23T10:18:03Z</time>
      </trkpt>
      <trkpt lat="48.23505" lon="0.63536">
        <ele>91</ele>
        <time>2012-03-23T10:18:06Z</time>
      </trkpt>
      <trkpt lat="48.23508" lon="0.63536">
        <ele>91</ele>
        <time>2012-03-23T10:18:09Z</time>
      </trkpt>
      <trkpt lat="48.2351" lon="0.63536">
        <ele>90</ele>
        <time>2012-03-23T10:18:11Z</time>
      </trkpt>
      <trkpt lat="48.23513" lon="0.63537">
        <ele>89</ele>
        <time>2012-03-23T10:18:13Z</time>
      </trkpt>
      <trkpt lat="48.23516" lon="0.63536">
        <ele>89</ele>
        <time>2012-03-23T10:18:15Z</time>
      </trkpt>
      <trkpt lat="48.23519" lon="0.63535">
        <ele>88</ele>
        <time>2012-03-23T10:18:18Z</time>
      </trkpt>
      <trkpt lat="48.23523" lon="0.63533">
        <ele>87</ele>
        <time>2012-03-23T10:18:22Z</time>
      </trkpt>
      <trkpt lat="48.23526" lon="0.63532">
        <ele>87</ele>
        <time>2012-03-23T10:18:24Z</time>
      </trkpt>
      <trkpt lat="48.23529" lon="0.63531">
        <ele>87</ele>
        <time>2012-03-23T10:18:26Z</time>
      </trkpt>
      <trkpt lat="48.23532" lon="0.63529">
        <ele>87</ele>
        <time>2012-03-23T10:18:28Z</time>
      </trkpt>
      <trkpt lat="48.23535" lon="0.63526">
        <ele>87</ele>
        <time>2012-03-23T10:18:30Z</time>
      </trkpt>
      <trkpt lat="48.23538" lon="0.63525">
        <ele>88</ele>
        <time>2012-03-23T10:18:32Z</time>
      </trkpt>
      <trkpt lat="48.2354" lon="0.63523">
        <ele>90</ele>
        <time>2012-03-23T10:18:34Z</time>
      </trkpt>
      <trkpt lat="48.23544" lon="0.63521">
        <ele>91</ele>
        <time>2012-03-23T10:18:37Z</time>
      </trkpt>
      <trkpt lat="48.23546" lon="0.63518">
        <ele>92</ele>
        <time>2012-03-23T10:18:39Z</time>
      </trkpt>
      <trkpt lat="48.23548" lon="0.63514">
        <ele>96</ele>
        <time>2012-03-23T10:18:43Z</time>
      </trkpt>
      <trkpt lat="48.23552" lon="0.63513">
        <ele>99</ele>
        <time>2012-03-23T10:18:46Z</time>
      </trkpt>
      <trkpt lat="48.23555" lon="0.63512">
        <ele>100</ele>
        <time>2012-03-23T10:18:48Z</time>
      </trkpt>
      <trkpt lat="48.23558" lon="0.6351">
        <ele>100</ele>
        <time>2012-03-23T10:18:51Z</time>
      </trkpt>
      <trkpt lat="48.2356" lon="0.63508">
        <ele>100</ele>
        <time>2012-03-23T10:18:53Z</time>
      </trkpt>
      <trkpt lat="48.23563" lon="0.63507">
        <ele>100</ele>
        <time>2012-03-23T10:18:55Z</time>
      </trkpt>
      <trkpt lat="48.23566" lon="0.63505">
        <ele>100</ele>
        <time>2012-03-23T10:18:57Z</time>
      </trkpt>
      <trkpt lat="48.23568" lon="0.63504">
        <ele>100</ele>
        <time>2012-03-23T10:18:59Z</time>
      </trkpt>
      <trkpt lat="48.23572" lon="0.63501">
        <ele>100</ele>
        <time>2012-03-23T10:19:02Z</time>
      </trkpt>
      <trkpt lat="48.23574" lon="0.63498">
        <ele>100</ele>
        <time>2012-03-23T10:19:04Z</time>
      </trkpt>
      <trkpt lat="48.23577" lon="0.63494">
        <ele>100</ele>
        <time>2012-03-23T10:19:07Z</time>
      </trkpt>
      <trkpt lat="48.23579" lon="0.63489">
        <ele>100</ele>
        <time>2012-03-23T10:19:10Z</time>
      </trkpt>
      <trkpt lat="48.23582" lon="0.63485">
        <ele>100</ele>
        <time>2012-03-23T10:19:14Z</time>
      </trkpt>
      <trkpt lat="48.23586" lon="0.63484">
        <ele>99</ele>
        <time>2012-03-23T10:19:18Z</time>
      </trkpt>
      <trkpt lat="48.23589" lon="0.63481">
        <ele>96</ele>
        <time>2012-03-23T10:19:21Z</time>
      </trkpt>
      <trkpt lat="48.23593" lon="0.63477">
        <ele>94</ele>
        <time>2012-03-23T10:19:25Z</time>
      </trkpt>
      <trkpt lat="48.23596" lon="0.63472">
        <ele>91</ele>
        <time>2012-03-23T10:19:29Z</time>
      </trkpt>
      <trkpt lat="48.236" lon="0.63468">
        <ele>90</ele>
        <time>2012-03-23T10:19:33Z</time>
      </trkpt>
      <trkpt lat="48.23603" lon="0.63464">
        <ele>89</ele>
        <time>2012-03-23T10:19:37Z</time>
      </trkpt>
      <trkpt lat="48.23605" lon="0.6346">
        <ele>88</ele>
        <time>2012-03-23T10:19:40Z</time>
      </trkpt>
      <trkpt lat="48.23607" lon="0.63455">
        <ele>88</ele>
        <time>2012-03-23T10:19:43Z</time>
      </trkpt>
      <trkpt lat="48.23608" lon="0.63451">
        <ele>88</ele>
        <time>2012-03-23T10:19:45Z</time>
      </trkpt>
      <trkpt lat="48.2361" lon="0.63447">
        <ele>88</ele>
        <time>2012-03-23T10:19:48Z</time>
      </trkpt>
      <trkpt lat="48.23612" lon="0.63442">
        <ele>88</ele>
        <time>2012-03-23T10:19:51Z</time>
      </trkpt>
      <trkpt lat="48.23614" lon="0.63437">
        <ele>87</ele>
        <time>2012-03-23T10:19:54Z</time>
      </trkpt>
      <trkpt lat="48.23617" lon="0.63431">
        <ele>86</ele>
        <time>2012-03-23T10:19:58Z</time>
      </trkpt>
      <trkpt lat="48.23619" lon="0.63426">
        <ele>86</ele>
        <time>2012-03-23T10:20:01Z</time>
      </trkpt>
      <trkpt lat="48.2362" lon="0.63422">
        <ele>86</ele>
        <time>2012-03-23T10:20:03Z</time>
      </trkpt>
      <trkpt lat="48.23621" lon="0.63418">
        <ele>86</ele>
        <time>2012-03-23T10:20:05Z</time>
      </trkpt>
      <trkpt lat="48.23623" lon="0.63415">
        <ele>86</ele>
        <time>2012-03-23T10:20:07Z</time>
      </trkpt>
      <trkpt lat="48.23625" lon="0.63408">
        <ele>86</ele>
        <time>2012-03-23T10:20:11Z</time>
      </trkpt>
      <trkpt lat="48.23627" lon="0.63403">
        <ele>86</ele>
        <time>2012-03-23T10:20:14Z</time>
      </trkpt>
      <trkpt lat="48.23628" lon="0.634">
        <ele>86</ele>
        <time>2012-03-23T10:20:16Z</time>
      </trkpt>
      <trkpt lat="48.23629" lon="0.63396">
        <ele>86</ele>
        <time>2012-03-23T10:20:18Z</time>
      </trkpt>
      <trkpt lat="48.2363" lon="0.6339">
        <ele>86</ele>
        <time>2012-03-23T10:20:21Z</time>
      </trkpt>
      <trkpt lat="48.23631" lon="0.63387">
        <ele>86</ele>
        <time>2012-03-23T10:20:23Z</time>
      </trkpt>
      <trkpt lat="48.23633" lon="0.63383">
        <ele>86</ele>
        <time>2012-03-23T10:20:26Z</time>
      </trkpt>
      <trkpt lat="48.23635" lon="0.63377">
        <ele>86</ele>
        <time>2012-03-23T10:20:30Z</time>
      </trkpt>
      <trkpt lat="48.23637" lon="0.63372">
        <ele>86</ele>
        <time>2012-03-23T10:20:33Z</time>
      </trkpt>
      <trkpt lat="48.2364" lon="0.63367">
        <ele>86</ele>
        <time>2012-03-23T10:20:37Z</time>
      </trkpt>
      <trkpt lat="48.23642" lon="0.63362">
        <ele>86</ele>
        <time>2012-03-23T10:20:40Z</time>
      </trkpt>
      <trkpt lat="48.23643" lon="0.63358">
        <ele>86</ele>
        <time>2012-03-23T10:20:42Z</time>
      </trkpt>
      <trkpt lat="48.23645" lon="0.63354">
        <ele>86</ele>
        <time>2012-03-23T10:20:45Z</time>
      </trkpt>
      <trkpt lat="48.23647" lon="0.63348">
        <ele>86</ele>
        <time>2012-03-23T10:20:49Z</time>
      </trkpt>
      <trkpt lat="48.23649" lon="0.63343">
        <ele>86</ele>
        <time>2012-03-23T10:20:52Z</time>
      </trkpt>
      <trkpt lat="48.23651" lon="0.63337">
        <ele>86</ele>
        <time>2012-03-23T10:20:56Z</time>
      </trkpt>
      <trkpt lat="48.23652" lon="0.63331">
        <ele>86</ele>
        <time>2012-03-23T10:21:00Z</time>
      </trkpt>
      <trkpt lat="48.23653" lon="0.63327">
        <ele>86</ele>
        <time>2012-03-23T10:21:02Z</time>
      </trkpt>
      <trkpt lat="48.23654" lon="0.63324">
        <ele>86</ele>
        <time>2012-03-23T10:21:04Z</time>
      </trkpt>
      <trkpt lat="48.23654" lon="0.6332">
        <ele>86</ele>
        <time>2012-03-23T10:21:06Z</time>
      </trkpt>
      <trkpt lat="48.23655" lon="0.63317">
        <ele>86</ele>
        <time>2012-03-23T10:21:08Z</time>
      </trkpt>
      <trkpt lat="48.23656" lon="0.63311">
        <ele>86</ele>
        <time>2012-03-23T10:21:11Z</time>
      </trkpt>
      <trkpt lat="48.23656" lon="0.63307">
        <ele>86</ele>
        <time>2012-03-23T10:21:13Z</time>
      </trkpt>
      <trkpt lat="48.23658" lon="0.63302">
        <ele>86</ele>
        <time>2012-03-23T10:21:16Z</time>
      </trkpt>
      <trkpt lat="48.23658" lon="0.63299">
        <ele>86</ele>
        <time>2012-03-23T10:21:18Z</time>
      </trkpt>
      <trkpt lat="48.2366" lon="0.63296">
        <ele>86</ele>
        <time>2012-03-23T10:21:20Z</time>
      </trkpt>
      <trkpt lat="48.23664" lon="0.63291">
        <ele>86</ele>
        <time>2012-03-23T10:21:24Z</time>
      </trkpt>
      <trkpt lat="48.23666" lon="0.63291">
        <ele>86</ele>
        <time>2012-03-23T10:21:26Z</time>
      </trkpt>
      <trkpt lat="48.23669" lon="0.63291">
        <ele>86</ele>
        <time>2012-03-23T10:21:28Z</time>
      </trkpt>
      <trkpt lat="48.23673" lon="0.63293">
        <ele>86</ele>
        <time>2012-03-23T10:21:32Z</time>
      </trkpt>
      <trkpt lat="48.23677" lon="0.63296">
        <ele>86</ele>
        <time>2012-03-23T10:21:36Z</time>
      </trkpt>
      <trkpt lat="48.23681" lon="0.63298">
        <ele>86</ele>
        <time>2012-03-23T10:21:40Z</time>
      </trkpt>
      <trkpt lat="48.23684" lon="0.633">
        <ele>86</ele>
        <time>2012-03-23T10:21:43Z</time>
      </trkpt>
      <trkpt lat="48.23688" lon="0.63304">
        <ele>86</ele>
        <time>2012-03-23T10:21:47Z</time>
      </trkpt>
      <trkpt lat="48.23691" lon="0.63306">
        <ele>86</ele>
        <time>2012-03-23T10:21:50Z</time>
      </trkpt>
      <trkpt lat="48.23695" lon="0.63309">
        <ele>86</ele>
        <time>2012-03-23T10:21:54Z</time>
      </trkpt>
      <trkpt lat="48.23698" lon="0.63312">
        <ele>86</ele>
        <time>2012-03-23T10:21:58Z</time>
      </trkpt>
      <trkpt lat="48.23702" lon="0.63314">
        <ele>86</ele>
        <time>2012-03-23T10:22:02Z</time>
      </trkpt>
      <trkpt lat="48.23705" lon="0.63315">
        <ele>86</ele>
        <time>2012-03-23T10:22:05Z</time>
      </trkpt>
      <trkpt lat="48.23708" lon="0.63317">
        <ele>86</ele>
        <time>2012-03-23T10:22:07Z</time>
      </trkpt>
      <trkpt lat="48.23711" lon="0.63318">
        <ele>86</ele>
        <time>2012-03-23T10:22:10Z</time>
      </trkpt>
      <trkpt lat="48.23715" lon="0.6332">
        <ele>86</ele>
        <time>2012-03-23T10:22:14Z</time>
      </trkpt>
      <trkpt lat="48.23718" lon="0.63322">
        <ele>86</ele>
        <time>2012-03-23T10:22:17Z</time>
      </trkpt>
      <trkpt lat="48.23721" lon="0.63323">
        <ele>86</ele>
        <time>2012-03-23T10:22:19Z</time>
      </trkpt>
      <trkpt lat="48.23723" lon="0.63324">
        <ele>86</ele>
        <time>2012-03-23T10:22:21Z</time>
      </trkpt>
      <trkpt lat="48.23725" lon="0.63325">
        <ele>86</ele>
        <time>2012-03-23T10:22:23Z</time>
      </trkpt>
      <trkpt lat="48.23728" lon="0.63326">
        <ele>86</ele>
        <time>2012-03-23T10:22:25Z</time>
      </trkpt>
      <trkpt lat="48.23732" lon="0.63327">
        <ele>86</ele>
        <time>2012-03-23T10:22:29Z</time>
      </trkpt>
      <trkpt lat="48.23736" lon="0.63329">
        <ele>86</ele>
        <time>2012-03-23T10:22:32Z</time>
      </trkpt>
      <trkpt lat="48.23739" lon="0.63331">
        <ele>87</ele>
        <time>2012-03-23T10:22:35Z</time>
      </trkpt>
      <trkpt lat="48.23742" lon="0.63333">
        <ele>88</ele>
        <time>2012-03-23T10:22:40Z</time>
      </trkpt>
      <trkpt lat="48.23744" lon="0.63335">
        <ele>89</ele>
        <time>2012-03-23T10:22:46Z</time>
      </trkpt>
      <trkpt lat="48.23747" lon="0.63339">
        <ele>90</ele>
        <time>2012-03-23T10:22:52Z</time>
      </trkpt>
      <trkpt lat="48.2375" lon="0.63342">
        <ele>90</ele>
        <time>2012-03-23T10:22:57Z</time>
      </trkpt>
      <trkpt lat="48.23753" lon="0.63344">
        <ele>91</ele>
        <time>2012-03-23T10:23:03Z</time>
      </trkpt>
      <trkpt lat="48.23756" lon="0.63346">
        <ele>91</ele>
        <time>2012-03-23T10:23:07Z</time>
      </trkpt>
      <trkpt lat="48.2376" lon="0.63347">
        <ele>91</ele>
        <time>2012-03-23T10:23:11Z</time>
      </trkpt>
      <trkpt lat="48.23764" lon="0.63349">
        <ele>91</ele>
        <time>2012-03-23T10:23:15Z</time>
      </trkpt>
      <trkpt lat="48.23767" lon="0.63349">
        <ele>91</ele>
        <time>2012-03-23T10:23:18Z</time>
      </trkpt>
      <trkpt lat="48.2377" lon="0.6335">
        <ele>91</ele>
        <time>2012-03-23T10:23:22Z</time>
      </trkpt>
      <trkpt lat="48.23773" lon="0.63352">
        <ele>91</ele>
        <time>2012-03-23T10:23:26Z</time>
      </trkpt>
      <trkpt lat="48.23776" lon="0.63353">
        <ele>91</ele>
        <time>2012-03-23T10:23:28Z</time>
      </trkpt>
      <trkpt lat="48.23778" lon="0.63353">
        <ele>91</ele>
        <time>2012-03-23T10:23:30Z</time>
      </trkpt>
      <trkpt lat="48.2378" lon="0.63353">
        <ele>91</ele>
        <time>2012-03-23T10:23:35Z</time>
      </trkpt>
      <trkpt lat="48.23783" lon="0.63354">
        <ele>91</ele>
        <time>2012-03-23T10:23:38Z</time>
      </trkpt>
      <trkpt lat="48.23787" lon="0.63354">
        <ele>91</ele>
        <time>2012-03-23T10:23:41Z</time>
      </trkpt>
      <trkpt lat="48.23789" lon="0.63355">
        <ele>91</ele>
        <time>2012-03-23T10:23:44Z</time>
      </trkpt>
      <trkpt lat="48.23792" lon="0.63356">
        <ele>92</ele>
        <time>2012-03-23T10:23:46Z</time>
      </trkpt>
      <trkpt lat="48.23796" lon="0.63356">
        <ele>93</ele>
        <time>2012-03-23T10:23:51Z</time>
      </trkpt>
      <trkpt lat="48.23799" lon="0.63356">
        <ele>93</ele>
        <time>2012-03-23T10:23:53Z</time>
      </trkpt>
      <trkpt lat="48.23802" lon="0.63356">
        <ele>93</ele>
        <time>2012-03-23T10:23:56Z</time>
      </trkpt>
      <trkpt lat="48.23805" lon="0.63357">
        <ele>93</ele>
        <time>2012-03-23T10:24:00Z</time>
      </trkpt>
      <trkpt lat="48.23807" lon="0.63358">
        <ele>93</ele>
        <time>2012-03-23T10:24:04Z</time>
      </trkpt>
      <trkpt lat="48.23813" lon="0.63359">
        <ele>94</ele>
        <time>2012-03-23T10:24:08Z</time>
      </trkpt>
      <trkpt lat="48.23816" lon="0.63361">
        <ele>95</ele>
        <time>2012-03-23T10:24:12Z</time>
      </trkpt>
      <trkpt lat="48.2382" lon="0.63361">
        <ele>95</ele>
        <time>2012-03-23T10:24:15Z</time>
      </trkpt>
      <trkpt lat="48.23822" lon="0.63361">
        <ele>95</ele>
        <time>2012-03-23T10:24:17Z</time>
      </trkpt>
      <trkpt lat="48.23825" lon="0.63361">
        <ele>95</ele>
        <time>2012-03-23T10:24:22Z</time>
      </trkpt>
      <trkpt lat="48.23829" lon="0.63364">
        <ele>95</ele>
        <time>2012-03-23T10:24:27Z</time>
      </trkpt>
      <trkpt lat="48.23831" lon="0.63366">
        <ele>95</ele>
        <time>2012-03-23T10:24:31Z</time>
      </trkpt>
      <trkpt lat="48.23835" lon="0.63366">
        <ele>95</ele>
        <time>2012-03-23T10:24:34Z</time>
      </trkpt>
      <trkpt lat="48.23838" lon="0.63367">
        <ele>95</ele>
        <time>2012-03-23T10:24:38Z</time>
      </trkpt>
      <trkpt lat="48.23841" lon="0.63366">
        <ele>96</ele>
        <time>2012-03-23T10:24:41Z</time>
      </trkpt>
      <trkpt lat="48.23845" lon="0.63367">
        <ele>99</ele>
        <time>2012-03-23T10:24:45Z</time>
      </trkpt>
      <trkpt lat="48.23847" lon="0.63368">
        <ele>100</ele>
        <time>2012-03-23T10:24:50Z</time>
      </trkpt>
      <trkpt lat="48.23851" lon="0.63367">
        <ele>107</ele>
        <time>2012-03-23T10:25:04Z</time>
      </trkpt>
      <trkpt lat="48.23854" lon="0.63367">
        <ele>109</ele>
        <time>2012-03-23T10:25:11Z</time>
      </trkpt>
      <trkpt lat="48.23858" lon="0.63367">
        <ele>111</ele>
        <time>2012-03-23T10:25:15Z</time>
      </trkpt>
      <trkpt lat="48.23861" lon="0.63368">
        <ele>111</ele>
        <time>2012-03-23T10:25:18Z</time>
      </trkpt>
      <trkpt lat="48.23865" lon="0.63369">
        <ele>111</ele>
        <time>2012-03-23T10:25:21Z</time>
      </trkpt>
      <trkpt lat="48.23868" lon="0.63368">
        <ele>111</ele>
        <time>2012-03-23T10:25:26Z</time>
      </trkpt>
      <trkpt lat="48.23871" lon="0.63368">
        <ele>111</ele>
        <time>2012-03-23T10:25:29Z</time>
      </trkpt>
      <trkpt lat="48.23875" lon="0.63368">
        <ele>111</ele>
        <time>2012-03-23T10:25:33Z</time>
      </trkpt>
      <trkpt lat="48.23878" lon="0.63369">
        <ele>111</ele>
        <time>2012-03-23T10:25:37Z</time>
      </trkpt>
      <trkpt lat="48.23881" lon="0.63369">
        <ele>111</ele>
        <time>2012-03-23T10:25:41Z</time>
      </trkpt>
      <trkpt lat="48.23884" lon="0.63368">
        <ele>111</ele>
        <time>2012-03-23T10:25:48Z</time>
      </trkpt>
      <trkpt lat="48.23887" lon="0.63368">
        <ele>111</ele>
        <time>2012-03-23T10:25:52Z</time>
      </trkpt>
      <trkpt lat="48.2389" lon="0.63369">
        <ele>111</ele>
        <time>2012-03-23T10:25:56Z</time>
      </trkpt>
      <trkpt lat="48.23894" lon="0.6337">
        <ele>111</ele>
        <time>2012-03-23T10:26:00Z</time>
      </trkpt>
      <trkpt lat="48.23897" lon="0.63372">
        <ele>111</ele>
        <time>2012-03-23T10:26:04Z</time>
      </trkpt>
      <trkpt lat="48.23901" lon="0.63373">
        <ele>111</ele>
        <time>2012-03-23T10:26:08Z</time>
      </trkpt>
      <trkpt lat="48.23903" lon="0.63375">
        <ele>112</ele>
        <time>2012-03-23T10:26:13Z</time>
      </trkpt>
      <trkpt lat="48.23906" lon="0.63376">
        <ele>112</ele>
        <time>2012-03-23T10:26:17Z</time>
      </trkpt>
      <trkpt lat="48.23909" lon="0.63379">
        <ele>112</ele>
        <time>2012-03-23T10:26:24Z</time>
      </trkpt>
      <trkpt lat="48.23912" lon="0.63381">
        <ele>112</ele>
        <time>2012-03-23T10:26:27Z</time>
      </trkpt>
      <trkpt lat="48.23913" lon="0.63384">
        <ele>113</ele>
        <time>2012-03-23T10:26:31Z</time>
      </trkpt>
      <trkpt lat="48.23916" lon="0.63385">
        <ele>119</ele>
        <time>2012-03-23T10:26:39Z</time>
      </trkpt>
      <trkpt lat="48.23917" lon="0.63389">
        <ele>123</ele>
        <time>2012-03-23T10:26:44Z</time>
      </trkpt>
      <trkpt lat="48.2392" lon="0.63391">
        <ele>126</ele>
        <time>2012-03-23T10:26:49Z</time>
      </trkpt>
      <trkpt lat="48.23922" lon="0.63393">
        <ele>129</ele>
        <time>2012-03-23T10:26:55Z</time>
      </trkpt>
      <trkpt lat="48.23925" lon="0.63396">
        <ele>131</ele>
        <time>2012-03-23T10:27:01Z</time>
      </trkpt>
      <trkpt lat="48.23928" lon="0.63397">
        <ele>133</ele>
        <time>2012-03-23T10:27:07Z</time>
      </trkpt>
      <trkpt lat="48.2393" lon="0.63397">
        <ele>135</ele>
        <time>2012-03-23T10:27:10Z</time>
      </trkpt>
      <trkpt lat="48.23934" lon="0.63398">
        <ele>137</ele>
        <time>2012-03-23T10:27:16Z</time>
      </trkpt>
      <trkpt lat="48.23935" lon="0.634">
        <ele>137</ele>
        <time>2012-03-23T10:27:19Z</time>
      </trkpt>
      <trkpt lat="48.23938" lon="0.63401">
        <ele>138</ele>
        <time>2012-03-23T10:27:22Z</time>
      </trkpt>
      <trkpt lat="48.2394" lon="0.63402">
        <ele>138</ele>
        <time>2012-03-23T10:27:27Z</time>
      </trkpt>
      <trkpt lat="48.23943" lon="0.63402">
        <ele>138</ele>
        <time>2012-03-23T10:27:31Z</time>
      </trkpt>
      <trkpt lat="48.23946" lon="0.63406">
        <ele>138</ele>
        <time>2012-03-23T10:27:39Z</time>
      </trkpt>
      <trkpt lat="48.23949" lon="0.63408">
        <ele>138</ele>
        <time>2012-03-23T10:27:43Z</time>
      </trkpt>
      <trkpt lat="48.23951" lon="0.63412">
        <ele>138</ele>
        <time>2012-03-23T10:27:47Z</time>
      </trkpt>
      <trkpt lat="48.23953" lon="0.63415">
        <ele>140</ele>
        <time>2012-03-23T10:27:53Z</time>
      </trkpt>
      <trkpt lat="48.23954" lon="0.63417">
        <ele>140</ele>
        <time>2012-03-23T10:27:58Z</time>
      </trkpt>
      <trkpt lat="48.23954" lon="0.6342">
        <ele>140</ele>
        <time>2012-03-23T10:28:04Z</time>
      </trkpt>
      <trkpt lat="48.23956" lon="0.63424">
        <ele>141</ele>
        <time>2012-03-23T10:28:13Z</time>
      </trkpt>
      <trkpt lat="48.23955" lon="0.63427">
        <ele>143</ele>
        <time>2012-03-23T10:28:18Z</time>
      </trkpt>
      <trkpt lat="48.23957" lon="0.63431">
        <ele>145</ele>
        <time>2012-03-23T10:28:24Z</time>
      </trkpt>
      <trkpt lat="48.23958" lon="0.63436">
        <ele>145</ele>
        <time>2012-03-23T10:28:28Z</time>
      </trkpt>
      <trkpt lat="48.23962" lon="0.63438">
        <ele>145</ele>
        <time>2012-03-23T10:28:33Z</time>
      </trkpt>
      <trkpt lat="48.23964" lon="0.63441">
        <ele>145</ele>
        <time>2012-03-23T10:28:38Z</time>
      </trkpt>
      <trkpt lat="48.23966" lon="0.63445">
        <ele>145</ele>
        <time>2012-03-23T10:28:43Z</time>
      </trkpt>
      <trkpt lat="48.23969" lon="0.63447">
        <ele>145</ele>
        <time>2012-03-23T10:28:46Z</time>
      </trkpt>
      <trkpt lat="48.23971" lon="0.63446">
        <ele>145</ele>
        <time>2012-03-23T10:28:50Z</time>
      </trkpt>
      <trkpt lat="48.23974" lon="0.63446">
        <ele>146</ele>
        <time>2012-03-23T10:29:00Z</time>
      </trkpt>
      <trkpt lat="48.23977" lon="0.63446">
        <ele>148</ele>
        <time>2012-03-23T10:29:04Z</time>
      </trkpt>
      <trkpt lat="48.23979" lon="0.6345">
        <ele>151</ele>
        <time>2012-03-23T10:29:09Z</time>
      </trkpt>
      <trkpt lat="48.23982" lon="0.63453">
        <ele>155</ele>
        <time>2012-03-23T10:29:16Z</time>
      </trkpt>
      <trkpt lat="48.23984" lon="0.63456">
        <ele>156</ele>
        <time>2012-03-23T10:29:20Z</time>
      </trkpt>
      <trkpt lat="48.23986" lon="0.6346">
        <ele>156</ele>
        <time>2012-03-23T10:29:30Z</time>
      </trkpt>
      <trkpt lat="48.2399" lon="0.63467">
        <ele>154</ele>
        <time>2012-03-23T10:29:35Z</time>
      </trkpt>
      <trkpt lat="48.23993" lon="0.6347">
        <ele>154</ele>
        <time>2012-03-23T10:29:39Z</time>
      </trkpt>
      <trkpt lat="48.23996" lon="0.63472">
        <ele>154</ele>
        <time>2012-03-23T10:29:43Z</time>
      </trkpt>
      <trkpt lat="48.23999" lon="0.63474">
        <ele>154</ele>
        <time>2012-03-23T10:29:46Z</time>
      </trkpt>
      <trkpt lat="48.24002" lon="0.63476">
        <ele>154</ele>
        <time>2012-03-23T10:29:48Z</time>
      </trkpt>
      <trkpt lat="48.24004" lon="0.63477">
        <ele>154</ele>
        <time>2012-03-23T10:29:54Z</time>
      </trkpt>
      <trkpt lat="48.24005" lon="0.63481">
        <ele>154</ele>
        <time>2012-03-23T10:29:59Z</time>
      </trkpt>
      <trkpt lat="48.24006" lon="0.63486">
        <ele>154</ele>
        <time>2012-03-23T10:30:06Z</time>
      </trkpt>
      <trkpt lat="48.24007" lon="0.6349">
        <ele>154</ele>
        <time>2012-03-23T10:30:11Z</time>
      </trkpt>
      <trkpt lat="48.24008" lon="0.63495">
        <ele>154</ele>
        <time>2012-03-23T10:30:16Z</time>
      </trkpt>
      <trkpt lat="48.24011" lon="0.63497">
        <ele>154</ele>
        <time>2012-03-23T10:30:23Z</time>
      </trkpt>
      <trkpt lat="48.24014" lon="0.635">
        <ele>154</ele>
        <time>2012-03-23T10:30:26Z</time>
      </trkpt>
      <trkpt lat="48.24015" lon="0.63504">
        <ele>158</ele>
        <time>2012-03-23T10:30:35Z</time>
      </trkpt>
      <trkpt lat="48.24017" lon="0.63507">
        <ele>158</ele>
        <time>2012-03-23T10:30:42Z</time>
      </trkpt>
      <trkpt lat="48.24018" lon="0.63509">
        <ele>158</ele>
        <time>2012-03-23T10:30:47Z</time>
      </trkpt>
      <trkpt lat="48.2402" lon="0.63511">
        <ele>158</ele>
        <time>2012-03-23T10:30:52Z</time>
      </trkpt>
      <trkpt lat="48.24022" lon="0.63516">
        <ele>158</ele>
        <time>2012-03-23T10:30:58Z</time>
      </trkpt>
      <trkpt lat="48.24024" lon="0.6352">
        <ele>158</ele>
        <time>2012-03-23T10:31:02Z</time>
      </trkpt>
      <trkpt lat="48.24027" lon="0.63524">
        <ele>158</ele>
        <time>2012-03-23T10:31:08Z</time>
      </trkpt>
      <trkpt lat="48.2403" lon="0.63526">
        <ele>158</ele>
        <time>2012-03-23T10:31:12Z</time>
      </trkpt>
      <trkpt lat="48.24033" lon="0.63527">
        <ele>158</ele>
        <time>2012-03-23T10:31:16Z</time>
      </trkpt>
      <trkpt lat="48.24036" lon="0.6353">
        <ele>158</ele>
        <time>2012-03-23T10:31:20Z</time>
      </trkpt>
      <trkpt lat="48.24039" lon="0.63534">
        <ele>158</ele>
        <time>2012-03-23T10:31:24Z</time>
      </trkpt>
      <trkpt lat="48.24041" lon="0.63538">
        <ele>158</ele>
        <time>2012-03-23T10:31:31Z</time>
      </trkpt>
      <trkpt lat="48.24044" lon="0.63539">
        <ele>158</ele>
        <time>2012-03-23T10:31:37Z</time>
      </trkpt>
      <trkpt lat="48.24047" lon="0.63543">
        <ele>156</ele>
        <time>2012-03-23T10:31:42Z</time>
      </trkpt>
      <trkpt lat="48.2405" lon="0.63548">
        <ele>156</ele>
        <time>2012-03-23T10:31:48Z</time>
      </trkpt>
      <trkpt lat="48.24051" lon="0.63551">
        <ele>156</ele>
        <time>2012-03-23T10:31:52Z</time>
      </trkpt>
      <trkpt lat="48.24054" lon="0.63556">
        <ele>156</ele>
        <time>2012-03-23T10:31:57Z</time>
      </trkpt>
      <trkpt lat="48.24057" lon="0.63559">
        <ele>156</ele>
        <time>2012-03-23T10:32:01Z</time>
      </trkpt>
      <trkpt lat="48.24059" lon="0.63562">
        <ele>156</ele>
        <time>2012-03-23T10:32:06Z</time>
      </trkpt>
      <trkpt lat="48.24062" lon="0.63566">
        <ele>156</ele>
        <time>2012-03-23T10:32:10Z</time>
      </trkpt>
      <trkpt lat="48.24063" lon="0.6357">
        <ele>156</ele>
        <time>2012-03-23T10:32:14Z</time>
      </trkpt>
      <trkpt lat="48.24063" lon="0.63573">
        <ele>156</ele>
        <time>2012-03-23T10:32:18Z</time>
      </trkpt>
      <trkpt lat="48.24065" lon="0.63578">
        <ele>156</ele>
        <time>2012-03-23T10:32:21Z</time>
      </trkpt>
      <trkpt lat="48.24067" lon="0.63583">
        <ele>156</ele>
        <time>2012-03-23T10:32:25Z</time>
      </trkpt>
      <trkpt lat="48.24069" lon="0.63587">
        <ele>156</ele>
        <time>2012-03-23T10:32:29Z</time>
      </trkpt>
      <trkpt lat="48.2407" lon="0.63591">
        <ele>156</ele>
        <time>2012-03-23T10:32:33Z</time>
      </trkpt>
      <trkpt lat="48.24072" lon="0.63596">
        <ele>156</ele>
        <time>2012-03-23T10:32:38Z</time>
      </trkpt>
      <trkpt lat="48.24074" lon="0.63599">
        <ele>157</ele>
        <time>2012-03-23T10:32:42Z</time>
      </trkpt>
      <trkpt lat="48.24075" lon="0.63604">
        <ele>158</ele>
        <time>2012-03-23T10:32:45Z</time>
      </trkpt>
      <trkpt lat="48.24077" lon="0.63608">
        <ele>158</ele>
        <time>2012-03-23T10:32:49Z</time>
      </trkpt>
      <trkpt lat="48.24079" lon="0.63612">
        <ele>158</ele>
        <time>2012-03-23T10:32:51Z</time>
      </trkpt>
      <trkpt lat="48.2408" lon="0.63616">
        <ele>158</ele>
        <time>2012-03-23T10:32:54Z</time>
      </trkpt>
      <trkpt lat="48.2408" lon="0.6362">
        <ele>160</ele>
        <time>2012-03-23T10:32:59Z</time>
      </trkpt>
      <trkpt lat="48.2408" lon="0.63623">
        <ele>161</ele>
        <time>2012-03-23T10:33:03Z</time>
      </trkpt>
      <trkpt lat="48.24081" lon="0.63627">
        <ele>162</ele>
        <time>2012-03-23T10:33:08Z</time>
      </trkpt>
      <trkpt lat="48.24081" lon="0.63631">
        <ele>164</ele>
        <time>2012-03-23T10:33:13Z</time>
      </trkpt>
      <trkpt lat="48.24081" lon="0.63635">
        <ele>165</ele>
        <time>2012-03-23T10:33:17Z</time>
      </trkpt>
      <trkpt lat="48.2408" lon="0.63639">
        <ele>165</ele>
        <time>2012-03-23T10:33:21Z</time>
      </trkpt>
      <trkpt lat="48.2408" lon="0.63642">
        <ele>165</ele>
        <time>2012-03-23T10:33:26Z</time>
      </trkpt>
      <trkpt lat="48.24079" lon="0.63647">
        <ele>165</ele>
        <time>2012-03-23T10:33:30Z</time>
      </trkpt>
      <trkpt lat="48.24079" lon="0.63651">
        <ele>165</ele>
        <time>2012-03-23T10:33:34Z</time>
      </trkpt>
      <trkpt lat="48.24078" lon="0.63656">
        <ele>165</ele>
        <time>2012-03-23T10:33:38Z</time>
      </trkpt>
      <trkpt lat="48.2408" lon="0.6366">
        <ele>165</ele>
        <time>2012-03-23T10:33:42Z</time>
      </trkpt>
      <trkpt lat="48.24077" lon="0.63657">
        <ele>167</ele>
        <time>2012-03-23T10:33:57Z</time>
      </trkpt>
      <trkpt lat="48.24077" lon="0.6366">
        <ele>167</ele>
        <time>2012-03-23T10:34:05Z</time>
      </trkpt>
      <trkpt lat="48.2408" lon="0.63664">
        <ele>167</ele>
        <time>2012-03-23T10:34:16Z</time>
      </trkpt>
      <trkpt lat="48.24078" lon="0.63662">
        <ele>167</ele>
        <time>2012-03-23T10:34:31Z</time>
      </trkpt>
      <trkpt lat="48.24076" lon="0.63659">
        <ele>166</ele>
        <time>2012-03-23T10:35:21Z</time>
      </trkpt>
      <trkpt lat="48.24078" lon="0.63659">
        <ele>166</ele>
        <time>2012-03-23T10:35:40Z</time>
      </trkpt>
      <trkpt lat="48.2408" lon="0.63662">
        <ele>166</ele>
        <time>2012-03-23T10:35:57Z</time>
      </trkpt>
      <trkpt lat="48.24079" lon="0.63661">
        <ele>167</ele>
        <time>2012-03-23T10:36:07Z</time>
      </trkpt>
      <trkpt lat="48.24076" lon="0.6366">
        <ele>168</ele>
        <time>2012-03-23T10:36:31Z</time>
      </trkpt>
      <trkpt lat="48.24076" lon="0.63659">
        <ele>168</ele>
        <time>2012-03-23T10:36:44Z</time>
      </trkpt>
      <trkpt lat="48.24077" lon="0.63658">
        <ele>170</ele>
        <time>2012-03-23T10:37:29Z</time>
      </trkpt>
      <trkpt lat="48.24078" lon="0.63661">
        <ele>170</ele>
        <time>2012-03-23T10:37:39Z</time>
      </trkpt>
      <trkpt lat="48.24078" lon="0.63665">
        <ele>169</ele>
        <time>2012-03-23T10:37:49Z</time>
      </trkpt>
      <trkpt lat="48.24077" lon="0.63661">
        <ele>166</ele>
        <time>2012-03-23T10:38:01Z</time>
      </trkpt>
      <trkpt lat="48.24078" lon="0.6366">
        <ele>166</ele>
        <time>2012-03-23T10:38:13Z</time>
      </trkpt>
      <trkpt lat="48.24077" lon="0.63656">
        <ele>172</ele>
        <time>2012-03-23T10:38:32Z</time>
      </trkpt>
      <trkpt lat="48.24075" lon="0.63652">
        <ele>174</ele>
        <time>2012-03-23T10:39:00Z</time>
      </trkpt>
      <trkpt lat="48.24073" lon="0.63648">
        <ele>174</ele>
        <time>2012-03-23T10:39:07Z</time>
      </trkpt>
      <trkpt lat="48.24073" lon="0.63653">
        <ele>173</ele>
        <time>2012-03-23T10:39:21Z</time>
      </trkpt>
      <trkpt lat="48.24073" lon="0.63656">
        <ele>163</ele>
        <time>2012-03-23T10:39:44Z</time>
      </trkpt>
      <trkpt lat="48.24075" lon="0.63656">
        <ele>166</ele>
        <time>2012-03-23T10:40:18Z</time>
      </trkpt>
      <trkpt lat="48.24078" lon="0.63657">
        <ele>168</ele>
        <time>2012-03-23T10:40:30Z</time>
      </trkpt>
      <trkpt lat="48.24078" lon="0.63658">
        <ele>169</ele>
        <time>2012-03-23T10:40:55Z</time>
      </trkpt>
      <trkpt lat="48.24075" lon="0.63656">
        <ele>169</ele>
        <time>2012-03-23T10:41:11Z</time>
      </trkpt>
      <trkpt lat="48.24076" lon="0.6366">
        <ele>169</ele>
        <time>2012-03-23T10:41:29Z</time>
      </trkpt>
      <trkpt lat="48.24075" lon="0.63657">
        <ele>169</ele>
        <time>2012-03-23T10:41:48Z</time>
      </trkpt>
      <trkpt lat="48.24073" lon="0.63653">
        <ele>169</ele>
        <time>2012-03-23T10:41:54Z</time>
      </trkpt>
      <trkpt lat="48.24071" lon="0.63651">
        <ele>171</ele>
        <time>2012-03-23T10:42:04Z</time>
      </trkpt>
      <trkpt lat="48.24073" lon="0.63653">
        <ele>174</ele>
        <time>2012-03-23T10:42:35Z</time>
      </trkpt>
      <trkpt lat="48.24076" lon="0.63656">
        <ele>176</ele>
        <time>2012-03-23T10:42:50Z</time>
      </trkpt>
      <trkpt lat="48.24076" lon="0.63655">
        <ele>180</ele>
        <time>2012-03-23T10:43:17Z</time>
      </trkpt>
      <trkpt lat="48.24075" lon="0.63654">
        <ele>177</ele>
        <time>2012-03-23T10:43:24Z</time>
      </trkpt>
      <trkpt lat="48.24078" lon="0.63655">
        <ele>177</ele>
        <time>2012-03-23T10:43:30Z</time>
      </trkpt>
      <trkpt lat="48.24081" lon="0.63656">
        <ele>177</ele>
        <time>2012-03-23T10:43:35Z</time>
      </trkpt>
      <trkpt lat="48.24079" lon="0.63655">
        <ele>177</ele>
        <time>2012-03-23T10:43:44Z</time>
      </trkpt>
      <trkpt lat="48.24081" lon="0.63658">
        <ele>177</ele>
        <time>2012-03-23T10:44:01Z</time>
      </trkpt>
      <trkpt lat="48.24083" lon="0.63658">
        <ele>180</ele>
        <time>2012-03-23T10:44:22Z</time>
      </trkpt>
      <trkpt lat="48.24081" lon="0.63656">
        <ele>177</ele>
        <time>2012-03-23T10:44:36Z</time>
      </trkpt>
      <trkpt lat="48.24079" lon="0.63652">
        <ele>174</ele>
        <time>2012-03-23T10:44:40Z</time>
      </trkpt>
      <trkpt lat="48.24078" lon="0.63648">
        <ele>174</ele>
        <time>2012-03-23T10:44:45Z</time>
      </trkpt>
      <trkpt lat="48.24077" lon="0.63644">
        <ele>174</ele>
        <time>2012-03-23T10:44:50Z</time>
      </trkpt>
      <trkpt lat="48.24074" lon="0.63641">
        <ele>174</ele>
        <time>2012-03-23T10:45:02Z</time>
      </trkpt>
      <trkpt lat="48.24074" lon="0.63645">
        <ele>174</ele>
        <time>2012-03-23T10:45:09Z</time>
      </trkpt>
      <trkpt lat="48.24076" lon="0.63651">
        <ele>174</ele>
        <time>2012-03-23T10:45:14Z</time>
      </trkpt>
      <trkpt lat="48.24078" lon="0.63656">
        <ele>174</ele>
        <time>2012-03-23T10:45:19Z</time>
      </trkpt>
      <trkpt lat="48.24077" lon="0.63659">
        <ele>174</ele>
        <time>2012-03-23T10:45:26Z</time>
      </trkpt>
      <trkpt lat="48.24076" lon="0.63664">
        <ele>170</ele>
        <time>2012-03-23T10:45:32Z</time>
      </trkpt>
      <trkpt lat="48.24077" lon="0.63669">
        <ele>168</ele>
        <time>2012-03-23T10:45:35Z</time>
      </trkpt>
      <trkpt lat="48.24079" lon="0.63673">
        <ele>168</ele>
        <time>2012-03-23T10:45:39Z</time>
      </trkpt>
      <trkpt lat="48.24079" lon="0.63677">
        <ele>167</ele>
        <time>2012-03-23T10:45:43Z</time>
      </trkpt>
      <trkpt lat="48.24079" lon="0.63682">
        <ele>167</ele>
        <time>2012-03-23T10:45:46Z</time>
      </trkpt>
      <trkpt lat="48.24081" lon="0.63685">
        <ele>167</ele>
        <time>2012-03-23T10:45:50Z</time>
      </trkpt>
      <trkpt lat="48.24083" lon="0.6369">
        <ele>167</ele>
        <time>2012-03-23T10:45:53Z</time>
      </trkpt>
      <trkpt lat="48.24085" lon="0.63694">
        <ele>167</ele>
        <time>2012-03-23T10:45:57Z</time>
      </trkpt>
      <trkpt lat="48.24086" lon="0.63699">
        <ele>167</ele>
        <time>2012-03-23T10:46:02Z</time>
      </trkpt>
      <trkpt lat="48.24086" lon="0.63703">
        <ele>167</ele>
        <time>2012-03-23T10:46:06Z</time>
      </trkpt>
      <trkpt lat="48.24088" lon="0.63709">
        <ele>167</ele>
        <time>2012-03-23T10:46:09Z</time>
      </trkpt>
      <trkpt lat="48.24092" lon="0.63713">
        <ele>167</ele>
        <time>2012-03-23T10:46:14Z</time>
      </trkpt>
      <trkpt lat="48.24094" lon="0.63717">
        <ele>167</ele>
        <time>2012-03-23T10:46:17Z</time>
      </trkpt>
      <trkpt lat="48.24097" lon="0.63721">
        <ele>167</ele>
        <time>2012-03-23T10:46:21Z</time>
      </trkpt>
      <trkpt lat="48.24098" lon="0.63726">
        <ele>167</ele>
        <time>2012-03-23T10:46:26Z</time>
      </trkpt>
      <trkpt lat="48.24101" lon="0.63731">
        <ele>167</ele>
        <time>2012-03-23T10:46:32Z</time>
      </trkpt>
      <trkpt lat="48.24103" lon="0.63736">
        <ele>167</ele>
        <time>2012-03-23T10:46:36Z</time>
      </trkpt>
      <trkpt lat="48.24105" lon="0.63741">
        <ele>167</ele>
        <time>2012-03-23T10:46:40Z</time>
      </trkpt>
      <trkpt lat="48.24107" lon="0.63745">
        <ele>167</ele>
        <time>2012-03-23T10:46:44Z</time>
      </trkpt>
      <trkpt lat="48.24108" lon="0.63751">
        <ele>167</ele>
        <time>2012-03-23T10:46:49Z</time>
      </trkpt>
      <trkpt lat="48.2411" lon="0.63756">
        <ele>167</ele>
        <time>2012-03-23T10:46:52Z</time>
      </trkpt>
      <trkpt lat="48.24113" lon="0.63758">
        <ele>167</ele>
        <time>2012-03-23T10:46:56Z</time>
      </trkpt>
      <trkpt lat="48.24115" lon="0.63763">
        <ele>167</ele>
        <time>2012-03-23T10:47:01Z</time>
      </trkpt>
      <trkpt lat="48.24117" lon="0.63767">
        <ele>167</ele>
        <time>2012-03-23T10:47:04Z</time>
      </trkpt>
      <trkpt lat="48.24119" lon="0.63772">
        <ele>166</ele>
        <time>2012-03-23T10:47:08Z</time>
      </trkpt>
      <trkpt lat="48.24121" lon="0.63777">
        <ele>166</ele>
        <time>2012-03-23T10:47:13Z</time>
      </trkpt>
      <trkpt lat="48.24123" lon="0.63783">
        <ele>166</ele>
        <time>2012-03-23T10:47:16Z</time>
      </trkpt>
      <trkpt lat="48.24122" lon="0.63788">
        <ele>166</ele>
        <time>2012-03-23T10:47:20Z</time>
      </trkpt>
      <trkpt lat="48.2412" lon="0.63793">
        <ele>166</ele>
        <time>2012-03-23T10:47:24Z</time>
      </trkpt>
      <trkpt lat="48.24118" lon="0.63798">
        <ele>166</ele>
        <time>2012-03-23T10:47:27Z</time>
      </trkpt>
      <trkpt lat="48.24115" lon="0.63803">
        <ele>166</ele>
        <time>2012-03-23T10:47:32Z</time>
      </trkpt>
      <trkpt lat="48.24112" lon="0.63808">
        <ele>166</ele>
        <time>2012-03-23T10:47:37Z</time>
      </trkpt>
      <trkpt lat="48.2411" lon="0.63813">
        <ele>166</ele>
        <time>2012-03-23T10:47:40Z</time>
      </trkpt>
      <trkpt lat="48.24107" lon="0.63817">
        <ele>166</ele>
        <time>2012-03-23T10:47:44Z</time>
      </trkpt>
      <trkpt lat="48.24104" lon="0.63822">
        <ele>166</ele>
        <time>2012-03-23T10:47:49Z</time>
      </trkpt>
      <trkpt lat="48.241" lon="0.63827">
        <ele>166</ele>
        <time>2012-03-23T10:47:52Z</time>
      </trkpt>
      <trkpt lat="48.24098" lon="0.63832">
        <ele>166</ele>
        <time>2012-03-23T10:47:56Z</time>
      </trkpt>
      <trkpt lat="48.24095" lon="0.63837">
        <ele>166</ele>
        <time>2012-03-23T10:48:01Z</time>
      </trkpt>
      <trkpt lat="48.24091" lon="0.63842">
        <ele>166</ele>
        <time>2012-03-23T10:48:04Z</time>
      </trkpt>
      <trkpt lat="48.24088" lon="0.63847">
        <ele>166</ele>
        <time>2012-03-23T10:48:08Z</time>
      </trkpt>
      <trkpt lat="48.24085" lon="0.63851">
        <ele>166</ele>
        <time>2012-03-23T10:48:13Z</time>
      </trkpt>
      <trkpt lat="48.24082" lon="0.63856">
        <ele>166</ele>
        <time>2012-03-23T10:48:16Z</time>
      </trkpt>
      <trkpt lat="48.24078" lon="0.63861">
        <ele>166</ele>
        <time>2012-03-23T10:48:20Z</time>
      </trkpt>
      <trkpt lat="48.24075" lon="0.63867">
        <ele>166</ele>
        <time>2012-03-23T10:48:25Z</time>
      </trkpt>
      <trkpt lat="48.24072" lon="0.63872">
        <ele>166</ele>
        <time>2012-03-23T10:48:28Z</time>
      </trkpt>
      <trkpt lat="48.24068" lon="0.63877">
        <ele>166</ele>
        <time>2012-03-23T10:48:32Z</time>
      </trkpt>
      <trkpt lat="48.24065" lon="0.63883">
        <ele>166</ele>
        <time>2012-03-23T10:48:37Z</time>
      </trkpt>
      <trkpt lat="48.24062" lon="0.63889">
        <ele>166</ele>
        <time>2012-03-23T10:48:40Z</time>
      </trkpt>
      <trkpt lat="48.2406" lon="0.63894">
        <ele>166</ele>
        <time>2012-03-23T10:48:44Z</time>
      </trkpt>
      <trkpt lat="48.24057" lon="0.639">
        <ele>166</ele>
        <time>2012-03-23T10:48:49Z</time>
      </trkpt>
      <trkpt lat="48.24054" lon="0.63906">
        <ele>166</ele>
        <time>2012-03-23T10:48:52Z</time>
      </trkpt>
      <trkpt lat="48.24052" lon="0.63912">
        <ele>166</ele>
        <time>2012-03-23T10:48:56Z</time>
      </trkpt>
      <trkpt lat="48.2405" lon="0.63917">
        <ele>166</ele>
        <time>2012-03-23T10:49:00Z</time>
      </trkpt>
      <trkpt lat="48.24047" lon="0.63923">
        <ele>166</ele>
        <time>2012-03-23T10:49:03Z</time>
      </trkpt>
      <trkpt lat="48.24044" lon="0.63928">
        <ele>166</ele>
        <time>2012-03-23T10:49:07Z</time>
      </trkpt>
      <trkpt lat="48.24041" lon="0.63934">
        <ele>166</ele>
        <time>2012-03-23T10:49:12Z</time>
      </trkpt>
      <trkpt lat="48.24038" lon="0.63942">
        <ele>166</ele>
        <time>2012-03-23T10:49:17Z</time>
      </trkpt>
      <trkpt lat="48.24035" lon="0.63948">
        <ele>166</ele>
        <time>2012-03-23T10:49:20Z</time>
      </trkpt>
      <trkpt lat="48.24032" lon="0.63954">
        <ele>167</ele>
        <time>2012-03-23T10:49:24Z</time>
      </trkpt>
      <trkpt lat="48.24029" lon="0.6396">
        <ele>167</ele>
        <time>2012-03-23T10:49:28Z</time>
      </trkpt>
      <trkpt lat="48.24027" lon="0.63965">
        <ele>167</ele>
        <time>2012-03-23T10:49:31Z</time>
      </trkpt>
      <trkpt lat="48.24024" lon="0.63971">
        <ele>167</ele>
        <time>2012-03-23T10:49:35Z</time>
      </trkpt>
      <trkpt lat="48.24022" lon="0.63975">
        <ele>167</ele>
        <time>2012-03-23T10:49:39Z</time>
      </trkpt>
      <trkpt lat="48.24019" lon="0.63983">
        <ele>167</ele>
        <time>2012-03-23T10:49:43Z</time>
      </trkpt>
      <trkpt lat="48.24016" lon="0.63988">
        <ele>167</ele>
        <time>2012-03-23T10:49:47Z</time>
      </trkpt>
      <trkpt lat="48.24013" lon="0.63994">
        <ele>167</ele>
        <time>2012-03-23T10:49:51Z</time>
      </trkpt>
      <trkpt lat="48.24011" lon="0.63999">
        <ele>167</ele>
        <time>2012-03-23T10:49:54Z</time>
      </trkpt>
      <trkpt lat="48.24008" lon="0.64005">
        <ele>167</ele>
        <time>2012-03-23T10:49:58Z</time>
      </trkpt>
      <trkpt lat="48.24005" lon="0.6401">
        <ele>167</ele>
        <time>2012-03-23T10:50:02Z</time>
      </trkpt>
      <trkpt lat="48.24002" lon="0.64016">
        <ele>167</ele>
        <time>2012-03-23T10:50:05Z</time>
      </trkpt>
      <trkpt lat="48.23999" lon="0.6402">
        <ele>167</ele>
        <time>2012-03-23T10:50:08Z</time>
      </trkpt>
      <trkpt lat="48.23996" lon="0.64025">
        <ele>167</ele>
        <time>2012-03-23T10:50:12Z</time>
      </trkpt>
      <trkpt lat="48.23993" lon="0.6403">
        <ele>167</ele>
        <time>2012-03-23T10:50:16Z</time>
      </trkpt>
      <trkpt lat="48.23989" lon="0.64035">
        <ele>167</ele>
        <time>2012-03-23T10:50:20Z</time>
      </trkpt>
      <trkpt lat="48.23986" lon="0.6404">
        <ele>167</ele>
        <time>2012-03-23T10:50:24Z</time>
      </trkpt>
      <trkpt lat="48.23983" lon="0.64045">
        <ele>167</ele>
        <time>2012-03-23T10:50:28Z</time>
      </trkpt>
      <trkpt lat="48.23978" lon="0.64051">
        <ele>167</ele>
        <time>2012-03-23T10:50:33Z</time>
      </trkpt>
      <trkpt lat="48.23974" lon="0.64055">
        <ele>167</ele>
        <time>2012-03-23T10:50:37Z</time>
      </trkpt>
      <trkpt lat="48.2397" lon="0.6406">
        <ele>167</ele>
        <time>2012-03-23T10:50:42Z</time>
      </trkpt>
      <trkpt lat="48.23965" lon="0.64064">
        <ele>167</ele>
        <time>2012-03-23T10:50:47Z</time>
      </trkpt>
      <trkpt lat="48.23961" lon="0.64069">
        <ele>167</ele>
        <time>2012-03-23T10:50:50Z</time>
      </trkpt>
      <trkpt lat="48.23957" lon="0.64073">
        <ele>167</ele>
        <time>2012-03-23T10:50:54Z</time>
      </trkpt>
      <trkpt lat="48.23953" lon="0.64077">
        <ele>167</ele>
        <time>2012-03-23T10:50:59Z</time>
      </trkpt>
      <trkpt lat="48.23948" lon="0.64082">
        <ele>167</ele>
        <time>2012-03-23T10:51:03Z</time>
      </trkpt>
      <trkpt lat="48.23944" lon="0.64087">
        <ele>167</ele>
        <time>2012-03-23T10:51:07Z</time>
      </trkpt>
      <trkpt lat="48.2394" lon="0.6409">
        <ele>167</ele>
        <time>2012-03-23T10:51:11Z</time>
      </trkpt>
      <trkpt lat="48.23937" lon="0.64094">
        <ele>167</ele>
        <time>2012-03-23T10:51:15Z</time>
      </trkpt>
      <trkpt lat="48.23933" lon="0.64098">
        <ele>167</ele>
        <time>2012-03-23T10:51:18Z</time>
      </trkpt>
      <trkpt lat="48.2393" lon="0.64103">
        <ele>167</ele>
        <time>2012-03-23T10:51:22Z</time>
      </trkpt>
      <trkpt lat="48.23926" lon="0.64107">
        <ele>167</ele>
        <time>2012-03-23T10:51:27Z</time>
      </trkpt>
      <trkpt lat="48.23922" lon="0.64108">
        <ele>167</ele>
        <time>2012-03-23T10:51:29Z</time>
      </trkpt>
      <trkpt lat="48.23919" lon="0.64104">
        <ele>167</ele>
        <time>2012-03-23T10:51:32Z</time>
      </trkpt>
      <trkpt lat="48.23916" lon="0.64101">
        <ele>167</ele>
        <time>2012-03-23T10:51:35Z</time>
      </trkpt>
      <trkpt lat="48.23914" lon="0.641">
        <ele>167</ele>
        <time>2012-03-23T10:51:38Z</time>
      </trkpt>
      <trkpt lat="48.23911" lon="0.64097">
        <ele>167</ele>
        <time>2012-03-23T10:51:40Z</time>
      </trkpt>
      <trkpt lat="48.23907" lon="0.64092">
        <ele>167</ele>
        <time>2012-03-23T10:51:44Z</time>
      </trkpt>
      <trkpt lat="48.23903" lon="0.64088">
        <ele>167</ele>
        <time>2012-03-23T10:51:48Z</time>
      </trkpt>
      <trkpt lat="48.23899" lon="0.64085">
        <ele>167</ele>
        <time>2012-03-23T10:51:52Z</time>
      </trkpt>
      <trkpt lat="48.23895" lon="0.6408">
        <ele>167</ele>
        <time>2012-03-23T10:51:56Z</time>
      </trkpt>
      <trkpt lat="48.23891" lon="0.64076">
        <ele>167</ele>
        <time>2012-03-23T10:52:00Z</time>
      </trkpt>
      <trkpt lat="48.23887" lon="0.64073">
        <ele>167</ele>
        <time>2012-03-23T10:52:04Z</time>
      </trkpt>
      <trkpt lat="48.23884" lon="0.64069">
        <ele>167</ele>
        <time>2012-03-23T10:52:07Z</time>
      </trkpt>
      <trkpt lat="48.2388" lon="0.64066">
        <ele>167</ele>
        <time>2012-03-23T10:52:11Z</time>
      </trkpt>
      <trkpt lat="48.23877" lon="0.64064">
        <ele>167</ele>
        <time>2012-03-23T10:52:13Z</time>
      </trkpt>
      <trkpt lat="48.23873" lon="0.6406">
        <ele>167</ele>
        <time>2012-03-23T10:52:17Z</time>
      </trkpt>
      <trkpt lat="48.23869" lon="0.64057">
        <ele>167</ele>
        <time>2012-03-23T10:52:21Z</time>
      </trkpt>
      <trkpt lat="48.23867" lon="0.64056">
        <ele>167</ele>
        <time>2012-03-23T10:52:23Z</time>
      </trkpt>
      <trkpt lat="48.23862" lon="0.64054">
        <ele>167</ele>
        <time>2012-03-23T10:52:27Z</time>
      </trkpt>
      <trkpt lat="48.23859" lon="0.64052">
        <ele>166</ele>
        <time>2012-03-23T10:52:30Z</time>
      </trkpt>
      <trkpt lat="48.23856" lon="0.64051">
        <ele>166</ele>
        <time>2012-03-23T10:52:33Z</time>
      </trkpt>
      <trkpt lat="48.23852" lon="0.6405">
        <ele>166</ele>
        <time>2012-03-23T10:52:37Z</time>
      </trkpt>
      <trkpt lat="48.23848" lon="0.6405">
        <ele>166</ele>
        <time>2012-03-23T10:52:40Z</time>
      </trkpt>
      <trkpt lat="48.23846" lon="0.64049">
        <ele>165</ele>
        <time>2012-03-23T10:52:42Z</time>
      </trkpt>
      <trkpt lat="48.23843" lon="0.64049">
        <ele>165</ele>
        <time>2012-03-23T10:52:44Z</time>
      </trkpt>
      <trkpt lat="48.23841" lon="0.64049">
        <ele>165</ele>
        <time>2012-03-23T10:52:46Z</time>
      </trkpt>
      <trkpt lat="48.23838" lon="0.64048">
        <ele>165</ele>
        <time>2012-03-23T10:52:49Z</time>
      </trkpt>
      <trkpt lat="48.23834" lon="0.64048">
        <ele>165</ele>
        <time>2012-03-23T10:52:52Z</time>
      </trkpt>
      <trkpt lat="48.23832" lon="0.64047">
        <ele>165</ele>
        <time>2012-03-23T10:52:54Z</time>
      </trkpt>
      <trkpt lat="48.2383" lon="0.64047">
        <ele>165</ele>
        <time>2012-03-23T10:52:56Z</time>
      </trkpt>
      <trkpt lat="48.23827" lon="0.64047">
        <ele>165</ele>
        <time>2012-03-23T10:52:58Z</time>
      </trkpt>
      <trkpt lat="48.23824" lon="0.64047">
        <ele>165</ele>
        <time>2012-03-23T10:53:00Z</time>
      </trkpt>
      <trkpt lat="48.23822" lon="0.64047">
        <ele>165</ele>
        <time>2012-03-23T10:53:02Z</time>
      </trkpt>
      <trkpt lat="48.23819" lon="0.64047">
        <ele>165</ele>
        <time>2012-03-23T10:53:05Z</time>
      </trkpt>
      <trkpt lat="48.23817" lon="0.64046">
        <ele>165</ele>
        <time>2012-03-23T10:53:07Z</time>
      </trkpt>
      <trkpt lat="48.23813" lon="0.64046">
        <ele>165</ele>
        <time>2012-03-23T10:53:10Z</time>
      </trkpt>
      <trkpt lat="48.23809" lon="0.64046">
        <ele>165</ele>
        <time>2012-03-23T10:53:13Z</time>
      </trkpt>
      <trkpt lat="48.23806" lon="0.64045">
        <ele>165</ele>
        <time>2012-03-23T10:53:16Z</time>
      </trkpt>
      <trkpt lat="48.23802" lon="0.64044">
        <ele>165</ele>
        <time>2012-03-23T10:53:19Z</time>
      </trkpt>
      <trkpt lat="48.238" lon="0.64045">
        <ele>165</ele>
        <time>2012-03-23T10:53:21Z</time>
      </trkpt>
      <trkpt lat="48.23796" lon="0.64044">
        <ele>165</ele>
        <time>2012-03-23T10:53:24Z</time>
      </trkpt>
      <trkpt lat="48.23793" lon="0.64045">
        <ele>165</ele>
        <time>2012-03-23T10:53:27Z</time>
      </trkpt>
      <trkpt lat="48.2379" lon="0.64045">
        <ele>165</ele>
        <time>2012-03-23T10:53:30Z</time>
      </trkpt>
      <trkpt lat="48.23787" lon="0.64045">
        <ele>165</ele>
        <time>2012-03-23T10:53:32Z</time>
      </trkpt>
      <trkpt lat="48.23784" lon="0.64045">
        <ele>165</ele>
        <time>2012-03-23T10:53:35Z</time>
      </trkpt>
      <trkpt lat="48.23781" lon="0.64045">
        <ele>165</ele>
        <time>2012-03-23T10:53:37Z</time>
      </trkpt>
      <trkpt lat="48.23779" lon="0.64044">
        <ele>165</ele>
        <time>2012-03-23T10:53:39Z</time>
      </trkpt>
      <trkpt lat="48.23777" lon="0.64044">
        <ele>165</ele>
        <time>2012-03-23T10:53:41Z</time>
      </trkpt>
      <trkpt lat="48.23774" lon="0.64044">
        <ele>165</ele>
        <time>2012-03-23T10:53:43Z</time>
      </trkpt>
      <trkpt lat="48.23771" lon="0.64044">
        <ele>165</ele>
        <time>2012-03-23T10:53:46Z</time>
      </trkpt>
      <trkpt lat="48.23768" lon="0.64043">
        <ele>165</ele>
        <time>2012-03-23T10:53:49Z</time>
      </trkpt>
      <trkpt lat="48.23765" lon="0.64043">
        <ele>165</ele>
        <time>2012-03-23T10:53:51Z</time>
      </trkpt>
      <trkpt lat="48.23763" lon="0.64043">
        <ele>165</ele>
        <time>2012-03-23T10:53:53Z</time>
      </trkpt>
      <trkpt lat="48.2376" lon="0.64043">
        <ele>165</ele>
        <time>2012-03-23T10:53:56Z</time>
      </trkpt>
      <trkpt lat="48.23757" lon="0.64043">
        <ele>165</ele>
        <time>2012-03-23T10:53:58Z</time>
      </trkpt>
      <trkpt lat="48.23755" lon="0.64043">
        <ele>165</ele>
        <time>2012-03-23T10:54:00Z</time>
      </trkpt>
      <trkpt lat="48.23752" lon="0.64042">
        <ele>165</ele>
        <time>2012-03-23T10:54:02Z</time>
      </trkpt>
      <trkpt lat="48.2375" lon="0.64042">
        <ele>165</ele>
        <time>2012-03-23T10:54:04Z</time>
      </trkpt>
      <trkpt lat="48.23747" lon="0.64042">
        <ele>165</ele>
        <time>2012-03-23T10:54:06Z</time>
      </trkpt>
      <trkpt lat="48.23745" lon="0.64041">
        <ele>165</ele>
        <time>2012-03-23T10:54:08Z</time>
      </trkpt>
      <trkpt lat="48.23743" lon="0.6404">
        <ele>165</ele>
        <time>2012-03-23T10:54:10Z</time>
      </trkpt>
      <trkpt lat="48.2374" lon="0.6404">
        <ele>165</ele>
        <time>2012-03-23T10:54:12Z</time>
      </trkpt>
      <trkpt lat="48.23738" lon="0.64039">
        <ele>165</ele>
        <time>2012-03-23T10:54:14Z</time>
      </trkpt>
      <trkpt lat="48.23735" lon="0.64038">
        <ele>165</ele>
        <time>2012-03-23T10:54:17Z</time>
      </trkpt>
      <trkpt lat="48.23732" lon="0.64037">
        <ele>165</ele>
        <time>2012-03-23T10:54:19Z</time>
      </trkpt>
      <trkpt lat="48.23729" lon="0.64035">
        <ele>165</ele>
        <time>2012-03-23T10:54:22Z</time>
      </trkpt>
      <trkpt lat="48.23725" lon="0.64031">
        <ele>165</ele>
        <time>2012-03-23T10:54:26Z</time>
      </trkpt>
      <trkpt lat="48.23721" lon="0.64028">
        <ele>165</ele>
        <time>2012-03-23T10:54:30Z</time>
      </trkpt>
      <trkpt lat="48.23717" lon="0.64024">
        <ele>165</ele>
        <time>2012-03-23T10:54:34Z</time>
      </trkpt>
      <trkpt lat="48.23714" lon="0.64019">
        <ele>165</ele>
        <time>2012-03-23T10:54:38Z</time>
      </trkpt>
      <trkpt lat="48.23711" lon="0.64015">
        <ele>165</ele>
        <time>2012-03-23T10:54:42Z</time>
      </trkpt>
      <trkpt lat="48.23708" lon="0.6401">
        <ele>165</ele>
        <time>2012-03-23T10:54:46Z</time>
      </trkpt>
      <trkpt lat="48.23704" lon="0.64006">
        <ele>165</ele>
        <time>2012-03-23T10:54:50Z</time>
      </trkpt>
      <trkpt lat="48.237" lon="0.64001">
        <ele>165</ele>
        <time>2012-03-23T10:54:54Z</time>
      </trkpt>
      <trkpt lat="48.23697" lon="0.63996">
        <ele>165</ele>
        <time>2012-03-23T10:54:58Z</time>
      </trkpt>
      <trkpt lat="48.23693" lon="0.63992">
        <ele>165</ele>
        <time>2012-03-23T10:55:02Z</time>
      </trkpt>
      <trkpt lat="48.23689" lon="0.6399">
        <ele>165</ele>
        <time>2012-03-23T10:55:06Z</time>
      </trkpt>
      <trkpt lat="48.23686" lon="0.63989">
        <ele>165</ele>
        <time>2012-03-23T10:55:09Z</time>
      </trkpt>
      <trkpt lat="48.23683" lon="0.63989">
        <ele>165</ele>
        <time>2012-03-23T10:55:12Z</time>
      </trkpt>
      <trkpt lat="48.23681" lon="0.6399">
        <ele>165</ele>
        <time>2012-03-23T10:55:14Z</time>
      </trkpt>
      <trkpt lat="48.23678" lon="0.63991">
        <ele>165</ele>
        <time>2012-03-23T10:55:16Z</time>
      </trkpt>
      <trkpt lat="48.23675" lon="0.63994">
        <ele>165</ele>
        <time>2012-03-23T10:55:19Z</time>
      </trkpt>
      <trkpt lat="48.23672" lon="0.63996">
        <ele>165</ele>
        <time>2012-03-23T10:55:21Z</time>
      </trkpt>
      <trkpt lat="48.2367" lon="0.63998">
        <ele>165</ele>
        <time>2012-03-23T10:55:23Z</time>
      </trkpt>
      <trkpt lat="48.23667" lon="0.63999">
        <ele>165</ele>
        <time>2012-03-23T10:55:25Z</time>
      </trkpt>
      <trkpt lat="48.23665" lon="0.64001">
        <ele>165</ele>
        <time>2012-03-23T10:55:27Z</time>
      </trkpt>
      <trkpt lat="48.23663" lon="0.64002">
        <ele>165</ele>
        <time>2012-03-23T10:55:29Z</time>
      </trkpt>
      <trkpt lat="48.2366" lon="0.64004">
        <ele>165</ele>
        <time>2012-03-23T10:55:32Z</time>
      </trkpt>
      <trkpt lat="48.23657" lon="0.64006">
        <ele>165</ele>
        <time>2012-03-23T10:55:34Z</time>
      </trkpt>
      <trkpt lat="48.23654" lon="0.64008">
        <ele>165</ele>
        <time>2012-03-23T10:55:37Z</time>
      </trkpt>
      <trkpt lat="48.23651" lon="0.6401">
        <ele>165</ele>
        <time>2012-03-23T10:55:40Z</time>
      </trkpt>
      <trkpt lat="48.23647" lon="0.64013">
        <ele>165</ele>
        <time>2012-03-23T10:55:44Z</time>
      </trkpt>
      <trkpt lat="48.23643" lon="0.64017">
        <ele>165</ele>
        <time>2012-03-23T10:55:48Z</time>
      </trkpt>
      <trkpt lat="48.2364" lon="0.64021">
        <ele>165</ele>
        <time>2012-03-23T10:55:52Z</time>
      </trkpt>
      <trkpt lat="48.23636" lon="0.64026">
        <ele>165</ele>
        <time>2012-03-23T10:55:56Z</time>
      </trkpt>
      <trkpt lat="48.23632" lon="0.64031">
        <ele>165</ele>
        <time>2012-03-23T10:56:00Z</time>
      </trkpt>
      <trkpt lat="48.23628" lon="0.64036">
        <ele>165</ele>
        <time>2012-03-23T10:56:04Z</time>
      </trkpt>
      <trkpt lat="48.23625" lon="0.64041">
        <ele>165</ele>
        <time>2012-03-23T10:56:08Z</time>
      </trkpt>
      <trkpt lat="48.23623" lon="0.64046">
        <ele>165</ele>
        <time>2012-03-23T10:56:11Z</time>
      </trkpt>
      <trkpt lat="48.2362" lon="0.64051">
        <ele>165</ele>
        <time>2012-03-23T10:56:15Z</time>
      </trkpt>
      <trkpt lat="48.23617" lon="0.64055">
        <ele>166</ele>
        <time>2012-03-23T10:56:19Z</time>
      </trkpt>
      <trkpt lat="48.23615" lon="0.64059">
        <ele>166</ele>
        <time>2012-03-23T10:56:23Z</time>
      </trkpt>
      <trkpt lat="48.23612" lon="0.64065">
        <ele>166</ele>
        <time>2012-03-23T10:56:27Z</time>
      </trkpt>
      <trkpt lat="48.23609" lon="0.6407">
        <ele>166</ele>
        <time>2012-03-23T10:56:31Z</time>
      </trkpt>
      <trkpt lat="48.23608" lon="0.64075">
        <ele>166</ele>
        <time>2012-03-23T10:56:35Z</time>
      </trkpt>
      <trkpt lat="48.23606" lon="0.64081">
        <ele>166</ele>
        <time>2012-03-23T10:56:39Z</time>
      </trkpt>
      <trkpt lat="48.23605" lon="0.64085">
        <ele>166</ele>
        <time>2012-03-23T10:56:43Z</time>
      </trkpt>
      <trkpt lat="48.23603" lon="0.64088">
        <ele>166</ele>
        <time>2012-03-23T10:56:50Z</time>
      </trkpt>
      <trkpt lat="48.23601" lon="0.64092">
        <ele>167</ele>
        <time>2012-03-23T10:56:56Z</time>
      </trkpt>
      <trkpt lat="48.236" lon="0.64096">
        <ele>167</ele>
        <time>2012-03-23T10:57:01Z</time>
      </trkpt>
      <trkpt lat="48.23599" lon="0.641">
        <ele>167</ele>
        <time>2012-03-23T10:57:05Z</time>
      </trkpt>
      <trkpt lat="48.23597" lon="0.64105">
        <ele>167</ele>
        <time>2012-03-23T10:57:11Z</time>
      </trkpt>
      <trkpt lat="48.23596" lon="0.64109">
        <ele>167</ele>
        <time>2012-03-23T10:57:16Z</time>
      </trkpt>
      <trkpt lat="48.23595" lon="0.64113">
        <ele>167</ele>
        <time>2012-03-23T10:57:22Z</time>
      </trkpt>
      <trkpt lat="48.23595" lon="0.64116">
        <ele>167</ele>
        <time>2012-03-23T10:57:35Z</time>
      </trkpt>
      <trkpt lat="48.23592" lon="0.64119">
        <ele>167</ele>
        <time>2012-03-23T10:57:43Z</time>
      </trkpt>
      <trkpt lat="48.23589" lon="0.6412">
        <ele>167</ele>
        <time>2012-03-23T10:57:47Z</time>
      </trkpt>
      <trkpt lat="48.23586" lon="0.64121">
        <ele>167</ele>
        <time>2012-03-23T10:57:52Z</time>
      </trkpt>
      <trkpt lat="48.23583" lon="0.64122">
        <ele>167</ele>
        <time>2012-03-23T10:58:01Z</time>
      </trkpt>
      <trkpt lat="48.2358" lon="0.64122">
        <ele>167</ele>
        <time>2012-03-23T10:58:06Z</time>
      </trkpt>
      <trkpt lat="48.23577" lon="0.64122">
        <ele>167</ele>
        <time>2012-03-23T10:58:10Z</time>
      </trkpt>
      <trkpt lat="48.23574" lon="0.64123">
        <ele>167</ele>
        <time>2012-03-23T10:58:14Z</time>
      </trkpt>
      <trkpt lat="48.2357" lon="0.64126">
        <ele>166</ele>
        <time>2012-03-23T10:58:20Z</time>
      </trkpt>
      <trkpt lat="48.23566" lon="0.6413">
        <ele>166</ele>
        <time>2012-03-23T10:58:24Z</time>
      </trkpt>
      <trkpt lat="48.23564" lon="0.64132">
        <ele>165</ele>
        <time>2012-03-23T10:58:29Z</time>
      </trkpt>
      <trkpt lat="48.23561" lon="0.64136">
        <ele>165</ele>
        <time>2012-03-23T10:58:34Z</time>
      </trkpt>
      <trkpt lat="48.2356" lon="0.64139">
        <ele>165</ele>
        <time>2012-03-23T10:58:38Z</time>
      </trkpt>
      <trkpt lat="48.23558" lon="0.64143">
        <ele>165</ele>
        <time>2012-03-23T10:58:42Z</time>
      </trkpt>
      <trkpt lat="48.23555" lon="0.64147">
        <ele>165</ele>
        <time>2012-03-23T10:58:46Z</time>
      </trkpt>
      <trkpt lat="48.23553" lon="0.64152">
        <ele>165</ele>
        <time>2012-03-23T10:58:49Z</time>
      </trkpt>
      <trkpt lat="48.23552" lon="0.64156">
        <ele>165</ele>
        <time>2012-03-23T10:58:51Z</time>
      </trkpt>
      <trkpt lat="48.2355" lon="0.64161">
        <ele>164</ele>
        <time>2012-03-23T10:58:54Z</time>
      </trkpt>
      <trkpt lat="48.23547" lon="0.64165">
        <ele>164</ele>
        <time>2012-03-23T10:58:57Z</time>
      </trkpt>
      <trkpt lat="48.23545" lon="0.6417">
        <ele>164</ele>
        <time>2012-03-23T10:59:01Z</time>
      </trkpt>
      <trkpt lat="48.23543" lon="0.64176">
        <ele>164</ele>
        <time>2012-03-23T10:59:05Z</time>
      </trkpt>
      <trkpt lat="48.23542" lon="0.64182">
        <ele>164</ele>
        <time>2012-03-23T10:59:09Z</time>
      </trkpt>
      <trkpt lat="48.2354" lon="0.64187">
        <ele>164</ele>
        <time>2012-03-23T10:59:13Z</time>
      </trkpt>
      <trkpt lat="48.23539" lon="0.64192">
        <ele>164</ele>
        <time>2012-03-23T10:59:20Z</time>
      </trkpt>
      <trkpt lat="48.23537" lon="0.64195">
        <ele>164</ele>
        <time>2012-03-23T10:59:25Z</time>
      </trkpt>
      <trkpt lat="48.23536" lon="0.64199">
        <ele>164</ele>
        <time>2012-03-23T10:59:29Z</time>
      </trkpt>
      <trkpt lat="48.23535" lon="0.64203">
        <ele>164</ele>
        <time>2012-03-23T10:59:33Z</time>
      </trkpt>
      <trkpt lat="48.23533" lon="0.64207">
        <ele>164</ele>
        <time>2012-03-23T10:59:36Z</time>
      </trkpt>
      <trkpt lat="48.23531" lon="0.6421">
        <ele>164</ele>
        <time>2012-03-23T10:59:40Z</time>
      </trkpt>
      <trkpt lat="48.23528" lon="0.64214">
        <ele>164</ele>
        <time>2012-03-23T10:59:44Z</time>
      </trkpt>
      <trkpt lat="48.23524" lon="0.64219">
        <ele>164</ele>
        <time>2012-03-23T10:59:49Z</time>
      </trkpt>
      <trkpt lat="48.23522" lon="0.64223">
        <ele>164</ele>
        <time>2012-03-23T10:59:53Z</time>
      </trkpt>
      <trkpt lat="48.2352" lon="0.64227">
        <ele>164</ele>
        <time>2012-03-23T10:59:57Z</time>
      </trkpt>
      <trkpt lat="48.23518" lon="0.64231">
        <ele>164</ele>
        <time>2012-03-23T11:00:01Z</time>
      </trkpt>
      <trkpt lat="48.23515" lon="0.64236">
        <ele>163</ele>
        <time>2012-03-23T11:00:05Z</time>
      </trkpt>
      <trkpt lat="48.23513" lon="0.64241">
        <ele>163</ele>
        <time>2012-03-23T11:00:08Z</time>
      </trkpt>
      <trkpt lat="48.23512" lon="0.64245">
        <ele>163</ele>
        <time>2012-03-23T11:00:11Z</time>
      </trkpt>
      <trkpt lat="48.2351" lon="0.64248">
        <ele>162</ele>
        <time>2012-03-23T11:00:14Z</time>
      </trkpt>
      <trkpt lat="48.23508" lon="0.64253">
        <ele>162</ele>
        <time>2012-03-23T11:00:16Z</time>
      </trkpt>
      <trkpt lat="48.23507" lon="0.64258">
        <ele>162</ele>
        <time>2012-03-23T11:00:20Z</time>
      </trkpt>
      <trkpt lat="48.23506" lon="0.64261">
        <ele>162</ele>
        <time>2012-03-23T11:00:23Z</time>
      </trkpt>
      <trkpt lat="48.23505" lon="0.64265">
        <ele>162</ele>
        <time>2012-03-23T11:00:25Z</time>
      </trkpt>
      <trkpt lat="48.23503" lon="0.64271">
        <ele>162</ele>
        <time>2012-03-23T11:00:29Z</time>
      </trkpt>
      <trkpt lat="48.23502" lon="0.64275">
        <ele>162</ele>
        <time>2012-03-23T11:00:31Z</time>
      </trkpt>
      <trkpt lat="48.23502" lon="0.64279">
        <ele>162</ele>
        <time>2012-03-23T11:00:33Z</time>
      </trkpt>
      <trkpt lat="48.235" lon="0.64283">
        <ele>162</ele>
        <time>2012-03-23T11:00:36Z</time>
      </trkpt>
      <trkpt lat="48.23499" lon="0.64287">
        <ele>162</ele>
        <time>2012-03-23T11:00:38Z</time>
      </trkpt>
      <trkpt lat="48.23498" lon="0.64291">
        <ele>162</ele>
        <time>2012-03-23T11:00:40Z</time>
      </trkpt>
      <trkpt lat="48.23498" lon="0.64295">
        <ele>162</ele>
        <time>2012-03-23T11:00:43Z</time>
      </trkpt>
      <trkpt lat="48.23496" lon="0.643">
        <ele>162</ele>
        <time>2012-03-23T11:00:47Z</time>
      </trkpt>
      <trkpt lat="48.23493" lon="0.64305">
        <ele>162</ele>
        <time>2012-03-23T11:00:51Z</time>
      </trkpt>
      <trkpt lat="48.23491" lon="0.64309">
        <ele>162</ele>
        <time>2012-03-23T11:00:54Z</time>
      </trkpt>
      <trkpt lat="48.23488" lon="0.64313">
        <ele>162</ele>
        <time>2012-03-23T11:00:58Z</time>
      </trkpt>
      <trkpt lat="48.23485" lon="0.64319">
        <ele>162</ele>
        <time>2012-03-23T11:01:02Z</time>
      </trkpt>
      <trkpt lat="48.23482" lon="0.64321">
        <ele>162</ele>
        <time>2012-03-23T11:01:04Z</time>
      </trkpt>
      <trkpt lat="48.23479" lon="0.64325">
        <ele>162</ele>
        <time>2012-03-23T11:01:08Z</time>
      </trkpt>
      <trkpt lat="48.23477" lon="0.64328">
        <ele>162</ele>
        <time>2012-03-23T11:01:11Z</time>
      </trkpt>
      <trkpt lat="48.23473" lon="0.64331">
        <ele>162</ele>
        <time>2012-03-23T11:01:15Z</time>
      </trkpt>
      <trkpt lat="48.2347" lon="0.64334">
        <ele>162</ele>
        <time>2012-03-23T11:01:19Z</time>
      </trkpt>
      <trkpt lat="48.23467" lon="0.64337">
        <ele>162</ele>
        <time>2012-03-23T11:01:22Z</time>
      </trkpt>
      <trkpt lat="48.23464" lon="0.64342">
        <ele>162</ele>
        <time>2012-03-23T11:01:26Z</time>
      </trkpt>
      <trkpt lat="48.23461" lon="0.64348">
        <ele>162</ele>
        <time>2012-03-23T11:01:30Z</time>
      </trkpt>
      <trkpt lat="48.23458" lon="0.64353">
        <ele>161</ele>
        <time>2012-03-23T11:01:33Z</time>
      </trkpt>
      <trkpt lat="48.23457" lon="0.64357">
        <ele>160</ele>
        <time>2012-03-23T11:01:36Z</time>
      </trkpt>
      <trkpt lat="48.23455" lon="0.64362">
        <ele>160</ele>
        <time>2012-03-23T11:01:39Z</time>
      </trkpt>
      <trkpt lat="48.23453" lon="0.64367">
        <ele>160</ele>
        <time>2012-03-23T11:01:42Z</time>
      </trkpt>
      <trkpt lat="48.23451" lon="0.64371">
        <ele>160</ele>
        <time>2012-03-23T11:01:44Z</time>
      </trkpt>
      <trkpt lat="48.23449" lon="0.64375">
        <ele>160</ele>
        <time>2012-03-23T11:01:46Z</time>
      </trkpt>
      <trkpt lat="48.23446" lon="0.6438">
        <ele>160</ele>
        <time>2012-03-23T11:01:50Z</time>
      </trkpt>
      <trkpt lat="48.23444" lon="0.64384">
        <ele>160</ele>
        <time>2012-03-23T11:01:53Z</time>
      </trkpt>
      <trkpt lat="48.23442" lon="0.64389">
        <ele>160</ele>
        <time>2012-03-23T11:01:56Z</time>
      </trkpt>
      <trkpt lat="48.2344" lon="0.64394">
        <ele>160</ele>
        <time>2012-03-23T11:02:00Z</time>
      </trkpt>
      <trkpt lat="48.23439" lon="0.64398">
        <ele>160</ele>
        <time>2012-03-23T11:02:02Z</time>
      </trkpt>
      <trkpt lat="48.23439" lon="0.64401">
        <ele>160</ele>
        <time>2012-03-23T11:02:04Z</time>
      </trkpt>
      <trkpt lat="48.23439" lon="0.64406">
        <ele>160</ele>
        <time>2012-03-23T11:02:06Z</time>
      </trkpt>
      <trkpt lat="48.23439" lon="0.6441">
        <ele>161</ele>
        <time>2012-03-23T11:02:09Z</time>
      </trkpt>
      <trkpt lat="48.23438" lon="0.64413">
        <ele>161</ele>
        <time>2012-03-23T11:02:11Z</time>
      </trkpt>
      <trkpt lat="48.23436" lon="0.64418">
        <ele>162</ele>
        <time>2012-03-23T11:02:14Z</time>
      </trkpt>
      <trkpt lat="48.23436" lon="0.64422">
        <ele>162</ele>
        <time>2012-03-23T11:02:16Z</time>
      </trkpt>
      <trkpt lat="48.23435" lon="0.64425">
        <ele>162</ele>
        <time>2012-03-23T11:02:18Z</time>
      </trkpt>
      <trkpt lat="48.23434" lon="0.64429">
        <ele>163</ele>
        <time>2012-03-23T11:02:20Z</time>
      </trkpt>
      <trkpt lat="48.23434" lon="0.64433">
        <ele>164</ele>
        <time>2012-03-23T11:02:22Z</time>
      </trkpt>
      <trkpt lat="48.23433" lon="0.64437">
        <ele>164</ele>
        <time>2012-03-23T11:02:24Z</time>
      </trkpt>
      <trkpt lat="48.23433" lon="0.64443">
        <ele>165</ele>
        <time>2012-03-23T11:02:28Z</time>
      </trkpt>
      <trkpt lat="48.23432" lon="0.64448">
        <ele>165</ele>
        <time>2012-03-23T11:02:31Z</time>
      </trkpt>
      <trkpt lat="48.23432" lon="0.64453">
        <ele>165</ele>
        <time>2012-03-23T11:02:34Z</time>
      </trkpt>
      <trkpt lat="48.23432" lon="0.64457">
        <ele>165</ele>
        <time>2012-03-23T11:02:37Z</time>
      </trkpt>
      <trkpt lat="48.23432" lon="0.64462">
        <ele>165</ele>
        <time>2012-03-23T11:02:40Z</time>
      </trkpt>
      <trkpt lat="48.23432" lon="0.64466">
        <ele>165</ele>
        <time>2012-03-23T11:02:42Z</time>
      </trkpt>
      <trkpt lat="48.23432" lon="0.6447">
        <ele>165</ele>
        <time>2012-03-23T11:02:44Z</time>
      </trkpt>
      <trkpt lat="48.23431" lon="0.64475">
        <ele>165</ele>
        <time>2012-03-23T11:02:47Z</time>
      </trkpt>
      <trkpt lat="48.2343" lon="0.64481">
        <ele>165</ele>
        <time>2012-03-23T11:02:51Z</time>
      </trkpt>
      <trkpt lat="48.23431" lon="0.64485">
        <ele>165</ele>
        <time>2012-03-23T11:02:54Z</time>
      </trkpt>
      <trkpt lat="48.23431" lon="0.6449">
        <ele>165</ele>
        <time>2012-03-23T11:02:57Z</time>
      </trkpt>
      <trkpt lat="48.23431" lon="0.64496">
        <ele>164</ele>
        <time>2012-03-23T11:03:01Z</time>
      </trkpt>
      <trkpt lat="48.23431" lon="0.645">
        <ele>163</ele>
        <time>2012-03-23T11:03:04Z</time>
      </trkpt>
      <trkpt lat="48.23432" lon="0.64505">
        <ele>161</ele>
        <time>2012-03-23T11:03:07Z</time>
      </trkpt>
      <trkpt lat="48.23432" lon="0.64509">
        <ele>161</ele>
        <time>2012-03-23T11:03:10Z</time>
      </trkpt>
      <trkpt lat="48.23433" lon="0.64515">
        <ele>161</ele>
        <time>2012-03-23T11:03:14Z</time>
      </trkpt>
      <trkpt lat="48.23435" lon="0.6452">
        <ele>160</ele>
        <time>2012-03-23T11:03:18Z</time>
      </trkpt>
      <trkpt lat="48.23436" lon="0.64523">
        <ele>160</ele>
        <time>2012-03-23T11:03:20Z</time>
      </trkpt>
      <trkpt lat="48.23436" lon="0.64527">
        <ele>160</ele>
        <time>2012-03-23T11:03:24Z</time>
      </trkpt>
      <trkpt lat="48.23438" lon="0.64532">
        <ele>160</ele>
        <time>2012-03-23T11:03:28Z</time>
      </trkpt>
      <trkpt lat="48.23438" lon="0.64537">
        <ele>159</ele>
        <time>2012-03-23T11:03:31Z</time>
      </trkpt>
      <trkpt lat="48.2344" lon="0.64541">
        <ele>159</ele>
        <time>2012-03-23T11:03:34Z</time>
      </trkpt>
      <trkpt lat="48.23442" lon="0.64547">
        <ele>159</ele>
        <time>2012-03-23T11:03:38Z</time>
      </trkpt>
      <trkpt lat="48.23444" lon="0.64552">
        <ele>159</ele>
        <time>2012-03-23T11:03:42Z</time>
      </trkpt>
      <trkpt lat="48.23446" lon="0.64557">
        <ele>159</ele>
        <time>2012-03-23T11:03:45Z</time>
      </trkpt>
      <trkpt lat="48.23447" lon="0.64562">
        <ele>159</ele>
        <time>2012-03-23T11:03:48Z</time>
      </trkpt>
      <trkpt lat="48.23448" lon="0.64565">
        <ele>159</ele>
        <time>2012-03-23T11:03:50Z</time>
      </trkpt>
      <trkpt lat="48.23449" lon="0.64569">
        <ele>159</ele>
        <time>2012-03-23T11:03:52Z</time>
      </trkpt>
      <trkpt lat="48.23453" lon="0.64575">
        <ele>159</ele>
        <time>2012-03-23T11:03:56Z</time>
      </trkpt>
      <trkpt lat="48.23454" lon="0.6458">
        <ele>159</ele>
        <time>2012-03-23T11:03:59Z</time>
      </trkpt>
      <trkpt lat="48.23454" lon="0.64585">
        <ele>159</ele>
        <time>2012-03-23T11:04:03Z</time>
      </trkpt>
      <trkpt lat="48.23455" lon="0.6459">
        <ele>159</ele>
        <time>2012-03-23T11:04:07Z</time>
      </trkpt>
      <trkpt lat="48.23455" lon="0.64595">
        <ele>159</ele>
        <time>2012-03-23T11:04:11Z</time>
      </trkpt>
      <trkpt lat="48.23457" lon="0.646">
        <ele>159</ele>
        <time>2012-03-23T11:04:15Z</time>
      </trkpt>
      <trkpt lat="48.23459" lon="0.64605">
        <ele>159</ele>
        <time>2012-03-23T11:04:18Z</time>
      </trkpt>
      <trkpt lat="48.2346" lon="0.6461">
        <ele>159</ele>
        <time>2012-03-23T11:04:21Z</time>
      </trkpt>
      <trkpt lat="48.2346" lon="0.64615">
        <ele>159</ele>
        <time>2012-03-23T11:04:25Z</time>
      </trkpt>
      <trkpt lat="48.23462" lon="0.64619">
        <ele>158</ele>
        <time>2012-03-23T11:04:29Z</time>
      </trkpt>
      <trkpt lat="48.23464" lon="0.64623">
        <ele>157</ele>
        <time>2012-03-23T11:04:32Z</time>
      </trkpt>
      <trkpt lat="48.23466" lon="0.64628">
        <ele>157</ele>
        <time>2012-03-23T11:04:36Z</time>
      </trkpt>
      <trkpt lat="48.23468" lon="0.64632">
        <ele>157</ele>
        <time>2012-03-23T11:04:40Z</time>
      </trkpt>
      <trkpt lat="48.2347" lon="0.64637">
        <ele>157</ele>
        <time>2012-03-23T11:04:44Z</time>
      </trkpt>
      <trkpt lat="48.23473" lon="0.64641">
        <ele>156</ele>
        <time>2012-03-23T11:04:48Z</time>
      </trkpt>
      <trkpt lat="48.23475" lon="0.64645">
        <ele>155</ele>
        <time>2012-03-23T11:04:53Z</time>
      </trkpt>
      <trkpt lat="48.23477" lon="0.64648">
        <ele>154</ele>
        <time>2012-03-23T11:04:57Z</time>
      </trkpt>
      <trkpt lat="48.2348" lon="0.64652">
        <ele>153</ele>
        <time>2012-03-23T11:05:01Z</time>
      </trkpt>
      <trkpt lat="48.23483" lon="0.64656">
        <ele>152</ele>
        <time>2012-03-23T11:05:05Z</time>
      </trkpt>
      <trkpt lat="48.23485" lon="0.6466">
        <ele>150</ele>
        <time>2012-03-23T11:05:10Z</time>
      </trkpt>
      <trkpt lat="48.23489" lon="0.64663">
        <ele>148</ele>
        <time>2012-03-23T11:05:14Z</time>
      </trkpt>
      <trkpt lat="48.23492" lon="0.64667">
        <ele>146</ele>
        <time>2012-03-23T11:05:18Z</time>
      </trkpt>
      <trkpt lat="48.23495" lon="0.64671">
        <ele>145</ele>
        <time>2012-03-23T11:05:22Z</time>
      </trkpt>
      <trkpt lat="48.23497" lon="0.64674">
        <ele>145</ele>
        <time>2012-03-23T11:05:24Z</time>
      </trkpt>
      <trkpt lat="48.23501" lon="0.64679">
        <ele>144</ele>
        <time>2012-03-23T11:05:28Z</time>
      </trkpt>
      <trkpt lat="48.23503" lon="0.64684">
        <ele>144</ele>
        <time>2012-03-23T11:05:32Z</time>
      </trkpt>
      <trkpt lat="48.23505" lon="0.64689">
        <ele>143</ele>
        <time>2012-03-23T11:05:36Z</time>
      </trkpt>
      <trkpt lat="48.23508" lon="0.64694">
        <ele>142</ele>
        <time>2012-03-23T11:05:40Z</time>
      </trkpt>
      <trkpt lat="48.23511" lon="0.64699">
        <ele>142</ele>
        <time>2012-03-23T11:05:44Z</time>
      </trkpt>
      <trkpt lat="48.23513" lon="0.64705">
        <ele>142</ele>
        <time>2012-03-23T11:05:48Z</time>
      </trkpt>
      <trkpt lat="48.23516" lon="0.64709">
        <ele>142</ele>
        <time>2012-03-23T11:05:51Z</time>
      </trkpt>
      <trkpt lat="48.23518" lon="0.64715">
        <ele>142</ele>
        <time>2012-03-23T11:05:55Z</time>
      </trkpt>
      <trkpt lat="48.2352" lon="0.64718">
        <ele>142</ele>
        <time>2012-03-23T11:05:57Z</time>
      </trkpt>
      <trkpt lat="48.23521" lon="0.64722">
        <ele>142</ele>
        <time>2012-03-23T11:05:59Z</time>
      </trkpt>
      <trkpt lat="48.23523" lon="0.64727">
        <ele>142</ele>
        <time>2012-03-23T11:06:02Z</time>
      </trkpt>
      <trkpt lat="48.23525" lon="0.64731">
        <ele>142</ele>
        <time>2012-03-23T11:06:05Z</time>
      </trkpt>
      <trkpt lat="48.23526" lon="0.64735">
        <ele>142</ele>
        <time>2012-03-23T11:06:07Z</time>
      </trkpt>
      <trkpt lat="48.23528" lon="0.64738">
        <ele>142</ele>
        <time>2012-03-23T11:06:09Z</time>
      </trkpt>
      <trkpt lat="48.23528" lon="0.64743">
        <ele>142</ele>
        <time>2012-03-23T11:06:12Z</time>
      </trkpt>
      <trkpt lat="48.23531" lon="0.64749">
        <ele>142</ele>
        <time>2012-03-23T11:06:15Z</time>
      </trkpt>
      <trkpt lat="48.23532" lon="0.64753">
        <ele>142</ele>
        <time>2012-03-23T11:06:17Z</time>
      </trkpt>
      <trkpt lat="48.23533" lon="0.64758">
        <ele>142</ele>
        <time>2012-03-23T11:06:20Z</time>
      </trkpt>
      <trkpt lat="48.23534" lon="0.64761">
        <ele>142</ele>
        <time>2012-03-23T11:06:22Z</time>
      </trkpt>
      <trkpt lat="48.23535" lon="0.64765">
        <ele>142</ele>
        <time>2012-03-23T11:06:24Z</time>
      </trkpt>
      <trkpt lat="48.23536" lon="0.64769">
        <ele>142</ele>
        <time>2012-03-23T11:06:27Z</time>
      </trkpt>
      <trkpt lat="48.23538" lon="0.64773">
        <ele>142</ele>
        <time>2012-03-23T11:06:30Z</time>
      </trkpt>
      <trkpt lat="48.23539" lon="0.64778">
        <ele>142</ele>
        <time>2012-03-23T11:06:33Z</time>
      </trkpt>
      <trkpt lat="48.2354" lon="0.64784">
        <ele>142</ele>
        <time>2012-03-23T11:06:37Z</time>
      </trkpt>
      <trkpt lat="48.23542" lon="0.64787">
        <ele>142</ele>
        <time>2012-03-23T11:06:39Z</time>
      </trkpt>
      <trkpt lat="48.23543" lon="0.64793">
        <ele>142</ele>
        <time>2012-03-23T11:06:42Z</time>
      </trkpt>
      <trkpt lat="48.23544" lon="0.64797">
        <ele>142</ele>
        <time>2012-03-23T11:06:44Z</time>
      </trkpt>
      <trkpt lat="48.23544" lon="0.64801">
        <ele>142</ele>
        <time>2012-03-23T11:06:46Z</time>
      </trkpt>
      <trkpt lat="48.23545" lon="0.64805">
        <ele>141</ele>
        <time>2012-03-23T11:06:48Z</time>
      </trkpt>
      <trkpt lat="48.23547" lon="0.64808">
        <ele>141</ele>
        <time>2012-03-23T11:06:50Z</time>
      </trkpt>
      <trkpt lat="48.23549" lon="0.64812">
        <ele>141</ele>
        <time>2012-03-23T11:06:52Z</time>
      </trkpt>
      <trkpt lat="48.23549" lon="0.64818">
        <ele>141</ele>
        <time>2012-03-23T11:06:56Z</time>
      </trkpt>
      <trkpt lat="48.2355" lon="0.64821">
        <ele>141</ele>
        <time>2012-03-23T11:06:58Z</time>
      </trkpt>
      <trkpt lat="48.23551" lon="0.64827">
        <ele>140</ele>
        <time>2012-03-23T11:07:02Z</time>
      </trkpt>
      <trkpt lat="48.23552" lon="0.64833">
        <ele>140</ele>
        <time>2012-03-23T11:07:05Z</time>
      </trkpt>
      <trkpt lat="48.23554" lon="0.64837">
        <ele>140</ele>
        <time>2012-03-23T11:07:08Z</time>
      </trkpt>
      <trkpt lat="48.23555" lon="0.64841">
        <ele>139</ele>
        <time>2012-03-23T11:07:10Z</time>
      </trkpt>
      <trkpt lat="48.23557" lon="0.64846">
        <ele>139</ele>
        <time>2012-03-23T11:07:13Z</time>
      </trkpt>
      <trkpt lat="48.23558" lon="0.64849">
        <ele>139</ele>
        <time>2012-03-23T11:07:15Z</time>
      </trkpt>
      <trkpt lat="48.23559" lon="0.64856">
        <ele>138</ele>
        <time>2012-03-23T11:07:19Z</time>
      </trkpt>
      <trkpt lat="48.2356" lon="0.6486">
        <ele>138</ele>
        <time>2012-03-23T11:07:22Z</time>
      </trkpt>
      <trkpt lat="48.23562" lon="0.64866">
        <ele>138</ele>
        <time>2012-03-23T11:07:26Z</time>
      </trkpt>
      <trkpt lat="48.23562" lon="0.64872">
        <ele>138</ele>
        <time>2012-03-23T11:07:30Z</time>
      </trkpt>
      <trkpt lat="48.23563" lon="0.64877">
        <ele>138</ele>
        <time>2012-03-23T11:07:33Z</time>
      </trkpt>
      <trkpt lat="48.23565" lon="0.64882">
        <ele>138</ele>
        <time>2012-03-23T11:07:37Z</time>
      </trkpt>
      <trkpt lat="48.23566" lon="0.64887">
        <ele>138</ele>
        <time>2012-03-23T11:07:40Z</time>
      </trkpt>
      <trkpt lat="48.23566" lon="0.64891">
        <ele>138</ele>
        <time>2012-03-23T11:07:42Z</time>
      </trkpt>
      <trkpt lat="48.23567" lon="0.64895">
        <ele>137</ele>
        <time>2012-03-23T11:07:44Z</time>
      </trkpt>
      <trkpt lat="48.23568" lon="0.649">
        <ele>136</ele>
        <time>2012-03-23T11:07:47Z</time>
      </trkpt>
      <trkpt lat="48.23568" lon="0.64903">
        <ele>136</ele>
        <time>2012-03-23T11:07:49Z</time>
      </trkpt>
      <trkpt lat="48.23569" lon="0.64907">
        <ele>135</ele>
        <time>2012-03-23T11:07:52Z</time>
      </trkpt>
      <trkpt lat="48.2357" lon="0.64912">
        <ele>135</ele>
        <time>2012-03-23T11:07:55Z</time>
      </trkpt>
      <trkpt lat="48.23571" lon="0.64916">
        <ele>135</ele>
        <time>2012-03-23T11:07:57Z</time>
      </trkpt>
      <trkpt lat="48.23573" lon="0.64921">
        <ele>135</ele>
        <time>2012-03-23T11:08:00Z</time>
      </trkpt>
      <trkpt lat="48.23574" lon="0.64925">
        <ele>135</ele>
        <time>2012-03-23T11:08:02Z</time>
      </trkpt>
      <trkpt lat="48.23576" lon="0.64931">
        <ele>135</ele>
        <time>2012-03-23T11:08:05Z</time>
      </trkpt>
      <trkpt lat="48.23577" lon="0.64934">
        <ele>135</ele>
        <time>2012-03-23T11:08:07Z</time>
      </trkpt>
      <trkpt lat="48.23578" lon="0.64938">
        <ele>134</ele>
        <time>2012-03-23T11:08:09Z</time>
      </trkpt>
      <trkpt lat="48.23578" lon="0.64941">
        <ele>134</ele>
        <time>2012-03-23T11:08:11Z</time>
      </trkpt>
      <trkpt lat="48.23579" lon="0.64946">
        <ele>134</ele>
        <time>2012-03-23T11:08:14Z</time>
      </trkpt>
      <trkpt lat="48.23582" lon="0.64948">
        <ele>133</ele>
        <time>2012-03-23T11:08:21Z</time>
      </trkpt>
      <trkpt lat="48.23582" lon="0.6495">
        <ele>133</ele>
        <time>2012-03-23T11:08:56Z</time>
      </trkpt>
      <trkpt lat="48.23579" lon="0.6495">
        <ele>136</ele>
        <time>2012-03-23T11:09:14Z</time>
      </trkpt>
      <trkpt lat="48.23579" lon="0.6495">
        <ele>139</ele>
        <time>2012-03-23T11:09:23Z</time>
      </trkpt>
      <trkpt lat="48.23582" lon="0.64949">
        <ele>139</ele>
        <time>2012-03-23T11:09:39Z</time>
      </trkpt>
      <trkpt lat="48.23583" lon="0.64953">
        <ele>139</ele>
        <time>2012-03-23T11:09:45Z</time>
      </trkpt>
      <trkpt lat="48.23585" lon="0.64956">
        <ele>139</ele>
        <time>2012-03-23T11:09:49Z</time>
      </trkpt>
      <trkpt lat="48.23588" lon="0.64956">
        <ele>139</ele>
        <time>2012-03-23T11:09:53Z</time>
      </trkpt>
      <trkpt lat="48.23591" lon="0.64955">
        <ele>138</ele>
        <time>2012-03-23T11:09:58Z</time>
      </trkpt>
      <trkpt lat="48.23594" lon="0.64952">
        <ele>138</ele>
        <time>2012-03-23T11:10:02Z</time>
      </trkpt>
      <trkpt lat="48.23597" lon="0.64948">
        <ele>138</ele>
        <time>2012-03-23T11:10:06Z</time>
      </trkpt>
      <trkpt lat="48.236" lon="0.64946">
        <ele>138</ele>
        <time>2012-03-23T11:10:09Z</time>
      </trkpt>
      <trkpt lat="48.23603" lon="0.64944">
        <ele>138</ele>
        <time>2012-03-23T11:10:13Z</time>
      </trkpt>
      <trkpt lat="48.23606" lon="0.64942">
        <ele>138</ele>
        <time>2012-03-23T11:10:17Z</time>
      </trkpt>
      <trkpt lat="48.2361" lon="0.6494">
        <ele>137</ele>
        <time>2012-03-23T11:10:21Z</time>
      </trkpt>
      <trkpt lat="48.23614" lon="0.64938">
        <ele>136</ele>
        <time>2012-03-23T11:10:25Z</time>
      </trkpt>
      <trkpt lat="48.23618" lon="0.64935">
        <ele>136</ele>
        <time>2012-03-23T11:10:29Z</time>
      </trkpt>
      <trkpt lat="48.23621" lon="0.64933">
        <ele>136</ele>
        <time>2012-03-23T11:10:32Z</time>
      </trkpt>
      <trkpt lat="48.23624" lon="0.6493">
        <ele>136</ele>
        <time>2012-03-23T11:10:35Z</time>
      </trkpt>
      <trkpt lat="48.23629" lon="0.64927">
        <ele>136</ele>
        <time>2012-03-23T11:10:39Z</time>
      </trkpt>
      <trkpt lat="48.23632" lon="0.64924">
        <ele>136</ele>
        <time>2012-03-23T11:10:42Z</time>
      </trkpt>
      <trkpt lat="48.23636" lon="0.64919">
        <ele>136</ele>
        <time>2012-03-23T11:10:46Z</time>
      </trkpt>
      <trkpt lat="48.2364" lon="0.64915">
        <ele>135</ele>
        <time>2012-03-23T11:10:50Z</time>
      </trkpt>
      <trkpt lat="48.23643" lon="0.6491">
        <ele>135</ele>
        <time>2012-03-23T11:10:54Z</time>
      </trkpt>
      <trkpt lat="48.23647" lon="0.64906">
        <ele>134</ele>
        <time>2012-03-23T11:10:58Z</time>
      </trkpt>
      <trkpt lat="48.2365" lon="0.64903">
        <ele>134</ele>
        <time>2012-03-23T11:11:01Z</time>
      </trkpt>
      <trkpt lat="48.23653" lon="0.64898">
        <ele>134</ele>
        <time>2012-03-23T11:11:05Z</time>
      </trkpt>
      <trkpt lat="48.23656" lon="0.64894">
        <ele>133</ele>
        <time>2012-03-23T11:11:09Z</time>
      </trkpt>
      <trkpt lat="48.23659" lon="0.64889">
        <ele>133</ele>
        <time>2012-03-23T11:11:13Z</time>
      </trkpt>
      <trkpt lat="48.23663" lon="0.64884">
        <ele>133</ele>
        <time>2012-03-23T11:11:17Z</time>
      </trkpt>
      <trkpt lat="48.23666" lon="0.6488">
        <ele>133</ele>
        <time>2012-03-23T11:11:21Z</time>
      </trkpt>
      <trkpt lat="48.23669" lon="0.64875">
        <ele>133</ele>
        <time>2012-03-23T11:11:25Z</time>
      </trkpt>
      <trkpt lat="48.23671" lon="0.64871">
        <ele>133</ele>
        <time>2012-03-23T11:11:28Z</time>
      </trkpt>
      <trkpt lat="48.23674" lon="0.64867">
        <ele>133</ele>
        <time>2012-03-23T11:11:32Z</time>
      </trkpt>
      <trkpt lat="48.23677" lon="0.64862">
        <ele>133</ele>
        <time>2012-03-23T11:11:36Z</time>
      </trkpt>
      <trkpt lat="48.23681" lon="0.64857">
        <ele>132</ele>
        <time>2012-03-23T11:11:40Z</time>
      </trkpt>
      <trkpt lat="48.23684" lon="0.64852">
        <ele>132</ele>
        <time>2012-03-23T11:11:44Z</time>
      </trkpt>
      <trkpt lat="48.23688" lon="0.64847">
        <ele>132</ele>
        <time>2012-03-23T11:11:48Z</time>
      </trkpt>
      <trkpt lat="48.23691" lon="0.64842">
        <ele>132</ele>
        <time>2012-03-23T11:11:52Z</time>
      </trkpt>
      <trkpt lat="48.23694" lon="0.64837">
        <ele>132</ele>
        <time>2012-03-23T11:11:56Z</time>
      </trkpt>
      <trkpt lat="48.23698" lon="0.64832">
        <ele>132</ele>
        <time>2012-03-23T11:12:00Z</time>
      </trkpt>
      <trkpt lat="48.23701" lon="0.64827">
        <ele>132</ele>
        <time>2012-03-23T11:12:04Z</time>
      </trkpt>
      <trkpt lat="48.23704" lon="0.64821">
        <ele>132</ele>
        <time>2012-03-23T11:12:08Z</time>
      </trkpt>
      <trkpt lat="48.23707" lon="0.64815">
        <ele>132</ele>
        <time>2012-03-23T11:12:12Z</time>
      </trkpt>
      <trkpt lat="48.23709" lon="0.6481">
        <ele>131</ele>
        <time>2012-03-23T11:12:16Z</time>
      </trkpt>
      <trkpt lat="48.23712" lon="0.64804">
        <ele>131</ele>
        <time>2012-03-23T11:12:20Z</time>
      </trkpt>
      <trkpt lat="48.23714" lon="0.64799">
        <ele>131</ele>
        <time>2012-03-23T11:12:23Z</time>
      </trkpt>
      <trkpt lat="48.23715" lon="0.64795">
        <ele>130</ele>
        <time>2012-03-23T11:12:26Z</time>
      </trkpt>
      <trkpt lat="48.23718" lon="0.64791">
        <ele>130</ele>
        <time>2012-03-23T11:12:29Z</time>
      </trkpt>
      <trkpt lat="48.23721" lon="0.64788">
        <ele>130</ele>
        <time>2012-03-23T11:12:31Z</time>
      </trkpt>
      <trkpt lat="48.23724" lon="0.64786">
        <ele>129</ele>
        <time>2012-03-23T11:12:34Z</time>
      </trkpt>
      <trkpt lat="48.23727" lon="0.64784">
        <ele>129</ele>
        <time>2012-03-23T11:12:37Z</time>
      </trkpt>
      <trkpt lat="48.23729" lon="0.64784">
        <ele>128</ele>
        <time>2012-03-23T11:12:39Z</time>
      </trkpt>
      <trkpt lat="48.23732" lon="0.64783">
        <ele>128</ele>
        <time>2012-03-23T11:12:41Z</time>
      </trkpt>
      <trkpt lat="48.23736" lon="0.64783">
        <ele>128</ele>
        <time>2012-03-23T11:12:45Z</time>
      </trkpt>
      <trkpt lat="48.2374" lon="0.64784">
        <ele>128</ele>
        <time>2012-03-23T11:12:49Z</time>
      </trkpt>
      <trkpt lat="48.23743" lon="0.64785">
        <ele>128</ele>
        <time>2012-03-23T11:12:51Z</time>
      </trkpt>
      <trkpt lat="48.23745" lon="0.64786">
        <ele>128</ele>
        <time>2012-03-23T11:12:53Z</time>
      </trkpt>
      <trkpt lat="48.23748" lon="0.64786">
        <ele>128</ele>
        <time>2012-03-23T11:12:56Z</time>
      </trkpt>
      <trkpt lat="48.23752" lon="0.64785">
        <ele>128</ele>
        <time>2012-03-23T11:12:59Z</time>
      </trkpt>
      <trkpt lat="48.23755" lon="0.64785">
        <ele>128</ele>
        <time>2012-03-23T11:13:02Z</time>
      </trkpt>
      <trkpt lat="48.23759" lon="0.64784">
        <ele>128</ele>
        <time>2012-03-23T11:13:05Z</time>
      </trkpt>
      <trkpt lat="48.23762" lon="0.6478">
        <ele>128</ele>
        <time>2012-03-23T11:13:09Z</time>
      </trkpt>
      <trkpt lat="48.23765" lon="0.64778">
        <ele>128</ele>
        <time>2012-03-23T11:13:12Z</time>
      </trkpt>
      <trkpt lat="48.23768" lon="0.64773">
        <ele>128</ele>
        <time>2012-03-23T11:13:16Z</time>
      </trkpt>
      <trkpt lat="48.2377" lon="0.64771">
        <ele>128</ele>
        <time>2012-03-23T11:13:18Z</time>
      </trkpt>
      <trkpt lat="48.23774" lon="0.64767">
        <ele>128</ele>
        <time>2012-03-23T11:13:22Z</time>
      </trkpt>
      <trkpt lat="48.23776" lon="0.64763">
        <ele>128</ele>
        <time>2012-03-23T11:13:26Z</time>
      </trkpt>
      <trkpt lat="48.23779" lon="0.64759">
        <ele>128</ele>
        <time>2012-03-23T11:13:30Z</time>
      </trkpt>
      <trkpt lat="48.2378" lon="0.64756">
        <ele>128</ele>
        <time>2012-03-23T11:13:32Z</time>
      </trkpt>
      <trkpt lat="48.23782" lon="0.64754">
        <ele>128</ele>
        <time>2012-03-23T11:13:34Z</time>
      </trkpt>
      <trkpt lat="48.23785" lon="0.6475">
        <ele>128</ele>
        <time>2012-03-23T11:13:38Z</time>
      </trkpt>
      <trkpt lat="48.23788" lon="0.64747">
        <ele>128</ele>
        <time>2012-03-23T11:13:42Z</time>
      </trkpt>
      <trkpt lat="48.23789" lon="0.64743">
        <ele>129</ele>
        <time>2012-03-23T11:13:46Z</time>
      </trkpt>
      <trkpt lat="48.23793" lon="0.6474">
        <ele>129</ele>
        <time>2012-03-23T11:13:50Z</time>
      </trkpt>
      <trkpt lat="48.23796" lon="0.64735">
        <ele>129</ele>
        <time>2012-03-23T11:13:54Z</time>
      </trkpt>
      <trkpt lat="48.23799" lon="0.6473">
        <ele>129</ele>
        <time>2012-03-23T11:13:58Z</time>
      </trkpt>
      <trkpt lat="48.23803" lon="0.64727">
        <ele>131</ele>
        <time>2012-03-23T11:14:02Z</time>
      </trkpt>
      <trkpt lat="48.23806" lon="0.64725">
        <ele>132</ele>
        <time>2012-03-23T11:14:06Z</time>
      </trkpt>
      <trkpt lat="48.23807" lon="0.64721">
        <ele>133</ele>
        <time>2012-03-23T11:14:10Z</time>
      </trkpt>
      <trkpt lat="48.2381" lon="0.64718">
        <ele>133</ele>
        <time>2012-03-23T11:14:14Z</time>
      </trkpt>
      <trkpt lat="48.23812" lon="0.64714">
        <ele>134</ele>
        <time>2012-03-23T11:14:20Z</time>
      </trkpt>
      <trkpt lat="48.23816" lon="0.64713">
        <ele>134</ele>
        <time>2012-03-23T11:14:24Z</time>
      </trkpt>
      <trkpt lat="48.23819" lon="0.64707">
        <ele>134</ele>
        <time>2012-03-23T11:14:29Z</time>
      </trkpt>
      <trkpt lat="48.23822" lon="0.64704">
        <ele>134</ele>
        <time>2012-03-23T11:14:33Z</time>
      </trkpt>
      <trkpt lat="48.23826" lon="0.64702">
        <ele>134</ele>
        <time>2012-03-23T11:14:36Z</time>
      </trkpt>
      <trkpt lat="48.23829" lon="0.64704">
        <ele>134</ele>
        <time>2012-03-23T11:14:39Z</time>
      </trkpt>
      <trkpt lat="48.23832" lon="0.64706">
        <ele>134</ele>
        <time>2012-03-23T11:14:43Z</time>
      </trkpt>
      <trkpt lat="48.23835" lon="0.64709">
        <ele>134</ele>
        <time>2012-03-23T11:14:50Z</time>
      </trkpt>
      <trkpt lat="48.23837" lon="0.64712">
        <ele>134</ele>
        <time>2012-03-23T11:14:57Z</time>
      </trkpt>
      <trkpt lat="48.23839" lon="0.64716">
        <ele>134</ele>
        <time>2012-03-23T11:15:01Z</time>
      </trkpt>
      <trkpt lat="48.2384" lon="0.6472">
        <ele>135</ele>
        <time>2012-03-23T11:15:05Z</time>
      </trkpt>
      <trkpt lat="48.23844" lon="0.64722">
        <ele>137</ele>
        <time>2012-03-23T11:15:08Z</time>
      </trkpt>
      <trkpt lat="48.23848" lon="0.64726">
        <ele>139</ele>
        <time>2012-03-23T11:15:12Z</time>
      </trkpt>
      <trkpt lat="48.23851" lon="0.64729">
        <ele>142</ele>
        <time>2012-03-23T11:15:16Z</time>
      </trkpt>
      <trkpt lat="48.23854" lon="0.64731">
        <ele>144</ele>
        <time>2012-03-23T11:15:20Z</time>
      </trkpt>
      <trkpt lat="48.23855" lon="0.64735">
        <ele>144</ele>
        <time>2012-03-23T11:15:22Z</time>
      </trkpt>
      <trkpt lat="48.23857" lon="0.6474">
        <ele>145</ele>
        <time>2012-03-23T11:15:26Z</time>
      </trkpt>
      <trkpt lat="48.2386" lon="0.64745">
        <ele>145</ele>
        <time>2012-03-23T11:15:30Z</time>
      </trkpt>
      <trkpt lat="48.23863" lon="0.6475">
        <ele>145</ele>
        <time>2012-03-23T11:15:34Z</time>
      </trkpt>
      <trkpt lat="48.23864" lon="0.64755">
        <ele>145</ele>
        <time>2012-03-23T11:15:39Z</time>
      </trkpt>
      <trkpt lat="48.23866" lon="0.64758">
        <ele>145</ele>
        <time>2012-03-23T11:15:43Z</time>
      </trkpt>
      <trkpt lat="48.23867" lon="0.64762">
        <ele>145</ele>
        <time>2012-03-23T11:15:46Z</time>
      </trkpt>
      <trkpt lat="48.23869" lon="0.64767">
        <ele>145</ele>
        <time>2012-03-23T11:15:50Z</time>
      </trkpt>
      <trkpt lat="48.2387" lon="0.64772">
        <ele>145</ele>
        <time>2012-03-23T11:15:54Z</time>
      </trkpt>
      <trkpt lat="48.23872" lon="0.64776">
        <ele>146</ele>
        <time>2012-03-23T11:15:58Z</time>
      </trkpt>
      <trkpt lat="48.23873" lon="0.6478">
        <ele>147</ele>
        <time>2012-03-23T11:16:02Z</time>
      </trkpt>
      <trkpt lat="48.23873" lon="0.64784">
        <ele>147</ele>
        <time>2012-03-23T11:16:06Z</time>
      </trkpt>
      <trkpt lat="48.23874" lon="0.64788">
        <ele>148</ele>
        <time>2012-03-23T11:16:10Z</time>
      </trkpt>
      <trkpt lat="48.23876" lon="0.64792">
        <ele>150</ele>
        <time>2012-03-23T11:16:14Z</time>
      </trkpt>
      <trkpt lat="48.23878" lon="0.64796">
        <ele>152</ele>
        <time>2012-03-23T11:16:21Z</time>
      </trkpt>
      <trkpt lat="48.2388" lon="0.64799">
        <ele>155</ele>
        <time>2012-03-23T11:16:28Z</time>
      </trkpt>
      <trkpt lat="48.23881" lon="0.64803">
        <ele>156</ele>
        <time>2012-03-23T11:16:33Z</time>
      </trkpt>
      <trkpt lat="48.23884" lon="0.64805">
        <ele>156</ele>
        <time>2012-03-23T11:16:37Z</time>
      </trkpt>
      <trkpt lat="48.23886" lon="0.64808">
        <ele>156</ele>
        <time>2012-03-23T11:16:43Z</time>
      </trkpt>
      <trkpt lat="48.23888" lon="0.64811">
        <ele>156</ele>
        <time>2012-03-23T11:16:48Z</time>
      </trkpt>
      <trkpt lat="48.23891" lon="0.64814">
        <ele>156</ele>
        <time>2012-03-23T11:16:52Z</time>
      </trkpt>
      <trkpt lat="48.23893" lon="0.64818">
        <ele>156</ele>
        <time>2012-03-23T11:16:58Z</time>
      </trkpt>
      <trkpt lat="48.23895" lon="0.64822">
        <ele>156</ele>
        <time>2012-03-23T11:17:03Z</time>
      </trkpt>
      <trkpt lat="48.23898" lon="0.64824">
        <ele>156</ele>
        <time>2012-03-23T11:17:07Z</time>
      </trkpt>
      <trkpt lat="48.239" lon="0.64826">
        <ele>156</ele>
        <time>2012-03-23T11:17:11Z</time>
      </trkpt>
      <trkpt lat="48.23904" lon="0.64828">
        <ele>155</ele>
        <time>2012-03-23T11:17:15Z</time>
      </trkpt>
      <trkpt lat="48.23906" lon="0.64831">
        <ele>155</ele>
        <time>2012-03-23T11:17:18Z</time>
      </trkpt>
      <trkpt lat="48.23909" lon="0.64836">
        <ele>154</ele>
        <time>2012-03-23T11:17:23Z</time>
      </trkpt>
      <trkpt lat="48.23912" lon="0.64837">
        <ele>154</ele>
        <time>2012-03-23T11:17:26Z</time>
      </trkpt>
      <trkpt lat="48.23915" lon="0.64839">
        <ele>154</ele>
        <time>2012-03-23T11:17:29Z</time>
      </trkpt>
      <trkpt lat="48.23918" lon="0.64843">
        <ele>154</ele>
        <time>2012-03-23T11:17:35Z</time>
      </trkpt>
      <trkpt lat="48.23921" lon="0.64846">
        <ele>154</ele>
        <time>2012-03-23T11:17:38Z</time>
      </trkpt>
      <trkpt lat="48.23925" lon="0.64848">
        <ele>154</ele>
        <time>2012-03-23T11:17:40Z</time>
      </trkpt>
      <trkpt lat="48.23928" lon="0.64851">
        <ele>154</ele>
        <time>2012-03-23T11:17:42Z</time>
      </trkpt>
      <trkpt lat="48.23931" lon="0.64855">
        <ele>155</ele>
        <time>2012-03-23T11:17:46Z</time>
      </trkpt>
      <trkpt lat="48.23934" lon="0.64858">
        <ele>155</ele>
        <time>2012-03-23T11:17:50Z</time>
      </trkpt>
      <trkpt lat="48.23936" lon="0.64861">
        <ele>155</ele>
        <time>2012-03-23T11:17:52Z</time>
      </trkpt>
      <trkpt lat="48.23937" lon="0.64865">
        <ele>155</ele>
        <time>2012-03-23T11:17:55Z</time>
      </trkpt>
      <trkpt lat="48.23938" lon="0.64869">
        <ele>156</ele>
        <time>2012-03-23T11:17:57Z</time>
      </trkpt>
      <trkpt lat="48.23939" lon="0.64872">
        <ele>157</ele>
        <time>2012-03-23T11:17:59Z</time>
      </trkpt>
      <trkpt lat="48.23939" lon="0.64877">
        <ele>159</ele>
        <time>2012-03-23T11:18:02Z</time>
      </trkpt>
      <trkpt lat="48.23942" lon="0.64881">
        <ele>159</ele>
        <time>2012-03-23T11:18:05Z</time>
      </trkpt>
      <trkpt lat="48.23943" lon="0.64886">
        <ele>159</ele>
        <time>2012-03-23T11:18:08Z</time>
      </trkpt>
      <trkpt lat="48.23943" lon="0.6489">
        <ele>159</ele>
        <time>2012-03-23T11:18:10Z</time>
      </trkpt>
      <trkpt lat="48.23945" lon="0.64894">
        <ele>160</ele>
        <time>2012-03-23T11:18:14Z</time>
      </trkpt>
      <trkpt lat="48.23947" lon="0.64899">
        <ele>161</ele>
        <time>2012-03-23T11:18:18Z</time>
      </trkpt>
      <trkpt lat="48.23947" lon="0.64904">
        <ele>161</ele>
        <time>2012-03-23T11:18:21Z</time>
      </trkpt>
      <trkpt lat="48.23948" lon="0.64908">
        <ele>161</ele>
        <time>2012-03-23T11:18:23Z</time>
      </trkpt>
      <trkpt lat="48.23949" lon="0.64913">
        <ele>161</ele>
        <time>2012-03-23T11:18:26Z</time>
      </trkpt>
      <trkpt lat="48.23949" lon="0.64916">
        <ele>161</ele>
        <time>2012-03-23T11:18:28Z</time>
      </trkpt>
      <trkpt lat="48.2395" lon="0.64919">
        <ele>161</ele>
        <time>2012-03-23T11:18:30Z</time>
      </trkpt>
      <trkpt lat="48.23951" lon="0.64923">
        <ele>161</ele>
        <time>2012-03-23T11:18:32Z</time>
      </trkpt>
      <trkpt lat="48.23951" lon="0.64926">
        <ele>161</ele>
        <time>2012-03-23T11:18:34Z</time>
      </trkpt>
      <trkpt lat="48.23952" lon="0.6493">
        <ele>161</ele>
        <time>2012-03-23T11:18:36Z</time>
      </trkpt>
      <trkpt lat="48.23953" lon="0.64934">
        <ele>161</ele>
        <time>2012-03-23T11:18:38Z</time>
      </trkpt>
      <trkpt lat="48.23954" lon="0.64937">
        <ele>161</ele>
        <time>2012-03-23T11:18:40Z</time>
      </trkpt>
      <trkpt lat="48.23955" lon="0.64941">
        <ele>161</ele>
        <time>2012-03-23T11:18:42Z</time>
      </trkpt>
      <trkpt lat="48.23956" lon="0.64944">
        <ele>161</ele>
        <time>2012-03-23T11:18:44Z</time>
      </trkpt>
      <trkpt lat="48.23957" lon="0.64947">
        <ele>161</ele>
        <time>2012-03-23T11:18:46Z</time>
      </trkpt>
      <trkpt lat="48.23958" lon="0.64951">
        <ele>161</ele>
        <time>2012-03-23T11:18:48Z</time>
      </trkpt>
      <trkpt lat="48.23959" lon="0.64955">
        <ele>161</ele>
        <time>2012-03-23T11:18:50Z</time>
      </trkpt>
      <trkpt lat="48.23959" lon="0.64958">
        <ele>161</ele>
        <time>2012-03-23T11:18:52Z</time>
      </trkpt>
      <trkpt lat="48.2396" lon="0.64963">
        <ele>161</ele>
        <time>2012-03-23T11:18:55Z</time>
      </trkpt>
      <trkpt lat="48.23961" lon="0.64967">
        <ele>161</ele>
        <time>2012-03-23T11:18:57Z</time>
      </trkpt>
      <trkpt lat="48.23962" lon="0.64971">
        <ele>161</ele>
        <time>2012-03-23T11:18:59Z</time>
      </trkpt>
      <trkpt lat="48.23963" lon="0.64974">
        <ele>161</ele>
        <time>2012-03-23T11:19:01Z</time>
      </trkpt>
      <trkpt lat="48.23964" lon="0.64978">
        <ele>161</ele>
        <time>2012-03-23T11:19:03Z</time>
      </trkpt>
      <trkpt lat="48.23964" lon="0.64983">
        <ele>161</ele>
        <time>2012-03-23T11:19:06Z</time>
      </trkpt>
      <trkpt lat="48.23966" lon="0.64987">
        <ele>161</ele>
        <time>2012-03-23T11:19:08Z</time>
      </trkpt>
      <trkpt lat="48.23967" lon="0.64991">
        <ele>161</ele>
        <time>2012-03-23T11:19:10Z</time>
      </trkpt>
      <trkpt lat="48.23967" lon="0.64994">
        <ele>161</ele>
        <time>2012-03-23T11:19:12Z</time>
      </trkpt>
      <trkpt lat="48.23967" lon="0.64997">
        <ele>161</ele>
        <time>2012-03-23T11:19:14Z</time>
      </trkpt>
      <trkpt lat="48.23969" lon="0.65002">
        <ele>161</ele>
        <time>2012-03-23T11:19:17Z</time>
      </trkpt>
      <trkpt lat="48.23971" lon="0.65008">
        <ele>161</ele>
        <time>2012-03-23T11:19:21Z</time>
      </trkpt>
      <trkpt lat="48.23972" lon="0.65014">
        <ele>161</ele>
        <time>2012-03-23T11:19:25Z</time>
      </trkpt>
      <trkpt lat="48.23974" lon="0.65019">
        <ele>161</ele>
        <time>2012-03-23T11:19:29Z</time>
      </trkpt>
      <trkpt lat="48.23976" lon="0.65024">
        <ele>161</ele>
        <time>2012-03-23T11:19:33Z</time>
      </trkpt>
      <trkpt lat="48.23979" lon="0.65027">
        <ele>161</ele>
        <time>2012-03-23T11:19:36Z</time>
      </trkpt>
      <trkpt lat="48.23983" lon="0.65029">
        <ele>161</ele>
        <time>2012-03-23T11:19:39Z</time>
      </trkpt>
      <trkpt lat="48.23986" lon="0.65033">
        <ele>161</ele>
        <time>2012-03-23T11:19:43Z</time>
      </trkpt>
      <trkpt lat="48.2399" lon="0.65034">
        <ele>161</ele>
        <time>2012-03-23T11:19:46Z</time>
      </trkpt>
      <trkpt lat="48.23993" lon="0.65036">
        <ele>161</ele>
        <time>2012-03-23T11:19:49Z</time>
      </trkpt>
      <trkpt lat="48.23996" lon="0.65038">
        <ele>161</ele>
        <time>2012-03-23T11:19:53Z</time>
      </trkpt>
      <trkpt lat="48.24001" lon="0.6504">
        <ele>161</ele>
        <time>2012-03-23T11:19:57Z</time>
      </trkpt>
      <trkpt lat="48.24003" lon="0.65041">
        <ele>161</ele>
        <time>2012-03-23T11:19:59Z</time>
      </trkpt>
      <trkpt lat="48.24006" lon="0.65042">
        <ele>161</ele>
        <time>2012-03-23T11:20:01Z</time>
      </trkpt>
      <trkpt lat="48.24008" lon="0.65043">
        <ele>161</ele>
        <time>2012-03-23T11:20:03Z</time>
      </trkpt>
      <trkpt lat="48.24011" lon="0.65043">
        <ele>161</ele>
        <time>2012-03-23T11:20:05Z</time>
      </trkpt>
      <trkpt lat="48.24014" lon="0.65044">
        <ele>161</ele>
        <time>2012-03-23T11:20:07Z</time>
      </trkpt>
      <trkpt lat="48.24017" lon="0.65045">
        <ele>161</ele>
        <time>2012-03-23T11:20:09Z</time>
      </trkpt>
      <trkpt lat="48.2402" lon="0.65046">
        <ele>161</ele>
        <time>2012-03-23T11:20:12Z</time>
      </trkpt>
      <trkpt lat="48.24024" lon="0.65048">
        <ele>161</ele>
        <time>2012-03-23T11:20:15Z</time>
      </trkpt>
      <trkpt lat="48.24027" lon="0.6505">
        <ele>161</ele>
        <time>2012-03-23T11:20:18Z</time>
      </trkpt>
      <trkpt lat="48.2403" lon="0.65055">
        <ele>161</ele>
        <time>2012-03-23T11:20:22Z</time>
      </trkpt>
      <trkpt lat="48.24031" lon="0.65061">
        <ele>161</ele>
        <time>2012-03-23T11:20:26Z</time>
      </trkpt>
      <trkpt lat="48.24031" lon="0.65065">
        <ele>161</ele>
        <time>2012-03-23T11:20:28Z</time>
      </trkpt>
      <trkpt lat="48.24033" lon="0.65068">
        <ele>161</ele>
        <time>2012-03-23T11:20:30Z</time>
      </trkpt>
      <trkpt lat="48.24035" lon="0.65073">
        <ele>161</ele>
        <time>2012-03-23T11:20:33Z</time>
      </trkpt>
      <trkpt lat="48.24036" lon="0.65077">
        <ele>161</ele>
        <time>2012-03-23T11:20:35Z</time>
      </trkpt>
      <trkpt lat="48.24038" lon="0.65081">
        <ele>161</ele>
        <time>2012-03-23T11:20:37Z</time>
      </trkpt>
      <trkpt lat="48.24039" lon="0.65085">
        <ele>161</ele>
        <time>2012-03-23T11:20:39Z</time>
      </trkpt>
      <trkpt lat="48.24039" lon="0.65089">
        <ele>161</ele>
        <time>2012-03-23T11:20:41Z</time>
      </trkpt>
      <trkpt lat="48.2404" lon="0.65093">
        <ele>161</ele>
        <time>2012-03-23T11:20:43Z</time>
      </trkpt>
      <trkpt lat="48.24041" lon="0.65097">
        <ele>161</ele>
        <time>2012-03-23T11:20:45Z</time>
      </trkpt>
      <trkpt lat="48.24041" lon="0.65102">
        <ele>161</ele>
        <time>2012-03-23T11:20:48Z</time>
      </trkpt>
      <trkpt lat="48.24042" lon="0.65105">
        <ele>161</ele>
        <time>2012-03-23T11:20:50Z</time>
      </trkpt>
      <trkpt lat="48.24043" lon="0.65109">
        <ele>161</ele>
        <time>2012-03-23T11:20:52Z</time>
      </trkpt>
      <trkpt lat="48.24042" lon="0.65112">
        <ele>161</ele>
        <time>2012-03-23T11:20:54Z</time>
      </trkpt>
      <trkpt lat="48.24044" lon="0.65117">
        <ele>161</ele>
        <time>2012-03-23T11:20:57Z</time>
      </trkpt>
      <trkpt lat="48.24044" lon="0.65121">
        <ele>161</ele>
        <time>2012-03-23T11:20:59Z</time>
      </trkpt>
      <trkpt lat="48.24045" lon="0.65124">
        <ele>161</ele>
        <time>2012-03-23T11:21:01Z</time>
      </trkpt>
      <trkpt lat="48.24046" lon="0.65129">
        <ele>161</ele>
        <time>2012-03-23T11:21:04Z</time>
      </trkpt>
      <trkpt lat="48.24047" lon="0.65132">
        <ele>161</ele>
        <time>2012-03-23T11:21:06Z</time>
      </trkpt>
      <trkpt lat="48.24047" lon="0.65136">
        <ele>161</ele>
        <time>2012-03-23T11:21:08Z</time>
      </trkpt>
      <trkpt lat="48.24047" lon="0.6514">
        <ele>161</ele>
        <time>2012-03-23T11:21:10Z</time>
      </trkpt>
      <trkpt lat="48.24047" lon="0.65144">
        <ele>161</ele>
        <time>2012-03-23T11:21:12Z</time>
      </trkpt>
      <trkpt lat="48.24048" lon="0.65148">
        <ele>161</ele>
        <time>2012-03-23T11:21:14Z</time>
      </trkpt>
      <trkpt lat="48.24049" lon="0.65151">
        <ele>161</ele>
        <time>2012-03-23T11:21:16Z</time>
      </trkpt>
      <trkpt lat="48.2405" lon="0.65155">
        <ele>161</ele>
        <time>2012-03-23T11:21:18Z</time>
      </trkpt>
      <trkpt lat="48.24051" lon="0.65159">
        <ele>161</ele>
        <time>2012-03-23T11:21:20Z</time>
      </trkpt>
      <trkpt lat="48.24052" lon="0.65163">
        <ele>161</ele>
        <time>2012-03-23T11:21:22Z</time>
      </trkpt>
      <trkpt lat="48.24052" lon="0.65167">
        <ele>161</ele>
        <time>2012-03-23T11:21:24Z</time>
      </trkpt>
      <trkpt lat="48.24052" lon="0.65171">
        <ele>161</ele>
        <time>2012-03-23T11:21:26Z</time>
      </trkpt>
      <trkpt lat="48.24054" lon="0.65175">
        <ele>161</ele>
        <time>2012-03-23T11:21:28Z</time>
      </trkpt>
      <trkpt lat="48.24054" lon="0.65179">
        <ele>161</ele>
        <time>2012-03-23T11:21:30Z</time>
      </trkpt>
      <trkpt lat="48.24055" lon="0.65182">
        <ele>161</ele>
        <time>2012-03-23T11:21:32Z</time>
      </trkpt>
      <trkpt lat="48.24054" lon="0.65186">
        <ele>161</ele>
        <time>2012-03-23T11:21:34Z</time>
      </trkpt>
      <trkpt lat="48.24055" lon="0.65189">
        <ele>161</ele>
        <time>2012-03-23T11:21:36Z</time>
      </trkpt>
      <trkpt lat="48.24054" lon="0.65194">
        <ele>161</ele>
        <time>2012-03-23T11:21:38Z</time>
      </trkpt>
      <trkpt lat="48.24054" lon="0.65197">
        <ele>161</ele>
        <time>2012-03-23T11:21:40Z</time>
      </trkpt>
      <trkpt lat="48.24054" lon="0.65203">
        <ele>161</ele>
        <time>2012-03-23T11:21:43Z</time>
      </trkpt>
      <trkpt lat="48.24054" lon="0.65207">
        <ele>161</ele>
        <time>2012-03-23T11:21:45Z</time>
      </trkpt>
      <trkpt lat="48.24054" lon="0.65211">
        <ele>161</ele>
        <time>2012-03-23T11:21:47Z</time>
      </trkpt>
      <trkpt lat="48.24055" lon="0.65215">
        <ele>161</ele>
        <time>2012-03-23T11:21:49Z</time>
      </trkpt>
      <trkpt lat="48.24057" lon="0.65219">
        <ele>161</ele>
        <time>2012-03-23T11:21:52Z</time>
      </trkpt>
      <trkpt lat="48.24058" lon="0.65224">
        <ele>161</ele>
        <time>2012-03-23T11:21:55Z</time>
      </trkpt>
      <trkpt lat="48.24057" lon="0.65228">
        <ele>161</ele>
        <time>2012-03-23T11:21:57Z</time>
      </trkpt>
      <trkpt lat="48.24057" lon="0.65232">
        <ele>161</ele>
        <time>2012-03-23T11:21:59Z</time>
      </trkpt>
      <trkpt lat="48.24057" lon="0.65236">
        <ele>161</ele>
        <time>2012-03-23T11:22:01Z</time>
      </trkpt>
      <trkpt lat="48.24058" lon="0.6524">
        <ele>161</ele>
        <time>2012-03-23T11:22:03Z</time>
      </trkpt>
      <trkpt lat="48.24058" lon="0.65244">
        <ele>161</ele>
        <time>2012-03-23T11:22:05Z</time>
      </trkpt>
      <trkpt lat="48.24058" lon="0.65249">
        <ele>161</ele>
        <time>2012-03-23T11:22:07Z</time>
      </trkpt>
      <trkpt lat="48.24059" lon="0.65253">
        <ele>161</ele>
        <time>2012-03-23T11:22:09Z</time>
      </trkpt>
      <trkpt lat="48.24059" lon="0.65257">
        <ele>161</ele>
        <time>2012-03-23T11:22:11Z</time>
      </trkpt>
      <trkpt lat="48.2406" lon="0.65261">
        <ele>161</ele>
        <time>2012-03-23T11:22:13Z</time>
      </trkpt>
      <trkpt lat="48.24061" lon="0.65264">
        <ele>161</ele>
        <time>2012-03-23T11:22:15Z</time>
      </trkpt>
      <trkpt lat="48.24061" lon="0.65269">
        <ele>161</ele>
        <time>2012-03-23T11:22:17Z</time>
      </trkpt>
      <trkpt lat="48.24061" lon="0.65272">
        <ele>161</ele>
        <time>2012-03-23T11:22:19Z</time>
      </trkpt>
      <trkpt lat="48.24062" lon="0.65276">
        <ele>161</ele>
        <time>2012-03-23T11:22:21Z</time>
      </trkpt>
      <trkpt lat="48.24062" lon="0.6528">
        <ele>161</ele>
        <time>2012-03-23T11:22:23Z</time>
      </trkpt>
      <trkpt lat="48.24063" lon="0.65284">
        <ele>161</ele>
        <time>2012-03-23T11:22:25Z</time>
      </trkpt>
      <trkpt lat="48.24064" lon="0.65287">
        <ele>161</ele>
        <time>2012-03-23T11:22:27Z</time>
      </trkpt>
      <trkpt lat="48.24065" lon="0.65291">
        <ele>161</ele>
        <time>2012-03-23T11:22:29Z</time>
      </trkpt>
      <trkpt lat="48.24067" lon="0.65295">
        <ele>161</ele>
        <time>2012-03-23T11:22:32Z</time>
      </trkpt>
      <trkpt lat="48.24068" lon="0.65299">
        <ele>161</ele>
        <time>2012-03-23T11:22:34Z</time>
      </trkpt>
      <trkpt lat="48.24068" lon="0.65303">
        <ele>161</ele>
        <time>2012-03-23T11:22:36Z</time>
      </trkpt>
      <trkpt lat="48.24067" lon="0.65307">
        <ele>161</ele>
        <time>2012-03-23T11:22:38Z</time>
      </trkpt>
      <trkpt lat="48.24068" lon="0.6531">
        <ele>161</ele>
        <time>2012-03-23T11:22:40Z</time>
      </trkpt>
      <trkpt lat="48.24068" lon="0.65314">
        <ele>161</ele>
        <time>2012-03-23T11:22:42Z</time>
      </trkpt>
      <trkpt lat="48.24068" lon="0.65318">
        <ele>161</ele>
        <time>2012-03-23T11:22:44Z</time>
      </trkpt>
      <trkpt lat="48.24069" lon="0.65321">
        <ele>161</ele>
        <time>2012-03-23T11:22:46Z</time>
      </trkpt>
      <trkpt lat="48.24069" lon="0.65325">
        <ele>161</ele>
        <time>2012-03-23T11:22:48Z</time>
      </trkpt>
      <trkpt lat="48.24069" lon="0.65329">
        <ele>161</ele>
        <time>2012-03-23T11:22:50Z</time>
      </trkpt>
      <trkpt lat="48.2407" lon="0.65333">
        <ele>161</ele>
        <time>2012-03-23T11:22:52Z</time>
      </trkpt>
      <trkpt lat="48.24071" lon="0.65337">
        <ele>161</ele>
        <time>2012-03-23T11:22:54Z</time>
      </trkpt>
      <trkpt lat="48.24072" lon="0.6534">
        <ele>161</ele>
        <time>2012-03-23T11:22:56Z</time>
      </trkpt>
      <trkpt lat="48.24073" lon="0.65346">
        <ele>161</ele>
        <time>2012-03-23T11:23:00Z</time>
      </trkpt>
      <trkpt lat="48.24075" lon="0.6535">
        <ele>161</ele>
        <time>2012-03-23T11:23:02Z</time>
      </trkpt>
      <trkpt lat="48.24075" lon="0.65354">
        <ele>161</ele>
        <time>2012-03-23T11:23:04Z</time>
      </trkpt>
      <trkpt lat="48.24076" lon="0.65358">
        <ele>161</ele>
        <time>2012-03-23T11:23:06Z</time>
      </trkpt>
      <trkpt lat="48.24077" lon="0.65362">
        <ele>161</ele>
        <time>2012-03-23T11:23:09Z</time>
      </trkpt>
      <trkpt lat="48.24079" lon="0.65368">
        <ele>161</ele>
        <time>2012-03-23T11:23:13Z</time>
      </trkpt>
      <trkpt lat="48.2408" lon="0.65372">
        <ele>161</ele>
        <time>2012-03-23T11:23:15Z</time>
      </trkpt>
      <trkpt lat="48.24081" lon="0.65376">
        <ele>161</ele>
        <time>2012-03-23T11:23:18Z</time>
      </trkpt>
      <trkpt lat="48.24083" lon="0.65382">
        <ele>161</ele>
        <time>2012-03-23T11:23:22Z</time>
      </trkpt>
      <trkpt lat="48.24086" lon="0.65388">
        <ele>161</ele>
        <time>2012-03-23T11:23:26Z</time>
      </trkpt>
      <trkpt lat="48.24088" lon="0.65393">
        <ele>161</ele>
        <time>2012-03-23T11:23:29Z</time>
      </trkpt>
      <trkpt lat="48.2409" lon="0.65398">
        <ele>161</ele>
        <time>2012-03-23T11:23:33Z</time>
      </trkpt>
      <trkpt lat="48.24093" lon="0.65403">
        <ele>161</ele>
        <time>2012-03-23T11:23:37Z</time>
      </trkpt>
      <trkpt lat="48.24096" lon="0.65409">
        <ele>161</ele>
        <time>2012-03-23T11:23:41Z</time>
      </trkpt>
      <trkpt lat="48.24097" lon="0.65413">
        <ele>161</ele>
        <time>2012-03-23T11:23:43Z</time>
      </trkpt>
      <trkpt lat="48.24098" lon="0.65416">
        <ele>161</ele>
        <time>2012-03-23T11:23:45Z</time>
      </trkpt>
      <trkpt lat="48.24098" lon="0.65419">
        <ele>161</ele>
        <time>2012-03-23T11:23:47Z</time>
      </trkpt>
      <trkpt lat="48.24099" lon="0.65423">
        <ele>161</ele>
        <time>2012-03-23T11:23:49Z</time>
      </trkpt>
      <trkpt lat="48.241" lon="0.65427">
        <ele>161</ele>
        <time>2012-03-23T11:23:51Z</time>
      </trkpt>
      <trkpt lat="48.24102" lon="0.65431">
        <ele>161</ele>
        <time>2012-03-23T11:23:53Z</time>
      </trkpt>
      <trkpt lat="48.24103" lon="0.65434">
        <ele>161</ele>
        <time>2012-03-23T11:23:55Z</time>
      </trkpt>
      <trkpt lat="48.24104" lon="0.65438">
        <ele>161</ele>
        <time>2012-03-23T11:23:57Z</time>
      </trkpt>
      <trkpt lat="48.24105" lon="0.65442">
        <ele>161</ele>
        <time>2012-03-23T11:23:59Z</time>
      </trkpt>
      <trkpt lat="48.24106" lon="0.65446">
        <ele>161</ele>
        <time>2012-03-23T11:24:01Z</time>
      </trkpt>
      <trkpt lat="48.24107" lon="0.65449">
        <ele>161</ele>
        <time>2012-03-23T11:24:03Z</time>
      </trkpt>
      <trkpt lat="48.24108" lon="0.65453">
        <ele>161</ele>
        <time>2012-03-23T11:24:05Z</time>
      </trkpt>
      <trkpt lat="48.24109" lon="0.65457">
        <ele>161</ele>
        <time>2012-03-23T11:24:07Z</time>
      </trkpt>
      <trkpt lat="48.24109" lon="0.6546">
        <ele>161</ele>
        <time>2012-03-23T11:24:09Z</time>
      </trkpt>
      <trkpt lat="48.2411" lon="0.65464">
        <ele>161</ele>
        <time>2012-03-23T11:24:11Z</time>
      </trkpt>
      <trkpt lat="48.24111" lon="0.65468">
        <ele>161</ele>
        <time>2012-03-23T11:24:13Z</time>
      </trkpt>
      <trkpt lat="48.24112" lon="0.65471">
        <ele>161</ele>
        <time>2012-03-23T11:24:15Z</time>
      </trkpt>
      <trkpt lat="48.24113" lon="0.65474">
        <ele>161</ele>
        <time>2012-03-23T11:24:17Z</time>
      </trkpt>
      <trkpt lat="48.24113" lon="0.65478">
        <ele>161</ele>
        <time>2012-03-23T11:24:19Z</time>
      </trkpt>
      <trkpt lat="48.24114" lon="0.65482">
        <ele>161</ele>
        <time>2012-03-23T11:24:21Z</time>
      </trkpt>
      <trkpt lat="48.24114" lon="0.65485">
        <ele>161</ele>
        <time>2012-03-23T11:24:23Z</time>
      </trkpt>
      <trkpt lat="48.24115" lon="0.65489">
        <ele>161</ele>
        <time>2012-03-23T11:24:25Z</time>
      </trkpt>
      <trkpt lat="48.24116" lon="0.65492">
        <ele>161</ele>
        <time>2012-03-23T11:24:27Z</time>
      </trkpt>
      <trkpt lat="48.24117" lon="0.65496">
        <ele>161</ele>
        <time>2012-03-23T11:24:29Z</time>
      </trkpt>
      <trkpt lat="48.24117" lon="0.65499">
        <ele>161</ele>
        <time>2012-03-23T11:24:31Z</time>
      </trkpt>
      <trkpt lat="48.24118" lon="0.65503">
        <ele>161</ele>
        <time>2012-03-23T11:24:33Z</time>
      </trkpt>
      <trkpt lat="48.24118" lon="0.65506">
        <ele>161</ele>
        <time>2012-03-23T11:24:35Z</time>
      </trkpt>
      <trkpt lat="48.2412" lon="0.65511">
        <ele>161</ele>
        <time>2012-03-23T11:24:38Z</time>
      </trkpt>
      <trkpt lat="48.2412" lon="0.65514">
        <ele>161</ele>
        <time>2012-03-23T11:24:40Z</time>
      </trkpt>
      <trkpt lat="48.2412" lon="0.65518">
        <ele>161</ele>
        <time>2012-03-23T11:24:42Z</time>
      </trkpt>
      <trkpt lat="48.2412" lon="0.65521">
        <ele>161</ele>
        <time>2012-03-23T11:24:44Z</time>
      </trkpt>
      <trkpt lat="48.24121" lon="0.65526">
        <ele>161</ele>
        <time>2012-03-23T11:24:47Z</time>
      </trkpt>
      <trkpt lat="48.24121" lon="0.65532">
        <ele>161</ele>
        <time>2012-03-23T11:24:51Z</time>
      </trkpt>
      <trkpt lat="48.24121" lon="0.65536">
        <ele>161</ele>
        <time>2012-03-23T11:24:54Z</time>
      </trkpt>
      <trkpt lat="48.24122" lon="0.65541">
        <ele>161</ele>
        <time>2012-03-23T11:24:57Z</time>
      </trkpt>
      <trkpt lat="48.24122" lon="0.65545">
        <ele>161</ele>
        <time>2012-03-23T11:24:59Z</time>
      </trkpt>
      <trkpt lat="48.24121" lon="0.6555">
        <ele>161</ele>
        <time>2012-03-23T11:25:02Z</time>
      </trkpt>
      <trkpt lat="48.24121" lon="0.65553">
        <ele>161</ele>
        <time>2012-03-23T11:25:04Z</time>
      </trkpt>
      <trkpt lat="48.2412" lon="0.65557">
        <ele>161</ele>
        <time>2012-03-23T11:25:06Z</time>
      </trkpt>
      <trkpt lat="48.2412" lon="0.6556">
        <ele>161</ele>
        <time>2012-03-23T11:25:08Z</time>
      </trkpt>
      <trkpt lat="48.2412" lon="0.65565">
        <ele>161</ele>
        <time>2012-03-23T11:25:11Z</time>
      </trkpt>
      <trkpt lat="48.2412" lon="0.65568">
        <ele>161</ele>
        <time>2012-03-23T11:25:13Z</time>
      </trkpt>
      <trkpt lat="48.2412" lon="0.65572">
        <ele>161</ele>
        <time>2012-03-23T11:25:15Z</time>
      </trkpt>
      <trkpt lat="48.24119" lon="0.65576">
        <ele>161</ele>
        <time>2012-03-23T11:25:18Z</time>
      </trkpt>
      <trkpt lat="48.24118" lon="0.65581">
        <ele>161</ele>
        <time>2012-03-23T11:25:21Z</time>
      </trkpt>
      <trkpt lat="48.24118" lon="0.65586">
        <ele>161</ele>
        <time>2012-03-23T11:25:24Z</time>
      </trkpt>
      <trkpt lat="48.24119" lon="0.65591">
        <ele>161</ele>
        <time>2012-03-23T11:25:27Z</time>
      </trkpt>
      <trkpt lat="48.24123" lon="0.65596">
        <ele>161</ele>
        <time>2012-03-23T11:25:31Z</time>
      </trkpt>
      <trkpt lat="48.24126" lon="0.65599">
        <ele>161</ele>
        <time>2012-03-23T11:25:35Z</time>
      </trkpt>
      <trkpt lat="48.24129" lon="0.656">
        <ele>161</ele>
        <time>2012-03-23T11:25:37Z</time>
      </trkpt>
      <trkpt lat="48.24132" lon="0.65602">
        <ele>161</ele>
        <time>2012-03-23T11:25:40Z</time>
      </trkpt>
      <trkpt lat="48.24136" lon="0.65606">
        <ele>161</ele>
        <time>2012-03-23T11:25:44Z</time>
      </trkpt>
      <trkpt lat="48.2414" lon="0.65609">
        <ele>161</ele>
        <time>2012-03-23T11:25:48Z</time>
      </trkpt>
      <trkpt lat="48.24143" lon="0.65611">
        <ele>161</ele>
        <time>2012-03-23T11:25:51Z</time>
      </trkpt>
      <trkpt lat="48.24147" lon="0.65614">
        <ele>161</ele>
        <time>2012-03-23T11:25:55Z</time>
      </trkpt>
      <trkpt lat="48.24149" lon="0.65616">
        <ele>161</ele>
        <time>2012-03-23T11:25:57Z</time>
      </trkpt>
      <trkpt lat="48.24152" lon="0.65618">
        <ele>161</ele>
        <time>2012-03-23T11:26:00Z</time>
      </trkpt>
      <trkpt lat="48.24155" lon="0.6562">
        <ele>161</ele>
        <time>2012-03-23T11:26:03Z</time>
      </trkpt>
      <trkpt lat="48.24159" lon="0.65623">
        <ele>161</ele>
        <time>2012-03-23T11:26:07Z</time>
      </trkpt>
      <trkpt lat="48.24162" lon="0.65626">
        <ele>160</ele>
        <time>2012-03-23T11:26:11Z</time>
      </trkpt>
      <trkpt lat="48.24166" lon="0.65628">
        <ele>160</ele>
        <time>2012-03-23T11:26:15Z</time>
      </trkpt>
      <trkpt lat="48.24169" lon="0.65633">
        <ele>160</ele>
        <time>2012-03-23T11:26:19Z</time>
      </trkpt>
      <trkpt lat="48.24172" lon="0.65635">
        <ele>160</ele>
        <time>2012-03-23T11:26:23Z</time>
      </trkpt>
      <trkpt lat="48.24174" lon="0.65639">
        <ele>160</ele>
        <time>2012-03-23T11:26:28Z</time>
      </trkpt>
      <trkpt lat="48.24175" lon="0.65645">
        <ele>160</ele>
        <time>2012-03-23T11:26:33Z</time>
      </trkpt>
      <trkpt lat="48.24175" lon="0.65649">
        <ele>160</ele>
        <time>2012-03-23T11:26:36Z</time>
      </trkpt>
      <trkpt lat="48.24178" lon="0.65652">
        <ele>160</ele>
        <time>2012-03-23T11:26:40Z</time>
      </trkpt>
      <trkpt lat="48.24181" lon="0.65652">
        <ele>160</ele>
        <time>2012-03-23T11:26:44Z</time>
      </trkpt>
      <trkpt lat="48.24181" lon="0.65647">
        <ele>160</ele>
        <time>2012-03-23T11:26:49Z</time>
      </trkpt>
      <trkpt lat="48.24182" lon="0.65642">
        <ele>159</ele>
        <time>2012-03-23T11:26:53Z</time>
      </trkpt>
      <trkpt lat="48.24184" lon="0.65637">
        <ele>159</ele>
        <time>2012-03-23T11:26:57Z</time>
      </trkpt>
      <trkpt lat="48.24188" lon="0.65633">
        <ele>157</ele>
        <time>2012-03-23T11:27:01Z</time>
      </trkpt>
      <trkpt lat="48.24191" lon="0.65629">
        <ele>156</ele>
        <time>2012-03-23T11:27:05Z</time>
      </trkpt>
      <trkpt lat="48.24194" lon="0.65627">
        <ele>156</ele>
        <time>2012-03-23T11:27:08Z</time>
      </trkpt>
      <trkpt lat="48.24197" lon="0.65624">
        <ele>156</ele>
        <time>2012-03-23T11:27:12Z</time>
      </trkpt>
      <trkpt lat="48.242" lon="0.65621">
        <ele>156</ele>
        <time>2012-03-23T11:27:16Z</time>
      </trkpt>
      <trkpt lat="48.24203" lon="0.65617">
        <ele>156</ele>
        <time>2012-03-23T11:27:20Z</time>
      </trkpt>
      <trkpt lat="48.24206" lon="0.65613">
        <ele>155</ele>
        <time>2012-03-23T11:27:24Z</time>
      </trkpt>
      <trkpt lat="48.2421" lon="0.65608">
        <ele>155</ele>
        <time>2012-03-23T11:27:28Z</time>
      </trkpt>
      <trkpt lat="48.24213" lon="0.65606">
        <ele>154</ele>
        <time>2012-03-23T11:27:30Z</time>
      </trkpt>
      <trkpt lat="48.24216" lon="0.65602">
        <ele>154</ele>
        <time>2012-03-23T11:27:34Z</time>
      </trkpt>
      <trkpt lat="48.2422" lon="0.65598">
        <ele>154</ele>
        <time>2012-03-23T11:27:38Z</time>
      </trkpt>
      <trkpt lat="48.24223" lon="0.65595">
        <ele>154</ele>
        <time>2012-03-23T11:27:41Z</time>
      </trkpt>
      <trkpt lat="48.24227" lon="0.65591">
        <ele>154</ele>
        <time>2012-03-23T11:27:45Z</time>
      </trkpt>
      <trkpt lat="48.24231" lon="0.65586">
        <ele>154</ele>
        <time>2012-03-23T11:27:49Z</time>
      </trkpt>
      <trkpt lat="48.24235" lon="0.65581">
        <ele>154</ele>
        <time>2012-03-23T11:27:53Z</time>
      </trkpt>
      <trkpt lat="48.24237" lon="0.65576">
        <ele>154</ele>
        <time>2012-03-23T11:27:56Z</time>
      </trkpt>
      <trkpt lat="48.24239" lon="0.65571">
        <ele>154</ele>
        <time>2012-03-23T11:27:59Z</time>
      </trkpt>
      <trkpt lat="48.24241" lon="0.65566">
        <ele>154</ele>
        <time>2012-03-23T11:28:02Z</time>
      </trkpt>
      <trkpt lat="48.24242" lon="0.65563">
        <ele>154</ele>
        <time>2012-03-23T11:28:04Z</time>
      </trkpt>
      <trkpt lat="48.24242" lon="0.65558">
        <ele>154</ele>
        <time>2012-03-23T11:28:06Z</time>
      </trkpt>
      <trkpt lat="48.24243" lon="0.65555">
        <ele>154</ele>
        <time>2012-03-23T11:28:08Z</time>
      </trkpt>
      <trkpt lat="48.24244" lon="0.65552">
        <ele>154</ele>
        <time>2012-03-23T11:28:10Z</time>
      </trkpt>
      <trkpt lat="48.24245" lon="0.65547">
        <ele>154</ele>
        <time>2012-03-23T11:28:12Z</time>
      </trkpt>
      <trkpt lat="48.24247" lon="0.65542">
        <ele>154</ele>
        <time>2012-03-23T11:28:15Z</time>
      </trkpt>
      <trkpt lat="48.24249" lon="0.65536">
        <ele>154</ele>
        <time>2012-03-23T11:28:19Z</time>
      </trkpt>
      <trkpt lat="48.24251" lon="0.65531">
        <ele>154</ele>
        <time>2012-03-23T11:28:22Z</time>
      </trkpt>
      <trkpt lat="48.24253" lon="0.65529">
        <ele>154</ele>
        <time>2012-03-23T11:28:24Z</time>
      </trkpt>
      <trkpt lat="48.24257" lon="0.65526">
        <ele>154</ele>
        <time>2012-03-23T11:28:28Z</time>
      </trkpt>
      <trkpt lat="48.24259" lon="0.65522">
        <ele>154</ele>
        <time>2012-03-23T11:28:32Z</time>
      </trkpt>
      <trkpt lat="48.24262" lon="0.65517">
        <ele>154</ele>
        <time>2012-03-23T11:28:36Z</time>
      </trkpt>
      <trkpt lat="48.24263" lon="0.65514">
        <ele>154</ele>
        <time>2012-03-23T11:28:38Z</time>
      </trkpt>
      <trkpt lat="48.24265" lon="0.65509">
        <ele>154</ele>
        <time>2012-03-23T11:28:41Z</time>
      </trkpt>
      <trkpt lat="48.24266" lon="0.65506">
        <ele>154</ele>
        <time>2012-03-23T11:28:43Z</time>
      </trkpt>
      <trkpt lat="48.24268" lon="0.65503">
        <ele>154</ele>
        <time>2012-03-23T11:28:45Z</time>
      </trkpt>
      <trkpt lat="48.24269" lon="0.65499">
        <ele>154</ele>
        <time>2012-03-23T11:28:47Z</time>
      </trkpt>
      <trkpt lat="48.24271" lon="0.65496">
        <ele>154</ele>
        <time>2012-03-23T11:28:49Z</time>
      </trkpt>
      <trkpt lat="48.24273" lon="0.65493">
        <ele>153</ele>
        <time>2012-03-23T11:28:51Z</time>
      </trkpt>
      <trkpt lat="48.24275" lon="0.6549">
        <ele>153</ele>
        <time>2012-03-23T11:28:53Z</time>
      </trkpt>
      <trkpt lat="48.24277" lon="0.65485">
        <ele>153</ele>
        <time>2012-03-23T11:28:56Z</time>
      </trkpt>
      <trkpt lat="48.24278" lon="0.6548">
        <ele>153</ele>
        <time>2012-03-23T11:28:59Z</time>
      </trkpt>
      <trkpt lat="48.2428" lon="0.65474">
        <ele>152</ele>
        <time>2012-03-23T11:29:03Z</time>
      </trkpt>
      <trkpt lat="48.24281" lon="0.65467">
        <ele>152</ele>
        <time>2012-03-23T11:29:07Z</time>
      </trkpt>
      <trkpt lat="48.24283" lon="0.65462">
        <ele>152</ele>
        <time>2012-03-23T11:29:11Z</time>
      </trkpt>
      <trkpt lat="48.24285" lon="0.65457">
        <ele>152</ele>
        <time>2012-03-23T11:29:15Z</time>
      </trkpt>
      <trkpt lat="48.24287" lon="0.65454">
        <ele>152</ele>
        <time>2012-03-23T11:29:19Z</time>
      </trkpt>
      <trkpt lat="48.24289" lon="0.6545">
        <ele>152</ele>
        <time>2012-03-23T11:29:23Z</time>
      </trkpt>
      <trkpt lat="48.24292" lon="0.65444">
        <ele>152</ele>
        <time>2012-03-23T11:29:27Z</time>
      </trkpt>
      <trkpt lat="48.24293" lon="0.6544">
        <ele>152</ele>
        <time>2012-03-23T11:29:30Z</time>
      </trkpt>
      <trkpt lat="48.24293" lon="0.65436">
        <ele>152</ele>
        <time>2012-03-23T11:29:33Z</time>
      </trkpt>
      <trkpt lat="48.24293" lon="0.65432">
        <ele>152</ele>
        <time>2012-03-23T11:29:35Z</time>
      </trkpt>
      <trkpt lat="48.24294" lon="0.65427">
        <ele>152</ele>
        <time>2012-03-23T11:29:38Z</time>
      </trkpt>
      <trkpt lat="48.24293" lon="0.65423">
        <ele>152</ele>
        <time>2012-03-23T11:29:40Z</time>
      </trkpt>
      <trkpt lat="48.24293" lon="0.65417">
        <ele>152</ele>
        <time>2012-03-23T11:29:43Z</time>
      </trkpt>
      <trkpt lat="48.24293" lon="0.65414">
        <ele>152</ele>
        <time>2012-03-23T11:29:45Z</time>
      </trkpt>
      <trkpt lat="48.24292" lon="0.65409">
        <ele>153</ele>
        <time>2012-03-23T11:29:48Z</time>
      </trkpt>
      <trkpt lat="48.24292" lon="0.65405">
        <ele>154</ele>
        <time>2012-03-23T11:29:51Z</time>
      </trkpt>
      <trkpt lat="48.24291" lon="0.65401">
        <ele>154</ele>
        <time>2012-03-23T11:29:53Z</time>
      </trkpt>
      <trkpt lat="48.24291" lon="0.65396">
        <ele>155</ele>
        <time>2012-03-23T11:29:56Z</time>
      </trkpt>
      <trkpt lat="48.2429" lon="0.65391">
        <ele>156</ele>
        <time>2012-03-23T11:29:59Z</time>
      </trkpt>
      <trkpt lat="48.2429" lon="0.65386">
        <ele>157</ele>
        <time>2012-03-23T11:30:03Z</time>
      </trkpt>
      <trkpt lat="48.24289" lon="0.65381">
        <ele>157</ele>
        <time>2012-03-23T11:30:06Z</time>
      </trkpt>
      <trkpt lat="48.24289" lon="0.65375">
        <ele>157</ele>
        <time>2012-03-23T11:30:10Z</time>
      </trkpt>
      <trkpt lat="48.24288" lon="0.65371">
        <ele>157</ele>
        <time>2012-03-23T11:30:13Z</time>
      </trkpt>
      <trkpt lat="48.24288" lon="0.65367">
        <ele>157</ele>
        <time>2012-03-23T11:30:15Z</time>
      </trkpt>
      <trkpt lat="48.24287" lon="0.65362">
        <ele>157</ele>
        <time>2012-03-23T11:30:18Z</time>
      </trkpt>
      <trkpt lat="48.24287" lon="0.65356">
        <ele>157</ele>
        <time>2012-03-23T11:30:21Z</time>
      </trkpt>
      <trkpt lat="48.24286" lon="0.65352">
        <ele>158</ele>
        <time>2012-03-23T11:30:24Z</time>
      </trkpt>
      <trkpt lat="48.24286" lon="0.65347">
        <ele>158</ele>
        <time>2012-03-23T11:30:28Z</time>
      </trkpt>
      <trkpt lat="48.24286" lon="0.65342">
        <ele>158</ele>
        <time>2012-03-23T11:30:32Z</time>
      </trkpt>
      <trkpt lat="48.24287" lon="0.65337">
        <ele>158</ele>
        <time>2012-03-23T11:30:35Z</time>
      </trkpt>
      <trkpt lat="48.24287" lon="0.65333">
        <ele>158</ele>
        <time>2012-03-23T11:30:37Z</time>
      </trkpt>
      <trkpt lat="48.24288" lon="0.65329">
        <ele>158</ele>
        <time>2012-03-23T11:30:39Z</time>
      </trkpt>
      <trkpt lat="48.24288" lon="0.65325">
        <ele>159</ele>
        <time>2012-03-23T11:30:41Z</time>
      </trkpt>
      <trkpt lat="48.24288" lon="0.65321">
        <ele>159</ele>
        <time>2012-03-23T11:30:44Z</time>
      </trkpt>
      <trkpt lat="48.24289" lon="0.65316">
        <ele>159</ele>
        <time>2012-03-23T11:30:47Z</time>
      </trkpt>
      <trkpt lat="48.2429" lon="0.65311">
        <ele>159</ele>
        <time>2012-03-23T11:30:50Z</time>
      </trkpt>
      <trkpt lat="48.24291" lon="0.65306">
        <ele>159</ele>
        <time>2012-03-23T11:30:53Z</time>
      </trkpt>
      <trkpt lat="48.24291" lon="0.65302">
        <ele>159</ele>
        <time>2012-03-23T11:30:55Z</time>
      </trkpt>
      <trkpt lat="48.24292" lon="0.65297">
        <ele>159</ele>
        <time>2012-03-23T11:30:58Z</time>
      </trkpt>
      <trkpt lat="48.24292" lon="0.65294">
        <ele>159</ele>
        <time>2012-03-23T11:31:00Z</time>
      </trkpt>
      <trkpt lat="48.24292" lon="0.6529">
        <ele>159</ele>
        <time>2012-03-23T11:31:02Z</time>
      </trkpt>
      <trkpt lat="48.24292" lon="0.65285">
        <ele>159</ele>
        <time>2012-03-23T11:31:05Z</time>
      </trkpt>
      <trkpt lat="48.24292" lon="0.65281">
        <ele>159</ele>
        <time>2012-03-23T11:31:07Z</time>
      </trkpt>
      <trkpt lat="48.24292" lon="0.65277">
        <ele>160</ele>
        <time>2012-03-23T11:31:09Z</time>
      </trkpt>
      <trkpt lat="48.24293" lon="0.65272">
        <ele>161</ele>
        <time>2012-03-23T11:31:12Z</time>
      </trkpt>
      <trkpt lat="48.24292" lon="0.65268">
        <ele>161</ele>
        <time>2012-03-23T11:31:14Z</time>
      </trkpt>
      <trkpt lat="48.24293" lon="0.65263">
        <ele>162</ele>
        <time>2012-03-23T11:31:17Z</time>
      </trkpt>
      <trkpt lat="48.24292" lon="0.65259">
        <ele>162</ele>
        <time>2012-03-23T11:31:20Z</time>
      </trkpt>
      <trkpt lat="48.24293" lon="0.65255">
        <ele>163</ele>
        <time>2012-03-23T11:31:22Z</time>
      </trkpt>
      <trkpt lat="48.24293" lon="0.65251">
        <ele>164</ele>
        <time>2012-03-23T11:31:26Z</time>
      </trkpt>
      <trkpt lat="48.24292" lon="0.65247">
        <ele>165</ele>
        <time>2012-03-23T11:31:29Z</time>
      </trkpt>
      <trkpt lat="48.24292" lon="0.65243">
        <ele>165</ele>
        <time>2012-03-23T11:31:31Z</time>
      </trkpt>
      <trkpt lat="48.24292" lon="0.65239">
        <ele>165</ele>
        <time>2012-03-23T11:31:34Z</time>
      </trkpt>
      <trkpt lat="48.24291" lon="0.65234">
        <ele>165</ele>
        <time>2012-03-23T11:31:37Z</time>
      </trkpt>
      <trkpt lat="48.24291" lon="0.6523">
        <ele>165</ele>
        <time>2012-03-23T11:31:39Z</time>
      </trkpt>
      <trkpt lat="48.24291" lon="0.65226">
        <ele>165</ele>
        <time>2012-03-23T11:31:41Z</time>
      </trkpt>
      <trkpt lat="48.24291" lon="0.65221">
        <ele>165</ele>
        <time>2012-03-23T11:31:43Z</time>
      </trkpt>
      <trkpt lat="48.2429" lon="0.65217">
        <ele>165</ele>
        <time>2012-03-23T11:31:45Z</time>
      </trkpt>
      <trkpt lat="48.2429" lon="0.65213">
        <ele>166</ele>
        <time>2012-03-23T11:31:47Z</time>
      </trkpt>
      <trkpt lat="48.24288" lon="0.65208">
        <ele>168</ele>
        <time>2012-03-23T11:31:50Z</time>
      </trkpt>
      <trkpt lat="48.24286" lon="0.65202">
        <ele>169</ele>
        <time>2012-03-23T11:31:53Z</time>
      </trkpt>
      <trkpt lat="48.24286" lon="0.65198">
        <ele>170</ele>
        <time>2012-03-23T11:31:55Z</time>
      </trkpt>
      <trkpt lat="48.24285" lon="0.65193">
        <ele>170</ele>
        <time>2012-03-23T11:31:58Z</time>
      </trkpt>
      <trkpt lat="48.24283" lon="0.65189">
        <ele>170</ele>
        <time>2012-03-23T11:32:00Z</time>
      </trkpt>
      <trkpt lat="48.24283" lon="0.65184">
        <ele>170</ele>
        <time>2012-03-23T11:32:03Z</time>
      </trkpt>
      <trkpt lat="48.24282" lon="0.65179">
        <ele>170</ele>
        <time>2012-03-23T11:32:06Z</time>
      </trkpt>
      <trkpt lat="48.24281" lon="0.65173">
        <ele>170</ele>
        <time>2012-03-23T11:32:10Z</time>
      </trkpt>
      <trkpt lat="48.24278" lon="0.65168">
        <ele>170</ele>
        <time>2012-03-23T11:32:14Z</time>
      </trkpt>
      <trkpt lat="48.24278" lon="0.65163">
        <ele>170</ele>
        <time>2012-03-23T11:32:16Z</time>
      </trkpt>
      <trkpt lat="48.24276" lon="0.65157">
        <ele>170</ele>
        <time>2012-03-23T11:32:20Z</time>
      </trkpt>
      <trkpt lat="48.24275" lon="0.65153">
        <ele>170</ele>
        <time>2012-03-23T11:32:22Z</time>
      </trkpt>
      <trkpt lat="48.24274" lon="0.65149">
        <ele>170</ele>
        <time>2012-03-23T11:32:24Z</time>
      </trkpt>
      <trkpt lat="48.24274" lon="0.65146">
        <ele>170</ele>
        <time>2012-03-23T11:32:26Z</time>
      </trkpt>
      <trkpt lat="48.24273" lon="0.65143">
        <ele>170</ele>
        <time>2012-03-23T11:32:28Z</time>
      </trkpt>
      <trkpt lat="48.24272" lon="0.65138">
        <ele>170</ele>
        <time>2012-03-23T11:32:31Z</time>
      </trkpt>
      <trkpt lat="48.24271" lon="0.65134">
        <ele>170</ele>
        <time>2012-03-23T11:32:33Z</time>
      </trkpt>
      <trkpt lat="48.24271" lon="0.65128">
        <ele>170</ele>
        <time>2012-03-23T11:32:37Z</time>
      </trkpt>
      <trkpt lat="48.24271" lon="0.65124">
        <ele>170</ele>
        <time>2012-03-23T11:32:39Z</time>
      </trkpt>
      <trkpt lat="48.2427" lon="0.65118">
        <ele>169</ele>
        <time>2012-03-23T11:32:42Z</time>
      </trkpt>
      <trkpt lat="48.2427" lon="0.65114">
        <ele>169</ele>
        <time>2012-03-23T11:32:44Z</time>
      </trkpt>
      <trkpt lat="48.2427" lon="0.65109">
        <ele>168</ele>
        <time>2012-03-23T11:32:47Z</time>
      </trkpt>
      <trkpt lat="48.2427" lon="0.65104">
        <ele>168</ele>
        <time>2012-03-23T11:32:50Z</time>
      </trkpt>
      <trkpt lat="48.24269" lon="0.65099">
        <ele>168</ele>
        <time>2012-03-23T11:32:52Z</time>
      </trkpt>
      <trkpt lat="48.24268" lon="0.65095">
        <ele>168</ele>
        <time>2012-03-23T11:32:55Z</time>
      </trkpt>
      <trkpt lat="48.24268" lon="0.6509">
        <ele>168</ele>
        <time>2012-03-23T11:32:58Z</time>
      </trkpt>
      <trkpt lat="48.24267" lon="0.65084">
        <ele>168</ele>
        <time>2012-03-23T11:33:01Z</time>
      </trkpt>
      <trkpt lat="48.24266" lon="0.65079">
        <ele>168</ele>
        <time>2012-03-23T11:33:04Z</time>
      </trkpt>
      <trkpt lat="48.24266" lon="0.65074">
        <ele>168</ele>
        <time>2012-03-23T11:33:07Z</time>
      </trkpt>
      <trkpt lat="48.24266" lon="0.65069">
        <ele>168</ele>
        <time>2012-03-23T11:33:10Z</time>
      </trkpt>
      <trkpt lat="48.24265" lon="0.65065">
        <ele>167</ele>
        <time>2012-03-23T11:33:12Z</time>
      </trkpt>
      <trkpt lat="48.24263" lon="0.65061">
        <ele>167</ele>
        <time>2012-03-23T11:33:14Z</time>
      </trkpt>
      <trkpt lat="48.24263" lon="0.65057">
        <ele>167</ele>
        <time>2012-03-23T11:33:16Z</time>
      </trkpt>
      <trkpt lat="48.24263" lon="0.65054">
        <ele>167</ele>
        <time>2012-03-23T11:33:18Z</time>
      </trkpt>
      <trkpt lat="48.24262" lon="0.6505">
        <ele>167</ele>
        <time>2012-03-23T11:33:20Z</time>
      </trkpt>
      <trkpt lat="48.24261" lon="0.65045">
        <ele>167</ele>
        <time>2012-03-23T11:33:23Z</time>
      </trkpt>
      <trkpt lat="48.2426" lon="0.65041">
        <ele>167</ele>
        <time>2012-03-23T11:33:25Z</time>
      </trkpt>
      <trkpt lat="48.2426" lon="0.65038">
        <ele>167</ele>
        <time>2012-03-23T11:33:27Z</time>
      </trkpt>
      <trkpt lat="48.24259" lon="0.65033">
        <ele>167</ele>
        <time>2012-03-23T11:33:29Z</time>
      </trkpt>
      <trkpt lat="48.24258" lon="0.65029">
        <ele>167</ele>
        <time>2012-03-23T11:33:31Z</time>
      </trkpt>
      <trkpt lat="48.24257" lon="0.65025">
        <ele>167</ele>
        <time>2012-03-23T11:33:33Z</time>
      </trkpt>
      <trkpt lat="48.24256" lon="0.6502">
        <ele>167</ele>
        <time>2012-03-23T11:33:36Z</time>
      </trkpt>
      <trkpt lat="48.24255" lon="0.65016">
        <ele>167</ele>
        <time>2012-03-23T11:33:39Z</time>
      </trkpt>
      <trkpt lat="48.24255" lon="0.65011">
        <ele>167</ele>
        <time>2012-03-23T11:33:41Z</time>
      </trkpt>
      <trkpt lat="48.24255" lon="0.65007">
        <ele>167</ele>
        <time>2012-03-23T11:33:43Z</time>
      </trkpt>
      <trkpt lat="48.24253" lon="0.65003">
        <ele>167</ele>
        <time>2012-03-23T11:33:45Z</time>
      </trkpt>
      <trkpt lat="48.24252" lon="0.64997">
        <ele>167</ele>
        <time>2012-03-23T11:33:48Z</time>
      </trkpt>
      <trkpt lat="48.2425" lon="0.64991">
        <ele>167</ele>
        <time>2012-03-23T11:33:52Z</time>
      </trkpt>
      <trkpt lat="48.2425" lon="0.64987">
        <ele>167</ele>
        <time>2012-03-23T11:33:54Z</time>
      </trkpt>
      <trkpt lat="48.24249" lon="0.64981">
        <ele>167</ele>
        <time>2012-03-23T11:33:58Z</time>
      </trkpt>
      <trkpt lat="48.24249" lon="0.64977">
        <ele>167</ele>
        <time>2012-03-23T11:34:01Z</time>
      </trkpt>
      <trkpt lat="48.24247" lon="0.64972">
        <ele>167</ele>
        <time>2012-03-23T11:34:04Z</time>
      </trkpt>
      <trkpt lat="48.24247" lon="0.64966">
        <ele>167</ele>
        <time>2012-03-23T11:34:08Z</time>
      </trkpt>
      <trkpt lat="48.24246" lon="0.64963">
        <ele>167</ele>
        <time>2012-03-23T11:34:10Z</time>
      </trkpt>
      <trkpt lat="48.24243" lon="0.6496">
        <ele>167</ele>
        <time>2012-03-23T11:34:13Z</time>
      </trkpt>
      <trkpt lat="48.24242" lon="0.64957">
        <ele>167</ele>
        <time>2012-03-23T11:34:15Z</time>
      </trkpt>
      <trkpt lat="48.24242" lon="0.64951">
        <ele>167</ele>
        <time>2012-03-23T11:34:19Z</time>
      </trkpt>
      <trkpt lat="48.24242" lon="0.64944">
        <ele>167</ele>
        <time>2012-03-23T11:34:23Z</time>
      </trkpt>
      <trkpt lat="48.24241" lon="0.64939">
        <ele>167</ele>
        <time>2012-03-23T11:34:26Z</time>
      </trkpt>
      <trkpt lat="48.2424" lon="0.64935">
        <ele>167</ele>
        <time>2012-03-23T11:34:28Z</time>
      </trkpt>
      <trkpt lat="48.2424" lon="0.64931">
        <ele>167</ele>
        <time>2012-03-23T11:34:30Z</time>
      </trkpt>
      <trkpt lat="48.24239" lon="0.64927">
        <ele>167</ele>
        <time>2012-03-23T11:34:32Z</time>
      </trkpt>
      <trkpt lat="48.24239" lon="0.64923">
        <ele>167</ele>
        <time>2012-03-23T11:34:34Z</time>
      </trkpt>
      <trkpt lat="48.24238" lon="0.64919">
        <ele>167</ele>
        <time>2012-03-23T11:34:36Z</time>
      </trkpt>
      <trkpt lat="48.24238" lon="0.64914">
        <ele>166</ele>
        <time>2012-03-23T11:34:38Z</time>
      </trkpt>
      <trkpt lat="48.24237" lon="0.6491">
        <ele>166</ele>
        <time>2012-03-23T11:34:40Z</time>
      </trkpt>
      <trkpt lat="48.24237" lon="0.64906">
        <ele>166</ele>
        <time>2012-03-23T11:34:43Z</time>
      </trkpt>
      <trkpt lat="48.24238" lon="0.649">
        <ele>166</ele>
        <time>2012-03-23T11:34:47Z</time>
      </trkpt>
      <trkpt lat="48.24237" lon="0.64895">
        <ele>165</ele>
        <time>2012-03-23T11:34:51Z</time>
      </trkpt>
      <trkpt lat="48.24237" lon="0.6489">
        <ele>165</ele>
        <time>2012-03-23T11:34:54Z</time>
      </trkpt>
      <trkpt lat="48.24237" lon="0.64887">
        <ele>165</ele>
        <time>2012-03-23T11:34:56Z</time>
      </trkpt>
      <trkpt lat="48.24237" lon="0.64881">
        <ele>164</ele>
        <time>2012-03-23T11:35:00Z</time>
      </trkpt>
      <trkpt lat="48.24237" lon="0.64877">
        <ele>164</ele>
        <time>2012-03-23T11:35:02Z</time>
      </trkpt>
      <trkpt lat="48.24237" lon="0.64873">
        <ele>164</ele>
        <time>2012-03-23T11:35:04Z</time>
      </trkpt>
      <trkpt lat="48.24237" lon="0.64869">
        <ele>164</ele>
        <time>2012-03-23T11:35:06Z</time>
      </trkpt>
      <trkpt lat="48.24237" lon="0.64864">
        <ele>164</ele>
        <time>2012-03-23T11:35:08Z</time>
      </trkpt>
      <trkpt lat="48.24238" lon="0.6486">
        <ele>164</ele>
        <time>2012-03-23T11:35:10Z</time>
      </trkpt>
      <trkpt lat="48.24239" lon="0.64855">
        <ele>164</ele>
        <time>2012-03-23T11:35:12Z</time>
      </trkpt>
      <trkpt lat="48.24238" lon="0.64852">
        <ele>164</ele>
        <time>2012-03-23T11:35:14Z</time>
      </trkpt>
      <trkpt lat="48.24238" lon="0.64847">
        <ele>164</ele>
        <time>2012-03-23T11:35:17Z</time>
      </trkpt>
      <trkpt lat="48.24238" lon="0.64842">
        <ele>164</ele>
        <time>2012-03-23T11:35:20Z</time>
      </trkpt>
      <trkpt lat="48.24237" lon="0.64838">
        <ele>164</ele>
        <time>2012-03-23T11:35:22Z</time>
      </trkpt>
      <trkpt lat="48.24239" lon="0.64834">
        <ele>164</ele>
        <time>2012-03-23T11:35:25Z</time>
      </trkpt>
      <trkpt lat="48.2424" lon="0.64828">
        <ele>164</ele>
        <time>2012-03-23T11:35:29Z</time>
      </trkpt>
      <trkpt lat="48.2424" lon="0.64824">
        <ele>164</ele>
        <time>2012-03-23T11:35:31Z</time>
      </trkpt>
      <trkpt lat="48.24242" lon="0.6482">
        <ele>163</ele>
        <time>2012-03-23T11:35:34Z</time>
      </trkpt>
      <trkpt lat="48.24244" lon="0.64815">
        <ele>163</ele>
        <time>2012-03-23T11:35:38Z</time>
      </trkpt>
      <trkpt lat="48.24248" lon="0.64812">
        <ele>163</ele>
        <time>2012-03-23T11:35:42Z</time>
      </trkpt>
      <trkpt lat="48.24251" lon="0.64808">
        <ele>163</ele>
        <time>2012-03-23T11:35:47Z</time>
      </trkpt>
      <trkpt lat="48.24254" lon="0.64804">
        <ele>162</ele>
        <time>2012-03-23T11:35:51Z</time>
      </trkpt>
      <trkpt lat="48.24257" lon="0.64802">
        <ele>162</ele>
        <time>2012-03-23T11:35:55Z</time>
      </trkpt>
      <trkpt lat="48.2426" lon="0.64799">
        <ele>161</ele>
        <time>2012-03-23T11:35:59Z</time>
      </trkpt>
      <trkpt lat="48.24263" lon="0.64798">
        <ele>161</ele>
        <time>2012-03-23T11:36:03Z</time>
      </trkpt>
      <trkpt lat="48.24267" lon="0.64795">
        <ele>161</ele>
        <time>2012-03-23T11:36:07Z</time>
      </trkpt>
      <trkpt lat="48.2427" lon="0.64791">
        <ele>161</ele>
        <time>2012-03-23T11:36:11Z</time>
      </trkpt>
      <trkpt lat="48.24274" lon="0.64788">
        <ele>161</ele>
        <time>2012-03-23T11:36:15Z</time>
      </trkpt>
      <trkpt lat="48.24278" lon="0.64785">
        <ele>161</ele>
        <time>2012-03-23T11:36:19Z</time>
      </trkpt>
      <trkpt lat="48.24281" lon="0.64782">
        <ele>161</ele>
        <time>2012-03-23T11:36:23Z</time>
      </trkpt>
      <trkpt lat="48.24284" lon="0.64779">
        <ele>161</ele>
        <time>2012-03-23T11:36:26Z</time>
      </trkpt>
      <trkpt lat="48.24287" lon="0.64778">
        <ele>161</ele>
        <time>2012-03-23T11:36:29Z</time>
      </trkpt>
      <trkpt lat="48.24291" lon="0.64777">
        <ele>161</ele>
        <time>2012-03-23T11:36:32Z</time>
      </trkpt>
      <trkpt lat="48.24294" lon="0.64776">
        <ele>161</ele>
        <time>2012-03-23T11:36:35Z</time>
      </trkpt>
      <trkpt lat="48.24298" lon="0.64776">
        <ele>161</ele>
        <time>2012-03-23T11:36:38Z</time>
      </trkpt>
      <trkpt lat="48.24301" lon="0.64775">
        <ele>161</ele>
        <time>2012-03-23T11:36:41Z</time>
      </trkpt>
      <trkpt lat="48.24304" lon="0.64775">
        <ele>161</ele>
        <time>2012-03-23T11:36:43Z</time>
      </trkpt>
      <trkpt lat="48.24308" lon="0.64773">
        <ele>161</ele>
        <time>2012-03-23T11:36:47Z</time>
      </trkpt>
      <trkpt lat="48.2431" lon="0.64772">
        <ele>161</ele>
        <time>2012-03-23T11:36:49Z</time>
      </trkpt>
      <trkpt lat="48.24313" lon="0.64771">
        <ele>161</ele>
        <time>2012-03-23T11:36:52Z</time>
      </trkpt>
      <trkpt lat="48.24317" lon="0.6477">
        <ele>161</ele>
        <time>2012-03-23T11:36:56Z</time>
      </trkpt>
      <trkpt lat="48.24321" lon="0.64769">
        <ele>161</ele>
        <time>2012-03-23T11:36:59Z</time>
      </trkpt>
      <trkpt lat="48.24324" lon="0.64767">
        <ele>161</ele>
        <time>2012-03-23T11:37:02Z</time>
      </trkpt>
      <trkpt lat="48.24326" lon="0.64766">
        <ele>161</ele>
        <time>2012-03-23T11:37:04Z</time>
      </trkpt>
      <trkpt lat="48.2433" lon="0.64764">
        <ele>161</ele>
        <time>2012-03-23T11:37:07Z</time>
      </trkpt>
      <trkpt lat="48.24334" lon="0.64763">
        <ele>161</ele>
        <time>2012-03-23T11:37:11Z</time>
      </trkpt>
      <trkpt lat="48.24338" lon="0.64762">
        <ele>161</ele>
        <time>2012-03-23T11:37:14Z</time>
      </trkpt>
      <trkpt lat="48.2434" lon="0.64761">
        <ele>161</ele>
        <time>2012-03-23T11:37:16Z</time>
      </trkpt>
      <trkpt lat="48.24343" lon="0.64759">
        <ele>161</ele>
        <time>2012-03-23T11:37:20Z</time>
      </trkpt>
      <trkpt lat="48.24346" lon="0.64758">
        <ele>161</ele>
        <time>2012-03-23T11:37:22Z</time>
      </trkpt>
      <trkpt lat="48.24349" lon="0.64757">
        <ele>161</ele>
        <time>2012-03-23T11:37:24Z</time>
      </trkpt>
      <trkpt lat="48.24352" lon="0.64755">
        <ele>161</ele>
        <time>2012-03-23T11:37:27Z</time>
      </trkpt>
      <trkpt lat="48.24355" lon="0.64754">
        <ele>161</ele>
        <time>2012-03-23T11:37:30Z</time>
      </trkpt>
      <trkpt lat="48.24359" lon="0.64751">
        <ele>161</ele>
        <time>2012-03-23T11:37:33Z</time>
      </trkpt>
      <trkpt lat="48.24362" lon="0.64748">
        <ele>161</ele>
        <time>2012-03-23T11:37:36Z</time>
      </trkpt>
      <trkpt lat="48.24364" lon="0.64746">
        <ele>161</ele>
        <time>2012-03-23T11:37:38Z</time>
      </trkpt>
      <trkpt lat="48.24368" lon="0.64743">
        <ele>161</ele>
        <time>2012-03-23T11:37:42Z</time>
      </trkpt>
      <trkpt lat="48.24372" lon="0.64741">
        <ele>161</ele>
        <time>2012-03-23T11:37:45Z</time>
      </trkpt>
      <trkpt lat="48.24375" lon="0.64738">
        <ele>161</ele>
        <time>2012-03-23T11:37:49Z</time>
      </trkpt>
      <trkpt lat="48.24378" lon="0.64735">
        <ele>161</ele>
        <time>2012-03-23T11:37:52Z</time>
      </trkpt>
      <trkpt lat="48.24381" lon="0.6473">
        <ele>161</ele>
        <time>2012-03-23T11:37:56Z</time>
      </trkpt>
      <trkpt lat="48.24385" lon="0.64727">
        <ele>161</ele>
        <time>2012-03-23T11:37:59Z</time>
      </trkpt>
      <trkpt lat="48.24385" lon="0.64722">
        <ele>161</ele>
        <time>2012-03-23T11:38:02Z</time>
      </trkpt>
      <trkpt lat="48.24387" lon="0.64717">
        <ele>161</ele>
        <time>2012-03-23T11:38:06Z</time>
      </trkpt>
      <trkpt lat="48.24388" lon="0.64712">
        <ele>161</ele>
        <time>2012-03-23T11:38:09Z</time>
      </trkpt>
      <trkpt lat="48.2439" lon="0.64706">
        <ele>161</ele>
        <time>2012-03-23T11:38:13Z</time>
      </trkpt>
      <trkpt lat="48.24392" lon="0.64702">
        <ele>162</ele>
        <time>2012-03-23T11:38:16Z</time>
      </trkpt>
      <trkpt lat="48.24395" lon="0.64697">
        <ele>162</ele>
        <time>2012-03-23T11:38:19Z</time>
      </trkpt>
      <trkpt lat="48.24397" lon="0.64692">
        <ele>162</ele>
        <time>2012-03-23T11:38:22Z</time>
      </trkpt>
      <trkpt lat="48.24399" lon="0.64686">
        <ele>162</ele>
        <time>2012-03-23T11:38:26Z</time>
      </trkpt>
      <trkpt lat="48.244" lon="0.64683">
        <ele>162</ele>
        <time>2012-03-23T11:38:29Z</time>
      </trkpt>
      <trkpt lat="48.24402" lon="0.64679">
        <ele>162</ele>
        <time>2012-03-23T11:38:32Z</time>
      </trkpt>
      <trkpt lat="48.24403" lon="0.64674">
        <ele>162</ele>
        <time>2012-03-23T11:38:36Z</time>
      </trkpt>
      <trkpt lat="48.24404" lon="0.64669">
        <ele>162</ele>
        <time>2012-03-23T11:38:38Z</time>
      </trkpt>
      <trkpt lat="48.24405" lon="0.64666">
        <ele>162</ele>
        <time>2012-03-23T11:38:40Z</time>
      </trkpt>
      <trkpt lat="48.24406" lon="0.64661">
        <ele>162</ele>
        <time>2012-03-23T11:38:44Z</time>
      </trkpt>
      <trkpt lat="48.24409" lon="0.64658">
        <ele>162</ele>
        <time>2012-03-23T11:38:46Z</time>
      </trkpt>
      <trkpt lat="48.24411" lon="0.64654">
        <ele>162</ele>
        <time>2012-03-23T11:38:49Z</time>
      </trkpt>
      <trkpt lat="48.24415" lon="0.6465">
        <ele>162</ele>
        <time>2012-03-23T11:38:53Z</time>
      </trkpt>
      <trkpt lat="48.24418" lon="0.64645">
        <ele>162</ele>
        <time>2012-03-23T11:38:57Z</time>
      </trkpt>
      <trkpt lat="48.24421" lon="0.64639">
        <ele>161</ele>
        <time>2012-03-23T11:39:01Z</time>
      </trkpt>
      <trkpt lat="48.24423" lon="0.64634">
        <ele>160</ele>
        <time>2012-03-23T11:39:05Z</time>
      </trkpt>
      <trkpt lat="48.24424" lon="0.64631">
        <ele>160</ele>
        <time>2012-03-23T11:39:07Z</time>
      </trkpt>
      <trkpt lat="48.24426" lon="0.64626">
        <ele>160</ele>
        <time>2012-03-23T11:39:11Z</time>
      </trkpt>
      <trkpt lat="48.24431" lon="0.64622">
        <ele>160</ele>
        <time>2012-03-23T11:39:15Z</time>
      </trkpt>
      <trkpt lat="48.24435" lon="0.64619">
        <ele>160</ele>
        <time>2012-03-23T11:39:19Z</time>
      </trkpt>
      <trkpt lat="48.24439" lon="0.64615">
        <ele>160</ele>
        <time>2012-03-23T11:39:23Z</time>
      </trkpt>
      <trkpt lat="48.24443" lon="0.6461">
        <ele>160</ele>
        <time>2012-03-23T11:39:26Z</time>
      </trkpt>
      <trkpt lat="48.24446" lon="0.64605">
        <ele>160</ele>
        <time>2012-03-23T11:39:30Z</time>
      </trkpt>
      <trkpt lat="48.24449" lon="0.64601">
        <ele>160</ele>
        <time>2012-03-23T11:39:33Z</time>
      </trkpt>
      <trkpt lat="48.24451" lon="0.64599">
        <ele>160</ele>
        <time>2012-03-23T11:39:35Z</time>
      </trkpt>
      <trkpt lat="48.24454" lon="0.64594">
        <ele>160</ele>
        <time>2012-03-23T11:39:38Z</time>
      </trkpt>
      <trkpt lat="48.24457" lon="0.64589">
        <ele>160</ele>
        <time>2012-03-23T11:39:42Z</time>
      </trkpt>
      <trkpt lat="48.24461" lon="0.64585">
        <ele>160</ele>
        <time>2012-03-23T11:39:46Z</time>
      </trkpt>
      <trkpt lat="48.24463" lon="0.6458">
        <ele>160</ele>
        <time>2012-03-23T11:39:49Z</time>
      </trkpt>
      <trkpt lat="48.24464" lon="0.64577">
        <ele>160</ele>
        <time>2012-03-23T11:39:51Z</time>
      </trkpt>
      <trkpt lat="48.24465" lon="0.64573">
        <ele>160</ele>
        <time>2012-03-23T11:39:53Z</time>
      </trkpt>
      <trkpt lat="48.24466" lon="0.64567">
        <ele>160</ele>
        <time>2012-03-23T11:39:56Z</time>
      </trkpt>
      <trkpt lat="48.24467" lon="0.64564">
        <ele>160</ele>
        <time>2012-03-23T11:39:58Z</time>
      </trkpt>
      <trkpt lat="48.24471" lon="0.64559">
        <ele>160</ele>
        <time>2012-03-23T11:40:02Z</time>
      </trkpt>
      <trkpt lat="48.24474" lon="0.64556">
        <ele>160</ele>
        <time>2012-03-23T11:40:06Z</time>
      </trkpt>
      <trkpt lat="48.24476" lon="0.64551">
        <ele>160</ele>
        <time>2012-03-23T11:40:09Z</time>
      </trkpt>
      <trkpt lat="48.24477" lon="0.64547">
        <ele>159</ele>
        <time>2012-03-23T11:40:11Z</time>
      </trkpt>
      <trkpt lat="48.24478" lon="0.64544">
        <ele>159</ele>
        <time>2012-03-23T11:40:13Z</time>
      </trkpt>
      <trkpt lat="48.24482" lon="0.6454">
        <ele>159</ele>
        <time>2012-03-23T11:40:17Z</time>
      </trkpt>
      <trkpt lat="48.24485" lon="0.64536">
        <ele>159</ele>
        <time>2012-03-23T11:40:20Z</time>
      </trkpt>
      <trkpt lat="48.24488" lon="0.6453">
        <ele>158</ele>
        <time>2012-03-23T11:40:24Z</time>
      </trkpt>
      <trkpt lat="48.24489" lon="0.64526">
        <ele>157</ele>
        <time>2012-03-23T11:40:26Z</time>
      </trkpt>
      <trkpt lat="48.24492" lon="0.64522">
        <ele>157</ele>
        <time>2012-03-23T11:40:29Z</time>
      </trkpt>
      <trkpt lat="48.24493" lon="0.64518">
        <ele>157</ele>
        <time>2012-03-23T11:40:31Z</time>
      </trkpt>
      <trkpt lat="48.24494" lon="0.64514">
        <ele>157</ele>
        <time>2012-03-23T11:40:33Z</time>
      </trkpt>
      <trkpt lat="48.24495" lon="0.6451">
        <ele>157</ele>
        <time>2012-03-23T11:40:36Z</time>
      </trkpt>
      <trkpt lat="48.24496" lon="0.64504">
        <ele>157</ele>
        <time>2012-03-23T11:40:39Z</time>
      </trkpt>
      <trkpt lat="48.24498" lon="0.64499">
        <ele>157</ele>
        <time>2012-03-23T11:40:42Z</time>
      </trkpt>
      <trkpt lat="48.24498" lon="0.64495">
        <ele>157</ele>
        <time>2012-03-23T11:40:44Z</time>
      </trkpt>
      <trkpt lat="48.24499" lon="0.64492">
        <ele>157</ele>
        <time>2012-03-23T11:40:46Z</time>
      </trkpt>
      <trkpt lat="48.24501" lon="0.64487">
        <ele>157</ele>
        <time>2012-03-23T11:40:49Z</time>
      </trkpt>
      <trkpt lat="48.24503" lon="0.64483">
        <ele>157</ele>
        <time>2012-03-23T11:40:52Z</time>
      </trkpt>
      <trkpt lat="48.24504" lon="0.6448">
        <ele>157</ele>
        <time>2012-03-23T11:40:54Z</time>
      </trkpt>
      <trkpt lat="48.24505" lon="0.64476">
        <ele>157</ele>
        <time>2012-03-23T11:40:56Z</time>
      </trkpt>
      <trkpt lat="48.24506" lon="0.64471">
        <ele>157</ele>
        <time>2012-03-23T11:40:58Z</time>
      </trkpt>
      <trkpt lat="48.24509" lon="0.64465">
        <ele>157</ele>
        <time>2012-03-23T11:41:02Z</time>
      </trkpt>
      <trkpt lat="48.24509" lon="0.64461">
        <ele>157</ele>
        <time>2012-03-23T11:41:04Z</time>
      </trkpt>
      <trkpt lat="48.24508" lon="0.64458">
        <ele>157</ele>
        <time>2012-03-23T11:41:06Z</time>
      </trkpt>
      <trkpt lat="48.24508" lon="0.64453">
        <ele>157</ele>
        <time>2012-03-23T11:41:10Z</time>
      </trkpt>
      <trkpt lat="48.24506" lon="0.64449">
        <ele>157</ele>
        <time>2012-03-23T11:41:14Z</time>
      </trkpt>
      <trkpt lat="48.24508" lon="0.64447">
        <ele>159</ele>
        <time>2012-03-23T11:41:24Z</time>
      </trkpt>
      <trkpt lat="48.24511" lon="0.64447">
        <ele>161</ele>
        <time>2012-03-23T11:41:29Z</time>
      </trkpt>
      <trkpt lat="48.24515" lon="0.64447">
        <ele>162</ele>
        <time>2012-03-23T11:41:33Z</time>
      </trkpt>
      <trkpt lat="48.24518" lon="0.64447">
        <ele>162</ele>
        <time>2012-03-23T11:41:36Z</time>
      </trkpt>
      <trkpt lat="48.24523" lon="0.64448">
        <ele>164</ele>
        <time>2012-03-23T11:41:40Z</time>
      </trkpt>
      <trkpt lat="48.24528" lon="0.64454">
        <ele>165</ele>
        <time>2012-03-23T11:41:44Z</time>
      </trkpt>
      <trkpt lat="48.24529" lon="0.64458">
        <ele>167</ele>
        <time>2012-03-23T11:41:47Z</time>
      </trkpt>
      <trkpt lat="48.24533" lon="0.64463">
        <ele>169</ele>
        <time>2012-03-23T11:41:51Z</time>
      </trkpt>
      <trkpt lat="48.24536" lon="0.64465">
        <ele>171</ele>
        <time>2012-03-23T11:41:55Z</time>
      </trkpt>
      <trkpt lat="48.2454" lon="0.64468">
        <ele>171</ele>
        <time>2012-03-23T11:41:59Z</time>
      </trkpt>
      <trkpt lat="48.24543" lon="0.64471">
        <ele>171</ele>
        <time>2012-03-23T11:42:01Z</time>
      </trkpt>
      <trkpt lat="48.24546" lon="0.64474">
        <ele>171</ele>
        <time>2012-03-23T11:42:04Z</time>
      </trkpt>
      <trkpt lat="48.2455" lon="0.64477">
        <ele>171</ele>
        <time>2012-03-23T11:42:07Z</time>
      </trkpt>
      <trkpt lat="48.24553" lon="0.64479">
        <ele>171</ele>
        <time>2012-03-23T11:42:09Z</time>
      </trkpt>
      <trkpt lat="48.24556" lon="0.64483">
        <ele>167</ele>
        <time>2012-03-23T11:42:13Z</time>
      </trkpt>
      <trkpt lat="48.2456" lon="0.64485">
        <ele>166</ele>
        <time>2012-03-23T11:42:16Z</time>
      </trkpt>
      <trkpt lat="48.24564" lon="0.64488">
        <ele>165</ele>
        <time>2012-03-23T11:42:19Z</time>
      </trkpt>
      <trkpt lat="48.24567" lon="0.64492">
        <ele>163</ele>
        <time>2012-03-23T11:42:23Z</time>
      </trkpt>
      <trkpt lat="48.2457" lon="0.64495">
        <ele>162</ele>
        <time>2012-03-23T11:42:27Z</time>
      </trkpt>
      <trkpt lat="48.24575" lon="0.64498">
        <ele>162</ele>
        <time>2012-03-23T11:42:30Z</time>
      </trkpt>
      <trkpt lat="48.24579" lon="0.64501">
        <ele>162</ele>
        <time>2012-03-23T11:42:33Z</time>
      </trkpt>
      <trkpt lat="48.24582" lon="0.64504">
        <ele>162</ele>
        <time>2012-03-23T11:42:37Z</time>
      </trkpt>
      <trkpt lat="48.24584" lon="0.64508">
        <ele>162</ele>
        <time>2012-03-23T11:42:40Z</time>
      </trkpt>
      <trkpt lat="48.24588" lon="0.64512">
        <ele>162</ele>
        <time>2012-03-23T11:42:45Z</time>
      </trkpt>
      <trkpt lat="48.24591" lon="0.64514">
        <ele>162</ele>
        <time>2012-03-23T11:42:47Z</time>
      </trkpt>
      <trkpt lat="48.24594" lon="0.64518">
        <ele>162</ele>
        <time>2012-03-23T11:42:50Z</time>
      </trkpt>
      <trkpt lat="48.24597" lon="0.64521">
        <ele>162</ele>
        <time>2012-03-23T11:42:54Z</time>
      </trkpt>
      <trkpt lat="48.24601" lon="0.64524">
        <ele>162</ele>
        <time>2012-03-23T11:42:57Z</time>
      </trkpt>
      <trkpt lat="48.24604" lon="0.64527">
        <ele>162</ele>
        <time>2012-03-23T11:43:01Z</time>
      </trkpt>
      <trkpt lat="48.24608" lon="0.64532">
        <ele>162</ele>
        <time>2012-03-23T11:43:05Z</time>
      </trkpt>
      <trkpt lat="48.24611" lon="0.64537">
        <ele>162</ele>
        <time>2012-03-23T11:43:09Z</time>
      </trkpt>
      <trkpt lat="48.24614" lon="0.64541">
        <ele>162</ele>
        <time>2012-03-23T11:43:12Z</time>
      </trkpt>
      <trkpt lat="48.24614" lon="0.64545">
        <ele>162</ele>
        <time>2012-03-23T11:43:14Z</time>
      </trkpt>
      <trkpt lat="48.24616" lon="0.64549">
        <ele>162</ele>
        <time>2012-03-23T11:43:17Z</time>
      </trkpt>
      <trkpt lat="48.24617" lon="0.64552">
        <ele>162</ele>
        <time>2012-03-23T11:43:19Z</time>
      </trkpt>
      <trkpt lat="48.24622" lon="0.64556">
        <ele>162</ele>
        <time>2012-03-23T11:43:22Z</time>
      </trkpt>
      <trkpt lat="48.24624" lon="0.6456">
        <ele>162</ele>
        <time>2012-03-23T11:43:25Z</time>
      </trkpt>
      <trkpt lat="48.24625" lon="0.64565">
        <ele>162</ele>
        <time>2012-03-23T11:43:28Z</time>
      </trkpt>
      <trkpt lat="48.24629" lon="0.6457">
        <ele>162</ele>
        <time>2012-03-23T11:43:31Z</time>
      </trkpt>
      <trkpt lat="48.24632" lon="0.64572">
        <ele>162</ele>
        <time>2012-03-23T11:43:36Z</time>
      </trkpt>
      <trkpt lat="48.24635" lon="0.64571">
        <ele>162</ele>
        <time>2012-03-23T11:43:40Z</time>
      </trkpt>
      <trkpt lat="48.24638" lon="0.64569">
        <ele>165</ele>
        <time>2012-03-23T11:43:46Z</time>
      </trkpt>
      <trkpt lat="48.2464" lon="0.64573">
        <ele>169</ele>
        <time>2012-03-23T11:43:53Z</time>
      </trkpt>
      <trkpt lat="48.24637" lon="0.64568">
        <ele>171</ele>
        <time>2012-03-23T11:43:59Z</time>
      </trkpt>
      <trkpt lat="48.24638" lon="0.64571">
        <ele>171</ele>
        <time>2012-03-23T11:44:10Z</time>
      </trkpt>
      <trkpt lat="48.24639" lon="0.64569">
        <ele>171</ele>
        <time>2012-03-23T11:44:15Z</time>
      </trkpt>
      <trkpt lat="48.24639" lon="0.64568">
        <ele>171</ele>
        <time>2012-03-23T11:44:20Z</time>
      </trkpt>
      <trkpt lat="48.2464" lon="0.64564">
        <ele>171</ele>
        <time>2012-03-23T11:44:25Z</time>
      </trkpt>
      <trkpt lat="48.2464" lon="0.6457">
        <ele>171</ele>
        <time>2012-03-23T11:44:33Z</time>
      </trkpt>
      <trkpt lat="48.24641" lon="0.64574">
        <ele>171</ele>
        <time>2012-03-23T11:44:35Z</time>
      </trkpt>
      <trkpt lat="48.24641" lon="0.64577">
        <ele>170</ele>
        <time>2012-03-23T11:44:37Z</time>
      </trkpt>
      <trkpt lat="48.24642" lon="0.64582">
        <ele>170</ele>
        <time>2012-03-23T11:44:40Z</time>
      </trkpt>
      <trkpt lat="48.24643" lon="0.64586">
        <ele>169</ele>
        <time>2012-03-23T11:44:42Z</time>
      </trkpt>
      <trkpt lat="48.24644" lon="0.6459">
        <ele>168</ele>
        <time>2012-03-23T11:44:44Z</time>
      </trkpt>
      <trkpt lat="48.24645" lon="0.64593">
        <ele>168</ele>
        <time>2012-03-23T11:44:46Z</time>
      </trkpt>
      <trkpt lat="48.24647" lon="0.64597">
        <ele>168</ele>
        <time>2012-03-23T11:44:49Z</time>
      </trkpt>
      <trkpt lat="48.24649" lon="0.64603">
        <ele>168</ele>
        <time>2012-03-23T11:44:53Z</time>
      </trkpt>
      <trkpt lat="48.2465" lon="0.64609">
        <ele>168</ele>
        <time>2012-03-23T11:44:57Z</time>
      </trkpt>
      <trkpt lat="48.24648" lon="0.64614">
        <ele>166</ele>
        <time>2012-03-23T11:45:01Z</time>
      </trkpt>
      <trkpt lat="48.24647" lon="0.64619">
        <ele>165</ele>
        <time>2012-03-23T11:45:04Z</time>
      </trkpt>
      <trkpt lat="48.24646" lon="0.64624">
        <ele>165</ele>
        <time>2012-03-23T11:45:07Z</time>
      </trkpt>
      <trkpt lat="48.24646" lon="0.64629">
        <ele>164</ele>
        <time>2012-03-23T11:45:11Z</time>
      </trkpt>
      <trkpt lat="48.24651" lon="0.64618">
        <ele>173</ele>
        <time>2012-03-23T11:45:19Z</time>
      </trkpt>
      <trkpt lat="48.24648" lon="0.64619">
        <ele>174</ele>
        <time>2012-03-23T11:45:23Z</time>
      </trkpt>
      <trkpt lat="48.24646" lon="0.64616">
        <ele>174</ele>
        <time>2012-03-23T11:45:29Z</time>
      </trkpt>
      <trkpt lat="48.24646" lon="0.64611">
        <ele>174</ele>
        <time>2012-03-23T11:45:35Z</time>
      </trkpt>
      <trkpt lat="48.24648" lon="0.6461">
        <ele>174</ele>
        <time>2012-03-23T11:45:41Z</time>
      </trkpt>
      <trkpt lat="48.2465" lon="0.64612">
        <ele>174</ele>
        <time>2012-03-23T11:45:47Z</time>
      </trkpt>
      <trkpt lat="48.24652" lon="0.64615">
        <ele>174</ele>
        <time>2012-03-23T11:45:51Z</time>
      </trkpt>
      <trkpt lat="48.24656" lon="0.64619">
        <ele>173</ele>
        <time>2012-03-23T11:45:56Z</time>
      </trkpt>
      <trkpt lat="48.24658" lon="0.64622">
        <ele>171</ele>
        <time>2012-03-23T11:46:01Z</time>
      </trkpt>
      <trkpt lat="48.2466" lon="0.64625">
        <ele>169</ele>
        <time>2012-03-23T11:46:05Z</time>
      </trkpt>
      <trkpt lat="48.24662" lon="0.64629">
        <ele>167</ele>
        <time>2012-03-23T11:46:09Z</time>
      </trkpt>
      <trkpt lat="48.24664" lon="0.64633">
        <ele>166</ele>
        <time>2012-03-23T11:46:14Z</time>
      </trkpt>
      <trkpt lat="48.24666" lon="0.64637">
        <ele>166</ele>
        <time>2012-03-23T11:46:18Z</time>
      </trkpt>
      <trkpt lat="48.24669" lon="0.6464">
        <ele>166</ele>
        <time>2012-03-23T11:46:21Z</time>
      </trkpt>
      <trkpt lat="48.24672" lon="0.64643">
        <ele>166</ele>
        <time>2012-03-23T11:46:24Z</time>
      </trkpt>
      <trkpt lat="48.24674" lon="0.64648">
        <ele>165</ele>
        <time>2012-03-23T11:46:28Z</time>
      </trkpt>
      <trkpt lat="48.24675" lon="0.64651">
        <ele>164</ele>
        <time>2012-03-23T11:46:30Z</time>
      </trkpt>
      <trkpt lat="48.24676" lon="0.64656">
        <ele>163</ele>
        <time>2012-03-23T11:46:33Z</time>
      </trkpt>
      <trkpt lat="48.24677" lon="0.6466">
        <ele>163</ele>
        <time>2012-03-23T11:46:35Z</time>
      </trkpt>
      <trkpt lat="48.24678" lon="0.64665">
        <ele>163</ele>
        <time>2012-03-23T11:46:38Z</time>
      </trkpt>
      <trkpt lat="48.24678" lon="0.64669">
        <ele>163</ele>
        <time>2012-03-23T11:46:40Z</time>
      </trkpt>
      <trkpt lat="48.24681" lon="0.64673">
        <ele>163</ele>
        <time>2012-03-23T11:46:43Z</time>
      </trkpt>
      <trkpt lat="48.24683" lon="0.64678">
        <ele>163</ele>
        <time>2012-03-23T11:46:46Z</time>
      </trkpt>
      <trkpt lat="48.24683" lon="0.64682">
        <ele>163</ele>
        <time>2012-03-23T11:46:48Z</time>
      </trkpt>
      <trkpt lat="48.24684" lon="0.64687">
        <ele>163</ele>
        <time>2012-03-23T11:46:51Z</time>
      </trkpt>
      <trkpt lat="48.24686" lon="0.6469">
        <ele>163</ele>
        <time>2012-03-23T11:46:53Z</time>
      </trkpt>
      <trkpt lat="48.24688" lon="0.64695">
        <ele>163</ele>
        <time>2012-03-23T11:46:56Z</time>
      </trkpt>
      <trkpt lat="48.24688" lon="0.64699">
        <ele>163</ele>
        <time>2012-03-23T11:46:59Z</time>
      </trkpt>
      <trkpt lat="48.24689" lon="0.64703">
        <ele>163</ele>
        <time>2012-03-23T11:47:03Z</time>
      </trkpt>
      <trkpt lat="48.2469" lon="0.64708">
        <ele>163</ele>
        <time>2012-03-23T11:47:06Z</time>
      </trkpt>
      <trkpt lat="48.24689" lon="0.64713">
        <ele>163</ele>
        <time>2012-03-23T11:47:08Z</time>
      </trkpt>
      <trkpt lat="48.24689" lon="0.64718">
        <ele>163</ele>
        <time>2012-03-23T11:47:11Z</time>
      </trkpt>
      <trkpt lat="48.2469" lon="0.64723">
        <ele>163</ele>
        <time>2012-03-23T11:47:15Z</time>
      </trkpt>
      <trkpt lat="48.24693" lon="0.64728">
        <ele>163</ele>
        <time>2012-03-23T11:47:19Z</time>
      </trkpt>
      <trkpt lat="48.24692" lon="0.64733">
        <ele>163</ele>
        <time>2012-03-23T11:47:23Z</time>
      </trkpt>
      <trkpt lat="48.24691" lon="0.64737">
        <ele>162</ele>
        <time>2012-03-23T11:47:27Z</time>
      </trkpt>
      <trkpt lat="48.24692" lon="0.64743">
        <ele>161</ele>
        <time>2012-03-23T11:47:31Z</time>
      </trkpt>
      <trkpt lat="48.24692" lon="0.64748">
        <ele>161</ele>
        <time>2012-03-23T11:47:34Z</time>
      </trkpt>
      <trkpt lat="48.24693" lon="0.64753">
        <ele>161</ele>
        <time>2012-03-23T11:47:37Z</time>
      </trkpt>
      <trkpt lat="48.24693" lon="0.64758">
        <ele>160</ele>
        <time>2012-03-23T11:47:40Z</time>
      </trkpt>
      <trkpt lat="48.24693" lon="0.64762">
        <ele>160</ele>
        <time>2012-03-23T11:47:43Z</time>
      </trkpt>
      <trkpt lat="48.24694" lon="0.64767">
        <ele>160</ele>
        <time>2012-03-23T11:47:46Z</time>
      </trkpt>
      <trkpt lat="48.24695" lon="0.64772">
        <ele>159</ele>
        <time>2012-03-23T11:47:50Z</time>
      </trkpt>
      <trkpt lat="48.24696" lon="0.64778">
        <ele>158</ele>
        <time>2012-03-23T11:47:54Z</time>
      </trkpt>
      <trkpt lat="48.24697" lon="0.64784">
        <ele>157</ele>
        <time>2012-03-23T11:47:58Z</time>
      </trkpt>
      <trkpt lat="48.24697" lon="0.64789">
        <ele>155</ele>
        <time>2012-03-23T11:48:02Z</time>
      </trkpt>
      <trkpt lat="48.24698" lon="0.64794">
        <ele>155</ele>
        <time>2012-03-23T11:48:05Z</time>
      </trkpt>
      <trkpt lat="48.247" lon="0.64799">
        <ele>154</ele>
        <time>2012-03-23T11:48:08Z</time>
      </trkpt>
      <trkpt lat="48.24701" lon="0.64803">
        <ele>154</ele>
        <time>2012-03-23T11:48:11Z</time>
      </trkpt>
      <trkpt lat="48.24702" lon="0.64807">
        <ele>154</ele>
        <time>2012-03-23T11:48:14Z</time>
      </trkpt>
      <trkpt lat="48.24703" lon="0.64811">
        <ele>154</ele>
        <time>2012-03-23T11:48:17Z</time>
      </trkpt>
      <trkpt lat="48.24703" lon="0.64814">
        <ele>154</ele>
        <time>2012-03-23T11:48:19Z</time>
      </trkpt>
      <trkpt lat="48.24705" lon="0.6482">
        <ele>154</ele>
        <time>2012-03-23T11:48:23Z</time>
      </trkpt>
      <trkpt lat="48.24705" lon="0.64824">
        <ele>154</ele>
        <time>2012-03-23T11:48:25Z</time>
      </trkpt>
      <trkpt lat="48.24706" lon="0.64828">
        <ele>154</ele>
        <time>2012-03-23T11:48:28Z</time>
      </trkpt>
      <trkpt lat="48.24707" lon="0.64833">
        <ele>154</ele>
        <time>2012-03-23T11:48:32Z</time>
      </trkpt>
      <trkpt lat="48.24707" lon="0.64838">
        <ele>154</ele>
        <time>2012-03-23T11:48:36Z</time>
      </trkpt>
      <trkpt lat="48.24708" lon="0.64844">
        <ele>154</ele>
        <time>2012-03-23T11:48:40Z</time>
      </trkpt>
      <trkpt lat="48.2471" lon="0.64849">
        <ele>153</ele>
        <time>2012-03-23T11:48:44Z</time>
      </trkpt>
      <trkpt lat="48.24712" lon="0.64855">
        <ele>152</ele>
        <time>2012-03-23T11:48:48Z</time>
      </trkpt>
      <trkpt lat="48.24711" lon="0.6486">
        <ele>152</ele>
        <time>2012-03-23T11:48:52Z</time>
      </trkpt>
      <trkpt lat="48.24712" lon="0.64865">
        <ele>152</ele>
        <time>2012-03-23T11:48:55Z</time>
      </trkpt>
      <trkpt lat="48.24712" lon="0.6487">
        <ele>151</ele>
        <time>2012-03-23T11:48:59Z</time>
      </trkpt>
      <trkpt lat="48.24713" lon="0.64876">
        <ele>150</ele>
        <time>2012-03-23T11:49:03Z</time>
      </trkpt>
      <trkpt lat="48.24714" lon="0.64881">
        <ele>150</ele>
        <time>2012-03-23T11:49:06Z</time>
      </trkpt>
      <trkpt lat="48.24715" lon="0.64885">
        <ele>149</ele>
        <time>2012-03-23T11:49:08Z</time>
      </trkpt>
      <trkpt lat="48.24715" lon="0.6489">
        <ele>148</ele>
        <time>2012-03-23T11:49:11Z</time>
      </trkpt>
      <trkpt lat="48.24716" lon="0.64895">
        <ele>147</ele>
        <time>2012-03-23T11:49:14Z</time>
      </trkpt>
      <trkpt lat="48.24716" lon="0.64899">
        <ele>147</ele>
        <time>2012-03-23T11:49:16Z</time>
      </trkpt>
      <trkpt lat="48.24717" lon="0.64903">
        <ele>147</ele>
        <time>2012-03-23T11:49:18Z</time>
      </trkpt>
      <trkpt lat="48.24719" lon="0.64909">
        <ele>147</ele>
        <time>2012-03-23T11:49:22Z</time>
      </trkpt>
      <trkpt lat="48.24719" lon="0.64912">
        <ele>147</ele>
        <time>2012-03-23T11:49:24Z</time>
      </trkpt>
      <trkpt lat="48.2472" lon="0.64917">
        <ele>147</ele>
        <time>2012-03-23T11:49:27Z</time>
      </trkpt>
      <trkpt lat="48.2472" lon="0.64921">
        <ele>146</ele>
        <time>2012-03-23T11:49:29Z</time>
      </trkpt>
      <trkpt lat="48.24721" lon="0.64927">
        <ele>146</ele>
        <time>2012-03-23T11:49:33Z</time>
      </trkpt>
      <trkpt lat="48.24722" lon="0.6493">
        <ele>146</ele>
        <time>2012-03-23T11:49:35Z</time>
      </trkpt>
      <trkpt lat="48.24723" lon="0.64935">
        <ele>146</ele>
        <time>2012-03-23T11:49:38Z</time>
      </trkpt>
      <trkpt lat="48.24723" lon="0.6494">
        <ele>145</ele>
        <time>2012-03-23T11:49:41Z</time>
      </trkpt>
      <trkpt lat="48.24725" lon="0.64946">
        <ele>144</ele>
        <time>2012-03-23T11:49:45Z</time>
      </trkpt>
      <trkpt lat="48.24725" lon="0.6495">
        <ele>144</ele>
        <time>2012-03-23T11:49:47Z</time>
      </trkpt>
      <trkpt lat="48.24726" lon="0.64956">
        <ele>144</ele>
        <time>2012-03-23T11:49:51Z</time>
      </trkpt>
      <trkpt lat="48.24727" lon="0.64959">
        <ele>144</ele>
        <time>2012-03-23T11:49:53Z</time>
      </trkpt>
      <trkpt lat="48.2473" lon="0.64965">
        <ele>143</ele>
        <time>2012-03-23T11:49:57Z</time>
      </trkpt>
      <trkpt lat="48.24731" lon="0.6497">
        <ele>143</ele>
        <time>2012-03-23T11:50:00Z</time>
      </trkpt>
      <trkpt lat="48.24733" lon="0.64975">
        <ele>143</ele>
        <time>2012-03-23T11:50:03Z</time>
      </trkpt>
      <trkpt lat="48.24734" lon="0.64979">
        <ele>142</ele>
        <time>2012-03-23T11:50:06Z</time>
      </trkpt>
      <trkpt lat="48.24734" lon="0.64983">
        <ele>142</ele>
        <time>2012-03-23T11:50:08Z</time>
      </trkpt>
      <trkpt lat="48.24736" lon="0.64987">
        <ele>142</ele>
        <time>2012-03-23T11:50:11Z</time>
      </trkpt>
      <trkpt lat="48.24738" lon="0.64994">
        <ele>142</ele>
        <time>2012-03-23T11:50:15Z</time>
      </trkpt>
      <trkpt lat="48.2474" lon="0.64998">
        <ele>142</ele>
        <time>2012-03-23T11:50:18Z</time>
      </trkpt>
      <trkpt lat="48.24742" lon="0.65003">
        <ele>142</ele>
        <time>2012-03-23T11:50:21Z</time>
      </trkpt>
      <trkpt lat="48.24744" lon="0.65008">
        <ele>142</ele>
        <time>2012-03-23T11:50:24Z</time>
      </trkpt>
      <trkpt lat="48.24748" lon="0.65013">
        <ele>142</ele>
        <time>2012-03-23T11:50:28Z</time>
      </trkpt>
      <trkpt lat="48.2475" lon="0.65019">
        <ele>142</ele>
        <time>2012-03-23T11:50:32Z</time>
      </trkpt>
      <trkpt lat="48.24752" lon="0.65025">
        <ele>141</ele>
        <time>2012-03-23T11:50:36Z</time>
      </trkpt>
      <trkpt lat="48.24754" lon="0.65029">
        <ele>141</ele>
        <time>2012-03-23T11:50:38Z</time>
      </trkpt>
      <trkpt lat="48.24756" lon="0.65033">
        <ele>141</ele>
        <time>2012-03-23T11:50:41Z</time>
      </trkpt>
      <trkpt lat="48.24758" lon="0.65038">
        <ele>140</ele>
        <time>2012-03-23T11:50:44Z</time>
      </trkpt>
      <trkpt lat="48.24761" lon="0.65043">
        <ele>140</ele>
        <time>2012-03-23T11:50:48Z</time>
      </trkpt>
      <trkpt lat="48.24763" lon="0.65049">
        <ele>140</ele>
        <time>2012-03-23T11:50:52Z</time>
      </trkpt>
      <trkpt lat="48.24765" lon="0.65053">
        <ele>140</ele>
        <time>2012-03-23T11:50:56Z</time>
      </trkpt>
      <trkpt lat="48.24768" lon="0.65055">
        <ele>140</ele>
        <time>2012-03-23T11:51:00Z</time>
      </trkpt>
      <trkpt lat="48.24771" lon="0.6506">
        <ele>140</ele>
        <time>2012-03-23T11:51:05Z</time>
      </trkpt>
      <trkpt lat="48.24774" lon="0.65064">
        <ele>139</ele>
        <time>2012-03-23T11:51:09Z</time>
      </trkpt>
      <trkpt lat="48.24775" lon="0.65069">
        <ele>139</ele>
        <time>2012-03-23T11:51:13Z</time>
      </trkpt>
      <trkpt lat="48.24777" lon="0.65074">
        <ele>138</ele>
        <time>2012-03-23T11:51:17Z</time>
      </trkpt>
      <trkpt lat="48.24778" lon="0.6508">
        <ele>136</ele>
        <time>2012-03-23T11:51:21Z</time>
      </trkpt>
      <trkpt lat="48.24778" lon="0.65086">
        <ele>135</ele>
        <time>2012-03-23T11:51:25Z</time>
      </trkpt>
      <trkpt lat="48.2478" lon="0.6509">
        <ele>134</ele>
        <time>2012-03-23T11:51:27Z</time>
      </trkpt>
      <trkpt lat="48.2478" lon="0.65093">
        <ele>134</ele>
        <time>2012-03-23T11:51:29Z</time>
      </trkpt>
      <trkpt lat="48.24781" lon="0.65097">
        <ele>134</ele>
        <time>2012-03-23T11:51:31Z</time>
      </trkpt>
      <trkpt lat="48.2478" lon="0.651">
        <ele>133</ele>
        <time>2012-03-23T11:51:33Z</time>
      </trkpt>
      <trkpt lat="48.2478" lon="0.65104">
        <ele>133</ele>
        <time>2012-03-23T11:51:35Z</time>
      </trkpt>
      <trkpt lat="48.24781" lon="0.65108">
        <ele>133</ele>
        <time>2012-03-23T11:51:37Z</time>
      </trkpt>
      <trkpt lat="48.24781" lon="0.65111">
        <ele>132</ele>
        <time>2012-03-23T11:51:39Z</time>
      </trkpt>
      <trkpt lat="48.24781" lon="0.65115">
        <ele>132</ele>
        <time>2012-03-23T11:51:41Z</time>
      </trkpt>
      <trkpt lat="48.24781" lon="0.65118">
        <ele>131</ele>
        <time>2012-03-23T11:51:43Z</time>
      </trkpt>
      <trkpt lat="48.24782" lon="0.65122">
        <ele>131</ele>
        <time>2012-03-23T11:51:45Z</time>
      </trkpt>
      <trkpt lat="48.24783" lon="0.65126">
        <ele>131</ele>
        <time>2012-03-23T11:51:48Z</time>
      </trkpt>
      <trkpt lat="48.24783" lon="0.65131">
        <ele>131</ele>
        <time>2012-03-23T11:51:51Z</time>
      </trkpt>
      <trkpt lat="48.24784" lon="0.65135">
        <ele>130</ele>
        <time>2012-03-23T11:51:53Z</time>
      </trkpt>
      <trkpt lat="48.24785" lon="0.65138">
        <ele>130</ele>
        <time>2012-03-23T11:51:55Z</time>
      </trkpt>
      <trkpt lat="48.24786" lon="0.65141">
        <ele>130</ele>
        <time>2012-03-23T11:51:57Z</time>
      </trkpt>
      <trkpt lat="48.24786" lon="0.65145">
        <ele>130</ele>
        <time>2012-03-23T11:51:59Z</time>
      </trkpt>
      <trkpt lat="48.24786" lon="0.65148">
        <ele>130</ele>
        <time>2012-03-23T11:52:01Z</time>
      </trkpt>
      <trkpt lat="48.24786" lon="0.65152">
        <ele>129</ele>
        <time>2012-03-23T11:52:03Z</time>
      </trkpt>
      <trkpt lat="48.24786" lon="0.65155">
        <ele>129</ele>
        <time>2012-03-23T11:52:05Z</time>
      </trkpt>
      <trkpt lat="48.24786" lon="0.65159">
        <ele>129</ele>
        <time>2012-03-23T11:52:07Z</time>
      </trkpt>
      <trkpt lat="48.24786" lon="0.65162">
        <ele>129</ele>
        <time>2012-03-23T11:52:09Z</time>
      </trkpt>
      <trkpt lat="48.24786" lon="0.65166">
        <ele>128</ele>
        <time>2012-03-23T11:52:11Z</time>
      </trkpt>
      <trkpt lat="48.24786" lon="0.6517">
        <ele>128</ele>
        <time>2012-03-23T11:52:13Z</time>
      </trkpt>
      <trkpt lat="48.24786" lon="0.65174">
        <ele>127</ele>
        <time>2012-03-23T11:52:15Z</time>
      </trkpt>
      <trkpt lat="48.24786" lon="0.65177">
        <ele>127</ele>
        <time>2012-03-23T11:52:17Z</time>
      </trkpt>
      <trkpt lat="48.24787" lon="0.65182">
        <ele>126</ele>
        <time>2012-03-23T11:52:20Z</time>
      </trkpt>
      <trkpt lat="48.24787" lon="0.65185">
        <ele>126</ele>
        <time>2012-03-23T11:52:22Z</time>
      </trkpt>
      <trkpt lat="48.24787" lon="0.65189">
        <ele>126</ele>
        <time>2012-03-23T11:52:24Z</time>
      </trkpt>
      <trkpt lat="48.24787" lon="0.65193">
        <ele>126</ele>
        <time>2012-03-23T11:52:26Z</time>
      </trkpt>
      <trkpt lat="48.24788" lon="0.65197">
        <ele>126</ele>
        <time>2012-03-23T11:52:28Z</time>
      </trkpt>
      <trkpt lat="48.24788" lon="0.65202">
        <ele>126</ele>
        <time>2012-03-23T11:52:32Z</time>
      </trkpt>
      <trkpt lat="48.24789" lon="0.65207">
        <ele>126</ele>
        <time>2012-03-23T11:52:35Z</time>
      </trkpt>
      <trkpt lat="48.24791" lon="0.6521">
        <ele>126</ele>
        <time>2012-03-23T11:52:37Z</time>
      </trkpt>
      <trkpt lat="48.24794" lon="0.65214">
        <ele>126</ele>
        <time>2012-03-23T11:52:40Z</time>
      </trkpt>
      <trkpt lat="48.24793" lon="0.65219">
        <ele>126</ele>
        <time>2012-03-23T11:52:43Z</time>
      </trkpt>
      <trkpt lat="48.24793" lon="0.65223">
        <ele>126</ele>
        <time>2012-03-23T11:52:45Z</time>
      </trkpt>
      <trkpt lat="48.24793" lon="0.65228">
        <ele>126</ele>
        <time>2012-03-23T11:52:48Z</time>
      </trkpt>
      <trkpt lat="48.24793" lon="0.65231">
        <ele>126</ele>
        <time>2012-03-23T11:52:50Z</time>
      </trkpt>
      <trkpt lat="48.24794" lon="0.65236">
        <ele>126</ele>
        <time>2012-03-23T11:52:53Z</time>
      </trkpt>
      <trkpt lat="48.24793" lon="0.65239">
        <ele>126</ele>
        <time>2012-03-23T11:52:55Z</time>
      </trkpt>
      <trkpt lat="48.24793" lon="0.65243">
        <ele>126</ele>
        <time>2012-03-23T11:52:57Z</time>
      </trkpt>
      <trkpt lat="48.24793" lon="0.65247">
        <ele>126</ele>
        <time>2012-03-23T11:52:59Z</time>
      </trkpt>
      <trkpt lat="48.24794" lon="0.65251">
        <ele>126</ele>
        <time>2012-03-23T11:53:01Z</time>
      </trkpt>
      <trkpt lat="48.24794" lon="0.65255">
        <ele>126</ele>
        <time>2012-03-23T11:53:03Z</time>
      </trkpt>
      <trkpt lat="48.24794" lon="0.65258">
        <ele>126</ele>
        <time>2012-03-23T11:53:05Z</time>
      </trkpt>
      <trkpt lat="48.24796" lon="0.65263">
        <ele>126</ele>
        <time>2012-03-23T11:53:08Z</time>
      </trkpt>
      <trkpt lat="48.24796" lon="0.65268">
        <ele>126</ele>
        <time>2012-03-23T11:53:11Z</time>
      </trkpt>
      <trkpt lat="48.24797" lon="0.65273">
        <ele>126</ele>
        <time>2012-03-23T11:53:14Z</time>
      </trkpt>
      <trkpt lat="48.24797" lon="0.65276">
        <ele>126</ele>
        <time>2012-03-23T11:53:16Z</time>
      </trkpt>
      <trkpt lat="48.24797" lon="0.65281">
        <ele>126</ele>
        <time>2012-03-23T11:53:19Z</time>
      </trkpt>
      <trkpt lat="48.24797" lon="0.65284">
        <ele>126</ele>
        <time>2012-03-23T11:53:21Z</time>
      </trkpt>
      <trkpt lat="48.24798" lon="0.6529">
        <ele>126</ele>
        <time>2012-03-23T11:53:24Z</time>
      </trkpt>
      <trkpt lat="48.24799" lon="0.65294">
        <ele>126</ele>
        <time>2012-03-23T11:53:27Z</time>
      </trkpt>
      <trkpt lat="48.248" lon="0.65298">
        <ele>126</ele>
        <time>2012-03-23T11:53:29Z</time>
      </trkpt>
      <trkpt lat="48.24799" lon="0.65302">
        <ele>126</ele>
        <time>2012-03-23T11:53:32Z</time>
      </trkpt>
      <trkpt lat="48.248" lon="0.65307">
        <ele>126</ele>
        <time>2012-03-23T11:53:36Z</time>
      </trkpt>
      <trkpt lat="48.248" lon="0.65312">
        <ele>126</ele>
        <time>2012-03-23T11:53:39Z</time>
      </trkpt>
      <trkpt lat="48.248" lon="0.65316">
        <ele>126</ele>
        <time>2012-03-23T11:53:42Z</time>
      </trkpt>
      <trkpt lat="48.248" lon="0.65321">
        <ele>126</ele>
        <time>2012-03-23T11:53:46Z</time>
      </trkpt>
      <trkpt lat="48.24801" lon="0.65326">
        <ele>126</ele>
        <time>2012-03-23T11:53:50Z</time>
      </trkpt>
      <trkpt lat="48.24803" lon="0.6533">
        <ele>126</ele>
        <time>2012-03-23T11:53:53Z</time>
      </trkpt>
      <trkpt lat="48.24803" lon="0.65335">
        <ele>126</ele>
        <time>2012-03-23T11:53:55Z</time>
      </trkpt>
      <trkpt lat="48.24803" lon="0.65339">
        <ele>126</ele>
        <time>2012-03-23T11:53:57Z</time>
      </trkpt>
      <trkpt lat="48.24804" lon="0.65343">
        <ele>126</ele>
        <time>2012-03-23T11:53:59Z</time>
      </trkpt>
      <trkpt lat="48.24804" lon="0.65347">
        <ele>126</ele>
        <time>2012-03-23T11:54:01Z</time>
      </trkpt>
      <trkpt lat="48.24805" lon="0.65352">
        <ele>126</ele>
        <time>2012-03-23T11:54:05Z</time>
      </trkpt>
      <trkpt lat="48.24808" lon="0.65357">
        <ele>126</ele>
        <time>2012-03-23T11:54:09Z</time>
      </trkpt>
      <trkpt lat="48.24808" lon="0.65362">
        <ele>126</ele>
        <time>2012-03-23T11:54:13Z</time>
      </trkpt>
      <trkpt lat="48.24807" lon="0.65367">
        <ele>125</ele>
        <time>2012-03-23T11:54:17Z</time>
      </trkpt>
      <trkpt lat="48.24807" lon="0.65372">
        <ele>125</ele>
        <time>2012-03-23T11:54:20Z</time>
      </trkpt>
      <trkpt lat="48.24808" lon="0.65376">
        <ele>125</ele>
        <time>2012-03-23T11:54:23Z</time>
      </trkpt>
      <trkpt lat="48.24809" lon="0.6538">
        <ele>125</ele>
        <time>2012-03-23T11:54:25Z</time>
      </trkpt>
      <trkpt lat="48.2481" lon="0.65383">
        <ele>125</ele>
        <time>2012-03-23T11:54:27Z</time>
      </trkpt>
      <trkpt lat="48.24811" lon="0.65387">
        <ele>125</ele>
        <time>2012-03-23T11:54:29Z</time>
      </trkpt>
      <trkpt lat="48.2481" lon="0.65391">
        <ele>125</ele>
        <time>2012-03-23T11:54:31Z</time>
      </trkpt>
      <trkpt lat="48.2481" lon="0.65394">
        <ele>125</ele>
        <time>2012-03-23T11:54:33Z</time>
      </trkpt>
      <trkpt lat="48.24811" lon="0.65399">
        <ele>125</ele>
        <time>2012-03-23T11:54:36Z</time>
      </trkpt>
      <trkpt lat="48.24812" lon="0.65404">
        <ele>125</ele>
        <time>2012-03-23T11:54:40Z</time>
      </trkpt>
      <trkpt lat="48.24814" lon="0.65411">
        <ele>125</ele>
        <time>2012-03-23T11:54:44Z</time>
      </trkpt>
      <trkpt lat="48.24815" lon="0.65416">
        <ele>125</ele>
        <time>2012-03-23T11:54:47Z</time>
      </trkpt>
      <trkpt lat="48.24816" lon="0.65421">
        <ele>125</ele>
        <time>2012-03-23T11:54:50Z</time>
      </trkpt>
      <trkpt lat="48.24816" lon="0.65427">
        <ele>125</ele>
        <time>2012-03-23T11:54:54Z</time>
      </trkpt>
      <trkpt lat="48.24815" lon="0.65431">
        <ele>125</ele>
        <time>2012-03-23T11:54:56Z</time>
      </trkpt>
      <trkpt lat="48.24815" lon="0.65436">
        <ele>124</ele>
        <time>2012-03-23T11:54:58Z</time>
      </trkpt>
      <trkpt lat="48.24815" lon="0.6544">
        <ele>124</ele>
        <time>2012-03-23T11:55:00Z</time>
      </trkpt>
      <trkpt lat="48.24814" lon="0.65444">
        <ele>124</ele>
        <time>2012-03-23T11:55:02Z</time>
      </trkpt>
      <trkpt lat="48.24814" lon="0.65448">
        <ele>124</ele>
        <time>2012-03-23T11:55:04Z</time>
      </trkpt>
      <trkpt lat="48.24814" lon="0.65452">
        <ele>124</ele>
        <time>2012-03-23T11:55:06Z</time>
      </trkpt>
      <trkpt lat="48.24814" lon="0.65456">
        <ele>123</ele>
        <time>2012-03-23T11:55:08Z</time>
      </trkpt>
      <trkpt lat="48.24814" lon="0.6546">
        <ele>123</ele>
        <time>2012-03-23T11:55:10Z</time>
      </trkpt>
      <trkpt lat="48.24814" lon="0.65465">
        <ele>123</ele>
        <time>2012-03-23T11:55:12Z</time>
      </trkpt>
      <trkpt lat="48.24813" lon="0.65468">
        <ele>123</ele>
        <time>2012-03-23T11:55:14Z</time>
      </trkpt>
      <trkpt lat="48.24813" lon="0.65472">
        <ele>123</ele>
        <time>2012-03-23T11:55:16Z</time>
      </trkpt>
      <trkpt lat="48.24813" lon="0.65476">
        <ele>122</ele>
        <time>2012-03-23T11:55:18Z</time>
      </trkpt>
      <trkpt lat="48.24814" lon="0.6548">
        <ele>122</ele>
        <time>2012-03-23T11:55:20Z</time>
      </trkpt>
      <trkpt lat="48.24813" lon="0.65484">
        <ele>122</ele>
        <time>2012-03-23T11:55:22Z</time>
      </trkpt>
      <trkpt lat="48.24813" lon="0.65488">
        <ele>122</ele>
        <time>2012-03-23T11:55:24Z</time>
      </trkpt>
      <trkpt lat="48.24813" lon="0.65492">
        <ele>122</ele>
        <time>2012-03-23T11:55:26Z</time>
      </trkpt>
      <trkpt lat="48.24813" lon="0.65496">
        <ele>121</ele>
        <time>2012-03-23T11:55:28Z</time>
      </trkpt>
      <trkpt lat="48.24813" lon="0.65499">
        <ele>121</ele>
        <time>2012-03-23T11:55:30Z</time>
      </trkpt>
      <trkpt lat="48.24812" lon="0.65503">
        <ele>121</ele>
        <time>2012-03-23T11:55:32Z</time>
      </trkpt>
      <trkpt lat="48.24812" lon="0.65507">
        <ele>120</ele>
        <time>2012-03-23T11:55:34Z</time>
      </trkpt>
      <trkpt lat="48.24812" lon="0.65511">
        <ele>120</ele>
        <time>2012-03-23T11:55:36Z</time>
      </trkpt>
      <trkpt lat="48.24812" lon="0.65516">
        <ele>119</ele>
        <time>2012-03-23T11:55:38Z</time>
      </trkpt>
      <trkpt lat="48.24812" lon="0.65519">
        <ele>119</ele>
        <time>2012-03-23T11:55:40Z</time>
      </trkpt>
      <trkpt lat="48.24812" lon="0.65523">
        <ele>119</ele>
        <time>2012-03-23T11:55:42Z</time>
      </trkpt>
      <trkpt lat="48.24812" lon="0.65527">
        <ele>118</ele>
        <time>2012-03-23T11:55:44Z</time>
      </trkpt>
      <trkpt lat="48.24813" lon="0.65531">
        <ele>118</ele>
        <time>2012-03-23T11:55:46Z</time>
      </trkpt>
      <trkpt lat="48.24813" lon="0.65534">
        <ele>118</ele>
        <time>2012-03-23T11:55:48Z</time>
      </trkpt>
      <trkpt lat="48.24813" lon="0.65538">
        <ele>118</ele>
        <time>2012-03-23T11:55:50Z</time>
      </trkpt>
      <trkpt lat="48.24813" lon="0.65542">
        <ele>117</ele>
        <time>2012-03-23T11:55:52Z</time>
      </trkpt>
      <trkpt lat="48.24813" lon="0.65546">
        <ele>117</ele>
        <time>2012-03-23T11:55:54Z</time>
      </trkpt>
      <trkpt lat="48.24813" lon="0.6555">
        <ele>117</ele>
        <time>2012-03-23T11:55:56Z</time>
      </trkpt>
      <trkpt lat="48.24813" lon="0.65553">
        <ele>117</ele>
        <time>2012-03-23T11:55:58Z</time>
      </trkpt>
      <trkpt lat="48.24814" lon="0.65557">
        <ele>116</ele>
        <time>2012-03-23T11:56:00Z</time>
      </trkpt>
      <trkpt lat="48.24815" lon="0.65561">
        <ele>116</ele>
        <time>2012-03-23T11:56:02Z</time>
      </trkpt>
      <trkpt lat="48.24815" lon="0.65565">
        <ele>116</ele>
        <time>2012-03-23T11:56:04Z</time>
      </trkpt>
      <trkpt lat="48.24816" lon="0.65568">
        <ele>116</ele>
        <time>2012-03-23T11:56:06Z</time>
      </trkpt>
      <trkpt lat="48.24817" lon="0.65572">
        <ele>116</ele>
        <time>2012-03-23T11:56:08Z</time>
      </trkpt>
      <trkpt lat="48.24818" lon="0.65576">
        <ele>116</ele>
        <time>2012-03-23T11:56:10Z</time>
      </trkpt>
      <trkpt lat="48.24818" lon="0.6558">
        <ele>116</ele>
        <time>2012-03-23T11:56:12Z</time>
      </trkpt>
      <trkpt lat="48.24819" lon="0.65583">
        <ele>116</ele>
        <time>2012-03-23T11:56:14Z</time>
      </trkpt>
      <trkpt lat="48.24819" lon="0.65587">
        <ele>115</ele>
        <time>2012-03-23T11:56:16Z</time>
      </trkpt>
      <trkpt lat="48.2482" lon="0.65591">
        <ele>115</ele>
        <time>2012-03-23T11:56:18Z</time>
      </trkpt>
      <trkpt lat="48.24821" lon="0.65594">
        <ele>115</ele>
        <time>2012-03-23T11:56:20Z</time>
      </trkpt>
      <trkpt lat="48.24821" lon="0.65598">
        <ele>114</ele>
        <time>2012-03-23T11:56:22Z</time>
      </trkpt>
      <trkpt lat="48.24822" lon="0.65601">
        <ele>114</ele>
        <time>2012-03-23T11:56:24Z</time>
      </trkpt>
      <trkpt lat="48.24823" lon="0.65605">
        <ele>114</ele>
        <time>2012-03-23T11:56:26Z</time>
      </trkpt>
      <trkpt lat="48.24823" lon="0.65609">
        <ele>114</ele>
        <time>2012-03-23T11:56:28Z</time>
      </trkpt>
      <trkpt lat="48.24824" lon="0.65613">
        <ele>113</ele>
        <time>2012-03-23T11:56:30Z</time>
      </trkpt>
      <trkpt lat="48.24825" lon="0.65616">
        <ele>113</ele>
        <time>2012-03-23T11:56:32Z</time>
      </trkpt>
      <trkpt lat="48.24826" lon="0.6562">
        <ele>113</ele>
        <time>2012-03-23T11:56:34Z</time>
      </trkpt>
      <trkpt lat="48.24826" lon="0.65624">
        <ele>112</ele>
        <time>2012-03-23T11:56:37Z</time>
      </trkpt>
      <trkpt lat="48.24827" lon="0.65628">
        <ele>112</ele>
        <time>2012-03-23T11:56:39Z</time>
      </trkpt>
      <trkpt lat="48.24828" lon="0.65631">
        <ele>111</ele>
        <time>2012-03-23T11:56:41Z</time>
      </trkpt>
      <trkpt lat="48.24828" lon="0.65635">
        <ele>111</ele>
        <time>2012-03-23T11:56:43Z</time>
      </trkpt>
      <trkpt lat="48.24829" lon="0.65639">
        <ele>111</ele>
        <time>2012-03-23T11:56:45Z</time>
      </trkpt>
      <trkpt lat="48.2483" lon="0.65642">
        <ele>111</ele>
        <time>2012-03-23T11:56:47Z</time>
      </trkpt>
      <trkpt lat="48.24831" lon="0.65646">
        <ele>110</ele>
        <time>2012-03-23T11:56:49Z</time>
      </trkpt>
      <trkpt lat="48.24831" lon="0.65649">
        <ele>110</ele>
        <time>2012-03-23T11:56:51Z</time>
      </trkpt>
      <trkpt lat="48.24832" lon="0.65653">
        <ele>109</ele>
        <time>2012-03-23T11:56:53Z</time>
      </trkpt>
      <trkpt lat="48.24832" lon="0.65657">
        <ele>109</ele>
        <time>2012-03-23T11:56:55Z</time>
      </trkpt>
      <trkpt lat="48.24834" lon="0.6566">
        <ele>109</ele>
        <time>2012-03-23T11:56:57Z</time>
      </trkpt>
      <trkpt lat="48.24834" lon="0.65664">
        <ele>108</ele>
        <time>2012-03-23T11:56:59Z</time>
      </trkpt>
      <trkpt lat="48.24834" lon="0.65667">
        <ele>108</ele>
        <time>2012-03-23T11:57:01Z</time>
      </trkpt>
      <trkpt lat="48.24835" lon="0.65671">
        <ele>107</ele>
        <time>2012-03-23T11:57:03Z</time>
      </trkpt>
      <trkpt lat="48.24835" lon="0.65675">
        <ele>107</ele>
        <time>2012-03-23T11:57:05Z</time>
      </trkpt>
      <trkpt lat="48.24836" lon="0.65678">
        <ele>106</ele>
        <time>2012-03-23T11:57:07Z</time>
      </trkpt>
      <trkpt lat="48.24836" lon="0.65682">
        <ele>106</ele>
        <time>2012-03-23T11:57:09Z</time>
      </trkpt>
      <trkpt lat="48.24837" lon="0.65685">
        <ele>106</ele>
        <time>2012-03-23T11:57:11Z</time>
      </trkpt>
      <trkpt lat="48.24838" lon="0.65689">
        <ele>106</ele>
        <time>2012-03-23T11:57:13Z</time>
      </trkpt>
      <trkpt lat="48.24838" lon="0.65693">
        <ele>106</ele>
        <time>2012-03-23T11:57:15Z</time>
      </trkpt>
      <trkpt lat="48.24839" lon="0.65696">
        <ele>105</ele>
        <time>2012-03-23T11:57:17Z</time>
      </trkpt>
      <trkpt lat="48.24845" lon="0.65698">
        <ele>105</ele>
        <time>2012-03-23T11:57:19Z</time>
      </trkpt>
      <trkpt lat="48.24846" lon="0.65702">
        <ele>105</ele>
        <time>2012-03-23T11:57:21Z</time>
      </trkpt>
      <trkpt lat="48.24847" lon="0.65706">
        <ele>105</ele>
        <time>2012-03-23T11:57:23Z</time>
      </trkpt>
      <trkpt lat="48.24848" lon="0.65711">
        <ele>105</ele>
        <time>2012-03-23T11:57:26Z</time>
      </trkpt>
      <trkpt lat="48.24848" lon="0.65715">
        <ele>105</ele>
        <time>2012-03-23T11:57:28Z</time>
      </trkpt>
      <trkpt lat="48.24849" lon="0.65718">
        <ele>105</ele>
        <time>2012-03-23T11:57:30Z</time>
      </trkpt>
      <trkpt lat="48.24853" lon="0.65721">
        <ele>105</ele>
        <time>2012-03-23T11:57:32Z</time>
      </trkpt>
      <trkpt lat="48.24854" lon="0.65724">
        <ele>105</ele>
        <time>2012-03-23T11:57:34Z</time>
      </trkpt>
      <trkpt lat="48.24855" lon="0.65728">
        <ele>105</ele>
        <time>2012-03-23T11:57:36Z</time>
      </trkpt>
      <trkpt lat="48.24855" lon="0.65731">
        <ele>105</ele>
        <time>2012-03-23T11:57:38Z</time>
      </trkpt>
      <trkpt lat="48.24856" lon="0.65735">
        <ele>105</ele>
        <time>2012-03-23T11:57:40Z</time>
      </trkpt>
      <trkpt lat="48.24856" lon="0.65738">
        <ele>105</ele>
        <time>2012-03-23T11:57:42Z</time>
      </trkpt>
      <trkpt lat="48.2486" lon="0.65743">
        <ele>105</ele>
        <time>2012-03-23T11:57:45Z</time>
      </trkpt>
      <trkpt lat="48.24862" lon="0.65746">
        <ele>105</ele>
        <time>2012-03-23T11:57:47Z</time>
      </trkpt>
      <trkpt lat="48.24865" lon="0.6575">
        <ele>105</ele>
        <time>2012-03-23T11:57:49Z</time>
      </trkpt>
      <trkpt lat="48.24866" lon="0.65753">
        <ele>105</ele>
        <time>2012-03-23T11:57:51Z</time>
      </trkpt>
      <trkpt lat="48.24866" lon="0.65757">
        <ele>105</ele>
        <time>2012-03-23T11:57:53Z</time>
      </trkpt>
      <trkpt lat="48.24867" lon="0.65761">
        <ele>105</ele>
        <time>2012-03-23T11:57:55Z</time>
      </trkpt>
      <trkpt lat="48.24868" lon="0.65764">
        <ele>105</ele>
        <time>2012-03-23T11:57:57Z</time>
      </trkpt>
      <trkpt lat="48.24869" lon="0.65768">
        <ele>105</ele>
        <time>2012-03-23T11:57:59Z</time>
      </trkpt>
      <trkpt lat="48.24869" lon="0.65772">
        <ele>105</ele>
        <time>2012-03-23T11:58:01Z</time>
      </trkpt>
      <trkpt lat="48.24869" lon="0.65777">
        <ele>105</ele>
        <time>2012-03-23T11:58:04Z</time>
      </trkpt>
      <trkpt lat="48.24865" lon="0.65781">
        <ele>105</ele>
        <time>2012-03-23T11:58:08Z</time>
      </trkpt>
      <trkpt lat="48.24862" lon="0.65783">
        <ele>105</ele>
        <time>2012-03-23T11:58:12Z</time>
      </trkpt>
      <trkpt lat="48.24859" lon="0.65784">
        <ele>105</ele>
        <time>2012-03-23T11:58:15Z</time>
      </trkpt>
      <trkpt lat="48.24855" lon="0.65785">
        <ele>105</ele>
        <time>2012-03-23T11:58:18Z</time>
      </trkpt>
      <trkpt lat="48.24852" lon="0.65786">
        <ele>105</ele>
        <time>2012-03-23T11:58:21Z</time>
      </trkpt>
      <trkpt lat="48.2485" lon="0.65786">
        <ele>105</ele>
        <time>2012-03-23T11:58:23Z</time>
      </trkpt>
      <trkpt lat="48.24847" lon="0.65787">
        <ele>105</ele>
        <time>2012-03-23T11:58:25Z</time>
      </trkpt>
      <trkpt lat="48.24845" lon="0.65788">
        <ele>105</ele>
        <time>2012-03-23T11:58:27Z</time>
      </trkpt>
      <trkpt lat="48.24842" lon="0.65789">
        <ele>105</ele>
        <time>2012-03-23T11:58:29Z</time>
      </trkpt>
      <trkpt lat="48.2484" lon="0.6579">
        <ele>105</ele>
        <time>2012-03-23T11:58:31Z</time>
      </trkpt>
      <trkpt lat="48.24838" lon="0.6579">
        <ele>105</ele>
        <time>2012-03-23T11:58:33Z</time>
      </trkpt>
      <trkpt lat="48.24835" lon="0.65791">
        <ele>105</ele>
        <time>2012-03-23T11:58:35Z</time>
      </trkpt>
      <trkpt lat="48.24833" lon="0.65793">
        <ele>105</ele>
        <time>2012-03-23T11:58:37Z</time>
      </trkpt>
      <trkpt lat="48.2483" lon="0.65794">
        <ele>105</ele>
        <time>2012-03-23T11:58:39Z</time>
      </trkpt>
      <trkpt lat="48.24828" lon="0.65795">
        <ele>105</ele>
        <time>2012-03-23T11:58:41Z</time>
      </trkpt>
      <trkpt lat="48.24825" lon="0.65796">
        <ele>105</ele>
        <time>2012-03-23T11:58:43Z</time>
      </trkpt>
      <trkpt lat="48.24823" lon="0.65796">
        <ele>105</ele>
        <time>2012-03-23T11:58:45Z</time>
      </trkpt>
      <trkpt lat="48.2482" lon="0.65797">
        <ele>105</ele>
        <time>2012-03-23T11:58:47Z</time>
      </trkpt>
      <trkpt lat="48.24818" lon="0.65797">
        <ele>105</ele>
        <time>2012-03-23T11:58:49Z</time>
      </trkpt>
      <trkpt lat="48.24815" lon="0.65798">
        <ele>105</ele>
        <time>2012-03-23T11:58:51Z</time>
      </trkpt>
      <trkpt lat="48.24812" lon="0.65798">
        <ele>105</ele>
        <time>2012-03-23T11:58:53Z</time>
      </trkpt>
      <trkpt lat="48.2481" lon="0.65798">
        <ele>105</ele>
        <time>2012-03-23T11:58:55Z</time>
      </trkpt>
      <trkpt lat="48.24807" lon="0.65798">
        <ele>105</ele>
        <time>2012-03-23T11:58:57Z</time>
      </trkpt>
      <trkpt lat="48.24805" lon="0.65799">
        <ele>105</ele>
        <time>2012-03-23T11:58:59Z</time>
      </trkpt>
      <trkpt lat="48.24802" lon="0.65799">
        <ele>105</ele>
        <time>2012-03-23T11:59:01Z</time>
      </trkpt>
      <trkpt lat="48.248" lon="0.65799">
        <ele>105</ele>
        <time>2012-03-23T11:59:03Z</time>
      </trkpt>
      <trkpt lat="48.24797" lon="0.658">
        <ele>105</ele>
        <time>2012-03-23T11:59:05Z</time>
      </trkpt>
      <trkpt lat="48.24795" lon="0.658">
        <ele>105</ele>
        <time>2012-03-23T11:59:07Z</time>
      </trkpt>
      <trkpt lat="48.24792" lon="0.658">
        <ele>105</ele>
        <time>2012-03-23T11:59:09Z</time>
      </trkpt>
      <trkpt lat="48.2479" lon="0.658">
        <ele>105</ele>
        <time>2012-03-23T11:59:11Z</time>
      </trkpt>
      <trkpt lat="48.24788" lon="0.658">
        <ele>105</ele>
        <time>2012-03-23T11:59:13Z</time>
      </trkpt>
      <trkpt lat="48.24785" lon="0.658">
        <ele>105</ele>
        <time>2012-03-23T11:59:15Z</time>
      </trkpt>
      <trkpt lat="48.24782" lon="0.65802">
        <ele>105</ele>
        <time>2012-03-23T11:59:17Z</time>
      </trkpt>
      <trkpt lat="48.24779" lon="0.65803">
        <ele>105</ele>
        <time>2012-03-23T11:59:19Z</time>
      </trkpt>
      <trkpt lat="48.24776" lon="0.65803">
        <ele>105</ele>
        <time>2012-03-23T11:59:21Z</time>
      </trkpt>
      <trkpt lat="48.24774" lon="0.65803">
        <ele>105</ele>
        <time>2012-03-23T11:59:23Z</time>
      </trkpt>
      <trkpt lat="48.24771" lon="0.65804">
        <ele>105</ele>
        <time>2012-03-23T11:59:25Z</time>
      </trkpt>
      <trkpt lat="48.24769" lon="0.65804">
        <ele>105</ele>
        <time>2012-03-23T11:59:27Z</time>
      </trkpt>
      <trkpt lat="48.24766" lon="0.65806">
        <ele>105</ele>
        <time>2012-03-23T11:59:29Z</time>
      </trkpt>
      <trkpt lat="48.24763" lon="0.65808">
        <ele>105</ele>
        <time>2012-03-23T11:59:31Z</time>
      </trkpt>
      <trkpt lat="48.2476" lon="0.65809">
        <ele>105</ele>
        <time>2012-03-23T11:59:33Z</time>
      </trkpt>
      <trkpt lat="48.24758" lon="0.65811">
        <ele>105</ele>
        <time>2012-03-23T11:59:35Z</time>
      </trkpt>
      <trkpt lat="48.24756" lon="0.65812">
        <ele>105</ele>
        <time>2012-03-23T11:59:37Z</time>
      </trkpt>
      <trkpt lat="48.24753" lon="0.65813">
        <ele>105</ele>
        <time>2012-03-23T11:59:39Z</time>
      </trkpt>
      <trkpt lat="48.24751" lon="0.65815">
        <ele>105</ele>
        <time>2012-03-23T11:59:41Z</time>
      </trkpt>
      <trkpt lat="48.24747" lon="0.65817">
        <ele>105</ele>
        <time>2012-03-23T11:59:44Z</time>
      </trkpt>
      <trkpt lat="48.24744" lon="0.65819">
        <ele>105</ele>
        <time>2012-03-23T11:59:47Z</time>
      </trkpt>
      <trkpt lat="48.24741" lon="0.65823">
        <ele>105</ele>
        <time>2012-03-23T11:59:49Z</time>
      </trkpt>
      <trkpt lat="48.24738" lon="0.65826">
        <ele>105</ele>
        <time>2012-03-23T11:59:52Z</time>
      </trkpt>
      <trkpt lat="48.24734" lon="0.6583">
        <ele>105</ele>
        <time>2012-03-23T11:59:56Z</time>
      </trkpt>
      <trkpt lat="48.2473" lon="0.65835">
        <ele>105</ele>
        <time>2012-03-23T12:00:00Z</time>
      </trkpt>
      <trkpt lat="48.24726" lon="0.65839">
        <ele>105</ele>
        <time>2012-03-23T12:00:04Z</time>
      </trkpt>
      <trkpt lat="48.24723" lon="0.65843">
        <ele>105</ele>
        <time>2012-03-23T12:00:07Z</time>
      </trkpt>
      <trkpt lat="48.24719" lon="0.65847">
        <ele>106</ele>
        <time>2012-03-23T12:00:11Z</time>
      </trkpt>
      <trkpt lat="48.24716" lon="0.65848">
        <ele>106</ele>
        <time>2012-03-23T12:00:13Z</time>
      </trkpt>
      <trkpt lat="48.24713" lon="0.65853">
        <ele>106</ele>
        <time>2012-03-23T12:00:17Z</time>
      </trkpt>
      <trkpt lat="48.24709" lon="0.65857">
        <ele>106</ele>
        <time>2012-03-23T12:00:20Z</time>
      </trkpt>
      <trkpt lat="48.24706" lon="0.6586">
        <ele>106</ele>
        <time>2012-03-23T12:00:23Z</time>
      </trkpt>
      <trkpt lat="48.24703" lon="0.65863">
        <ele>107</ele>
        <time>2012-03-23T12:00:26Z</time>
      </trkpt>
      <trkpt lat="48.24699" lon="0.65867">
        <ele>107</ele>
        <time>2012-03-23T12:00:30Z</time>
      </trkpt>
      <trkpt lat="48.24696" lon="0.65869">
        <ele>107</ele>
        <time>2012-03-23T12:00:33Z</time>
      </trkpt>
      <trkpt lat="48.24693" lon="0.6587">
        <ele>107</ele>
        <time>2012-03-23T12:00:35Z</time>
      </trkpt>
      <trkpt lat="48.2469" lon="0.65873">
        <ele>107</ele>
        <time>2012-03-23T12:00:38Z</time>
      </trkpt>
      <trkpt lat="48.24686" lon="0.65875">
        <ele>107</ele>
        <time>2012-03-23T12:00:42Z</time>
      </trkpt>
      <trkpt lat="48.24683" lon="0.65877">
        <ele>107</ele>
        <time>2012-03-23T12:00:44Z</time>
      </trkpt>
      <trkpt lat="48.2468" lon="0.65881">
        <ele>107</ele>
        <time>2012-03-23T12:00:47Z</time>
      </trkpt>
      <trkpt lat="48.24677" lon="0.65882">
        <ele>107</ele>
        <time>2012-03-23T12:00:49Z</time>
      </trkpt>
      <trkpt lat="48.24675" lon="0.65883">
        <ele>107</ele>
        <time>2012-03-23T12:00:51Z</time>
      </trkpt>
      <trkpt lat="48.24672" lon="0.65885">
        <ele>107</ele>
        <time>2012-03-23T12:00:53Z</time>
      </trkpt>
      <trkpt lat="48.2467" lon="0.65887">
        <ele>107</ele>
        <time>2012-03-23T12:00:55Z</time>
      </trkpt>
      <trkpt lat="48.24667" lon="0.65889">
        <ele>107</ele>
        <time>2012-03-23T12:00:57Z</time>
      </trkpt>
      <trkpt lat="48.24665" lon="0.6589">
        <ele>107</ele>
        <time>2012-03-23T12:00:59Z</time>
      </trkpt>
      <trkpt lat="48.24662" lon="0.65893">
        <ele>107</ele>
        <time>2012-03-23T12:01:02Z</time>
      </trkpt>
      <trkpt lat="48.24659" lon="0.65894">
        <ele>107</ele>
        <time>2012-03-23T12:01:04Z</time>
      </trkpt>
      <trkpt lat="48.24656" lon="0.65897">
        <ele>107</ele>
        <time>2012-03-23T12:01:07Z</time>
      </trkpt>
      <trkpt lat="48.24652" lon="0.65899">
        <ele>107</ele>
        <time>2012-03-23T12:01:10Z</time>
      </trkpt>
      <trkpt lat="48.24649" lon="0.65901">
        <ele>107</ele>
        <time>2012-03-23T12:01:13Z</time>
      </trkpt>
      <trkpt lat="48.24646" lon="0.65904">
        <ele>107</ele>
        <time>2012-03-23T12:01:16Z</time>
      </trkpt>
      <trkpt lat="48.24642" lon="0.65907">
        <ele>107</ele>
        <time>2012-03-23T12:01:20Z</time>
      </trkpt>
      <trkpt lat="48.2464" lon="0.65909">
        <ele>107</ele>
        <time>2012-03-23T12:01:22Z</time>
      </trkpt>
      <trkpt lat="48.24636" lon="0.65913">
        <ele>107</ele>
        <time>2012-03-23T12:01:25Z</time>
      </trkpt>
      <trkpt lat="48.24633" lon="0.65915">
        <ele>107</ele>
        <time>2012-03-23T12:01:28Z</time>
      </trkpt>
      <trkpt lat="48.24631" lon="0.65918">
        <ele>107</ele>
        <time>2012-03-23T12:01:30Z</time>
      </trkpt>
      <trkpt lat="48.24628" lon="0.65922">
        <ele>107</ele>
        <time>2012-03-23T12:01:33Z</time>
      </trkpt>
      <trkpt lat="48.24625" lon="0.65927">
        <ele>107</ele>
        <time>2012-03-23T12:01:37Z</time>
      </trkpt>
      <trkpt lat="48.24622" lon="0.65931">
        <ele>107</ele>
        <time>2012-03-23T12:01:40Z</time>
      </trkpt>
      <trkpt lat="48.24618" lon="0.65937">
        <ele>107</ele>
        <time>2012-03-23T12:01:44Z</time>
      </trkpt>
      <trkpt lat="48.24615" lon="0.65942">
        <ele>107</ele>
        <time>2012-03-23T12:01:48Z</time>
      </trkpt>
      <trkpt lat="48.24612" lon="0.65946">
        <ele>107</ele>
        <time>2012-03-23T12:01:51Z</time>
      </trkpt>
      <trkpt lat="48.24609" lon="0.65951">
        <ele>107</ele>
        <time>2012-03-23T12:01:55Z</time>
      </trkpt>
      <trkpt lat="48.24607" lon="0.65955">
        <ele>107</ele>
        <time>2012-03-23T12:01:57Z</time>
      </trkpt>
      <trkpt lat="48.24605" lon="0.6596">
        <ele>107</ele>
        <time>2012-03-23T12:01:59Z</time>
      </trkpt>
      <trkpt lat="48.24602" lon="0.65965">
        <ele>107</ele>
        <time>2012-03-23T12:02:03Z</time>
      </trkpt>
      <trkpt lat="48.24598" lon="0.65971">
        <ele>107</ele>
        <time>2012-03-23T12:02:07Z</time>
      </trkpt>
      <trkpt lat="48.24596" lon="0.65976">
        <ele>107</ele>
        <time>2012-03-23T12:02:10Z</time>
      </trkpt>
      <trkpt lat="48.24593" lon="0.65981">
        <ele>107</ele>
        <time>2012-03-23T12:02:13Z</time>
      </trkpt>
      <trkpt lat="48.24591" lon="0.65986">
        <ele>107</ele>
        <time>2012-03-23T12:02:16Z</time>
      </trkpt>
      <trkpt lat="48.24589" lon="0.65991">
        <ele>107</ele>
        <time>2012-03-23T12:02:19Z</time>
      </trkpt>
      <trkpt lat="48.24587" lon="0.65995">
        <ele>107</ele>
        <time>2012-03-23T12:02:21Z</time>
      </trkpt>
      <trkpt lat="48.24586" lon="0.65998">
        <ele>107</ele>
        <time>2012-03-23T12:02:23Z</time>
      </trkpt>
      <trkpt lat="48.24585" lon="0.66002">
        <ele>107</ele>
        <time>2012-03-23T12:02:25Z</time>
      </trkpt>
      <trkpt lat="48.24584" lon="0.66005">
        <ele>107</ele>
        <time>2012-03-23T12:02:27Z</time>
      </trkpt>
      <trkpt lat="48.24583" lon="0.66009">
        <ele>107</ele>
        <time>2012-03-23T12:02:29Z</time>
      </trkpt>
      <trkpt lat="48.24582" lon="0.66012">
        <ele>107</ele>
        <time>2012-03-23T12:02:31Z</time>
      </trkpt>
      <trkpt lat="48.24581" lon="0.66017">
        <ele>107</ele>
        <time>2012-03-23T12:02:34Z</time>
      </trkpt>
      <trkpt lat="48.2458" lon="0.66022">
        <ele>107</ele>
        <time>2012-03-23T12:02:37Z</time>
      </trkpt>
      <trkpt lat="48.24579" lon="0.66028">
        <ele>107</ele>
        <time>2012-03-23T12:02:41Z</time>
      </trkpt>
      <trkpt lat="48.24577" lon="0.66031">
        <ele>107</ele>
        <time>2012-03-23T12:02:44Z</time>
      </trkpt>
      <trkpt lat="48.24575" lon="0.66031">
        <ele>107</ele>
        <time>2012-03-23T12:02:47Z</time>
      </trkpt>
      <trkpt lat="48.24571" lon="0.6603">
        <ele>107</ele>
        <time>2012-03-23T12:02:51Z</time>
      </trkpt>
      <trkpt lat="48.24567" lon="0.6603">
        <ele>107</ele>
        <time>2012-03-23T12:02:55Z</time>
      </trkpt>
      <trkpt lat="48.24563" lon="0.66029">
        <ele>107</ele>
        <time>2012-03-23T12:02:58Z</time>
      </trkpt>
      <trkpt lat="48.2456" lon="0.6603">
        <ele>107</ele>
        <time>2012-03-23T12:03:01Z</time>
      </trkpt>
      <trkpt lat="48.24556" lon="0.66029">
        <ele>107</ele>
        <time>2012-03-23T12:03:04Z</time>
      </trkpt>
      <trkpt lat="48.24553" lon="0.66028">
        <ele>107</ele>
        <time>2012-03-23T12:03:08Z</time>
      </trkpt>
      <trkpt lat="48.24549" lon="0.66026">
        <ele>107</ele>
        <time>2012-03-23T12:03:11Z</time>
      </trkpt>
      <trkpt lat="48.24546" lon="0.66025">
        <ele>106</ele>
        <time>2012-03-23T12:03:15Z</time>
      </trkpt>
      <trkpt lat="48.24543" lon="0.66025">
        <ele>106</ele>
        <time>2012-03-23T12:03:17Z</time>
      </trkpt>
      <trkpt lat="48.2454" lon="0.66025">
        <ele>106</ele>
        <time>2012-03-23T12:03:19Z</time>
      </trkpt>
      <trkpt lat="48.24538" lon="0.66024">
        <ele>106</ele>
        <time>2012-03-23T12:03:21Z</time>
      </trkpt>
      <trkpt lat="48.24535" lon="0.66022">
        <ele>104</ele>
        <time>2012-03-23T12:03:25Z</time>
      </trkpt>
      <trkpt lat="48.24531" lon="0.6602">
        <ele>103</ele>
        <time>2012-03-23T12:03:29Z</time>
      </trkpt>
      <trkpt lat="48.24527" lon="0.66019">
        <ele>102</ele>
        <time>2012-03-23T12:03:32Z</time>
      </trkpt>
      <trkpt lat="48.24524" lon="0.66017">
        <ele>102</ele>
        <time>2012-03-23T12:03:36Z</time>
      </trkpt>
      <trkpt lat="48.2452" lon="0.66015">
        <ele>102</ele>
        <time>2012-03-23T12:03:40Z</time>
      </trkpt>
      <trkpt lat="48.24517" lon="0.66016">
        <ele>102</ele>
        <time>2012-03-23T12:03:43Z</time>
      </trkpt>
      <trkpt lat="48.24514" lon="0.66016">
        <ele>102</ele>
        <time>2012-03-23T12:03:45Z</time>
      </trkpt>
      <trkpt lat="48.24511" lon="0.66015">
        <ele>102</ele>
        <time>2012-03-23T12:03:48Z</time>
      </trkpt>
      <trkpt lat="48.24508" lon="0.66015">
        <ele>102</ele>
        <time>2012-03-23T12:03:51Z</time>
      </trkpt>
      <trkpt lat="48.24505" lon="0.66014">
        <ele>102</ele>
        <time>2012-03-23T12:03:54Z</time>
      </trkpt>
      <trkpt lat="48.24502" lon="0.66015">
        <ele>102</ele>
        <time>2012-03-23T12:03:57Z</time>
      </trkpt>
      <trkpt lat="48.24499" lon="0.66015">
        <ele>103</ele>
        <time>2012-03-23T12:04:01Z</time>
      </trkpt>
      <trkpt lat="48.24496" lon="0.66016">
        <ele>103</ele>
        <time>2012-03-23T12:04:05Z</time>
      </trkpt>
      <trkpt lat="48.24494" lon="0.66016">
        <ele>105</ele>
        <time>2012-03-23T12:04:11Z</time>
      </trkpt>
      <trkpt lat="48.24491" lon="0.66013">
        <ele>107</ele>
        <time>2012-03-23T12:04:20Z</time>
      </trkpt>
      <trkpt lat="48.24488" lon="0.66013">
        <ele>107</ele>
        <time>2012-03-23T12:04:27Z</time>
      </trkpt>
      <trkpt lat="48.24485" lon="0.66013">
        <ele>107</ele>
        <time>2012-03-23T12:04:31Z</time>
      </trkpt>
      <trkpt lat="48.24482" lon="0.66014">
        <ele>107</ele>
        <time>2012-03-23T12:04:35Z</time>
      </trkpt>
      <trkpt lat="48.24479" lon="0.66014">
        <ele>109</ele>
        <time>2012-03-23T12:04:41Z</time>
      </trkpt>
      <trkpt lat="48.24476" lon="0.66013">
        <ele>109</ele>
        <time>2012-03-23T12:04:47Z</time>
      </trkpt>
      <trkpt lat="48.24473" lon="0.66016">
        <ele>112</ele>
        <time>2012-03-23T12:04:58Z</time>
      </trkpt>
      <trkpt lat="48.2447" lon="0.66016">
        <ele>114</ele>
        <time>2012-03-23T12:05:09Z</time>
      </trkpt>
      <trkpt lat="48.24468" lon="0.66015">
        <ele>114</ele>
        <time>2012-03-23T12:05:13Z</time>
      </trkpt>
      <trkpt lat="48.24465" lon="0.66016">
        <ele>114</ele>
        <time>2012-03-23T12:05:20Z</time>
      </trkpt>
      <trkpt lat="48.24462" lon="0.66017">
        <ele>114</ele>
        <time>2012-03-23T12:05:26Z</time>
      </trkpt>
      <trkpt lat="48.24458" lon="0.66016">
        <ele>114</ele>
        <time>2012-03-23T12:05:30Z</time>
      </trkpt>
      <trkpt lat="48.24454" lon="0.66015">
        <ele>114</ele>
        <time>2012-03-23T12:05:34Z</time>
      </trkpt>
      <trkpt lat="48.2445" lon="0.66015">
        <ele>113</ele>
        <time>2012-03-23T12:05:38Z</time>
      </trkpt>
      <trkpt lat="48.24446" lon="0.66013">
        <ele>112</ele>
        <time>2012-03-23T12:05:42Z</time>
      </trkpt>
      <trkpt lat="48.24442" lon="0.6601">
        <ele>111</ele>
        <time>2012-03-23T12:05:46Z</time>
      </trkpt>
      <trkpt lat="48.24438" lon="0.6601">
        <ele>110</ele>
        <time>2012-03-23T12:05:50Z</time>
      </trkpt>
      <trkpt lat="48.24435" lon="0.6601">
        <ele>109</ele>
        <time>2012-03-23T12:05:54Z</time>
      </trkpt>
      <trkpt lat="48.24432" lon="0.66009">
        <ele>109</ele>
        <time>2012-03-23T12:05:58Z</time>
      </trkpt>
      <trkpt lat="48.24427" lon="0.66007">
        <ele>109</ele>
        <time>2012-03-23T12:06:02Z</time>
      </trkpt>
      <trkpt lat="48.24424" lon="0.66007">
        <ele>109</ele>
        <time>2012-03-23T12:06:05Z</time>
      </trkpt>
      <trkpt lat="48.24421" lon="0.66009">
        <ele>109</ele>
        <time>2012-03-23T12:06:08Z</time>
      </trkpt>
      <trkpt lat="48.24418" lon="0.6601">
        <ele>109</ele>
        <time>2012-03-23T12:06:12Z</time>
      </trkpt>
      <trkpt lat="48.24414" lon="0.66008">
        <ele>109</ele>
        <time>2012-03-23T12:06:15Z</time>
      </trkpt>
      <trkpt lat="48.24411" lon="0.66007">
        <ele>109</ele>
        <time>2012-03-23T12:06:19Z</time>
      </trkpt>
      <trkpt lat="48.24408" lon="0.66007">
        <ele>109</ele>
        <time>2012-03-23T12:06:23Z</time>
      </trkpt>
      <trkpt lat="48.24404" lon="0.66006">
        <ele>109</ele>
        <time>2012-03-23T12:06:27Z</time>
      </trkpt>
      <trkpt lat="48.24401" lon="0.66005">
        <ele>109</ele>
        <time>2012-03-23T12:06:31Z</time>
      </trkpt>
      <trkpt lat="48.24398" lon="0.66004">
        <ele>109</ele>
        <time>2012-03-23T12:06:35Z</time>
      </trkpt>
      <trkpt lat="48.24394" lon="0.66001">
        <ele>109</ele>
        <time>2012-03-23T12:06:38Z</time>
      </trkpt>
      <trkpt lat="48.24392" lon="0.66">
        <ele>112</ele>
        <time>2012-03-23T12:06:42Z</time>
      </trkpt>
      <trkpt lat="48.24388" lon="0.65998">
        <ele>113</ele>
        <time>2012-03-23T12:06:45Z</time>
      </trkpt>
      <trkpt lat="48.24385" lon="0.65994">
        <ele>113</ele>
        <time>2012-03-23T12:06:49Z</time>
      </trkpt>
      <trkpt lat="48.24381" lon="0.65991">
        <ele>113</ele>
        <time>2012-03-23T12:06:53Z</time>
      </trkpt>
      <trkpt lat="48.24379" lon="0.65988">
        <ele>113</ele>
        <time>2012-03-23T12:06:55Z</time>
      </trkpt>
      <trkpt lat="48.24376" lon="0.65986">
        <ele>113</ele>
        <time>2012-03-23T12:06:57Z</time>
      </trkpt>
      <trkpt lat="48.24372" lon="0.65983">
        <ele>114</ele>
        <time>2012-03-23T12:07:00Z</time>
      </trkpt>
      <trkpt lat="48.2437" lon="0.65981">
        <ele>115</ele>
        <time>2012-03-23T12:07:02Z</time>
      </trkpt>
      <trkpt lat="48.24368" lon="0.65979">
        <ele>116</ele>
        <time>2012-03-23T12:07:04Z</time>
      </trkpt>
      <trkpt lat="48.24364" lon="0.65976">
        <ele>117</ele>
        <time>2012-03-23T12:07:08Z</time>
      </trkpt>
      <trkpt lat="48.24361" lon="0.65975">
        <ele>117</ele>
        <time>2012-03-23T12:07:10Z</time>
      </trkpt>
      <trkpt lat="48.24358" lon="0.65973">
        <ele>117</ele>
        <time>2012-03-23T12:07:13Z</time>
      </trkpt>
      <trkpt lat="48.24355" lon="0.65971">
        <ele>117</ele>
        <time>2012-03-23T12:07:15Z</time>
      </trkpt>
      <trkpt lat="48.24353" lon="0.65969">
        <ele>118</ele>
        <time>2012-03-23T12:07:18Z</time>
      </trkpt>
      <trkpt lat="48.24349" lon="0.65966">
        <ele>119</ele>
        <time>2012-03-23T12:07:22Z</time>
      </trkpt>
      <trkpt lat="48.24346" lon="0.65965">
        <ele>120</ele>
        <time>2012-03-23T12:07:26Z</time>
      </trkpt>
      <trkpt lat="48.24342" lon="0.65962">
        <ele>120</ele>
        <time>2012-03-23T12:07:30Z</time>
      </trkpt>
      <trkpt lat="48.24339" lon="0.65959">
        <ele>120</ele>
        <time>2012-03-23T12:07:34Z</time>
      </trkpt>
      <trkpt lat="48.24335" lon="0.65956">
        <ele>120</ele>
        <time>2012-03-23T12:07:38Z</time>
      </trkpt>
      <trkpt lat="48.24332" lon="0.65955">
        <ele>120</ele>
        <time>2012-03-23T12:07:41Z</time>
      </trkpt>
      <trkpt lat="48.24329" lon="0.65954">
        <ele>120</ele>
        <time>2012-03-23T12:07:44Z</time>
      </trkpt>
      <trkpt lat="48.24326" lon="0.65953">
        <ele>120</ele>
        <time>2012-03-23T12:07:47Z</time>
      </trkpt>
      <trkpt lat="48.24323" lon="0.65949">
        <ele>121</ele>
        <time>2012-03-23T12:07:51Z</time>
      </trkpt>
      <trkpt lat="48.24319" lon="0.65944">
        <ele>122</ele>
        <time>2012-03-23T12:07:55Z</time>
      </trkpt>
      <trkpt lat="48.24315" lon="0.65942">
        <ele>122</ele>
        <time>2012-03-23T12:07:59Z</time>
      </trkpt>
      <trkpt lat="48.24312" lon="0.65939">
        <ele>122</ele>
        <time>2012-03-23T12:08:03Z</time>
      </trkpt>
      <trkpt lat="48.24308" lon="0.65935">
        <ele>122</ele>
        <time>2012-03-23T12:08:07Z</time>
      </trkpt>
      <trkpt lat="48.24305" lon="0.65931">
        <ele>122</ele>
        <time>2012-03-23T12:08:11Z</time>
      </trkpt>
      <trkpt lat="48.24301" lon="0.65929">
        <ele>122</ele>
        <time>2012-03-23T12:08:15Z</time>
      </trkpt>
      <trkpt lat="48.24297" lon="0.65927">
        <ele>122</ele>
        <time>2012-03-23T12:08:18Z</time>
      </trkpt>
      <trkpt lat="48.24294" lon="0.65923">
        <ele>123</ele>
        <time>2012-03-23T12:08:22Z</time>
      </trkpt>
      <trkpt lat="48.24291" lon="0.6592">
        <ele>123</ele>
        <time>2012-03-23T12:08:26Z</time>
      </trkpt>
      <trkpt lat="48.24287" lon="0.65915">
        <ele>123</ele>
        <time>2012-03-23T12:08:30Z</time>
      </trkpt>
      <trkpt lat="48.24284" lon="0.65912">
        <ele>123</ele>
        <time>2012-03-23T12:08:34Z</time>
      </trkpt>
      <trkpt lat="48.24281" lon="0.65908">
        <ele>123</ele>
        <time>2012-03-23T12:08:38Z</time>
      </trkpt>
      <trkpt lat="48.24278" lon="0.65906">
        <ele>123</ele>
        <time>2012-03-23T12:08:41Z</time>
      </trkpt>
      <trkpt lat="48.24276" lon="0.65901">
        <ele>123</ele>
        <time>2012-03-23T12:08:45Z</time>
      </trkpt>
      <trkpt lat="48.24273" lon="0.65898">
        <ele>123</ele>
        <time>2012-03-23T12:08:49Z</time>
      </trkpt>
      <trkpt lat="48.24269" lon="0.65895">
        <ele>123</ele>
        <time>2012-03-23T12:08:53Z</time>
      </trkpt>
      <trkpt lat="48.24265" lon="0.65893">
        <ele>123</ele>
        <time>2012-03-23T12:08:57Z</time>
      </trkpt>
      <trkpt lat="48.24262" lon="0.6589">
        <ele>123</ele>
        <time>2012-03-23T12:09:01Z</time>
      </trkpt>
      <trkpt lat="48.24259" lon="0.65888">
        <ele>123</ele>
        <time>2012-03-23T12:09:05Z</time>
      </trkpt>
      <trkpt lat="48.24257" lon="0.65887">
        <ele>123</ele>
        <time>2012-03-23T12:09:07Z</time>
      </trkpt>
      <trkpt lat="48.24253" lon="0.65882">
        <ele>123</ele>
        <time>2012-03-23T12:09:11Z</time>
      </trkpt>
      <trkpt lat="48.24251" lon="0.65878">
        <ele>123</ele>
        <time>2012-03-23T12:09:15Z</time>
      </trkpt>
      <trkpt lat="48.24248" lon="0.65876">
        <ele>123</ele>
        <time>2012-03-23T12:09:18Z</time>
      </trkpt>
      <trkpt lat="48.24245" lon="0.65873">
        <ele>123</ele>
        <time>2012-03-23T12:09:22Z</time>
      </trkpt>
      <trkpt lat="48.24243" lon="0.65871">
        <ele>123</ele>
        <time>2012-03-23T12:09:26Z</time>
      </trkpt>
      <trkpt lat="48.2424" lon="0.65868">
        <ele>123</ele>
        <time>2012-03-23T12:09:31Z</time>
      </trkpt>
      <trkpt lat="48.24237" lon="0.65867">
        <ele>123</ele>
        <time>2012-03-23T12:09:37Z</time>
      </trkpt>
      <trkpt lat="48.24234" lon="0.65866">
        <ele>123</ele>
        <time>2012-03-23T12:09:40Z</time>
      </trkpt>
      <trkpt lat="48.2423" lon="0.65866">
        <ele>126</ele>
        <time>2012-03-23T12:09:44Z</time>
      </trkpt>
      <trkpt lat="48.24228" lon="0.65866">
        <ele>127</ele>
        <time>2012-03-23T12:09:46Z</time>
      </trkpt>
      <trkpt lat="48.24224" lon="0.65868">
        <ele>129</ele>
        <time>2012-03-23T12:09:50Z</time>
      </trkpt>
      <trkpt lat="48.24221" lon="0.65873">
        <ele>130</ele>
        <time>2012-03-23T12:09:54Z</time>
      </trkpt>
      <trkpt lat="48.24218" lon="0.65878">
        <ele>130</ele>
        <time>2012-03-23T12:09:58Z</time>
      </trkpt>
      <trkpt lat="48.24216" lon="0.65883">
        <ele>130</ele>
        <time>2012-03-23T12:10:01Z</time>
      </trkpt>
      <trkpt lat="48.24216" lon="0.65887">
        <ele>131</ele>
        <time>2012-03-23T12:10:03Z</time>
      </trkpt>
      <trkpt lat="48.24215" lon="0.65891">
        <ele>131</ele>
        <time>2012-03-23T12:10:06Z</time>
      </trkpt>
      <trkpt lat="48.24215" lon="0.65896">
        <ele>131</ele>
        <time>2012-03-23T12:10:10Z</time>
      </trkpt>
      <trkpt lat="48.24214" lon="0.65902">
        <ele>131</ele>
        <time>2012-03-23T12:10:14Z</time>
      </trkpt>
      <trkpt lat="48.24214" lon="0.65907">
        <ele>131</ele>
        <time>2012-03-23T12:10:18Z</time>
      </trkpt>
      <trkpt lat="48.24212" lon="0.65911">
        <ele>131</ele>
        <time>2012-03-23T12:10:22Z</time>
      </trkpt>
      <trkpt lat="48.24211" lon="0.65915">
        <ele>131</ele>
        <time>2012-03-23T12:10:27Z</time>
      </trkpt>
      <trkpt lat="48.24209" lon="0.65918">
        <ele>131</ele>
        <time>2012-03-23T12:10:32Z</time>
      </trkpt>
      <trkpt lat="48.24206" lon="0.65921">
        <ele>131</ele>
        <time>2012-03-23T12:10:35Z</time>
      </trkpt>
      <trkpt lat="48.24203" lon="0.65921">
        <ele>131</ele>
        <time>2012-03-23T12:10:37Z</time>
      </trkpt>
      <trkpt lat="48.242" lon="0.65922">
        <ele>131</ele>
        <time>2012-03-23T12:10:40Z</time>
      </trkpt>
      <trkpt lat="48.24196" lon="0.65921">
        <ele>131</ele>
        <time>2012-03-23T12:10:43Z</time>
      </trkpt>
      <trkpt lat="48.24192" lon="0.6592">
        <ele>131</ele>
        <time>2012-03-23T12:10:46Z</time>
      </trkpt>
      <trkpt lat="48.2419" lon="0.65919">
        <ele>131</ele>
        <time>2012-03-23T12:10:48Z</time>
      </trkpt>
      <trkpt lat="48.24188" lon="0.65917">
        <ele>131</ele>
        <time>2012-03-23T12:10:50Z</time>
      </trkpt>
      <trkpt lat="48.24184" lon="0.65916">
        <ele>131</ele>
        <time>2012-03-23T12:10:53Z</time>
      </trkpt>
      <trkpt lat="48.24182" lon="0.65915">
        <ele>131</ele>
        <time>2012-03-23T12:10:55Z</time>
      </trkpt>
      <trkpt lat="48.24178" lon="0.65913">
        <ele>131</ele>
        <time>2012-03-23T12:10:58Z</time>
      </trkpt>
      <trkpt lat="48.24174" lon="0.65911">
        <ele>131</ele>
        <time>2012-03-23T12:11:02Z</time>
      </trkpt>
      <trkpt lat="48.24172" lon="0.6591">
        <ele>131</ele>
        <time>2012-03-23T12:11:04Z</time>
      </trkpt>
      <trkpt lat="48.24169" lon="0.65908">
        <ele>131</ele>
        <time>2012-03-23T12:11:07Z</time>
      </trkpt>
      <trkpt lat="48.24166" lon="0.65909">
        <ele>131</ele>
        <time>2012-03-23T12:11:09Z</time>
      </trkpt>
      <trkpt lat="48.24163" lon="0.65907">
        <ele>131</ele>
        <time>2012-03-23T12:11:12Z</time>
      </trkpt>
      <trkpt lat="48.2416" lon="0.65908">
        <ele>131</ele>
        <time>2012-03-23T12:11:15Z</time>
      </trkpt>
      <trkpt lat="48.24158" lon="0.65908">
        <ele>131</ele>
        <time>2012-03-23T12:11:17Z</time>
      </trkpt>
      <trkpt lat="48.24154" lon="0.65909">
        <ele>131</ele>
        <time>2012-03-23T12:11:20Z</time>
      </trkpt>
      <trkpt lat="48.24151" lon="0.6591">
        <ele>131</ele>
        <time>2012-03-23T12:11:23Z</time>
      </trkpt>
      <trkpt lat="48.24147" lon="0.65913">
        <ele>131</ele>
        <time>2012-03-23T12:11:26Z</time>
      </trkpt>
      <trkpt lat="48.24144" lon="0.65915">
        <ele>131</ele>
        <time>2012-03-23T12:11:29Z</time>
      </trkpt>
      <trkpt lat="48.24141" lon="0.65918">
        <ele>131</ele>
        <time>2012-03-23T12:11:32Z</time>
      </trkpt>
      <trkpt lat="48.24136" lon="0.6592">
        <ele>131</ele>
        <time>2012-03-23T12:11:36Z</time>
      </trkpt>
      <trkpt lat="48.24134" lon="0.65921">
        <ele>131</ele>
        <time>2012-03-23T12:11:38Z</time>
      </trkpt>
      <trkpt lat="48.2413" lon="0.65926">
        <ele>131</ele>
        <time>2012-03-23T12:11:42Z</time>
      </trkpt>
      <trkpt lat="48.24126" lon="0.65929">
        <ele>131</ele>
        <time>2012-03-23T12:11:46Z</time>
      </trkpt>
      <trkpt lat="48.24121" lon="0.6593">
        <ele>131</ele>
        <time>2012-03-23T12:11:50Z</time>
      </trkpt>
      <trkpt lat="48.24118" lon="0.6593">
        <ele>131</ele>
        <time>2012-03-23T12:11:54Z</time>
      </trkpt>
      <trkpt lat="48.24114" lon="0.6593">
        <ele>131</ele>
        <time>2012-03-23T12:11:58Z</time>
      </trkpt>
      <trkpt lat="48.2411" lon="0.6593">
        <ele>130</ele>
        <time>2012-03-23T12:12:01Z</time>
      </trkpt>
      <trkpt lat="48.24108" lon="0.6593">
        <ele>129</ele>
        <time>2012-03-23T12:12:03Z</time>
      </trkpt>
      <trkpt lat="48.24104" lon="0.65929">
        <ele>128</ele>
        <time>2012-03-23T12:12:07Z</time>
      </trkpt>
      <trkpt lat="48.24101" lon="0.65927">
        <ele>128</ele>
        <time>2012-03-23T12:12:10Z</time>
      </trkpt>
      <trkpt lat="48.24098" lon="0.65927">
        <ele>127</ele>
        <time>2012-03-23T12:12:12Z</time>
      </trkpt>
      <trkpt lat="48.24095" lon="0.65927">
        <ele>126</ele>
        <time>2012-03-23T12:12:15Z</time>
      </trkpt>
      <trkpt lat="48.24092" lon="0.65926">
        <ele>126</ele>
        <time>2012-03-23T12:12:18Z</time>
      </trkpt>
      <trkpt lat="48.24089" lon="0.65925">
        <ele>126</ele>
        <time>2012-03-23T12:12:21Z</time>
      </trkpt>
      <trkpt lat="48.24086" lon="0.65923">
        <ele>126</ele>
        <time>2012-03-23T12:12:23Z</time>
      </trkpt>
      <trkpt lat="48.24083" lon="0.65922">
        <ele>126</ele>
        <time>2012-03-23T12:12:26Z</time>
      </trkpt>
      <trkpt lat="48.2408" lon="0.65921">
        <ele>126</ele>
        <time>2012-03-23T12:12:28Z</time>
      </trkpt>
      <trkpt lat="48.24076" lon="0.65918">
        <ele>126</ele>
        <time>2012-03-23T12:12:32Z</time>
      </trkpt>
      <trkpt lat="48.24073" lon="0.65915">
        <ele>126</ele>
        <time>2012-03-23T12:12:36Z</time>
      </trkpt>
      <trkpt lat="48.24069" lon="0.65915">
        <ele>126</ele>
        <time>2012-03-23T12:12:40Z</time>
      </trkpt>
      <trkpt lat="48.24065" lon="0.65912">
        <ele>125</ele>
        <time>2012-03-23T12:12:44Z</time>
      </trkpt>
      <trkpt lat="48.24062" lon="0.6591">
        <ele>125</ele>
        <time>2012-03-23T12:12:46Z</time>
      </trkpt>
      <trkpt lat="48.2406" lon="0.65908">
        <ele>125</ele>
        <time>2012-03-23T12:12:48Z</time>
      </trkpt>
      <trkpt lat="48.24056" lon="0.65905">
        <ele>125</ele>
        <time>2012-03-23T12:12:52Z</time>
      </trkpt>
      <trkpt lat="48.24052" lon="0.65902">
        <ele>125</ele>
        <time>2012-03-23T12:12:56Z</time>
      </trkpt>
      <trkpt lat="48.24049" lon="0.65899">
        <ele>125</ele>
        <time>2012-03-23T12:13:00Z</time>
      </trkpt>
      <trkpt lat="48.24045" lon="0.65897">
        <ele>125</ele>
        <time>2012-03-23T12:13:03Z</time>
      </trkpt>
      <trkpt lat="48.24042" lon="0.65898">
        <ele>125</ele>
        <time>2012-03-23T12:13:05Z</time>
      </trkpt>
      <trkpt lat="48.24039" lon="0.65896">
        <ele>125</ele>
        <time>2012-03-23T12:13:07Z</time>
      </trkpt>
      <trkpt lat="48.24037" lon="0.65896">
        <ele>125</ele>
        <time>2012-03-23T12:13:09Z</time>
      </trkpt>
      <trkpt lat="48.24034" lon="0.65895">
        <ele>126</ele>
        <time>2012-03-23T12:13:11Z</time>
      </trkpt>
      <trkpt lat="48.24032" lon="0.65895">
        <ele>127</ele>
        <time>2012-03-23T12:13:13Z</time>
      </trkpt>
      <trkpt lat="48.24029" lon="0.65892">
        <ele>127</ele>
        <time>2012-03-23T12:13:17Z</time>
      </trkpt>
      <trkpt lat="48.24027" lon="0.6589">
        <ele>127</ele>
        <time>2012-03-23T12:13:21Z</time>
      </trkpt>
      <trkpt lat="48.24024" lon="0.65888">
        <ele>127</ele>
        <time>2012-03-23T12:13:25Z</time>
      </trkpt>
      <trkpt lat="48.2402" lon="0.65885">
        <ele>127</ele>
        <time>2012-03-23T12:13:29Z</time>
      </trkpt>
      <trkpt lat="48.24017" lon="0.65881">
        <ele>127</ele>
        <time>2012-03-23T12:13:33Z</time>
      </trkpt>
      <trkpt lat="48.24015" lon="0.65877">
        <ele>127</ele>
        <time>2012-03-23T12:13:37Z</time>
      </trkpt>
      <trkpt lat="48.24012" lon="0.65873">
        <ele>127</ele>
        <time>2012-03-23T12:13:41Z</time>
      </trkpt>
      <trkpt lat="48.24009" lon="0.65869">
        <ele>127</ele>
        <time>2012-03-23T12:13:46Z</time>
      </trkpt>
      <trkpt lat="48.24007" lon="0.65865">
        <ele>125</ele>
        <time>2012-03-23T12:13:51Z</time>
      </trkpt>
      <trkpt lat="48.24005" lon="0.65861">
        <ele>125</ele>
        <time>2012-03-23T12:13:55Z</time>
      </trkpt>
      <trkpt lat="48.24002" lon="0.65857">
        <ele>125</ele>
        <time>2012-03-23T12:13:59Z</time>
      </trkpt>
      <trkpt lat="48.23999" lon="0.65853">
        <ele>124</ele>
        <time>2012-03-23T12:14:03Z</time>
      </trkpt>
      <trkpt lat="48.23997" lon="0.65848">
        <ele>124</ele>
        <time>2012-03-23T12:14:07Z</time>
      </trkpt>
      <trkpt lat="48.23993" lon="0.65844">
        <ele>124</ele>
        <time>2012-03-23T12:14:11Z</time>
      </trkpt>
      <trkpt lat="48.23991" lon="0.65841">
        <ele>124</ele>
        <time>2012-03-23T12:14:15Z</time>
      </trkpt>
      <trkpt lat="48.23987" lon="0.65838">
        <ele>124</ele>
        <time>2012-03-23T12:14:19Z</time>
      </trkpt>
      <trkpt lat="48.23984" lon="0.65836">
        <ele>124</ele>
        <time>2012-03-23T12:14:24Z</time>
      </trkpt>
      <trkpt lat="48.23981" lon="0.65831">
        <ele>124</ele>
        <time>2012-03-23T12:14:28Z</time>
      </trkpt>
      <trkpt lat="48.23978" lon="0.65828">
        <ele>124</ele>
        <time>2012-03-23T12:14:31Z</time>
      </trkpt>
      <trkpt lat="48.23975" lon="0.65822">
        <ele>124</ele>
        <time>2012-03-23T12:14:35Z</time>
      </trkpt>
      <trkpt lat="48.23971" lon="0.65818">
        <ele>124</ele>
        <time>2012-03-23T12:14:39Z</time>
      </trkpt>
      <trkpt lat="48.23969" lon="0.65816">
        <ele>124</ele>
        <time>2012-03-23T12:14:41Z</time>
      </trkpt>
      <trkpt lat="48.23965" lon="0.65812">
        <ele>124</ele>
        <time>2012-03-23T12:14:45Z</time>
      </trkpt>
      <trkpt lat="48.23961" lon="0.65809">
        <ele>124</ele>
        <time>2012-03-23T12:14:49Z</time>
      </trkpt>
      <trkpt lat="48.23959" lon="0.65807">
        <ele>124</ele>
        <time>2012-03-23T12:14:51Z</time>
      </trkpt>
      <trkpt lat="48.23956" lon="0.65807">
        <ele>124</ele>
        <time>2012-03-23T12:14:53Z</time>
      </trkpt>
      <trkpt lat="48.23951" lon="0.65804">
        <ele>124</ele>
        <time>2012-03-23T12:14:57Z</time>
      </trkpt>
      <trkpt lat="48.23948" lon="0.658">
        <ele>124</ele>
        <time>2012-03-23T12:15:01Z</time>
      </trkpt>
      <trkpt lat="48.23946" lon="0.65797">
        <ele>124</ele>
        <time>2012-03-23T12:15:04Z</time>
      </trkpt>
      <trkpt lat="48.23942" lon="0.65792">
        <ele>124</ele>
        <time>2012-03-23T12:15:08Z</time>
      </trkpt>
      <trkpt lat="48.23939" lon="0.65788">
        <ele>124</ele>
        <time>2012-03-23T12:15:12Z</time>
      </trkpt>
      <trkpt lat="48.23936" lon="0.65783">
        <ele>124</ele>
        <time>2012-03-23T12:15:16Z</time>
      </trkpt>
      <trkpt lat="48.23933" lon="0.65779">
        <ele>124</ele>
        <time>2012-03-23T12:15:20Z</time>
      </trkpt>
      <trkpt lat="48.2393" lon="0.65775">
        <ele>124</ele>
        <time>2012-03-23T12:15:24Z</time>
      </trkpt>
      <trkpt lat="48.23928" lon="0.65772">
        <ele>124</ele>
        <time>2012-03-23T12:15:28Z</time>
      </trkpt>
      <trkpt lat="48.23925" lon="0.65768">
        <ele>124</ele>
        <time>2012-03-23T12:15:33Z</time>
      </trkpt>
      <trkpt lat="48.23922" lon="0.65764">
        <ele>124</ele>
        <time>2012-03-23T12:15:37Z</time>
      </trkpt>
      <trkpt lat="48.23919" lon="0.6576">
        <ele>124</ele>
        <time>2012-03-23T12:15:41Z</time>
      </trkpt>
      <trkpt lat="48.23915" lon="0.65759">
        <ele>124</ele>
        <time>2012-03-23T12:15:45Z</time>
      </trkpt>
      <trkpt lat="48.23912" lon="0.65762">
        <ele>124</ele>
        <time>2012-03-23T12:15:48Z</time>
      </trkpt>
      <trkpt lat="48.23909" lon="0.65762">
        <ele>124</ele>
        <time>2012-03-23T12:15:52Z</time>
      </trkpt>
      <trkpt lat="48.23906" lon="0.65763">
        <ele>124</ele>
        <time>2012-03-23T12:15:56Z</time>
      </trkpt>
      <trkpt lat="48.23904" lon="0.65766">
        <ele>123</ele>
        <time>2012-03-23T12:16:00Z</time>
      </trkpt>
      <trkpt lat="48.239" lon="0.65771">
        <ele>122</ele>
        <time>2012-03-23T12:16:03Z</time>
      </trkpt>
      <trkpt lat="48.23898" lon="0.65774">
        <ele>122</ele>
        <time>2012-03-23T12:16:06Z</time>
      </trkpt>
      <trkpt lat="48.23896" lon="0.65779">
        <ele>122</ele>
        <time>2012-03-23T12:16:09Z</time>
      </trkpt>
      <trkpt lat="48.23893" lon="0.65783">
        <ele>122</ele>
        <time>2012-03-23T12:16:12Z</time>
      </trkpt>
      <trkpt lat="48.23889" lon="0.65786">
        <ele>122</ele>
        <time>2012-03-23T12:16:15Z</time>
      </trkpt>
      <trkpt lat="48.23886" lon="0.65789">
        <ele>121</ele>
        <time>2012-03-23T12:16:20Z</time>
      </trkpt>
      <trkpt lat="48.23883" lon="0.65792">
        <ele>121</ele>
        <time>2012-03-23T12:16:24Z</time>
      </trkpt>
      <trkpt lat="48.2388" lon="0.65796">
        <ele>121</ele>
        <time>2012-03-23T12:16:27Z</time>
      </trkpt>
      <trkpt lat="48.23877" lon="0.658">
        <ele>121</ele>
        <time>2012-03-23T12:16:30Z</time>
      </trkpt>
      <trkpt lat="48.23873" lon="0.65803">
        <ele>120</ele>
        <time>2012-03-23T12:16:33Z</time>
      </trkpt>
      <trkpt lat="48.2387" lon="0.65805">
        <ele>119</ele>
        <time>2012-03-23T12:16:35Z</time>
      </trkpt>
      <trkpt lat="48.23868" lon="0.65805">
        <ele>119</ele>
        <time>2012-03-23T12:16:37Z</time>
      </trkpt>
      <trkpt lat="48.23865" lon="0.65807">
        <ele>119</ele>
        <time>2012-03-23T12:16:40Z</time>
      </trkpt>
      <trkpt lat="48.23862" lon="0.65809">
        <ele>119</ele>
        <time>2012-03-23T12:16:42Z</time>
      </trkpt>
      <trkpt lat="48.23859" lon="0.65809">
        <ele>118</ele>
        <time>2012-03-23T12:16:44Z</time>
      </trkpt>
      <trkpt lat="48.23857" lon="0.65808">
        <ele>118</ele>
        <time>2012-03-23T12:16:46Z</time>
      </trkpt>
      <trkpt lat="48.23854" lon="0.65806">
        <ele>117</ele>
        <time>2012-03-23T12:16:49Z</time>
      </trkpt>
      <trkpt lat="48.2385" lon="0.65801">
        <ele>117</ele>
        <time>2012-03-23T12:16:53Z</time>
      </trkpt>
      <trkpt lat="48.23846" lon="0.65797">
        <ele>117</ele>
        <time>2012-03-23T12:16:57Z</time>
      </trkpt>
      <trkpt lat="48.23843" lon="0.65794">
        <ele>117</ele>
        <time>2012-03-23T12:17:01Z</time>
      </trkpt>
      <trkpt lat="48.2384" lon="0.65793">
        <ele>117</ele>
        <time>2012-03-23T12:17:03Z</time>
      </trkpt>
      <trkpt lat="48.23837" lon="0.65791">
        <ele>117</ele>
        <time>2012-03-23T12:17:06Z</time>
      </trkpt>
      <trkpt lat="48.23834" lon="0.6579">
        <ele>117</ele>
        <time>2012-03-23T12:17:08Z</time>
      </trkpt>
      <trkpt lat="48.23831" lon="0.65789">
        <ele>117</ele>
        <time>2012-03-23T12:17:11Z</time>
      </trkpt>
      <trkpt lat="48.23827" lon="0.65789">
        <ele>117</ele>
        <time>2012-03-23T12:17:15Z</time>
      </trkpt>
      <trkpt lat="48.23824" lon="0.6579">
        <ele>117</ele>
        <time>2012-03-23T12:17:17Z</time>
      </trkpt>
      <trkpt lat="48.23822" lon="0.65791">
        <ele>117</ele>
        <time>2012-03-23T12:17:20Z</time>
      </trkpt>
      <trkpt lat="48.23819" lon="0.65792">
        <ele>117</ele>
        <time>2012-03-23T12:17:23Z</time>
      </trkpt>
      <trkpt lat="48.23814" lon="0.65791">
        <ele>116</ele>
        <time>2012-03-23T12:17:27Z</time>
      </trkpt>
      <trkpt lat="48.23812" lon="0.65791">
        <ele>115</ele>
        <time>2012-03-23T12:17:30Z</time>
      </trkpt>
      <trkpt lat="48.23809" lon="0.65791">
        <ele>114</ele>
        <time>2012-03-23T12:17:34Z</time>
      </trkpt>
      <trkpt lat="48.23806" lon="0.65791">
        <ele>113</ele>
        <time>2012-03-23T12:17:38Z</time>
      </trkpt>
      <trkpt lat="48.23802" lon="0.65793">
        <ele>111</ele>
        <time>2012-03-23T12:17:42Z</time>
      </trkpt>
      <trkpt lat="48.23798" lon="0.65793">
        <ele>111</ele>
        <time>2012-03-23T12:17:45Z</time>
      </trkpt>
      <trkpt lat="48.23796" lon="0.65793">
        <ele>111</ele>
        <time>2012-03-23T12:17:47Z</time>
      </trkpt>
      <trkpt lat="48.23793" lon="0.65793">
        <ele>111</ele>
        <time>2012-03-23T12:17:50Z</time>
      </trkpt>
      <trkpt lat="48.2379" lon="0.65792">
        <ele>111</ele>
        <time>2012-03-23T12:17:52Z</time>
      </trkpt>
      <trkpt lat="48.23787" lon="0.65791">
        <ele>111</ele>
        <time>2012-03-23T12:17:54Z</time>
      </trkpt>
      <trkpt lat="48.23785" lon="0.6579">
        <ele>111</ele>
        <time>2012-03-23T12:17:56Z</time>
      </trkpt>
      <trkpt lat="48.23782" lon="0.65788">
        <ele>111</ele>
        <time>2012-03-23T12:17:59Z</time>
      </trkpt>
      <trkpt lat="48.23779" lon="0.65786">
        <ele>111</ele>
        <time>2012-03-23T12:18:01Z</time>
      </trkpt>
      <trkpt lat="48.23777" lon="0.65786">
        <ele>111</ele>
        <time>2012-03-23T12:18:03Z</time>
      </trkpt>
      <trkpt lat="48.23773" lon="0.65785">
        <ele>111</ele>
        <time>2012-03-23T12:18:06Z</time>
      </trkpt>
      <trkpt lat="48.23771" lon="0.65784">
        <ele>111</ele>
        <time>2012-03-23T12:18:08Z</time>
      </trkpt>
      <trkpt lat="48.23768" lon="0.65782">
        <ele>111</ele>
        <time>2012-03-23T12:18:11Z</time>
      </trkpt>
      <trkpt lat="48.23764" lon="0.65781">
        <ele>111</ele>
        <time>2012-03-23T12:18:15Z</time>
      </trkpt>
      <trkpt lat="48.2376" lon="0.65779">
        <ele>111</ele>
        <time>2012-03-23T12:18:18Z</time>
      </trkpt>
      <trkpt lat="48.23756" lon="0.65776">
        <ele>111</ele>
        <time>2012-03-23T12:18:22Z</time>
      </trkpt>
      <trkpt lat="48.23752" lon="0.65772">
        <ele>111</ele>
        <time>2012-03-23T12:18:26Z</time>
      </trkpt>
      <trkpt lat="48.23749" lon="0.65766">
        <ele>110</ele>
        <time>2012-03-23T12:18:30Z</time>
      </trkpt>
      <trkpt lat="48.23746" lon="0.6576">
        <ele>110</ele>
        <time>2012-03-23T12:18:34Z</time>
      </trkpt>
      <trkpt lat="48.23745" lon="0.65757">
        <ele>110</ele>
        <time>2012-03-23T12:18:36Z</time>
      </trkpt>
      <trkpt lat="48.23742" lon="0.65755">
        <ele>110</ele>
        <time>2012-03-23T12:18:38Z</time>
      </trkpt>
      <trkpt lat="48.2374" lon="0.65751">
        <ele>110</ele>
        <time>2012-03-23T12:18:41Z</time>
      </trkpt>
      <trkpt lat="48.23739" lon="0.65747">
        <ele>110</ele>
        <time>2012-03-23T12:18:43Z</time>
      </trkpt>
      <trkpt lat="48.23738" lon="0.65742">
        <ele>110</ele>
        <time>2012-03-23T12:18:46Z</time>
      </trkpt>
      <trkpt lat="48.23738" lon="0.65737">
        <ele>110</ele>
        <time>2012-03-23T12:18:49Z</time>
      </trkpt>
      <trkpt lat="48.23739" lon="0.65733">
        <ele>110</ele>
        <time>2012-03-23T12:18:52Z</time>
      </trkpt>
      <trkpt lat="48.23739" lon="0.65728">
        <ele>110</ele>
        <time>2012-03-23T12:18:54Z</time>
      </trkpt>
      <trkpt lat="48.23739" lon="0.65723">
        <ele>110</ele>
        <time>2012-03-23T12:18:58Z</time>
      </trkpt>
      <trkpt lat="48.23738" lon="0.65718">
        <ele>110</ele>
        <time>2012-03-23T12:19:01Z</time>
      </trkpt>
      <trkpt lat="48.23738" lon="0.65714">
        <ele>110</ele>
        <time>2012-03-23T12:19:03Z</time>
      </trkpt>
      <trkpt lat="48.23738" lon="0.65709">
        <ele>110</ele>
        <time>2012-03-23T12:19:07Z</time>
      </trkpt>
      <trkpt lat="48.23738" lon="0.65705">
        <ele>110</ele>
        <time>2012-03-23T12:19:09Z</time>
      </trkpt>
      <trkpt lat="48.23738" lon="0.65702">
        <ele>110</ele>
        <time>2012-03-23T12:19:11Z</time>
      </trkpt>
      <trkpt lat="48.23737" lon="0.65698">
        <ele>110</ele>
        <time>2012-03-23T12:19:13Z</time>
      </trkpt>
      <trkpt lat="48.23736" lon="0.65694">
        <ele>110</ele>
        <time>2012-03-23T12:19:15Z</time>
      </trkpt>
      <trkpt lat="48.23735" lon="0.6569">
        <ele>110</ele>
        <time>2012-03-23T12:19:17Z</time>
      </trkpt>
      <trkpt lat="48.23734" lon="0.65686">
        <ele>110</ele>
        <time>2012-03-23T12:19:19Z</time>
      </trkpt>
      <trkpt lat="48.23733" lon="0.65683">
        <ele>110</ele>
        <time>2012-03-23T12:19:21Z</time>
      </trkpt>
      <trkpt lat="48.23732" lon="0.65679">
        <ele>110</ele>
        <time>2012-03-23T12:19:23Z</time>
      </trkpt>
      <trkpt lat="48.23732" lon="0.65674">
        <ele>110</ele>
        <time>2012-03-23T12:19:27Z</time>
      </trkpt>
      <trkpt lat="48.2373" lon="0.65669">
        <ele>110</ele>
        <time>2012-03-23T12:19:30Z</time>
      </trkpt>
      <trkpt lat="48.23729" lon="0.65665">
        <ele>110</ele>
        <time>2012-03-23T12:19:32Z</time>
      </trkpt>
      <trkpt lat="48.23728" lon="0.6566">
        <ele>110</ele>
        <time>2012-03-23T12:19:34Z</time>
      </trkpt>
      <trkpt lat="48.23726" lon="0.65656">
        <ele>110</ele>
        <time>2012-03-23T12:19:36Z</time>
      </trkpt>
      <trkpt lat="48.23724" lon="0.65652">
        <ele>110</ele>
        <time>2012-03-23T12:19:38Z</time>
      </trkpt>
      <trkpt lat="48.23721" lon="0.65649">
        <ele>110</ele>
        <time>2012-03-23T12:19:40Z</time>
      </trkpt>
      <trkpt lat="48.23719" lon="0.65648">
        <ele>110</ele>
        <time>2012-03-23T12:19:42Z</time>
      </trkpt>
      <trkpt lat="48.23716" lon="0.65647">
        <ele>110</ele>
        <time>2012-03-23T12:19:44Z</time>
      </trkpt>
      <trkpt lat="48.23713" lon="0.65645">
        <ele>110</ele>
        <time>2012-03-23T12:19:46Z</time>
      </trkpt>
      <trkpt lat="48.23711" lon="0.65643">
        <ele>110</ele>
        <time>2012-03-23T12:19:48Z</time>
      </trkpt>
      <trkpt lat="48.23708" lon="0.65642">
        <ele>110</ele>
        <time>2012-03-23T12:19:50Z</time>
      </trkpt>
      <trkpt lat="48.23705" lon="0.65641">
        <ele>110</ele>
        <time>2012-03-23T12:19:52Z</time>
      </trkpt>
      <trkpt lat="48.23703" lon="0.6564">
        <ele>110</ele>
        <time>2012-03-23T12:19:54Z</time>
      </trkpt>
      <trkpt lat="48.237" lon="0.6564">
        <ele>109</ele>
        <time>2012-03-23T12:19:56Z</time>
      </trkpt>
      <trkpt lat="48.23697" lon="0.6564">
        <ele>109</ele>
        <time>2012-03-23T12:19:58Z</time>
      </trkpt>
      <trkpt lat="48.23694" lon="0.65639">
        <ele>108</ele>
        <time>2012-03-23T12:20:00Z</time>
      </trkpt>
      <trkpt lat="48.23691" lon="0.65636">
        <ele>108</ele>
        <time>2012-03-23T12:20:03Z</time>
      </trkpt>
      <trkpt lat="48.23687" lon="0.65635">
        <ele>107</ele>
        <time>2012-03-23T12:20:07Z</time>
      </trkpt>
      <trkpt lat="48.23684" lon="0.65633">
        <ele>107</ele>
        <time>2012-03-23T12:20:10Z</time>
      </trkpt>
      <trkpt lat="48.23681" lon="0.65632">
        <ele>107</ele>
        <time>2012-03-23T12:20:12Z</time>
      </trkpt>
      <trkpt lat="48.23679" lon="0.65631">
        <ele>107</ele>
        <time>2012-03-23T12:20:14Z</time>
      </trkpt>
      <trkpt lat="48.23676" lon="0.65629">
        <ele>107</ele>
        <time>2012-03-23T12:20:16Z</time>
      </trkpt>
      <trkpt lat="48.23674" lon="0.65628">
        <ele>107</ele>
        <time>2012-03-23T12:20:18Z</time>
      </trkpt>
      <trkpt lat="48.23671" lon="0.65626">
        <ele>107</ele>
        <time>2012-03-23T12:20:21Z</time>
      </trkpt>
      <trkpt lat="48.23668" lon="0.65625">
        <ele>107</ele>
        <time>2012-03-23T12:20:23Z</time>
      </trkpt>
      <trkpt lat="48.23666" lon="0.65623">
        <ele>107</ele>
        <time>2012-03-23T12:20:25Z</time>
      </trkpt>
      <trkpt lat="48.23663" lon="0.65623">
        <ele>107</ele>
        <time>2012-03-23T12:20:27Z</time>
      </trkpt>
      <trkpt lat="48.23661" lon="0.65622">
        <ele>107</ele>
        <time>2012-03-23T12:20:29Z</time>
      </trkpt>
      <trkpt lat="48.23657" lon="0.65621">
        <ele>107</ele>
        <time>2012-03-23T12:20:32Z</time>
      </trkpt>
      <trkpt lat="48.23653" lon="0.65619">
        <ele>107</ele>
        <time>2012-03-23T12:20:35Z</time>
      </trkpt>
      <trkpt lat="48.23651" lon="0.65618">
        <ele>107</ele>
        <time>2012-03-23T12:20:37Z</time>
      </trkpt>
      <trkpt lat="48.23649" lon="0.65617">
        <ele>107</ele>
        <time>2012-03-23T12:20:39Z</time>
      </trkpt>
      <trkpt lat="48.23646" lon="0.65615">
        <ele>107</ele>
        <time>2012-03-23T12:20:41Z</time>
      </trkpt>
      <trkpt lat="48.23644" lon="0.65613">
        <ele>106</ele>
        <time>2012-03-23T12:20:43Z</time>
      </trkpt>
      <trkpt lat="48.2364" lon="0.6561">
        <ele>106</ele>
        <time>2012-03-23T12:20:46Z</time>
      </trkpt>
      <trkpt lat="48.23637" lon="0.65607">
        <ele>106</ele>
        <time>2012-03-23T12:20:49Z</time>
      </trkpt>
      <trkpt lat="48.23635" lon="0.65605">
        <ele>106</ele>
        <time>2012-03-23T12:20:51Z</time>
      </trkpt>
      <trkpt lat="48.23631" lon="0.656">
        <ele>106</ele>
        <time>2012-03-23T12:20:55Z</time>
      </trkpt>
      <trkpt lat="48.23627" lon="0.65597">
        <ele>106</ele>
        <time>2012-03-23T12:20:59Z</time>
      </trkpt>
      <trkpt lat="48.23624" lon="0.65596">
        <ele>106</ele>
        <time>2012-03-23T12:21:01Z</time>
      </trkpt>
      <trkpt lat="48.23622" lon="0.65595">
        <ele>106</ele>
        <time>2012-03-23T12:21:03Z</time>
      </trkpt>
      <trkpt lat="48.2362" lon="0.65593">
        <ele>106</ele>
        <time>2012-03-23T12:21:05Z</time>
      </trkpt>
      <trkpt lat="48.23616" lon="0.65592">
        <ele>106</ele>
        <time>2012-03-23T12:21:08Z</time>
      </trkpt>
      <trkpt lat="48.23614" lon="0.65592">
        <ele>106</ele>
        <time>2012-03-23T12:21:10Z</time>
      </trkpt>
      <trkpt lat="48.23611" lon="0.65591">
        <ele>106</ele>
        <time>2012-03-23T12:21:13Z</time>
      </trkpt>
      <trkpt lat="48.23608" lon="0.65589">
        <ele>106</ele>
        <time>2012-03-23T12:21:16Z</time>
      </trkpt>
      <trkpt lat="48.23605" lon="0.65587">
        <ele>106</ele>
        <time>2012-03-23T12:21:18Z</time>
      </trkpt>
      <trkpt lat="48.23602" lon="0.65586">
        <ele>106</ele>
        <time>2012-03-23T12:21:20Z</time>
      </trkpt>
      <trkpt lat="48.236" lon="0.65585">
        <ele>106</ele>
        <time>2012-03-23T12:21:22Z</time>
      </trkpt>
      <trkpt lat="48.23597" lon="0.65582">
        <ele>106</ele>
        <time>2012-03-23T12:21:25Z</time>
      </trkpt>
      <trkpt lat="48.23593" lon="0.65579">
        <ele>106</ele>
        <time>2012-03-23T12:21:29Z</time>
      </trkpt>
      <trkpt lat="48.23589" lon="0.65577">
        <ele>106</ele>
        <time>2012-03-23T12:21:32Z</time>
      </trkpt>
      <trkpt lat="48.23586" lon="0.65575">
        <ele>106</ele>
        <time>2012-03-23T12:21:35Z</time>
      </trkpt>
      <trkpt lat="48.23581" lon="0.65572">
        <ele>106</ele>
        <time>2012-03-23T12:21:39Z</time>
      </trkpt>
      <trkpt lat="48.23578" lon="0.6557">
        <ele>106</ele>
        <time>2012-03-23T12:21:42Z</time>
      </trkpt>
      <trkpt lat="48.23574" lon="0.65567">
        <ele>106</ele>
        <time>2012-03-23T12:21:46Z</time>
      </trkpt>
      <trkpt lat="48.23571" lon="0.65565">
        <ele>106</ele>
        <time>2012-03-23T12:21:49Z</time>
      </trkpt>
      <trkpt lat="48.23568" lon="0.65564">
        <ele>106</ele>
        <time>2012-03-23T12:21:52Z</time>
      </trkpt>
      <trkpt lat="48.23564" lon="0.65561">
        <ele>106</ele>
        <time>2012-03-23T12:21:56Z</time>
      </trkpt>
      <trkpt lat="48.2356" lon="0.6556">
        <ele>106</ele>
        <time>2012-03-23T12:21:59Z</time>
      </trkpt>
      <trkpt lat="48.23557" lon="0.65557">
        <ele>106</ele>
        <time>2012-03-23T12:22:03Z</time>
      </trkpt>
      <trkpt lat="48.23554" lon="0.65556">
        <ele>106</ele>
        <time>2012-03-23T12:22:05Z</time>
      </trkpt>
      <trkpt lat="48.23551" lon="0.65554">
        <ele>106</ele>
        <time>2012-03-23T12:22:08Z</time>
      </trkpt>
      <trkpt lat="48.23547" lon="0.65552">
        <ele>106</ele>
        <time>2012-03-23T12:22:12Z</time>
      </trkpt>
      <trkpt lat="48.23544" lon="0.65551">
        <ele>106</ele>
        <time>2012-03-23T12:22:14Z</time>
      </trkpt>
      <trkpt lat="48.2354" lon="0.65548">
        <ele>106</ele>
        <time>2012-03-23T12:22:18Z</time>
      </trkpt>
      <trkpt lat="48.23537" lon="0.65547">
        <ele>106</ele>
        <time>2012-03-23T12:22:21Z</time>
      </trkpt>
      <trkpt lat="48.23535" lon="0.65545">
        <ele>106</ele>
        <time>2012-03-23T12:22:23Z</time>
      </trkpt>
      <trkpt lat="48.23531" lon="0.65543">
        <ele>106</ele>
        <time>2012-03-23T12:22:27Z</time>
      </trkpt>
      <trkpt lat="48.23529" lon="0.65542">
        <ele>106</ele>
        <time>2012-03-23T12:22:29Z</time>
      </trkpt>
      <trkpt lat="48.23524" lon="0.65539">
        <ele>106</ele>
        <time>2012-03-23T12:22:33Z</time>
      </trkpt>
      <trkpt lat="48.23522" lon="0.65537">
        <ele>106</ele>
        <time>2012-03-23T12:22:35Z</time>
      </trkpt>
      <trkpt lat="48.23519" lon="0.65535">
        <ele>106</ele>
        <time>2012-03-23T12:22:37Z</time>
      </trkpt>
      <trkpt lat="48.23517" lon="0.65534">
        <ele>106</ele>
        <time>2012-03-23T12:22:39Z</time>
      </trkpt>
      <trkpt lat="48.23513" lon="0.65532">
        <ele>106</ele>
        <time>2012-03-23T12:22:43Z</time>
      </trkpt>
      <trkpt lat="48.23511" lon="0.65532">
        <ele>106</ele>
        <time>2012-03-23T12:22:45Z</time>
      </trkpt>
      <trkpt lat="48.23508" lon="0.65532">
        <ele>106</ele>
        <time>2012-03-23T12:22:47Z</time>
      </trkpt>
      <trkpt lat="48.23505" lon="0.65531">
        <ele>106</ele>
        <time>2012-03-23T12:22:51Z</time>
      </trkpt>
      <trkpt lat="48.23502" lon="0.65531">
        <ele>107</ele>
        <time>2012-03-23T12:22:57Z</time>
      </trkpt>
      <trkpt lat="48.235" lon="0.65532">
        <ele>116</ele>
        <time>2012-03-23T12:23:13Z</time>
      </trkpt>
      <trkpt lat="48.235" lon="0.65535">
        <ele>120</ele>
        <time>2012-03-23T12:24:04Z</time>
      </trkpt>
      <trkpt lat="48.23502" lon="0.65531">
        <ele>123</ele>
        <time>2012-03-23T12:25:34Z</time>
      </trkpt>
      <trkpt lat="48.23502" lon="0.6553">
        <ele>123</ele>
        <time>2012-03-23T12:25:46Z</time>
      </trkpt>
      <trkpt lat="48.235" lon="0.65533">
        <ele>122</ele>
        <time>2012-03-23T12:26:13Z</time>
      </trkpt>
      <trkpt lat="48.235" lon="0.65532">
        <ele>123</ele>
        <time>2012-03-23T12:26:26Z</time>
      </trkpt>
      <trkpt lat="48.23497" lon="0.65532">
        <ele>123</ele>
        <time>2012-03-23T12:26:57Z</time>
      </trkpt>
      <trkpt lat="48.23498" lon="0.6553">
        <ele>123</ele>
        <time>2012-03-23T12:27:40Z</time>
      </trkpt>
      <trkpt lat="48.23497" lon="0.65528">
        <ele>123</ele>
        <time>2012-03-23T12:27:58Z</time>
      </trkpt>
      <trkpt lat="48.23493" lon="0.65529">
        <ele>123</ele>
        <time>2012-03-23T12:28:02Z</time>
      </trkpt>
      <trkpt lat="48.23491" lon="0.65533">
        <ele>123</ele>
        <time>2012-03-23T12:28:06Z</time>
      </trkpt>
      <trkpt lat="48.23489" lon="0.65539">
        <ele>123</ele>
        <time>2012-03-23T12:28:10Z</time>
      </trkpt>
      <trkpt lat="48.23488" lon="0.65543">
        <ele>123</ele>
        <time>2012-03-23T12:28:13Z</time>
      </trkpt>
      <trkpt lat="48.23487" lon="0.65548">
        <ele>123</ele>
        <time>2012-03-23T12:28:17Z</time>
      </trkpt>
      <trkpt lat="48.23486" lon="0.65552">
        <ele>123</ele>
        <time>2012-03-23T12:28:19Z</time>
      </trkpt>
      <trkpt lat="48.23486" lon="0.65556">
        <ele>123</ele>
        <time>2012-03-23T12:28:22Z</time>
      </trkpt>
      <trkpt lat="48.23485" lon="0.65562">
        <ele>123</ele>
        <time>2012-03-23T12:28:25Z</time>
      </trkpt>
      <trkpt lat="48.23485" lon="0.65568">
        <ele>122</ele>
        <time>2012-03-23T12:28:29Z</time>
      </trkpt>
      <trkpt lat="48.23484" lon="0.65573">
        <ele>122</ele>
        <time>2012-03-23T12:28:32Z</time>
      </trkpt>
      <trkpt lat="48.23484" lon="0.65577">
        <ele>122</ele>
        <time>2012-03-23T12:28:34Z</time>
      </trkpt>
      <trkpt lat="48.23483" lon="0.6558">
        <ele>122</ele>
        <time>2012-03-23T12:28:36Z</time>
      </trkpt>
      <trkpt lat="48.23482" lon="0.65585">
        <ele>121</ele>
        <time>2012-03-23T12:28:39Z</time>
      </trkpt>
      <trkpt lat="48.23481" lon="0.6559">
        <ele>121</ele>
        <time>2012-03-23T12:28:42Z</time>
      </trkpt>
      <trkpt lat="48.2348" lon="0.65595">
        <ele>120</ele>
        <time>2012-03-23T12:28:45Z</time>
      </trkpt>
      <trkpt lat="48.23479" lon="0.65599">
        <ele>120</ele>
        <time>2012-03-23T12:28:48Z</time>
      </trkpt>
      <trkpt lat="48.23478" lon="0.65603">
        <ele>120</ele>
        <time>2012-03-23T12:28:50Z</time>
      </trkpt>
      <trkpt lat="48.23478" lon="0.65608">
        <ele>120</ele>
        <time>2012-03-23T12:28:53Z</time>
      </trkpt>
      <trkpt lat="48.23477" lon="0.65611">
        <ele>120</ele>
        <time>2012-03-23T12:28:55Z</time>
      </trkpt>
      <trkpt lat="48.23476" lon="0.65615">
        <ele>120</ele>
        <time>2012-03-23T12:28:57Z</time>
      </trkpt>
      <trkpt lat="48.23475" lon="0.65619">
        <ele>120</ele>
        <time>2012-03-23T12:28:59Z</time>
      </trkpt>
      <trkpt lat="48.23475" lon="0.65623">
        <ele>120</ele>
        <time>2012-03-23T12:29:01Z</time>
      </trkpt>
      <trkpt lat="48.23474" lon="0.65626">
        <ele>119</ele>
        <time>2012-03-23T12:29:03Z</time>
      </trkpt>
      <trkpt lat="48.23473" lon="0.6563">
        <ele>119</ele>
        <time>2012-03-23T12:29:05Z</time>
      </trkpt>
      <trkpt lat="48.23473" lon="0.65635">
        <ele>119</ele>
        <time>2012-03-23T12:29:08Z</time>
      </trkpt>
      <trkpt lat="48.23471" lon="0.6564">
        <ele>119</ele>
        <time>2012-03-23T12:29:11Z</time>
      </trkpt>
      <trkpt lat="48.23471" lon="0.65644">
        <ele>119</ele>
        <time>2012-03-23T12:29:13Z</time>
      </trkpt>
      <trkpt lat="48.2347" lon="0.65648">
        <ele>119</ele>
        <time>2012-03-23T12:29:15Z</time>
      </trkpt>
      <trkpt lat="48.23469" lon="0.65652">
        <ele>119</ele>
        <time>2012-03-23T12:29:17Z</time>
      </trkpt>
      <trkpt lat="48.23468" lon="0.65656">
        <ele>119</ele>
        <time>2012-03-23T12:29:19Z</time>
      </trkpt>
      <trkpt lat="48.23465" lon="0.65658">
        <ele>119</ele>
        <time>2012-03-23T12:29:21Z</time>
      </trkpt>
      <trkpt lat="48.23462" lon="0.65658">
        <ele>119</ele>
        <time>2012-03-23T12:29:23Z</time>
      </trkpt>
      <trkpt lat="48.23459" lon="0.65656">
        <ele>119</ele>
        <time>2012-03-23T12:29:25Z</time>
      </trkpt>
      <trkpt lat="48.23456" lon="0.65654">
        <ele>119</ele>
        <time>2012-03-23T12:29:27Z</time>
      </trkpt>
      <trkpt lat="48.23454" lon="0.65652">
        <ele>119</ele>
        <time>2012-03-23T12:29:29Z</time>
      </trkpt>
      <trkpt lat="48.23451" lon="0.6565">
        <ele>119</ele>
        <time>2012-03-23T12:29:31Z</time>
      </trkpt>
      <trkpt lat="48.23449" lon="0.65648">
        <ele>119</ele>
        <time>2012-03-23T12:29:33Z</time>
      </trkpt>
      <trkpt lat="48.23447" lon="0.65646">
        <ele>119</ele>
        <time>2012-03-23T12:29:35Z</time>
      </trkpt>
      <trkpt lat="48.23444" lon="0.65643">
        <ele>119</ele>
        <time>2012-03-23T12:29:38Z</time>
      </trkpt>
      <trkpt lat="48.23439" lon="0.65639">
        <ele>119</ele>
        <time>2012-03-23T12:29:42Z</time>
      </trkpt>
      <trkpt lat="48.23437" lon="0.65637">
        <ele>119</ele>
        <time>2012-03-23T12:29:44Z</time>
      </trkpt>
      <trkpt lat="48.23433" lon="0.65634">
        <ele>119</ele>
        <time>2012-03-23T12:29:48Z</time>
      </trkpt>
      <trkpt lat="48.23431" lon="0.65632">
        <ele>119</ele>
        <time>2012-03-23T12:29:50Z</time>
      </trkpt>
      <trkpt lat="48.23428" lon="0.65631">
        <ele>119</ele>
        <time>2012-03-23T12:29:52Z</time>
      </trkpt>
      <trkpt lat="48.23426" lon="0.6563">
        <ele>119</ele>
        <time>2012-03-23T12:29:54Z</time>
      </trkpt>
      <trkpt lat="48.23423" lon="0.6563">
        <ele>119</ele>
        <time>2012-03-23T12:29:56Z</time>
      </trkpt>
      <trkpt lat="48.23421" lon="0.65629">
        <ele>119</ele>
        <time>2012-03-23T12:29:58Z</time>
      </trkpt>
      <trkpt lat="48.23419" lon="0.65628">
        <ele>119</ele>
        <time>2012-03-23T12:30:00Z</time>
      </trkpt>
      <trkpt lat="48.23416" lon="0.65627">
        <ele>118</ele>
        <time>2012-03-23T12:30:02Z</time>
      </trkpt>
      <trkpt lat="48.23414" lon="0.65627">
        <ele>118</ele>
        <time>2012-03-23T12:30:04Z</time>
      </trkpt>
      <trkpt lat="48.23411" lon="0.65626">
        <ele>118</ele>
        <time>2012-03-23T12:30:06Z</time>
      </trkpt>
      <trkpt lat="48.23409" lon="0.65626">
        <ele>118</ele>
        <time>2012-03-23T12:30:08Z</time>
      </trkpt>
      <trkpt lat="48.23406" lon="0.65625">
        <ele>118</ele>
        <time>2012-03-23T12:30:10Z</time>
      </trkpt>
      <trkpt lat="48.23404" lon="0.65624">
        <ele>118</ele>
        <time>2012-03-23T12:30:12Z</time>
      </trkpt>
      <trkpt lat="48.234" lon="0.65621">
        <ele>118</ele>
        <time>2012-03-23T12:30:15Z</time>
      </trkpt>
      <trkpt lat="48.23397" lon="0.65619">
        <ele>118</ele>
        <time>2012-03-23T12:30:17Z</time>
      </trkpt>
      <trkpt lat="48.23395" lon="0.65618">
        <ele>118</ele>
        <time>2012-03-23T12:30:19Z</time>
      </trkpt>
      <trkpt lat="48.23392" lon="0.65617">
        <ele>118</ele>
        <time>2012-03-23T12:30:21Z</time>
      </trkpt>
      <trkpt lat="48.23389" lon="0.65615">
        <ele>118</ele>
        <time>2012-03-23T12:30:23Z</time>
      </trkpt>
      <trkpt lat="48.23387" lon="0.65614">
        <ele>118</ele>
        <time>2012-03-23T12:30:25Z</time>
      </trkpt>
      <trkpt lat="48.23385" lon="0.65612">
        <ele>118</ele>
        <time>2012-03-23T12:30:27Z</time>
      </trkpt>
      <trkpt lat="48.23381" lon="0.6561">
        <ele>118</ele>
        <time>2012-03-23T12:30:30Z</time>
      </trkpt>
      <trkpt lat="48.23378" lon="0.65609">
        <ele>118</ele>
        <time>2012-03-23T12:30:33Z</time>
      </trkpt>
      <trkpt lat="48.23376" lon="0.65608">
        <ele>118</ele>
        <time>2012-03-23T12:30:35Z</time>
      </trkpt>
      <trkpt lat="48.23373" lon="0.65606">
        <ele>118</ele>
        <time>2012-03-23T12:30:37Z</time>
      </trkpt>
      <trkpt lat="48.23371" lon="0.65606">
        <ele>118</ele>
        <time>2012-03-23T12:30:39Z</time>
      </trkpt>
      <trkpt lat="48.23367" lon="0.65606">
        <ele>117</ele>
        <time>2012-03-23T12:30:42Z</time>
      </trkpt>
      <trkpt lat="48.23365" lon="0.65606">
        <ele>117</ele>
        <time>2012-03-23T12:30:44Z</time>
      </trkpt>
      <trkpt lat="48.23362" lon="0.65606">
        <ele>117</ele>
        <time>2012-03-23T12:30:46Z</time>
      </trkpt>
      <trkpt lat="48.2336" lon="0.65607">
        <ele>116</ele>
        <time>2012-03-23T12:30:48Z</time>
      </trkpt>
      <trkpt lat="48.23357" lon="0.65608">
        <ele>116</ele>
        <time>2012-03-23T12:30:50Z</time>
      </trkpt>
      <trkpt lat="48.23354" lon="0.6561">
        <ele>116</ele>
        <time>2012-03-23T12:30:52Z</time>
      </trkpt>
      <trkpt lat="48.23352" lon="0.65612">
        <ele>116</ele>
        <time>2012-03-23T12:30:55Z</time>
      </trkpt>
      <trkpt lat="48.23348" lon="0.65614">
        <ele>115</ele>
        <time>2012-03-23T12:30:58Z</time>
      </trkpt>
      <trkpt lat="48.23345" lon="0.65616">
        <ele>115</ele>
        <time>2012-03-23T12:31:01Z</time>
      </trkpt>
      <trkpt lat="48.23343" lon="0.65618">
        <ele>115</ele>
        <time>2012-03-23T12:31:03Z</time>
      </trkpt>
      <trkpt lat="48.2334" lon="0.65619">
        <ele>115</ele>
        <time>2012-03-23T12:31:05Z</time>
      </trkpt>
      <trkpt lat="48.23336" lon="0.65621">
        <ele>114</ele>
        <time>2012-03-23T12:31:09Z</time>
      </trkpt>
      <trkpt lat="48.23334" lon="0.65623">
        <ele>114</ele>
        <time>2012-03-23T12:31:11Z</time>
      </trkpt>
      <trkpt lat="48.23331" lon="0.65623">
        <ele>114</ele>
        <time>2012-03-23T12:31:13Z</time>
      </trkpt>
      <trkpt lat="48.23329" lon="0.65625">
        <ele>114</ele>
        <time>2012-03-23T12:31:15Z</time>
      </trkpt>
      <trkpt lat="48.23326" lon="0.65626">
        <ele>113</ele>
        <time>2012-03-23T12:31:17Z</time>
      </trkpt>
      <trkpt lat="48.23323" lon="0.65627">
        <ele>113</ele>
        <time>2012-03-23T12:31:19Z</time>
      </trkpt>
      <trkpt lat="48.23321" lon="0.65628">
        <ele>113</ele>
        <time>2012-03-23T12:31:21Z</time>
      </trkpt>
      <trkpt lat="48.23318" lon="0.65628">
        <ele>113</ele>
        <time>2012-03-23T12:31:23Z</time>
      </trkpt>
      <trkpt lat="48.23315" lon="0.65628">
        <ele>113</ele>
        <time>2012-03-23T12:31:25Z</time>
      </trkpt>
      <trkpt lat="48.23313" lon="0.65628">
        <ele>113</ele>
        <time>2012-03-23T12:31:27Z</time>
      </trkpt>
      <trkpt lat="48.2331" lon="0.65628">
        <ele>113</ele>
        <time>2012-03-23T12:31:29Z</time>
      </trkpt>
      <trkpt lat="48.23308" lon="0.65628">
        <ele>112</ele>
        <time>2012-03-23T12:31:31Z</time>
      </trkpt>
      <trkpt lat="48.23306" lon="0.65627">
        <ele>112</ele>
        <time>2012-03-23T12:31:33Z</time>
      </trkpt>
      <trkpt lat="48.23303" lon="0.65626">
        <ele>112</ele>
        <time>2012-03-23T12:31:35Z</time>
      </trkpt>
      <trkpt lat="48.23301" lon="0.65627">
        <ele>112</ele>
        <time>2012-03-23T12:31:37Z</time>
      </trkpt>
      <trkpt lat="48.23298" lon="0.65627">
        <ele>111</ele>
        <time>2012-03-23T12:31:39Z</time>
      </trkpt>
      <trkpt lat="48.23296" lon="0.65628">
        <ele>111</ele>
        <time>2012-03-23T12:31:41Z</time>
      </trkpt>
      <trkpt lat="48.23293" lon="0.65628">
        <ele>111</ele>
        <time>2012-03-23T12:31:43Z</time>
      </trkpt>
      <trkpt lat="48.23289" lon="0.65631">
        <ele>111</ele>
        <time>2012-03-23T12:31:47Z</time>
      </trkpt>
      <trkpt lat="48.23287" lon="0.65635">
        <ele>111</ele>
        <time>2012-03-23T12:31:49Z</time>
      </trkpt>
      <trkpt lat="48.23283" lon="0.65639">
        <ele>111</ele>
        <time>2012-03-23T12:31:51Z</time>
      </trkpt>
      <trkpt lat="48.2328" lon="0.65645">
        <ele>111</ele>
        <time>2012-03-23T12:31:55Z</time>
      </trkpt>
      <trkpt lat="48.23276" lon="0.65647">
        <ele>111</ele>
        <time>2012-03-23T12:31:59Z</time>
      </trkpt>
      <trkpt lat="48.23272" lon="0.65649">
        <ele>111</ele>
        <time>2012-03-23T12:32:03Z</time>
      </trkpt>
      <trkpt lat="48.23269" lon="0.65651">
        <ele>111</ele>
        <time>2012-03-23T12:32:07Z</time>
      </trkpt>
      <trkpt lat="48.23266" lon="0.65652">
        <ele>111</ele>
        <time>2012-03-23T12:32:10Z</time>
      </trkpt>
      <trkpt lat="48.23263" lon="0.65653">
        <ele>111</ele>
        <time>2012-03-23T12:32:12Z</time>
      </trkpt>
      <trkpt lat="48.2326" lon="0.65655">
        <ele>111</ele>
        <time>2012-03-23T12:32:15Z</time>
      </trkpt>
      <trkpt lat="48.23257" lon="0.65658">
        <ele>110</ele>
        <time>2012-03-23T12:32:17Z</time>
      </trkpt>
      <trkpt lat="48.23254" lon="0.6566">
        <ele>110</ele>
        <time>2012-03-23T12:32:19Z</time>
      </trkpt>
      <trkpt lat="48.23252" lon="0.65661">
        <ele>109</ele>
        <time>2012-03-23T12:32:21Z</time>
      </trkpt>
      <trkpt lat="48.2325" lon="0.65662">
        <ele>108</ele>
        <time>2012-03-23T12:32:23Z</time>
      </trkpt>
      <trkpt lat="48.23246" lon="0.65664">
        <ele>108</ele>
        <time>2012-03-23T12:32:26Z</time>
      </trkpt>
      <trkpt lat="48.23244" lon="0.65666">
        <ele>108</ele>
        <time>2012-03-23T12:32:28Z</time>
      </trkpt>
      <trkpt lat="48.23241" lon="0.65668">
        <ele>108</ele>
        <time>2012-03-23T12:32:30Z</time>
      </trkpt>
      <trkpt lat="48.23238" lon="0.65669">
        <ele>108</ele>
        <time>2012-03-23T12:32:32Z</time>
      </trkpt>
      <trkpt lat="48.23235" lon="0.65671">
        <ele>107</ele>
        <time>2012-03-23T12:32:34Z</time>
      </trkpt>
      <trkpt lat="48.23232" lon="0.65672">
        <ele>107</ele>
        <time>2012-03-23T12:32:36Z</time>
      </trkpt>
      <trkpt lat="48.23229" lon="0.65674">
        <ele>107</ele>
        <time>2012-03-23T12:32:38Z</time>
      </trkpt>
      <trkpt lat="48.23226" lon="0.65674">
        <ele>107</ele>
        <time>2012-03-23T12:32:40Z</time>
      </trkpt>
      <trkpt lat="48.23223" lon="0.65674">
        <ele>107</ele>
        <time>2012-03-23T12:32:42Z</time>
      </trkpt>
      <trkpt lat="48.2322" lon="0.65674">
        <ele>107</ele>
        <time>2012-03-23T12:32:44Z</time>
      </trkpt>
      <trkpt lat="48.23217" lon="0.65674">
        <ele>106</ele>
        <time>2012-03-23T12:32:46Z</time>
      </trkpt>
      <trkpt lat="48.23214" lon="0.65673">
        <ele>106</ele>
        <time>2012-03-23T12:32:48Z</time>
      </trkpt>
      <trkpt lat="48.23211" lon="0.65673">
        <ele>106</ele>
        <time>2012-03-23T12:32:50Z</time>
      </trkpt>
      <trkpt lat="48.23208" lon="0.65672">
        <ele>106</ele>
        <time>2012-03-23T12:32:52Z</time>
      </trkpt>
      <trkpt lat="48.23205" lon="0.65671">
        <ele>106</ele>
        <time>2012-03-23T12:32:54Z</time>
      </trkpt>
      <trkpt lat="48.23203" lon="0.6567">
        <ele>106</ele>
        <time>2012-03-23T12:32:56Z</time>
      </trkpt>
      <trkpt lat="48.23199" lon="0.65669">
        <ele>106</ele>
        <time>2012-03-23T12:32:58Z</time>
      </trkpt>
      <trkpt lat="48.23197" lon="0.65668">
        <ele>106</ele>
        <time>2012-03-23T12:33:00Z</time>
      </trkpt>
      <trkpt lat="48.23194" lon="0.65667">
        <ele>105</ele>
        <time>2012-03-23T12:33:02Z</time>
      </trkpt>
      <trkpt lat="48.23191" lon="0.65666">
        <ele>105</ele>
        <time>2012-03-23T12:33:04Z</time>
      </trkpt>
      <trkpt lat="48.23188" lon="0.65664">
        <ele>105</ele>
        <time>2012-03-23T12:33:06Z</time>
      </trkpt>
      <trkpt lat="48.23185" lon="0.65663">
        <ele>105</ele>
        <time>2012-03-23T12:33:08Z</time>
      </trkpt>
      <trkpt lat="48.23183" lon="0.65663">
        <ele>105</ele>
        <time>2012-03-23T12:33:10Z</time>
      </trkpt>
      <trkpt lat="48.2318" lon="0.65661">
        <ele>105</ele>
        <time>2012-03-23T12:33:12Z</time>
      </trkpt>
      <trkpt lat="48.23177" lon="0.65658">
        <ele>105</ele>
        <time>2012-03-23T12:33:14Z</time>
      </trkpt>
      <trkpt lat="48.23175" lon="0.65657">
        <ele>105</ele>
        <time>2012-03-23T12:33:16Z</time>
      </trkpt>
      <trkpt lat="48.23172" lon="0.65655">
        <ele>105</ele>
        <time>2012-03-23T12:33:18Z</time>
      </trkpt>
      <trkpt lat="48.23169" lon="0.65654">
        <ele>105</ele>
        <time>2012-03-23T12:33:20Z</time>
      </trkpt>
      <trkpt lat="48.23166" lon="0.65652">
        <ele>105</ele>
        <time>2012-03-23T12:33:22Z</time>
      </trkpt>
      <trkpt lat="48.23164" lon="0.6565">
        <ele>105</ele>
        <time>2012-03-23T12:33:24Z</time>
      </trkpt>
      <trkpt lat="48.23161" lon="0.65648">
        <ele>105</ele>
        <time>2012-03-23T12:33:26Z</time>
      </trkpt>
      <trkpt lat="48.23159" lon="0.65646">
        <ele>105</ele>
        <time>2012-03-23T12:33:28Z</time>
      </trkpt>
      <trkpt lat="48.23156" lon="0.65645">
        <ele>105</ele>
        <time>2012-03-23T12:33:30Z</time>
      </trkpt>
      <trkpt lat="48.23154" lon="0.65643">
        <ele>105</ele>
        <time>2012-03-23T12:33:32Z</time>
      </trkpt>
      <trkpt lat="48.23152" lon="0.65641">
        <ele>105</ele>
        <time>2012-03-23T12:33:34Z</time>
      </trkpt>
      <trkpt lat="48.23149" lon="0.6564">
        <ele>105</ele>
        <time>2012-03-23T12:33:36Z</time>
      </trkpt>
      <trkpt lat="48.23147" lon="0.65639">
        <ele>105</ele>
        <time>2012-03-23T12:33:38Z</time>
      </trkpt>
      <trkpt lat="48.23145" lon="0.65638">
        <ele>105</ele>
        <time>2012-03-23T12:33:40Z</time>
      </trkpt>
      <trkpt lat="48.23141" lon="0.65636">
        <ele>105</ele>
        <time>2012-03-23T12:33:43Z</time>
      </trkpt>
      <trkpt lat="48.23139" lon="0.65635">
        <ele>105</ele>
        <time>2012-03-23T12:33:45Z</time>
      </trkpt>
      <trkpt lat="48.23137" lon="0.65634">
        <ele>105</ele>
        <time>2012-03-23T12:33:47Z</time>
      </trkpt>
      <trkpt lat="48.23134" lon="0.65634">
        <ele>104</ele>
        <time>2012-03-23T12:33:49Z</time>
      </trkpt>
      <trkpt lat="48.23131" lon="0.65634">
        <ele>104</ele>
        <time>2012-03-23T12:33:51Z</time>
      </trkpt>
      <trkpt lat="48.23128" lon="0.65635">
        <ele>104</ele>
        <time>2012-03-23T12:33:53Z</time>
      </trkpt>
      <trkpt lat="48.23125" lon="0.65636">
        <ele>104</ele>
        <time>2012-03-23T12:33:55Z</time>
      </trkpt>
      <trkpt lat="48.23123" lon="0.65638">
        <ele>104</ele>
        <time>2012-03-23T12:33:58Z</time>
      </trkpt>
      <trkpt lat="48.23119" lon="0.65642">
        <ele>104</ele>
        <time>2012-03-23T12:34:01Z</time>
      </trkpt>
      <trkpt lat="48.23116" lon="0.65645">
        <ele>104</ele>
        <time>2012-03-23T12:34:03Z</time>
      </trkpt>
      <trkpt lat="48.23113" lon="0.65648">
        <ele>104</ele>
        <time>2012-03-23T12:34:05Z</time>
      </trkpt>
      <trkpt lat="48.2311" lon="0.65652">
        <ele>104</ele>
        <time>2012-03-23T12:34:07Z</time>
      </trkpt>
      <trkpt lat="48.23108" lon="0.65655">
        <ele>104</ele>
        <time>2012-03-23T12:34:10Z</time>
      </trkpt>
      <trkpt lat="48.23106" lon="0.65661">
        <ele>104</ele>
        <time>2012-03-23T12:34:14Z</time>
      </trkpt>
      <trkpt lat="48.23105" lon="0.65665">
        <ele>104</ele>
        <time>2012-03-23T12:34:17Z</time>
      </trkpt>
      <trkpt lat="48.23103" lon="0.65671">
        <ele>104</ele>
        <time>2012-03-23T12:34:20Z</time>
      </trkpt>
      <trkpt lat="48.23103" lon="0.65676">
        <ele>104</ele>
        <time>2012-03-23T12:34:24Z</time>
      </trkpt>
      <trkpt lat="48.23103" lon="0.6568">
        <ele>104</ele>
        <time>2012-03-23T12:34:26Z</time>
      </trkpt>
      <trkpt lat="48.23102" lon="0.65685">
        <ele>104</ele>
        <time>2012-03-23T12:34:29Z</time>
      </trkpt>
      <trkpt lat="48.23101" lon="0.65689">
        <ele>104</ele>
        <time>2012-03-23T12:34:31Z</time>
      </trkpt>
      <trkpt lat="48.23101" lon="0.65693">
        <ele>104</ele>
        <time>2012-03-23T12:34:33Z</time>
      </trkpt>
      <trkpt lat="48.231" lon="0.65697">
        <ele>104</ele>
        <time>2012-03-23T12:34:35Z</time>
      </trkpt>
      <trkpt lat="48.23099" lon="0.65702">
        <ele>104</ele>
        <time>2012-03-23T12:34:37Z</time>
      </trkpt>
      <trkpt lat="48.23097" lon="0.65705">
        <ele>104</ele>
        <time>2012-03-23T12:34:39Z</time>
      </trkpt>
      <trkpt lat="48.23096" lon="0.65709">
        <ele>104</ele>
        <time>2012-03-23T12:34:41Z</time>
      </trkpt>
      <trkpt lat="48.23095" lon="0.65714">
        <ele>104</ele>
        <time>2012-03-23T12:34:44Z</time>
      </trkpt>
      <trkpt lat="48.23094" lon="0.65719">
        <ele>103</ele>
        <time>2012-03-23T12:34:48Z</time>
      </trkpt>
      <trkpt lat="48.23091" lon="0.65725">
        <ele>103</ele>
        <time>2012-03-23T12:34:53Z</time>
      </trkpt>
      <trkpt lat="48.23091" lon="0.6573">
        <ele>103</ele>
        <time>2012-03-23T12:34:57Z</time>
      </trkpt>
      <trkpt lat="48.23091" lon="0.65734">
        <ele>103</ele>
        <time>2012-03-23T12:35:02Z</time>
      </trkpt>
      <trkpt lat="48.23088" lon="0.6574">
        <ele>103</ele>
        <time>2012-03-23T12:35:04Z</time>
      </trkpt>
      <trkpt lat="48.23087" lon="0.65744">
        <ele>103</ele>
        <time>2012-03-23T12:35:06Z</time>
      </trkpt>
      <trkpt lat="48.23086" lon="0.65748">
        <ele>103</ele>
        <time>2012-03-23T12:35:08Z</time>
      </trkpt>
      <trkpt lat="48.23084" lon="0.65752">
        <ele>103</ele>
        <time>2012-03-23T12:35:10Z</time>
      </trkpt>
      <trkpt lat="48.23083" lon="0.65757">
        <ele>103</ele>
        <time>2012-03-23T12:35:13Z</time>
      </trkpt>
      <trkpt lat="48.23082" lon="0.65761">
        <ele>103</ele>
        <time>2012-03-23T12:35:16Z</time>
      </trkpt>
      <trkpt lat="48.2308" lon="0.65765">
        <ele>102</ele>
        <time>2012-03-23T12:35:20Z</time>
      </trkpt>
      <trkpt lat="48.23079" lon="0.65769">
        <ele>102</ele>
        <time>2012-03-23T12:35:22Z</time>
      </trkpt>
      <trkpt lat="48.23077" lon="0.65773">
        <ele>102</ele>
        <time>2012-03-23T12:35:24Z</time>
      </trkpt>
      <trkpt lat="48.23077" lon="0.65777">
        <ele>102</ele>
        <time>2012-03-23T12:35:26Z</time>
      </trkpt>
      <trkpt lat="48.23075" lon="0.65781">
        <ele>102</ele>
        <time>2012-03-23T12:35:28Z</time>
      </trkpt>
      <trkpt lat="48.23074" lon="0.65786">
        <ele>102</ele>
        <time>2012-03-23T12:35:30Z</time>
      </trkpt>
      <trkpt lat="48.23072" lon="0.6579">
        <ele>102</ele>
        <time>2012-03-23T12:35:32Z</time>
      </trkpt>
      <trkpt lat="48.23071" lon="0.65794">
        <ele>102</ele>
        <time>2012-03-23T12:35:36Z</time>
      </trkpt>
      <trkpt lat="48.23069" lon="0.65799">
        <ele>102</ele>
        <time>2012-03-23T12:35:40Z</time>
      </trkpt>
      <trkpt lat="48.23069" lon="0.65803">
        <ele>101</ele>
        <time>2012-03-23T12:35:43Z</time>
      </trkpt>
      <trkpt lat="48.23069" lon="0.65807">
        <ele>101</ele>
        <time>2012-03-23T12:35:47Z</time>
      </trkpt>
      <trkpt lat="48.23069" lon="0.65811">
        <ele>100</ele>
        <time>2012-03-23T12:35:51Z</time>
      </trkpt>
      <trkpt lat="48.23066" lon="0.65817">
        <ele>99</ele>
        <time>2012-03-23T12:35:54Z</time>
      </trkpt>
      <trkpt lat="48.23064" lon="0.65824">
        <ele>99</ele>
        <time>2012-03-23T12:35:58Z</time>
      </trkpt>
      <trkpt lat="48.2306" lon="0.65832">
        <ele>99</ele>
        <time>2012-03-23T12:36:01Z</time>
      </trkpt>
      <trkpt lat="48.23057" lon="0.65837">
        <ele>99</ele>
        <time>2012-03-23T12:36:03Z</time>
      </trkpt>
      <trkpt lat="48.23055" lon="0.65842">
        <ele>99</ele>
        <time>2012-03-23T12:36:06Z</time>
      </trkpt>
      <trkpt lat="48.23053" lon="0.65848">
        <ele>99</ele>
        <time>2012-03-23T12:36:08Z</time>
      </trkpt>
      <trkpt lat="48.23052" lon="0.65852">
        <ele>99</ele>
        <time>2012-03-23T12:36:10Z</time>
      </trkpt>
      <trkpt lat="48.23051" lon="0.65857">
        <ele>99</ele>
        <time>2012-03-23T12:36:14Z</time>
      </trkpt>
      <trkpt lat="48.2305" lon="0.65863">
        <ele>99</ele>
        <time>2012-03-23T12:36:17Z</time>
      </trkpt>
      <trkpt lat="48.23048" lon="0.65868">
        <ele>99</ele>
        <time>2012-03-23T12:36:21Z</time>
      </trkpt>
      <trkpt lat="48.23047" lon="0.65873">
        <ele>98</ele>
        <time>2012-03-23T12:36:24Z</time>
      </trkpt>
      <trkpt lat="48.23045" lon="0.6588">
        <ele>98</ele>
        <time>2012-03-23T12:36:28Z</time>
      </trkpt>
      <trkpt lat="48.23043" lon="0.65884">
        <ele>98</ele>
        <time>2012-03-23T12:36:31Z</time>
      </trkpt>
      <trkpt lat="48.23043" lon="0.65888">
        <ele>98</ele>
        <time>2012-03-23T12:36:36Z</time>
      </trkpt>
      <trkpt lat="48.23042" lon="0.65893">
        <ele>98</ele>
        <time>2012-03-23T12:36:40Z</time>
      </trkpt>
      <trkpt lat="48.2304" lon="0.65899">
        <ele>98</ele>
        <time>2012-03-23T12:36:43Z</time>
      </trkpt>
      <trkpt lat="48.23037" lon="0.65904">
        <ele>98</ele>
        <time>2012-03-23T12:36:45Z</time>
      </trkpt>
      <trkpt lat="48.23035" lon="0.65911">
        <ele>98</ele>
        <time>2012-03-23T12:36:48Z</time>
      </trkpt>
      <trkpt lat="48.23032" lon="0.65918">
        <ele>98</ele>
        <time>2012-03-23T12:36:52Z</time>
      </trkpt>
      <trkpt lat="48.23029" lon="0.65924">
        <ele>97</ele>
        <time>2012-03-23T12:36:55Z</time>
      </trkpt>
      <trkpt lat="48.23027" lon="0.6593">
        <ele>97</ele>
        <time>2012-03-23T12:36:58Z</time>
      </trkpt>
      <trkpt lat="48.23026" lon="0.65934">
        <ele>97</ele>
        <time>2012-03-23T12:37:00Z</time>
      </trkpt>
      <trkpt lat="48.23025" lon="0.65938">
        <ele>97</ele>
        <time>2012-03-23T12:37:03Z</time>
      </trkpt>
      <trkpt lat="48.23024" lon="0.65942">
        <ele>95</ele>
        <time>2012-03-23T12:37:07Z</time>
      </trkpt>
      <trkpt lat="48.23023" lon="0.65946">
        <ele>93</ele>
        <time>2012-03-23T12:37:12Z</time>
      </trkpt>
      <trkpt lat="48.23022" lon="0.65951">
        <ele>91</ele>
        <time>2012-03-23T12:37:17Z</time>
      </trkpt>
      <trkpt lat="48.23021" lon="0.65955">
        <ele>90</ele>
        <time>2012-03-23T12:37:21Z</time>
      </trkpt>
      <trkpt lat="48.2302" lon="0.6596">
        <ele>90</ele>
        <time>2012-03-23T12:37:25Z</time>
      </trkpt>
      <trkpt lat="48.23018" lon="0.65966">
        <ele>89</ele>
        <time>2012-03-23T12:37:29Z</time>
      </trkpt>
      <trkpt lat="48.23016" lon="0.6597">
        <ele>89</ele>
        <time>2012-03-23T12:37:33Z</time>
      </trkpt>
      <trkpt lat="48.23016" lon="0.65974">
        <ele>89</ele>
        <time>2012-03-23T12:37:40Z</time>
      </trkpt>
      <trkpt lat="48.23014" lon="0.65979">
        <ele>89</ele>
        <time>2012-03-23T12:37:44Z</time>
      </trkpt>
      <trkpt lat="48.23013" lon="0.65983">
        <ele>89</ele>
        <time>2012-03-23T12:37:46Z</time>
      </trkpt>
      <trkpt lat="48.23011" lon="0.65988">
        <ele>89</ele>
        <time>2012-03-23T12:37:48Z</time>
      </trkpt>
      <trkpt lat="48.23008" lon="0.65995">
        <ele>90</ele>
        <time>2012-03-23T12:37:50Z</time>
      </trkpt>
      <trkpt lat="48.23007" lon="0.66">
        <ele>91</ele>
        <time>2012-03-23T12:37:54Z</time>
      </trkpt>
      <trkpt lat="48.23006" lon="0.66004">
        <ele>91</ele>
        <time>2012-03-23T12:37:56Z</time>
      </trkpt>
      <trkpt lat="48.23005" lon="0.66009">
        <ele>91</ele>
        <time>2012-03-23T12:38:00Z</time>
      </trkpt>
      <trkpt lat="48.23003" lon="0.66014">
        <ele>91</ele>
        <time>2012-03-23T12:38:04Z</time>
      </trkpt>
      <trkpt lat="48.23001" lon="0.66019">
        <ele>91</ele>
        <time>2012-03-23T12:38:07Z</time>
      </trkpt>
      <trkpt lat="48.23" lon="0.66023">
        <ele>91</ele>
        <time>2012-03-23T12:38:09Z</time>
      </trkpt>
      <trkpt lat="48.22998" lon="0.66029">
        <ele>91</ele>
        <time>2012-03-23T12:38:11Z</time>
      </trkpt>
      <trkpt lat="48.22996" lon="0.66033">
        <ele>91</ele>
        <time>2012-03-23T12:38:13Z</time>
      </trkpt>
      <trkpt lat="48.22994" lon="0.66039">
        <ele>91</ele>
        <time>2012-03-23T12:38:15Z</time>
      </trkpt>
      <trkpt lat="48.22992" lon="0.66043">
        <ele>91</ele>
        <time>2012-03-23T12:38:17Z</time>
      </trkpt>
      <trkpt lat="48.22991" lon="0.66047">
        <ele>91</ele>
        <time>2012-03-23T12:38:19Z</time>
      </trkpt>
      <trkpt lat="48.22988" lon="0.66051">
        <ele>91</ele>
        <time>2012-03-23T12:38:22Z</time>
      </trkpt>
      <trkpt lat="48.22987" lon="0.66056">
        <ele>91</ele>
        <time>2012-03-23T12:38:26Z</time>
      </trkpt>
      <trkpt lat="48.22984" lon="0.66062">
        <ele>91</ele>
        <time>2012-03-23T12:38:28Z</time>
      </trkpt>
      <trkpt lat="48.22982" lon="0.66069">
        <ele>91</ele>
        <time>2012-03-23T12:38:30Z</time>
      </trkpt>
      <trkpt lat="48.22979" lon="0.66074">
        <ele>91</ele>
        <time>2012-03-23T12:38:34Z</time>
      </trkpt>
      <trkpt lat="48.22978" lon="0.66078">
        <ele>91</ele>
        <time>2012-03-23T12:38:41Z</time>
      </trkpt>
      <trkpt lat="48.22977" lon="0.66081">
        <ele>92</ele>
        <time>2012-03-23T12:38:59Z</time>
      </trkpt>
      <trkpt lat="48.22974" lon="0.66082">
        <ele>92</ele>
        <time>2012-03-23T12:39:08Z</time>
      </trkpt>
      <trkpt lat="48.22971" lon="0.66079">
        <ele>92</ele>
        <time>2012-03-23T12:39:12Z</time>
      </trkpt>
      <trkpt lat="48.22968" lon="0.66075">
        <ele>92</ele>
        <time>2012-03-23T12:39:16Z</time>
      </trkpt>
      <trkpt lat="48.22963" lon="0.66072">
        <ele>92</ele>
        <time>2012-03-23T12:39:20Z</time>
      </trkpt>
      <trkpt lat="48.2296" lon="0.66069">
        <ele>92</ele>
        <time>2012-03-23T12:39:24Z</time>
      </trkpt>
      <trkpt lat="48.22956" lon="0.66066">
        <ele>92</ele>
        <time>2012-03-23T12:39:28Z</time>
      </trkpt>
      <trkpt lat="48.22952" lon="0.66063">
        <ele>92</ele>
        <time>2012-03-23T12:39:32Z</time>
      </trkpt>
      <trkpt lat="48.22949" lon="0.66061">
        <ele>92</ele>
        <time>2012-03-23T12:39:36Z</time>
      </trkpt>
      <trkpt lat="48.22945" lon="0.66059">
        <ele>92</ele>
        <time>2012-03-23T12:39:39Z</time>
      </trkpt>
      <trkpt lat="48.22941" lon="0.66056">
        <ele>92</ele>
        <time>2012-03-23T12:39:43Z</time>
      </trkpt>
      <trkpt lat="48.22937" lon="0.66053">
        <ele>92</ele>
        <time>2012-03-23T12:39:47Z</time>
      </trkpt>
      <trkpt lat="48.22934" lon="0.66051">
        <ele>92</ele>
        <time>2012-03-23T12:39:51Z</time>
      </trkpt>
      <trkpt lat="48.2293" lon="0.66049">
        <ele>92</ele>
        <time>2012-03-23T12:39:54Z</time>
      </trkpt>
      <trkpt lat="48.22927" lon="0.66048">
        <ele>92</ele>
        <time>2012-03-23T12:39:57Z</time>
      </trkpt>
      <trkpt lat="48.22923" lon="0.66045">
        <ele>92</ele>
        <time>2012-03-23T12:40:01Z</time>
      </trkpt>
      <trkpt lat="48.2292" lon="0.66044">
        <ele>92</ele>
        <time>2012-03-23T12:40:03Z</time>
      </trkpt>
      <trkpt lat="48.22918" lon="0.66043">
        <ele>92</ele>
        <time>2012-03-23T12:40:05Z</time>
      </trkpt>
      <trkpt lat="48.22916" lon="0.66042">
        <ele>92</ele>
        <time>2012-03-23T12:40:07Z</time>
      </trkpt>
      <trkpt lat="48.22912" lon="0.6604">
        <ele>92</ele>
        <time>2012-03-23T12:40:10Z</time>
      </trkpt>
      <trkpt lat="48.22909" lon="0.66038">
        <ele>92</ele>
        <time>2012-03-23T12:40:13Z</time>
      </trkpt>
      <trkpt lat="48.22906" lon="0.66036">
        <ele>92</ele>
        <time>2012-03-23T12:40:16Z</time>
      </trkpt>
      <trkpt lat="48.22902" lon="0.66033">
        <ele>92</ele>
        <time>2012-03-23T12:40:20Z</time>
      </trkpt>
      <trkpt lat="48.22897" lon="0.6603">
        <ele>92</ele>
        <time>2012-03-23T12:40:24Z</time>
      </trkpt>
      <trkpt lat="48.22895" lon="0.66029">
        <ele>92</ele>
        <time>2012-03-23T12:40:26Z</time>
      </trkpt>
      <trkpt lat="48.22892" lon="0.66026">
        <ele>92</ele>
        <time>2012-03-23T12:40:29Z</time>
      </trkpt>
      <trkpt lat="48.22888" lon="0.66024">
        <ele>92</ele>
        <time>2012-03-23T12:40:32Z</time>
      </trkpt>
      <trkpt lat="48.22885" lon="0.66021">
        <ele>92</ele>
        <time>2012-03-23T12:40:35Z</time>
      </trkpt>
      <trkpt lat="48.22882" lon="0.66019">
        <ele>92</ele>
        <time>2012-03-23T12:40:38Z</time>
      </trkpt>
      <trkpt lat="48.22879" lon="0.66017">
        <ele>92</ele>
        <time>2012-03-23T12:40:41Z</time>
      </trkpt>
      <trkpt lat="48.22875" lon="0.66014">
        <ele>92</ele>
        <time>2012-03-23T12:40:44Z</time>
      </trkpt>
      <trkpt lat="48.22873" lon="0.66013">
        <ele>92</ele>
        <time>2012-03-23T12:40:46Z</time>
      </trkpt>
      <trkpt lat="48.22871" lon="0.66011">
        <ele>92</ele>
        <time>2012-03-23T12:40:48Z</time>
      </trkpt>
      <trkpt lat="48.22867" lon="0.66009">
        <ele>92</ele>
        <time>2012-03-23T12:40:51Z</time>
      </trkpt>
      <trkpt lat="48.22864" lon="0.66006">
        <ele>92</ele>
        <time>2012-03-23T12:40:54Z</time>
      </trkpt>
      <trkpt lat="48.2286" lon="0.66004">
        <ele>92</ele>
        <time>2012-03-23T12:40:57Z</time>
      </trkpt>
      <trkpt lat="48.22858" lon="0.66003">
        <ele>92</ele>
        <time>2012-03-23T12:40:59Z</time>
      </trkpt>
      <trkpt lat="48.22856" lon="0.66001">
        <ele>92</ele>
        <time>2012-03-23T12:41:01Z</time>
      </trkpt>
      <trkpt lat="48.22853" lon="0.66">
        <ele>92</ele>
        <time>2012-03-23T12:41:03Z</time>
      </trkpt>
      <trkpt lat="48.2285" lon="0.65999">
        <ele>92</ele>
        <time>2012-03-23T12:41:05Z</time>
      </trkpt>
      <trkpt lat="48.22846" lon="0.65995">
        <ele>92</ele>
        <time>2012-03-23T12:41:09Z</time>
      </trkpt>
      <trkpt lat="48.22842" lon="0.65991">
        <ele>92</ele>
        <time>2012-03-23T12:41:13Z</time>
      </trkpt>
      <trkpt lat="48.22838" lon="0.65987">
        <ele>92</ele>
        <time>2012-03-23T12:41:17Z</time>
      </trkpt>
      <trkpt lat="48.22833" lon="0.65984">
        <ele>92</ele>
        <time>2012-03-23T12:41:21Z</time>
      </trkpt>
      <trkpt lat="48.2283" lon="0.65983">
        <ele>92</ele>
        <time>2012-03-23T12:41:24Z</time>
      </trkpt>
      <trkpt lat="48.22828" lon="0.65981">
        <ele>92</ele>
        <time>2012-03-23T12:41:26Z</time>
      </trkpt>
      <trkpt lat="48.22825" lon="0.6598">
        <ele>92</ele>
        <time>2012-03-23T12:41:28Z</time>
      </trkpt>
      <trkpt lat="48.22823" lon="0.65979">
        <ele>92</ele>
        <time>2012-03-23T12:41:30Z</time>
      </trkpt>
      <trkpt lat="48.22821" lon="0.65978">
        <ele>92</ele>
        <time>2012-03-23T12:41:32Z</time>
      </trkpt>
      <trkpt lat="48.22818" lon="0.65977">
        <ele>92</ele>
        <time>2012-03-23T12:41:34Z</time>
      </trkpt>
      <trkpt lat="48.22814" lon="0.65974">
        <ele>92</ele>
        <time>2012-03-23T12:41:38Z</time>
      </trkpt>
      <trkpt lat="48.2281" lon="0.65973">
        <ele>92</ele>
        <time>2012-03-23T12:41:41Z</time>
      </trkpt>
      <trkpt lat="48.22808" lon="0.65972">
        <ele>92</ele>
        <time>2012-03-23T12:41:43Z</time>
      </trkpt>
      <trkpt lat="48.22806" lon="0.65972">
        <ele>92</ele>
        <time>2012-03-23T12:41:45Z</time>
      </trkpt>
      <trkpt lat="48.22803" lon="0.65971">
        <ele>92</ele>
        <time>2012-03-23T12:41:47Z</time>
      </trkpt>
      <trkpt lat="48.228" lon="0.6597">
        <ele>92</ele>
        <time>2012-03-23T12:41:49Z</time>
      </trkpt>
      <trkpt lat="48.22798" lon="0.65969">
        <ele>92</ele>
        <time>2012-03-23T12:41:51Z</time>
      </trkpt>
      <trkpt lat="48.22796" lon="0.65968">
        <ele>92</ele>
        <time>2012-03-23T12:41:53Z</time>
      </trkpt>
      <trkpt lat="48.22793" lon="0.65966">
        <ele>92</ele>
        <time>2012-03-23T12:41:55Z</time>
      </trkpt>
      <trkpt lat="48.22791" lon="0.65965">
        <ele>92</ele>
        <time>2012-03-23T12:41:57Z</time>
      </trkpt>
      <trkpt lat="48.22788" lon="0.65964">
        <ele>92</ele>
        <time>2012-03-23T12:41:59Z</time>
      </trkpt>
      <trkpt lat="48.22786" lon="0.65962">
        <ele>92</ele>
        <time>2012-03-23T12:42:01Z</time>
      </trkpt>
      <trkpt lat="48.22784" lon="0.65961">
        <ele>92</ele>
        <time>2012-03-23T12:42:03Z</time>
      </trkpt>
      <trkpt lat="48.22781" lon="0.6596">
        <ele>92</ele>
        <time>2012-03-23T12:42:05Z</time>
      </trkpt>
      <trkpt lat="48.22779" lon="0.65958">
        <ele>92</ele>
        <time>2012-03-23T12:42:07Z</time>
      </trkpt>
      <trkpt lat="48.22776" lon="0.65957">
        <ele>92</ele>
        <time>2012-03-23T12:42:09Z</time>
      </trkpt>
      <trkpt lat="48.22773" lon="0.65955">
        <ele>92</ele>
        <time>2012-03-23T12:42:12Z</time>
      </trkpt>
      <trkpt lat="48.2277" lon="0.65952">
        <ele>93</ele>
        <time>2012-03-23T12:42:15Z</time>
      </trkpt>
      <trkpt lat="48.22767" lon="0.65951">
        <ele>93</ele>
        <time>2012-03-23T12:42:17Z</time>
      </trkpt>
      <trkpt lat="48.22765" lon="0.65949">
        <ele>93</ele>
        <time>2012-03-23T12:42:19Z</time>
      </trkpt>
      <trkpt lat="48.22762" lon="0.65947">
        <ele>93</ele>
        <time>2012-03-23T12:42:22Z</time>
      </trkpt>
      <trkpt lat="48.22758" lon="0.65945">
        <ele>93</ele>
        <time>2012-03-23T12:42:25Z</time>
      </trkpt>
      <trkpt lat="48.22756" lon="0.65943">
        <ele>93</ele>
        <time>2012-03-23T12:42:27Z</time>
      </trkpt>
      <trkpt lat="48.22754" lon="0.65942">
        <ele>93</ele>
        <time>2012-03-23T12:42:29Z</time>
      </trkpt>
      <trkpt lat="48.2275" lon="0.6594">
        <ele>93</ele>
        <time>2012-03-23T12:42:32Z</time>
      </trkpt>
      <trkpt lat="48.22747" lon="0.65938">
        <ele>94</ele>
        <time>2012-03-23T12:42:35Z</time>
      </trkpt>
      <trkpt lat="48.22745" lon="0.65936">
        <ele>94</ele>
        <time>2012-03-23T12:42:37Z</time>
      </trkpt>
      <trkpt lat="48.22742" lon="0.65935">
        <ele>94</ele>
        <time>2012-03-23T12:42:39Z</time>
      </trkpt>
      <trkpt lat="48.2274" lon="0.65933">
        <ele>94</ele>
        <time>2012-03-23T12:42:41Z</time>
      </trkpt>
      <trkpt lat="48.22738" lon="0.65932">
        <ele>94</ele>
        <time>2012-03-23T12:42:43Z</time>
      </trkpt>
      <trkpt lat="48.22735" lon="0.65931">
        <ele>94</ele>
        <time>2012-03-23T12:42:45Z</time>
      </trkpt>
      <trkpt lat="48.22733" lon="0.6593">
        <ele>94</ele>
        <time>2012-03-23T12:42:47Z</time>
      </trkpt>
      <trkpt lat="48.22729" lon="0.65927">
        <ele>94</ele>
        <time>2012-03-23T12:42:50Z</time>
      </trkpt>
      <trkpt lat="48.22727" lon="0.65926">
        <ele>94</ele>
        <time>2012-03-23T12:42:52Z</time>
      </trkpt>
      <trkpt lat="48.22724" lon="0.65924">
        <ele>94</ele>
        <time>2012-03-23T12:42:55Z</time>
      </trkpt>
      <trkpt lat="48.22722" lon="0.65922">
        <ele>94</ele>
        <time>2012-03-23T12:42:57Z</time>
      </trkpt>
      <trkpt lat="48.22719" lon="0.65921">
        <ele>94</ele>
        <time>2012-03-23T12:42:59Z</time>
      </trkpt>
      <trkpt lat="48.22717" lon="0.6592">
        <ele>94</ele>
        <time>2012-03-23T12:43:01Z</time>
      </trkpt>
      <trkpt lat="48.22715" lon="0.65918">
        <ele>94</ele>
        <time>2012-03-23T12:43:03Z</time>
      </trkpt>
      <trkpt lat="48.22712" lon="0.65917">
        <ele>94</ele>
        <time>2012-03-23T12:43:05Z</time>
      </trkpt>
      <trkpt lat="48.2271" lon="0.65916">
        <ele>94</ele>
        <time>2012-03-23T12:43:07Z</time>
      </trkpt>
      <trkpt lat="48.22707" lon="0.65915">
        <ele>94</ele>
        <time>2012-03-23T12:43:09Z</time>
      </trkpt>
      <trkpt lat="48.22705" lon="0.65914">
        <ele>94</ele>
        <time>2012-03-23T12:43:11Z</time>
      </trkpt>
      <trkpt lat="48.22702" lon="0.65912">
        <ele>94</ele>
        <time>2012-03-23T12:43:14Z</time>
      </trkpt>
      <trkpt lat="48.22699" lon="0.65911">
        <ele>94</ele>
        <time>2012-03-23T12:43:16Z</time>
      </trkpt>
      <trkpt lat="48.22697" lon="0.6591">
        <ele>95</ele>
        <time>2012-03-23T12:43:18Z</time>
      </trkpt>
      <trkpt lat="48.22694" lon="0.65908">
        <ele>95</ele>
        <time>2012-03-23T12:43:20Z</time>
      </trkpt>
      <trkpt lat="48.22691" lon="0.65906">
        <ele>95</ele>
        <time>2012-03-23T12:43:23Z</time>
      </trkpt>
      <trkpt lat="48.22689" lon="0.65904">
        <ele>95</ele>
        <time>2012-03-23T12:43:25Z</time>
      </trkpt>
      <trkpt lat="48.22686" lon="0.65903">
        <ele>95</ele>
        <time>2012-03-23T12:43:27Z</time>
      </trkpt>
      <trkpt lat="48.22683" lon="0.659">
        <ele>95</ele>
        <time>2012-03-23T12:43:30Z</time>
      </trkpt>
      <trkpt lat="48.2268" lon="0.65898">
        <ele>95</ele>
        <time>2012-03-23T12:43:33Z</time>
      </trkpt>
      <trkpt lat="48.22676" lon="0.65896">
        <ele>95</ele>
        <time>2012-03-23T12:43:36Z</time>
      </trkpt>
      <trkpt lat="48.22674" lon="0.65894">
        <ele>95</ele>
        <time>2012-03-23T12:43:38Z</time>
      </trkpt>
      <trkpt lat="48.22672" lon="0.65893">
        <ele>95</ele>
        <time>2012-03-23T12:43:40Z</time>
      </trkpt>
      <trkpt lat="48.22669" lon="0.65891">
        <ele>95</ele>
        <time>2012-03-23T12:43:42Z</time>
      </trkpt>
      <trkpt lat="48.22667" lon="0.6589">
        <ele>95</ele>
        <time>2012-03-23T12:43:44Z</time>
      </trkpt>
      <trkpt lat="48.22665" lon="0.65889">
        <ele>95</ele>
        <time>2012-03-23T12:43:46Z</time>
      </trkpt>
      <trkpt lat="48.22662" lon="0.65887">
        <ele>95</ele>
        <time>2012-03-23T12:43:48Z</time>
      </trkpt>
      <trkpt lat="48.2266" lon="0.65886">
        <ele>95</ele>
        <time>2012-03-23T12:43:50Z</time>
      </trkpt>
      <trkpt lat="48.22657" lon="0.65885">
        <ele>95</ele>
        <time>2012-03-23T12:43:52Z</time>
      </trkpt>
      <trkpt lat="48.22655" lon="0.65883">
        <ele>95</ele>
        <time>2012-03-23T12:43:54Z</time>
      </trkpt>
      <trkpt lat="48.22653" lon="0.65882">
        <ele>95</ele>
        <time>2012-03-23T12:43:56Z</time>
      </trkpt>
      <trkpt lat="48.2265" lon="0.65881">
        <ele>96</ele>
        <time>2012-03-23T12:43:58Z</time>
      </trkpt>
      <trkpt lat="48.22647" lon="0.65879">
        <ele>96</ele>
        <time>2012-03-23T12:44:01Z</time>
      </trkpt>
      <trkpt lat="48.22645" lon="0.65877">
        <ele>96</ele>
        <time>2012-03-23T12:44:03Z</time>
      </trkpt>
      <trkpt lat="48.22642" lon="0.65876">
        <ele>96</ele>
        <time>2012-03-23T12:44:05Z</time>
      </trkpt>
      <trkpt lat="48.22639" lon="0.65874">
        <ele>96</ele>
        <time>2012-03-23T12:44:08Z</time>
      </trkpt>
      <trkpt lat="48.22635" lon="0.65871">
        <ele>96</ele>
        <time>2012-03-23T12:44:12Z</time>
      </trkpt>
      <trkpt lat="48.2263" lon="0.65868">
        <ele>96</ele>
        <time>2012-03-23T12:44:16Z</time>
      </trkpt>
      <trkpt lat="48.22628" lon="0.65867">
        <ele>96</ele>
        <time>2012-03-23T12:44:18Z</time>
      </trkpt>
      <trkpt lat="48.22626" lon="0.65865">
        <ele>96</ele>
        <time>2012-03-23T12:44:20Z</time>
      </trkpt>
      <trkpt lat="48.22623" lon="0.65864">
        <ele>96</ele>
        <time>2012-03-23T12:44:22Z</time>
      </trkpt>
      <trkpt lat="48.22621" lon="0.65863">
        <ele>96</ele>
        <time>2012-03-23T12:44:24Z</time>
      </trkpt>
      <trkpt lat="48.22619" lon="0.65861">
        <ele>96</ele>
        <time>2012-03-23T12:44:26Z</time>
      </trkpt>
      <trkpt lat="48.22615" lon="0.65859">
        <ele>96</ele>
        <time>2012-03-23T12:44:29Z</time>
      </trkpt>
      <trkpt lat="48.22612" lon="0.65857">
        <ele>96</ele>
        <time>2012-03-23T12:44:32Z</time>
      </trkpt>
      <trkpt lat="48.22608" lon="0.65855">
        <ele>96</ele>
        <time>2012-03-23T12:44:36Z</time>
      </trkpt>
      <trkpt lat="48.22605" lon="0.65853">
        <ele>96</ele>
        <time>2012-03-23T12:44:39Z</time>
      </trkpt>
      <trkpt lat="48.22602" lon="0.6585">
        <ele>96</ele>
        <time>2012-03-23T12:44:43Z</time>
      </trkpt>
      <trkpt lat="48.22601" lon="0.65844">
        <ele>96</ele>
        <time>2012-03-23T12:44:47Z</time>
      </trkpt>
      <trkpt lat="48.22602" lon="0.6584">
        <ele>96</ele>
        <time>2012-03-23T12:44:50Z</time>
      </trkpt>
      <trkpt lat="48.22602" lon="0.65836">
        <ele>96</ele>
        <time>2012-03-23T12:44:52Z</time>
      </trkpt>
      <trkpt lat="48.22603" lon="0.65833">
        <ele>96</ele>
        <time>2012-03-23T12:44:54Z</time>
      </trkpt>
      <trkpt lat="48.22604" lon="0.65828">
        <ele>96</ele>
        <time>2012-03-23T12:44:57Z</time>
      </trkpt>
      <trkpt lat="48.22604" lon="0.65825">
        <ele>96</ele>
        <time>2012-03-23T12:44:59Z</time>
      </trkpt>
      <trkpt lat="48.22604" lon="0.6582">
        <ele>96</ele>
        <time>2012-03-23T12:45:02Z</time>
      </trkpt>
      <trkpt lat="48.22606" lon="0.65813">
        <ele>96</ele>
        <time>2012-03-23T12:45:06Z</time>
      </trkpt>
      <trkpt lat="48.22607" lon="0.65808">
        <ele>97</ele>
        <time>2012-03-23T12:45:09Z</time>
      </trkpt>
      <trkpt lat="48.22607" lon="0.65805">
        <ele>97</ele>
        <time>2012-03-23T12:45:11Z</time>
      </trkpt>
      <trkpt lat="48.22607" lon="0.65801">
        <ele>97</ele>
        <time>2012-03-23T12:45:13Z</time>
      </trkpt>
      <trkpt lat="48.22607" lon="0.65797">
        <ele>97</ele>
        <time>2012-03-23T12:45:15Z</time>
      </trkpt>
      <trkpt lat="48.22608" lon="0.65792">
        <ele>98</ele>
        <time>2012-03-23T12:45:18Z</time>
      </trkpt>
      <trkpt lat="48.22609" lon="0.65789">
        <ele>98</ele>
        <time>2012-03-23T12:45:20Z</time>
      </trkpt>
      <trkpt lat="48.22609" lon="0.65785">
        <ele>99</ele>
        <time>2012-03-23T12:45:22Z</time>
      </trkpt>
      <trkpt lat="48.2261" lon="0.65781">
        <ele>99</ele>
        <time>2012-03-23T12:45:24Z</time>
      </trkpt>
      <trkpt lat="48.22611" lon="0.65778">
        <ele>99</ele>
        <time>2012-03-23T12:45:26Z</time>
      </trkpt>
      <trkpt lat="48.22612" lon="0.65774">
        <ele>100</ele>
        <time>2012-03-23T12:45:28Z</time>
      </trkpt>
      <trkpt lat="48.22612" lon="0.65771">
        <ele>100</ele>
        <time>2012-03-23T12:45:30Z</time>
      </trkpt>
      <trkpt lat="48.22613" lon="0.65767">
        <ele>100</ele>
        <time>2012-03-23T12:45:32Z</time>
      </trkpt>
      <trkpt lat="48.22615" lon="0.65762">
        <ele>101</ele>
        <time>2012-03-23T12:45:35Z</time>
      </trkpt>
      <trkpt lat="48.22615" lon="0.65758">
        <ele>101</ele>
        <time>2012-03-23T12:45:37Z</time>
      </trkpt>
      <trkpt lat="48.22616" lon="0.65754">
        <ele>102</ele>
        <time>2012-03-23T12:45:39Z</time>
      </trkpt>
      <trkpt lat="48.22617" lon="0.65751">
        <ele>102</ele>
        <time>2012-03-23T12:45:41Z</time>
      </trkpt>
      <trkpt lat="48.22618" lon="0.65746">
        <ele>103</ele>
        <time>2012-03-23T12:45:44Z</time>
      </trkpt>
      <trkpt lat="48.22619" lon="0.65742">
        <ele>103</ele>
        <time>2012-03-23T12:45:46Z</time>
      </trkpt>
      <trkpt lat="48.2262" lon="0.65739">
        <ele>103</ele>
        <time>2012-03-23T12:45:48Z</time>
      </trkpt>
      <trkpt lat="48.22621" lon="0.65736">
        <ele>103</ele>
        <time>2012-03-23T12:45:50Z</time>
      </trkpt>
      <trkpt lat="48.22621" lon="0.65732">
        <ele>103</ele>
        <time>2012-03-23T12:45:52Z</time>
      </trkpt>
      <trkpt lat="48.22622" lon="0.65729">
        <ele>103</ele>
        <time>2012-03-23T12:45:54Z</time>
      </trkpt>
      <trkpt lat="48.22623" lon="0.65725">
        <ele>104</ele>
        <time>2012-03-23T12:45:56Z</time>
      </trkpt>
      <trkpt lat="48.22625" lon="0.6572">
        <ele>104</ele>
        <time>2012-03-23T12:45:59Z</time>
      </trkpt>
      <trkpt lat="48.22626" lon="0.65717">
        <ele>104</ele>
        <time>2012-03-23T12:46:01Z</time>
      </trkpt>
      <trkpt lat="48.22627" lon="0.65714">
        <ele>104</ele>
        <time>2012-03-23T12:46:03Z</time>
      </trkpt>
      <trkpt lat="48.22628" lon="0.6571">
        <ele>104</ele>
        <time>2012-03-23T12:46:05Z</time>
      </trkpt>
      <trkpt lat="48.2263" lon="0.65706">
        <ele>105</ele>
        <time>2012-03-23T12:46:08Z</time>
      </trkpt>
      <trkpt lat="48.22631" lon="0.65702">
        <ele>105</ele>
        <time>2012-03-23T12:46:10Z</time>
      </trkpt>
      <trkpt lat="48.22633" lon="0.65696">
        <ele>105</ele>
        <time>2012-03-23T12:46:14Z</time>
      </trkpt>
      <trkpt lat="48.22634" lon="0.65693">
        <ele>105</ele>
        <time>2012-03-23T12:46:16Z</time>
      </trkpt>
      <trkpt lat="48.22636" lon="0.65688">
        <ele>105</ele>
        <time>2012-03-23T12:46:19Z</time>
      </trkpt>
      <trkpt lat="48.22637" lon="0.65684">
        <ele>105</ele>
        <time>2012-03-23T12:46:21Z</time>
      </trkpt>
      <trkpt lat="48.22638" lon="0.65681">
        <ele>105</ele>
        <time>2012-03-23T12:46:23Z</time>
      </trkpt>
      <trkpt lat="48.22638" lon="0.65677">
        <ele>105</ele>
        <time>2012-03-23T12:46:25Z</time>
      </trkpt>
      <trkpt lat="48.2264" lon="0.65672">
        <ele>106</ele>
        <time>2012-03-23T12:46:28Z</time>
      </trkpt>
      <trkpt lat="48.22641" lon="0.65669">
        <ele>106</ele>
        <time>2012-03-23T12:46:30Z</time>
      </trkpt>
      <trkpt lat="48.22642" lon="0.65666">
        <ele>106</ele>
        <time>2012-03-23T12:46:32Z</time>
      </trkpt>
      <trkpt lat="48.22643" lon="0.65662">
        <ele>106</ele>
        <time>2012-03-23T12:46:34Z</time>
      </trkpt>
      <trkpt lat="48.22644" lon="0.65659">
        <ele>106</ele>
        <time>2012-03-23T12:46:36Z</time>
      </trkpt>
      <trkpt lat="48.22646" lon="0.65655">
        <ele>106</ele>
        <time>2012-03-23T12:46:38Z</time>
      </trkpt>
      <trkpt lat="48.22647" lon="0.65651">
        <ele>106</ele>
        <time>2012-03-23T12:46:41Z</time>
      </trkpt>
      <trkpt lat="48.22649" lon="0.65647">
        <ele>106</ele>
        <time>2012-03-23T12:46:43Z</time>
      </trkpt>
      <trkpt lat="48.2265" lon="0.65644">
        <ele>106</ele>
        <time>2012-03-23T12:46:45Z</time>
      </trkpt>
      <trkpt lat="48.22651" lon="0.6564">
        <ele>106</ele>
        <time>2012-03-23T12:46:47Z</time>
      </trkpt>
      <trkpt lat="48.22652" lon="0.65637">
        <ele>106</ele>
        <time>2012-03-23T12:46:49Z</time>
      </trkpt>
      <trkpt lat="48.22654" lon="0.6563">
        <ele>107</ele>
        <time>2012-03-23T12:46:53Z</time>
      </trkpt>
      <trkpt lat="48.22655" lon="0.65627">
        <ele>107</ele>
        <time>2012-03-23T12:46:55Z</time>
      </trkpt>
      <trkpt lat="48.22657" lon="0.65622">
        <ele>107</ele>
        <time>2012-03-23T12:46:58Z</time>
      </trkpt>
      <trkpt lat="48.22658" lon="0.65619">
        <ele>107</ele>
        <time>2012-03-23T12:47:00Z</time>
      </trkpt>
      <trkpt lat="48.22659" lon="0.65614">
        <ele>107</ele>
        <time>2012-03-23T12:47:03Z</time>
      </trkpt>
      <trkpt lat="48.2266" lon="0.65611">
        <ele>107</ele>
        <time>2012-03-23T12:47:05Z</time>
      </trkpt>
      <trkpt lat="48.22662" lon="0.65606">
        <ele>107</ele>
        <time>2012-03-23T12:47:08Z</time>
      </trkpt>
      <trkpt lat="48.22663" lon="0.65602">
        <ele>108</ele>
        <time>2012-03-23T12:47:10Z</time>
      </trkpt>
      <trkpt lat="48.22666" lon="0.65596">
        <ele>108</ele>
        <time>2012-03-23T12:47:14Z</time>
      </trkpt>
      <trkpt lat="48.22667" lon="0.65593">
        <ele>108</ele>
        <time>2012-03-23T12:47:16Z</time>
      </trkpt>
      <trkpt lat="48.22668" lon="0.6559">
        <ele>108</ele>
        <time>2012-03-23T12:47:18Z</time>
      </trkpt>
      <trkpt lat="48.22669" lon="0.65586">
        <ele>108</ele>
        <time>2012-03-23T12:47:20Z</time>
      </trkpt>
      <trkpt lat="48.22671" lon="0.65583">
        <ele>108</ele>
        <time>2012-03-23T12:47:22Z</time>
      </trkpt>
      <trkpt lat="48.22672" lon="0.65579">
        <ele>108</ele>
        <time>2012-03-23T12:47:24Z</time>
      </trkpt>
      <trkpt lat="48.22673" lon="0.65576">
        <ele>108</ele>
        <time>2012-03-23T12:47:26Z</time>
      </trkpt>
      <trkpt lat="48.22674" lon="0.65572">
        <ele>108</ele>
        <time>2012-03-23T12:47:28Z</time>
      </trkpt>
      <trkpt lat="48.22676" lon="0.65567">
        <ele>109</ele>
        <time>2012-03-23T12:47:31Z</time>
      </trkpt>
      <trkpt lat="48.22677" lon="0.65564">
        <ele>109</ele>
        <time>2012-03-23T12:47:33Z</time>
      </trkpt>
      <trkpt lat="48.22678" lon="0.65561">
        <ele>109</ele>
        <time>2012-03-23T12:47:35Z</time>
      </trkpt>
      <trkpt lat="48.2268" lon="0.65556">
        <ele>109</ele>
        <time>2012-03-23T12:47:38Z</time>
      </trkpt>
      <trkpt lat="48.22681" lon="0.65551">
        <ele>110</ele>
        <time>2012-03-23T12:47:41Z</time>
      </trkpt>
      <trkpt lat="48.22683" lon="0.65546">
        <ele>110</ele>
        <time>2012-03-23T12:47:44Z</time>
      </trkpt>
      <trkpt lat="48.22684" lon="0.65543">
        <ele>110</ele>
        <time>2012-03-23T12:47:46Z</time>
      </trkpt>
      <trkpt lat="48.22686" lon="0.65538">
        <ele>111</ele>
        <time>2012-03-23T12:47:49Z</time>
      </trkpt>
      <trkpt lat="48.22689" lon="0.65533">
        <ele>111</ele>
        <time>2012-03-23T12:47:53Z</time>
      </trkpt>
      <trkpt lat="48.22691" lon="0.65528">
        <ele>111</ele>
        <time>2012-03-23T12:47:56Z</time>
      </trkpt>
      <trkpt lat="48.22694" lon="0.65522">
        <ele>111</ele>
        <time>2012-03-23T12:48:00Z</time>
      </trkpt>
      <trkpt lat="48.22697" lon="0.65518">
        <ele>111</ele>
        <time>2012-03-23T12:48:04Z</time>
      </trkpt>
      <trkpt lat="48.22699" lon="0.65513">
        <ele>111</ele>
        <time>2012-03-23T12:48:08Z</time>
      </trkpt>
      <trkpt lat="48.22702" lon="0.65506">
        <ele>111</ele>
        <time>2012-03-23T12:48:12Z</time>
      </trkpt>
      <trkpt lat="48.22702" lon="0.65503">
        <ele>111</ele>
        <time>2012-03-23T12:48:14Z</time>
      </trkpt>
      <trkpt lat="48.22705" lon="0.65497">
        <ele>111</ele>
        <time>2012-03-23T12:48:18Z</time>
      </trkpt>
      <trkpt lat="48.22706" lon="0.65492">
        <ele>111</ele>
        <time>2012-03-23T12:48:21Z</time>
      </trkpt>
      <trkpt lat="48.22707" lon="0.65489">
        <ele>111</ele>
        <time>2012-03-23T12:48:23Z</time>
      </trkpt>
      <trkpt lat="48.22709" lon="0.65485">
        <ele>112</ele>
        <time>2012-03-23T12:48:26Z</time>
      </trkpt>
      <trkpt lat="48.22711" lon="0.65478">
        <ele>112</ele>
        <time>2012-03-23T12:48:30Z</time>
      </trkpt>
      <trkpt lat="48.22712" lon="0.65474">
        <ele>112</ele>
        <time>2012-03-23T12:48:33Z</time>
      </trkpt>
      <trkpt lat="48.22713" lon="0.65469">
        <ele>112</ele>
        <time>2012-03-23T12:48:36Z</time>
      </trkpt>
      <trkpt lat="48.22715" lon="0.65463">
        <ele>112</ele>
        <time>2012-03-23T12:48:40Z</time>
      </trkpt>
      <trkpt lat="48.22715" lon="0.6546">
        <ele>112</ele>
        <time>2012-03-23T12:48:42Z</time>
      </trkpt>
      <trkpt lat="48.22716" lon="0.65455">
        <ele>113</ele>
        <time>2012-03-23T12:48:45Z</time>
      </trkpt>
      <trkpt lat="48.22717" lon="0.65451">
        <ele>113</ele>
        <time>2012-03-23T12:48:47Z</time>
      </trkpt>
      <trkpt lat="48.22718" lon="0.65448">
        <ele>113</ele>
        <time>2012-03-23T12:48:49Z</time>
      </trkpt>
      <trkpt lat="48.22718" lon="0.65443">
        <ele>114</ele>
        <time>2012-03-23T12:48:52Z</time>
      </trkpt>
      <trkpt lat="48.22719" lon="0.65438">
        <ele>114</ele>
        <time>2012-03-23T12:48:55Z</time>
      </trkpt>
      <trkpt lat="48.22719" lon="0.65435">
        <ele>114</ele>
        <time>2012-03-23T12:48:57Z</time>
      </trkpt>
      <trkpt lat="48.2272" lon="0.65431">
        <ele>115</ele>
        <time>2012-03-23T12:48:59Z</time>
      </trkpt>
      <trkpt lat="48.2272" lon="0.65428">
        <ele>115</ele>
        <time>2012-03-23T12:49:01Z</time>
      </trkpt>
      <trkpt lat="48.22721" lon="0.65425">
        <ele>115</ele>
        <time>2012-03-23T12:49:03Z</time>
      </trkpt>
      <trkpt lat="48.22721" lon="0.65421">
        <ele>115</ele>
        <time>2012-03-23T12:49:05Z</time>
      </trkpt>
      <trkpt lat="48.22721" lon="0.65418">
        <ele>115</ele>
        <time>2012-03-23T12:49:07Z</time>
      </trkpt>
      <trkpt lat="48.22721" lon="0.65412">
        <ele>116</ele>
        <time>2012-03-23T12:49:11Z</time>
      </trkpt>
      <trkpt lat="48.22719" lon="0.65408">
        <ele>116</ele>
        <time>2012-03-23T12:49:15Z</time>
      </trkpt>
      <trkpt lat="48.22717" lon="0.65404">
        <ele>116</ele>
        <time>2012-03-23T12:49:19Z</time>
      </trkpt>
      <trkpt lat="48.22714" lon="0.65399">
        <ele>116</ele>
        <time>2012-03-23T12:49:23Z</time>
      </trkpt>
      <trkpt lat="48.22711" lon="0.65394">
        <ele>116</ele>
        <time>2012-03-23T12:49:27Z</time>
      </trkpt>
      <trkpt lat="48.22708" lon="0.65389">
        <ele>116</ele>
        <time>2012-03-23T12:49:31Z</time>
      </trkpt>
      <trkpt lat="48.22706" lon="0.65383">
        <ele>116</ele>
        <time>2012-03-23T12:49:35Z</time>
      </trkpt>
      <trkpt lat="48.22703" lon="0.65378">
        <ele>116</ele>
        <time>2012-03-23T12:49:39Z</time>
      </trkpt>
      <trkpt lat="48.227" lon="0.65373">
        <ele>116</ele>
        <time>2012-03-23T12:49:43Z</time>
      </trkpt>
      <trkpt lat="48.22697" lon="0.65368">
        <ele>116</ele>
        <time>2012-03-23T12:49:47Z</time>
      </trkpt>
      <trkpt lat="48.22695" lon="0.65363">
        <ele>116</ele>
        <time>2012-03-23T12:49:51Z</time>
      </trkpt>
      <trkpt lat="48.22693" lon="0.65357">
        <ele>116</ele>
        <time>2012-03-23T12:49:55Z</time>
      </trkpt>
      <trkpt lat="48.22691" lon="0.65351">
        <ele>116</ele>
        <time>2012-03-23T12:49:59Z</time>
      </trkpt>
      <trkpt lat="48.22689" lon="0.65347">
        <ele>116</ele>
        <time>2012-03-23T12:50:03Z</time>
      </trkpt>
      <trkpt lat="48.22687" lon="0.65343">
        <ele>116</ele>
        <time>2012-03-23T12:50:07Z</time>
      </trkpt>
      <trkpt lat="48.22686" lon="0.65338">
        <ele>116</ele>
        <time>2012-03-23T12:50:11Z</time>
      </trkpt>
      <trkpt lat="48.22685" lon="0.65332">
        <ele>117</ele>
        <time>2012-03-23T12:50:15Z</time>
      </trkpt>
      <trkpt lat="48.22684" lon="0.65326">
        <ele>117</ele>
        <time>2012-03-23T12:50:19Z</time>
      </trkpt>
      <trkpt lat="48.22683" lon="0.65321">
        <ele>118</ele>
        <time>2012-03-23T12:50:22Z</time>
      </trkpt>
      <trkpt lat="48.22683" lon="0.65316">
        <ele>118</ele>
        <time>2012-03-23T12:50:25Z</time>
      </trkpt>
      <trkpt lat="48.22682" lon="0.65313">
        <ele>118</ele>
        <time>2012-03-23T12:50:27Z</time>
      </trkpt>
      <trkpt lat="48.22682" lon="0.6531">
        <ele>118</ele>
        <time>2012-03-23T12:50:29Z</time>
      </trkpt>
      <trkpt lat="48.22681" lon="0.65305">
        <ele>118</ele>
        <time>2012-03-23T12:50:32Z</time>
      </trkpt>
      <trkpt lat="48.22681" lon="0.65302">
        <ele>119</ele>
        <time>2012-03-23T12:50:34Z</time>
      </trkpt>
      <trkpt lat="48.2268" lon="0.65298">
        <ele>119</ele>
        <time>2012-03-23T12:50:36Z</time>
      </trkpt>
      <trkpt lat="48.2268" lon="0.65295">
        <ele>119</ele>
        <time>2012-03-23T12:50:38Z</time>
      </trkpt>
      <trkpt lat="48.22679" lon="0.65291">
        <ele>119</ele>
        <time>2012-03-23T12:50:40Z</time>
      </trkpt>
      <trkpt lat="48.22679" lon="0.65288">
        <ele>119</ele>
        <time>2012-03-23T12:50:42Z</time>
      </trkpt>
      <trkpt lat="48.22679" lon="0.65285">
        <ele>119</ele>
        <time>2012-03-23T12:50:44Z</time>
      </trkpt>
      <trkpt lat="48.2268" lon="0.65281">
        <ele>119</ele>
        <time>2012-03-23T12:50:46Z</time>
      </trkpt>
      <trkpt lat="48.2268" lon="0.65278">
        <ele>120</ele>
        <time>2012-03-23T12:50:48Z</time>
      </trkpt>
      <trkpt lat="48.22681" lon="0.65275">
        <ele>120</ele>
        <time>2012-03-23T12:50:50Z</time>
      </trkpt>
      <trkpt lat="48.22682" lon="0.65271">
        <ele>120</ele>
        <time>2012-03-23T12:50:52Z</time>
      </trkpt>
      <trkpt lat="48.22684" lon="0.65265">
        <ele>121</ele>
        <time>2012-03-23T12:50:56Z</time>
      </trkpt>
      <trkpt lat="48.22687" lon="0.65259">
        <ele>121</ele>
        <time>2012-03-23T12:51:00Z</time>
      </trkpt>
      <trkpt lat="48.2269" lon="0.65254">
        <ele>122</ele>
        <time>2012-03-23T12:51:04Z</time>
      </trkpt>
      <trkpt lat="48.22692" lon="0.65249">
        <ele>122</ele>
        <time>2012-03-23T12:51:07Z</time>
      </trkpt>
      <trkpt lat="48.22694" lon="0.65244">
        <ele>123</ele>
        <time>2012-03-23T12:51:11Z</time>
      </trkpt>
      <trkpt lat="48.22696" lon="0.65238">
        <ele>123</ele>
        <time>2012-03-23T12:51:15Z</time>
      </trkpt>
      <trkpt lat="48.22698" lon="0.65234">
        <ele>123</ele>
        <time>2012-03-23T12:51:18Z</time>
      </trkpt>
      <trkpt lat="48.227" lon="0.65228">
        <ele>124</ele>
        <time>2012-03-23T12:51:22Z</time>
      </trkpt>
      <trkpt lat="48.22701" lon="0.65221">
        <ele>124</ele>
        <time>2012-03-23T12:51:26Z</time>
      </trkpt>
      <trkpt lat="48.22702" lon="0.65216">
        <ele>124</ele>
        <time>2012-03-23T12:51:29Z</time>
      </trkpt>
      <trkpt lat="48.22704" lon="0.65212">
        <ele>124</ele>
        <time>2012-03-23T12:51:32Z</time>
      </trkpt>
      <trkpt lat="48.22704" lon="0.65208">
        <ele>124</ele>
        <time>2012-03-23T12:51:34Z</time>
      </trkpt>
      <trkpt lat="48.22704" lon="0.65205">
        <ele>124</ele>
        <time>2012-03-23T12:51:36Z</time>
      </trkpt>
      <trkpt lat="48.22705" lon="0.65201">
        <ele>124</ele>
        <time>2012-03-23T12:51:38Z</time>
      </trkpt>
      <trkpt lat="48.22705" lon="0.65198">
        <ele>124</ele>
        <time>2012-03-23T12:51:40Z</time>
      </trkpt>
      <trkpt lat="48.22705" lon="0.65194">
        <ele>124</ele>
        <time>2012-03-23T12:51:42Z</time>
      </trkpt>
      <trkpt lat="48.22705" lon="0.65191">
        <ele>124</ele>
        <time>2012-03-23T12:51:44Z</time>
      </trkpt>
      <trkpt lat="48.22704" lon="0.65187">
        <ele>124</ele>
        <time>2012-03-23T12:51:46Z</time>
      </trkpt>
      <trkpt lat="48.22704" lon="0.65184">
        <ele>124</ele>
        <time>2012-03-23T12:51:48Z</time>
      </trkpt>
      <trkpt lat="48.22704" lon="0.6518">
        <ele>124</ele>
        <time>2012-03-23T12:51:50Z</time>
      </trkpt>
      <trkpt lat="48.22704" lon="0.65177">
        <ele>124</ele>
        <time>2012-03-23T12:51:52Z</time>
      </trkpt>
      <trkpt lat="48.22704" lon="0.65172">
        <ele>124</ele>
        <time>2012-03-23T12:51:55Z</time>
      </trkpt>
      <trkpt lat="48.22703" lon="0.65169">
        <ele>124</ele>
        <time>2012-03-23T12:51:57Z</time>
      </trkpt>
      <trkpt lat="48.22702" lon="0.65162">
        <ele>124</ele>
        <time>2012-03-23T12:52:01Z</time>
      </trkpt>
      <trkpt lat="48.22702" lon="0.65158">
        <ele>124</ele>
        <time>2012-03-23T12:52:03Z</time>
      </trkpt>
      <trkpt lat="48.22701" lon="0.65153">
        <ele>124</ele>
        <time>2012-03-23T12:52:06Z</time>
      </trkpt>
      <trkpt lat="48.227" lon="0.6515">
        <ele>124</ele>
        <time>2012-03-23T12:52:08Z</time>
      </trkpt>
      <trkpt lat="48.22699" lon="0.65145">
        <ele>124</ele>
        <time>2012-03-23T12:52:11Z</time>
      </trkpt>
      <trkpt lat="48.22699" lon="0.65142">
        <ele>124</ele>
        <time>2012-03-23T12:52:13Z</time>
      </trkpt>
      <trkpt lat="48.22699" lon="0.65137">
        <ele>124</ele>
        <time>2012-03-23T12:52:16Z</time>
      </trkpt>
      <trkpt lat="48.22698" lon="0.65134">
        <ele>124</ele>
        <time>2012-03-23T12:52:18Z</time>
      </trkpt>
      <trkpt lat="48.22698" lon="0.65131">
        <ele>125</ele>
        <time>2012-03-23T12:52:20Z</time>
      </trkpt>
      <trkpt lat="48.22698" lon="0.65124">
        <ele>125</ele>
        <time>2012-03-23T12:52:24Z</time>
      </trkpt>
      <trkpt lat="48.22698" lon="0.65121">
        <ele>125</ele>
        <time>2012-03-23T12:52:26Z</time>
      </trkpt>
      <trkpt lat="48.22698" lon="0.65117">
        <ele>125</ele>
        <time>2012-03-23T12:52:28Z</time>
      </trkpt>
      <trkpt lat="48.22698" lon="0.65112">
        <ele>125</ele>
        <time>2012-03-23T12:52:31Z</time>
      </trkpt>
      <trkpt lat="48.22698" lon="0.65107">
        <ele>125</ele>
        <time>2012-03-23T12:52:34Z</time>
      </trkpt>
      <trkpt lat="48.22699" lon="0.65101">
        <ele>125</ele>
        <time>2012-03-23T12:52:38Z</time>
      </trkpt>
      <trkpt lat="48.227" lon="0.65098">
        <ele>125</ele>
        <time>2012-03-23T12:52:40Z</time>
      </trkpt>
      <trkpt lat="48.22701" lon="0.65092">
        <ele>126</ele>
        <time>2012-03-23T12:52:44Z</time>
      </trkpt>
      <trkpt lat="48.22703" lon="0.65087">
        <ele>126</ele>
        <time>2012-03-23T12:52:48Z</time>
      </trkpt>
      <trkpt lat="48.22703" lon="0.65082">
        <ele>126</ele>
        <time>2012-03-23T12:52:52Z</time>
      </trkpt>
      <trkpt lat="48.22704" lon="0.65079">
        <ele>127</ele>
        <time>2012-03-23T12:52:57Z</time>
      </trkpt>
      <trkpt lat="48.22703" lon="0.65079">
        <ele>127</ele>
        <time>2012-03-23T12:53:05Z</time>
      </trkpt>
      <trkpt lat="48.22701" lon="0.65083">
        <ele>127</ele>
        <time>2012-03-23T12:53:09Z</time>
      </trkpt>
      <trkpt lat="48.22699" lon="0.65087">
        <ele>127</ele>
        <time>2012-03-23T12:53:13Z</time>
      </trkpt>
      <trkpt lat="48.22697" lon="0.65091">
        <ele>127</ele>
        <time>2012-03-23T12:53:17Z</time>
      </trkpt>
      <trkpt lat="48.22694" lon="0.65096">
        <ele>127</ele>
        <time>2012-03-23T12:53:22Z</time>
      </trkpt>
      <trkpt lat="48.22692" lon="0.651">
        <ele>128</ele>
        <time>2012-03-23T12:53:26Z</time>
      </trkpt>
      <trkpt lat="48.2269" lon="0.65102">
        <ele>129</ele>
        <time>2012-03-23T12:53:30Z</time>
      </trkpt>
      <trkpt lat="48.22688" lon="0.65105">
        <ele>129</ele>
        <time>2012-03-23T12:53:35Z</time>
      </trkpt>
      <trkpt lat="48.22687" lon="0.65109">
        <ele>130</ele>
        <time>2012-03-23T12:53:51Z</time>
      </trkpt>
      <trkpt lat="48.22684" lon="0.65111">
        <ele>130</ele>
        <time>2012-03-23T12:54:06Z</time>
      </trkpt>
      <trkpt lat="48.22682" lon="0.65113">
        <ele>130</ele>
        <time>2012-03-23T12:54:10Z</time>
      </trkpt>
      <trkpt lat="48.22679" lon="0.65115">
        <ele>130</ele>
        <time>2012-03-23T12:54:13Z</time>
      </trkpt>
      <trkpt lat="48.22676" lon="0.65115">
        <ele>130</ele>
        <time>2012-03-23T12:54:18Z</time>
      </trkpt>
      <trkpt lat="48.22673" lon="0.65118">
        <ele>130</ele>
        <time>2012-03-23T12:54:22Z</time>
      </trkpt>
      <trkpt lat="48.2267" lon="0.65119">
        <ele>130</ele>
        <time>2012-03-23T12:54:25Z</time>
      </trkpt>
      <trkpt lat="48.22666" lon="0.65121">
        <ele>130</ele>
        <time>2012-03-23T12:54:29Z</time>
      </trkpt>
      <trkpt lat="48.22662" lon="0.65123">
        <ele>130</ele>
        <time>2012-03-23T12:54:32Z</time>
      </trkpt>
      <trkpt lat="48.22658" lon="0.65123">
        <ele>130</ele>
        <time>2012-03-23T12:54:36Z</time>
      </trkpt>
      <trkpt lat="48.22655" lon="0.65124">
        <ele>130</ele>
        <time>2012-03-23T12:54:38Z</time>
      </trkpt>
      <trkpt lat="48.22653" lon="0.65123">
        <ele>130</ele>
        <time>2012-03-23T12:54:40Z</time>
      </trkpt>
      <trkpt lat="48.22649" lon="0.65122">
        <ele>130</ele>
        <time>2012-03-23T12:54:43Z</time>
      </trkpt>
      <trkpt lat="48.22645" lon="0.65123">
        <ele>130</ele>
        <time>2012-03-23T12:54:47Z</time>
      </trkpt>
      <trkpt lat="48.22641" lon="0.65123">
        <ele>129</ele>
        <time>2012-03-23T12:54:50Z</time>
      </trkpt>
      <trkpt lat="48.22638" lon="0.65123">
        <ele>128</ele>
        <time>2012-03-23T12:54:53Z</time>
      </trkpt>
      <trkpt lat="48.22635" lon="0.65123">
        <ele>128</ele>
        <time>2012-03-23T12:54:56Z</time>
      </trkpt>
      <trkpt lat="48.22632" lon="0.65122">
        <ele>128</ele>
        <time>2012-03-23T12:55:00Z</time>
      </trkpt>
      <trkpt lat="48.22629" lon="0.65123">
        <ele>128</ele>
        <time>2012-03-23T12:55:02Z</time>
      </trkpt>
      <trkpt lat="48.22625" lon="0.65122">
        <ele>128</ele>
        <time>2012-03-23T12:55:05Z</time>
      </trkpt>
      <trkpt lat="48.22622" lon="0.65122">
        <ele>128</ele>
        <time>2012-03-23T12:55:08Z</time>
      </trkpt>
      <trkpt lat="48.2262" lon="0.65123">
        <ele>128</ele>
        <time>2012-03-23T12:55:10Z</time>
      </trkpt>
      <trkpt lat="48.22616" lon="0.65124">
        <ele>128</ele>
        <time>2012-03-23T12:55:13Z</time>
      </trkpt>
      <trkpt lat="48.22613" lon="0.65127">
        <ele>128</ele>
        <time>2012-03-23T12:55:16Z</time>
      </trkpt>
      <trkpt lat="48.22609" lon="0.65128">
        <ele>128</ele>
        <time>2012-03-23T12:55:20Z</time>
      </trkpt>
      <trkpt lat="48.22606" lon="0.65131">
        <ele>128</ele>
        <time>2012-03-23T12:55:24Z</time>
      </trkpt>
      <trkpt lat="48.22604" lon="0.65136">
        <ele>128</ele>
        <time>2012-03-23T12:55:29Z</time>
      </trkpt>
      <trkpt lat="48.22601" lon="0.65141">
        <ele>128</ele>
        <time>2012-03-23T12:55:33Z</time>
      </trkpt>
      <trkpt lat="48.22599" lon="0.65144">
        <ele>128</ele>
        <time>2012-03-23T12:55:37Z</time>
      </trkpt>
      <trkpt lat="48.22597" lon="0.65148">
        <ele>128</ele>
        <time>2012-03-23T12:55:42Z</time>
      </trkpt>
      <trkpt lat="48.22596" lon="0.65152">
        <ele>128</ele>
        <time>2012-03-23T12:55:47Z</time>
      </trkpt>
      <trkpt lat="48.22593" lon="0.65155">
        <ele>128</ele>
        <time>2012-03-23T12:55:51Z</time>
      </trkpt>
      <trkpt lat="48.2259" lon="0.65158">
        <ele>128</ele>
        <time>2012-03-23T12:55:55Z</time>
      </trkpt>
      <trkpt lat="48.22588" lon="0.65163">
        <ele>127</ele>
        <time>2012-03-23T12:55:59Z</time>
      </trkpt>
      <trkpt lat="48.22586" lon="0.65167">
        <ele>127</ele>
        <time>2012-03-23T12:56:02Z</time>
      </trkpt>
      <trkpt lat="48.22584" lon="0.65173">
        <ele>127</ele>
        <time>2012-03-23T12:56:07Z</time>
      </trkpt>
      <trkpt lat="48.22581" lon="0.65179">
        <ele>127</ele>
        <time>2012-03-23T12:56:11Z</time>
      </trkpt>
      <trkpt lat="48.2258" lon="0.65184">
        <ele>127</ele>
        <time>2012-03-23T12:56:15Z</time>
      </trkpt>
      <trkpt lat="48.22578" lon="0.65188">
        <ele>127</ele>
        <time>2012-03-23T12:56:19Z</time>
      </trkpt>
      <trkpt lat="48.22575" lon="0.65193">
        <ele>126</ele>
        <time>2012-03-23T12:56:24Z</time>
      </trkpt>
      <trkpt lat="48.22572" lon="0.652">
        <ele>126</ele>
        <time>2012-03-23T12:56:28Z</time>
      </trkpt>
      <trkpt lat="48.22569" lon="0.65206">
        <ele>126</ele>
        <time>2012-03-23T12:56:32Z</time>
      </trkpt>
      <trkpt lat="48.22567" lon="0.65212">
        <ele>126</ele>
        <time>2012-03-23T12:56:36Z</time>
      </trkpt>
      <trkpt lat="48.22566" lon="0.65216">
        <ele>126</ele>
        <time>2012-03-23T12:56:39Z</time>
      </trkpt>
      <trkpt lat="48.22562" lon="0.65219">
        <ele>126</ele>
        <time>2012-03-23T12:56:42Z</time>
      </trkpt>
      <trkpt lat="48.22559" lon="0.65219">
        <ele>126</ele>
        <time>2012-03-23T12:56:44Z</time>
      </trkpt>
      <trkpt lat="48.22556" lon="0.6522">
        <ele>125</ele>
        <time>2012-03-23T12:56:47Z</time>
      </trkpt>
      <trkpt lat="48.22554" lon="0.65222">
        <ele>125</ele>
        <time>2012-03-23T12:56:49Z</time>
      </trkpt>
      <trkpt lat="48.22548" lon="0.65224">
        <ele>125</ele>
        <time>2012-03-23T12:56:54Z</time>
      </trkpt>
      <trkpt lat="48.22544" lon="0.65224">
        <ele>125</ele>
        <time>2012-03-23T12:56:57Z</time>
      </trkpt>
      <trkpt lat="48.22542" lon="0.65225">
        <ele>125</ele>
        <time>2012-03-23T12:56:59Z</time>
      </trkpt>
      <trkpt lat="48.22539" lon="0.65226">
        <ele>125</ele>
        <time>2012-03-23T12:57:01Z</time>
      </trkpt>
      <trkpt lat="48.22537" lon="0.65227">
        <ele>125</ele>
        <time>2012-03-23T12:57:03Z</time>
      </trkpt>
      <trkpt lat="48.22534" lon="0.65227">
        <ele>125</ele>
        <time>2012-03-23T12:57:05Z</time>
      </trkpt>
      <trkpt lat="48.22532" lon="0.65228">
        <ele>125</ele>
        <time>2012-03-23T12:57:07Z</time>
      </trkpt>
      <trkpt lat="48.22529" lon="0.65228">
        <ele>125</ele>
        <time>2012-03-23T12:57:09Z</time>
      </trkpt>
      <trkpt lat="48.22527" lon="0.65228">
        <ele>125</ele>
        <time>2012-03-23T12:57:11Z</time>
      </trkpt>
      <trkpt lat="48.22523" lon="0.65229">
        <ele>124</ele>
        <time>2012-03-23T12:57:13Z</time>
      </trkpt>
      <trkpt lat="48.22521" lon="0.65229">
        <ele>124</ele>
        <time>2012-03-23T12:57:15Z</time>
      </trkpt>
      <trkpt lat="48.22518" lon="0.6523">
        <ele>123</ele>
        <time>2012-03-23T12:57:17Z</time>
      </trkpt>
      <trkpt lat="48.22514" lon="0.65231">
        <ele>123</ele>
        <time>2012-03-23T12:57:20Z</time>
      </trkpt>
      <trkpt lat="48.2251" lon="0.65231">
        <ele>123</ele>
        <time>2012-03-23T12:57:24Z</time>
      </trkpt>
      <trkpt lat="48.22507" lon="0.65232">
        <ele>123</ele>
        <time>2012-03-23T12:57:27Z</time>
      </trkpt>
      <trkpt lat="48.22503" lon="0.65232">
        <ele>122</ele>
        <time>2012-03-23T12:57:30Z</time>
      </trkpt>
      <trkpt lat="48.22501" lon="0.65232">
        <ele>122</ele>
        <time>2012-03-23T12:57:32Z</time>
      </trkpt>
      <trkpt lat="48.22498" lon="0.65233">
        <ele>122</ele>
        <time>2012-03-23T12:57:34Z</time>
      </trkpt>
      <trkpt lat="48.22495" lon="0.65232">
        <ele>122</ele>
        <time>2012-03-23T12:57:37Z</time>
      </trkpt>
      <trkpt lat="48.22492" lon="0.65234">
        <ele>122</ele>
        <time>2012-03-23T12:57:39Z</time>
      </trkpt>
      <trkpt lat="48.2249" lon="0.65234">
        <ele>122</ele>
        <time>2012-03-23T12:57:41Z</time>
      </trkpt>
      <trkpt lat="48.22487" lon="0.65234">
        <ele>122</ele>
        <time>2012-03-23T12:57:43Z</time>
      </trkpt>
      <trkpt lat="48.22485" lon="0.65234">
        <ele>121</ele>
        <time>2012-03-23T12:57:45Z</time>
      </trkpt>
      <trkpt lat="48.22482" lon="0.65233">
        <ele>121</ele>
        <time>2012-03-23T12:57:48Z</time>
      </trkpt>
      <trkpt lat="48.22478" lon="0.65235">
        <ele>121</ele>
        <time>2012-03-23T12:57:52Z</time>
      </trkpt>
      <trkpt lat="48.22475" lon="0.65235">
        <ele>121</ele>
        <time>2012-03-23T12:57:55Z</time>
      </trkpt>
      <trkpt lat="48.22471" lon="0.65235">
        <ele>121</ele>
        <time>2012-03-23T12:57:59Z</time>
      </trkpt>
      <trkpt lat="48.22469" lon="0.65235">
        <ele>121</ele>
        <time>2012-03-23T12:58:01Z</time>
      </trkpt>
      <trkpt lat="48.22466" lon="0.65236">
        <ele>121</ele>
        <time>2012-03-23T12:58:03Z</time>
      </trkpt>
      <trkpt lat="48.22462" lon="0.65239">
        <ele>121</ele>
        <time>2012-03-23T12:58:05Z</time>
      </trkpt>
      <trkpt lat="48.22459" lon="0.6524">
        <ele>121</ele>
        <time>2012-03-23T12:58:08Z</time>
      </trkpt>
      <trkpt lat="48.22456" lon="0.65241">
        <ele>121</ele>
        <time>2012-03-23T12:58:10Z</time>
      </trkpt>
      <trkpt lat="48.22453" lon="0.65244">
        <ele>120</ele>
        <time>2012-03-23T12:58:13Z</time>
      </trkpt>
      <trkpt lat="48.2245" lon="0.65245">
        <ele>120</ele>
        <time>2012-03-23T12:58:15Z</time>
      </trkpt>
      <trkpt lat="48.22448" lon="0.65247">
        <ele>120</ele>
        <time>2012-03-23T12:58:17Z</time>
      </trkpt>
      <trkpt lat="48.22445" lon="0.65249">
        <ele>119</ele>
        <time>2012-03-23T12:58:19Z</time>
      </trkpt>
      <trkpt lat="48.22443" lon="0.6525">
        <ele>119</ele>
        <time>2012-03-23T12:58:21Z</time>
      </trkpt>
      <trkpt lat="48.22439" lon="0.65253">
        <ele>118</ele>
        <time>2012-03-23T12:58:24Z</time>
      </trkpt>
      <trkpt lat="48.22436" lon="0.65254">
        <ele>118</ele>
        <time>2012-03-23T12:58:27Z</time>
      </trkpt>
      <trkpt lat="48.22433" lon="0.65256">
        <ele>118</ele>
        <time>2012-03-23T12:58:29Z</time>
      </trkpt>
      <trkpt lat="48.2243" lon="0.65257">
        <ele>118</ele>
        <time>2012-03-23T12:58:32Z</time>
      </trkpt>
      <trkpt lat="48.22427" lon="0.65258">
        <ele>117</ele>
        <time>2012-03-23T12:58:34Z</time>
      </trkpt>
      <trkpt lat="48.22423" lon="0.6526">
        <ele>117</ele>
        <time>2012-03-23T12:58:38Z</time>
      </trkpt>
      <trkpt lat="48.22421" lon="0.65261">
        <ele>116</ele>
        <time>2012-03-23T12:58:40Z</time>
      </trkpt>
      <trkpt lat="48.22418" lon="0.65262">
        <ele>116</ele>
        <time>2012-03-23T12:58:42Z</time>
      </trkpt>
      <trkpt lat="48.22414" lon="0.65264">
        <ele>116</ele>
        <time>2012-03-23T12:58:45Z</time>
      </trkpt>
      <trkpt lat="48.22411" lon="0.65265">
        <ele>115</ele>
        <time>2012-03-23T12:58:48Z</time>
      </trkpt>
      <trkpt lat="48.22407" lon="0.65266">
        <ele>115</ele>
        <time>2012-03-23T12:58:52Z</time>
      </trkpt>
      <trkpt lat="48.22405" lon="0.65267">
        <ele>114</ele>
        <time>2012-03-23T12:58:54Z</time>
      </trkpt>
      <trkpt lat="48.22403" lon="0.65268">
        <ele>114</ele>
        <time>2012-03-23T12:58:56Z</time>
      </trkpt>
      <trkpt lat="48.224" lon="0.65269">
        <ele>114</ele>
        <time>2012-03-23T12:58:58Z</time>
      </trkpt>
      <trkpt lat="48.22398" lon="0.65269">
        <ele>113</ele>
        <time>2012-03-23T12:59:00Z</time>
      </trkpt>
      <trkpt lat="48.22395" lon="0.6527">
        <ele>113</ele>
        <time>2012-03-23T12:59:02Z</time>
      </trkpt>
      <trkpt lat="48.22391" lon="0.65272">
        <ele>113</ele>
        <time>2012-03-23T12:59:06Z</time>
      </trkpt>
      <trkpt lat="48.22389" lon="0.65273">
        <ele>113</ele>
        <time>2012-03-23T12:59:08Z</time>
      </trkpt>
      <trkpt lat="48.22385" lon="0.65275">
        <ele>112</ele>
        <time>2012-03-23T12:59:12Z</time>
      </trkpt>
      <trkpt lat="48.22382" lon="0.65277">
        <ele>112</ele>
        <time>2012-03-23T12:59:15Z</time>
      </trkpt>
      <trkpt lat="48.22379" lon="0.6528">
        <ele>112</ele>
        <time>2012-03-23T12:59:18Z</time>
      </trkpt>
      <trkpt lat="48.22375" lon="0.65282">
        <ele>111</ele>
        <time>2012-03-23T12:59:22Z</time>
      </trkpt>
      <trkpt lat="48.22372" lon="0.65285">
        <ele>111</ele>
        <time>2012-03-23T12:59:25Z</time>
      </trkpt>
      <trkpt lat="48.22369" lon="0.65287">
        <ele>111</ele>
        <time>2012-03-23T12:59:28Z</time>
      </trkpt>
      <trkpt lat="48.22364" lon="0.6529">
        <ele>110</ele>
        <time>2012-03-23T12:59:32Z</time>
      </trkpt>
      <trkpt lat="48.22361" lon="0.65292">
        <ele>110</ele>
        <time>2012-03-23T12:59:36Z</time>
      </trkpt>
      <trkpt lat="48.22357" lon="0.65294">
        <ele>109</ele>
        <time>2012-03-23T12:59:40Z</time>
      </trkpt>
      <trkpt lat="48.22353" lon="0.65297">
        <ele>109</ele>
        <time>2012-03-23T12:59:44Z</time>
      </trkpt>
      <trkpt lat="48.2235" lon="0.65299">
        <ele>109</ele>
        <time>2012-03-23T12:59:47Z</time>
      </trkpt>
      <trkpt lat="48.22347" lon="0.65302">
        <ele>108</ele>
        <time>2012-03-23T12:59:49Z</time>
      </trkpt>
      <trkpt lat="48.22343" lon="0.65306">
        <ele>108</ele>
        <time>2012-03-23T12:59:52Z</time>
      </trkpt>
      <trkpt lat="48.22339" lon="0.6531">
        <ele>108</ele>
        <time>2012-03-23T12:59:55Z</time>
      </trkpt>
      <trkpt lat="48.22336" lon="0.65315">
        <ele>107</ele>
        <time>2012-03-23T12:59:59Z</time>
      </trkpt>
      <trkpt lat="48.22333" lon="0.6532">
        <ele>107</ele>
        <time>2012-03-23T13:00:01Z</time>
      </trkpt>
      <trkpt lat="48.22331" lon="0.65324">
        <ele>106</ele>
        <time>2012-03-23T13:00:04Z</time>
      </trkpt>
      <trkpt lat="48.22328" lon="0.6533">
        <ele>106</ele>
        <time>2012-03-23T13:00:07Z</time>
      </trkpt>
      <trkpt lat="48.22324" lon="0.65338">
        <ele>105</ele>
        <time>2012-03-23T13:00:11Z</time>
      </trkpt>
      <trkpt lat="48.22321" lon="0.65343">
        <ele>105</ele>
        <time>2012-03-23T13:00:16Z</time>
      </trkpt>
      <trkpt lat="48.22318" lon="0.65349">
        <ele>104</ele>
        <time>2012-03-23T13:00:19Z</time>
      </trkpt>
      <trkpt lat="48.22314" lon="0.65353">
        <ele>104</ele>
        <time>2012-03-23T13:00:23Z</time>
      </trkpt>
      <trkpt lat="48.22311" lon="0.65357">
        <ele>104</ele>
        <time>2012-03-23T13:00:28Z</time>
      </trkpt>
      <trkpt lat="48.22307" lon="0.65359">
        <ele>104</ele>
        <time>2012-03-23T13:00:30Z</time>
      </trkpt>
      <trkpt lat="48.22304" lon="0.6536">
        <ele>104</ele>
        <time>2012-03-23T13:00:33Z</time>
      </trkpt>
      <trkpt lat="48.223" lon="0.65362">
        <ele>104</ele>
        <time>2012-03-23T13:00:35Z</time>
      </trkpt>
      <trkpt lat="48.22298" lon="0.65364">
        <ele>104</ele>
        <time>2012-03-23T13:00:37Z</time>
      </trkpt>
      <trkpt lat="48.22295" lon="0.65365">
        <ele>104</ele>
        <time>2012-03-23T13:00:39Z</time>
      </trkpt>
      <trkpt lat="48.22293" lon="0.65366">
        <ele>104</ele>
        <time>2012-03-23T13:00:41Z</time>
      </trkpt>
      <trkpt lat="48.2229" lon="0.65367">
        <ele>104</ele>
        <time>2012-03-23T13:00:44Z</time>
      </trkpt>
      <trkpt lat="48.22286" lon="0.65368">
        <ele>103</ele>
        <time>2012-03-23T13:00:48Z</time>
      </trkpt>
      <trkpt lat="48.22283" lon="0.65369">
        <ele>103</ele>
        <time>2012-03-23T13:00:52Z</time>
      </trkpt>
      <trkpt lat="48.2228" lon="0.65368">
        <ele>103</ele>
        <time>2012-03-23T13:00:58Z</time>
      </trkpt>
      <trkpt lat="48.22278" lon="0.65369">
        <ele>103</ele>
        <time>2012-03-23T13:01:08Z</time>
      </trkpt>
      <trkpt lat="48.22277" lon="0.65372">
        <ele>103</ele>
        <time>2012-03-23T13:01:16Z</time>
      </trkpt>
      <trkpt lat="48.22276" lon="0.65372">
        <ele>103</ele>
        <time>2012-03-23T13:01:19Z</time>
      </trkpt>
      <trkpt lat="48.22273" lon="0.65372">
        <ele>103</ele>
        <time>2012-03-23T13:01:26Z</time>
      </trkpt>
      <trkpt lat="48.2227" lon="0.65373">
        <ele>102</ele>
        <time>2012-03-23T13:01:31Z</time>
      </trkpt>
      <trkpt lat="48.22268" lon="0.65375">
        <ele>101</ele>
        <time>2012-03-23T13:01:36Z</time>
      </trkpt>
      <trkpt lat="48.22264" lon="0.65378">
        <ele>100</ele>
        <time>2012-03-23T13:01:40Z</time>
      </trkpt>
      <trkpt lat="48.22261" lon="0.6538">
        <ele>99</ele>
        <time>2012-03-23T13:01:42Z</time>
      </trkpt>
      <trkpt lat="48.22258" lon="0.65382">
        <ele>97</ele>
        <time>2012-03-23T13:01:46Z</time>
      </trkpt>
      <trkpt lat="48.22255" lon="0.65382">
        <ele>97</ele>
        <time>2012-03-23T13:01:51Z</time>
      </trkpt>
      <trkpt lat="48.22252" lon="0.65382">
        <ele>97</ele>
        <time>2012-03-23T13:01:54Z</time>
      </trkpt>
      <trkpt lat="48.22249" lon="0.65383">
        <ele>97</ele>
        <time>2012-03-23T13:01:57Z</time>
      </trkpt>
      <trkpt lat="48.22246" lon="0.65386">
        <ele>97</ele>
        <time>2012-03-23T13:02:02Z</time>
      </trkpt>
      <trkpt lat="48.22243" lon="0.65387">
        <ele>97</ele>
        <time>2012-03-23T13:02:06Z</time>
      </trkpt>
      <trkpt lat="48.2224" lon="0.6539">
        <ele>97</ele>
        <time>2012-03-23T13:02:09Z</time>
      </trkpt>
      <trkpt lat="48.22236" lon="0.65391">
        <ele>96</ele>
        <time>2012-03-23T13:02:14Z</time>
      </trkpt>
      <trkpt lat="48.22234" lon="0.65393">
        <ele>95</ele>
        <time>2012-03-23T13:02:19Z</time>
      </trkpt>
      <trkpt lat="48.2223" lon="0.65396">
        <ele>95</ele>
        <time>2012-03-23T13:02:23Z</time>
      </trkpt>
      <trkpt lat="48.22228" lon="0.654">
        <ele>95</ele>
        <time>2012-03-23T13:02:29Z</time>
      </trkpt>
      <trkpt lat="48.22226" lon="0.65404">
        <ele>95</ele>
        <time>2012-03-23T13:02:33Z</time>
      </trkpt>
      <trkpt lat="48.22225" lon="0.65408">
        <ele>95</ele>
        <time>2012-03-23T13:02:38Z</time>
      </trkpt>
      <trkpt lat="48.22224" lon="0.65412">
        <ele>95</ele>
        <time>2012-03-23T13:02:42Z</time>
      </trkpt>
      <trkpt lat="48.22223" lon="0.65416">
        <ele>95</ele>
        <time>2012-03-23T13:02:46Z</time>
      </trkpt>
      <trkpt lat="48.22222" lon="0.6542">
        <ele>95</ele>
        <time>2012-03-23T13:02:48Z</time>
      </trkpt>
      <trkpt lat="48.22221" lon="0.65425">
        <ele>95</ele>
        <time>2012-03-23T13:02:52Z</time>
      </trkpt>
      <trkpt lat="48.22219" lon="0.65431">
        <ele>95</ele>
        <time>2012-03-23T13:02:56Z</time>
      </trkpt>
      <trkpt lat="48.22218" lon="0.65439">
        <ele>95</ele>
        <time>2012-03-23T13:03:00Z</time>
      </trkpt>
      <trkpt lat="48.22219" lon="0.65446">
        <ele>95</ele>
        <time>2012-03-23T13:03:05Z</time>
      </trkpt>
      <trkpt lat="48.22218" lon="0.65449">
        <ele>95</ele>
        <time>2012-03-23T13:03:08Z</time>
      </trkpt>
      <trkpt lat="48.22216" lon="0.65454">
        <ele>95</ele>
        <time>2012-03-23T13:03:10Z</time>
      </trkpt>
      <trkpt lat="48.22215" lon="0.65459">
        <ele>95</ele>
        <time>2012-03-23T13:03:13Z</time>
      </trkpt>
      <trkpt lat="48.22214" lon="0.65462">
        <ele>95</ele>
        <time>2012-03-23T13:03:15Z</time>
      </trkpt>
      <trkpt lat="48.22213" lon="0.65468">
        <ele>94</ele>
        <time>2012-03-23T13:03:19Z</time>
      </trkpt>
      <trkpt lat="48.22212" lon="0.65473">
        <ele>93</ele>
        <time>2012-03-23T13:03:23Z</time>
      </trkpt>
      <trkpt lat="48.22211" lon="0.65477">
        <ele>93</ele>
        <time>2012-03-23T13:03:26Z</time>
      </trkpt>
      <trkpt lat="48.2221" lon="0.65482">
        <ele>93</ele>
        <time>2012-03-23T13:03:31Z</time>
      </trkpt>
      <trkpt lat="48.22208" lon="0.65486">
        <ele>93</ele>
        <time>2012-03-23T13:03:35Z</time>
      </trkpt>
      <trkpt lat="48.22207" lon="0.65491">
        <ele>93</ele>
        <time>2012-03-23T13:03:38Z</time>
      </trkpt>
      <trkpt lat="48.22206" lon="0.65496">
        <ele>92</ele>
        <time>2012-03-23T13:03:41Z</time>
      </trkpt>
      <trkpt lat="48.22205" lon="0.655">
        <ele>92</ele>
        <time>2012-03-23T13:03:43Z</time>
      </trkpt>
      <trkpt lat="48.22206" lon="0.65505">
        <ele>92</ele>
        <time>2012-03-23T13:03:47Z</time>
      </trkpt>
      <trkpt lat="48.22204" lon="0.65512">
        <ele>92</ele>
        <time>2012-03-23T13:03:51Z</time>
      </trkpt>
      <trkpt lat="48.22203" lon="0.65519">
        <ele>92</ele>
        <time>2012-03-23T13:03:54Z</time>
      </trkpt>
      <trkpt lat="48.22202" lon="0.65522">
        <ele>92</ele>
        <time>2012-03-23T13:03:57Z</time>
      </trkpt>
      <trkpt lat="48.22203" lon="0.65528">
        <ele>92</ele>
        <time>2012-03-23T13:04:00Z</time>
      </trkpt>
      <trkpt lat="48.22203" lon="0.65531">
        <ele>92</ele>
        <time>2012-03-23T13:04:03Z</time>
      </trkpt>
      <trkpt lat="48.22201" lon="0.6554">
        <ele>92</ele>
        <time>2012-03-23T13:04:08Z</time>
      </trkpt>
      <trkpt lat="48.22201" lon="0.65546">
        <ele>92</ele>
        <time>2012-03-23T13:04:11Z</time>
      </trkpt>
      <trkpt lat="48.22202" lon="0.65549">
        <ele>92</ele>
        <time>2012-03-23T13:04:32Z</time>
      </trkpt>
      <trkpt lat="48.22202" lon="0.65553">
        <ele>92</ele>
        <time>2012-03-23T13:04:37Z</time>
      </trkpt>
      <trkpt lat="48.22202" lon="0.6556">
        <ele>92</ele>
        <time>2012-03-23T13:04:40Z</time>
      </trkpt>
      <trkpt lat="48.22201" lon="0.65563">
        <ele>92</ele>
        <time>2012-03-23T13:04:43Z</time>
      </trkpt>
      <trkpt lat="48.22199" lon="0.65567">
        <ele>92</ele>
        <time>2012-03-23T13:04:45Z</time>
      </trkpt>
      <trkpt lat="48.22198" lon="0.65575">
        <ele>92</ele>
        <time>2012-03-23T13:04:49Z</time>
      </trkpt>
      <trkpt lat="48.22197" lon="0.6558">
        <ele>92</ele>
        <time>2012-03-23T13:04:52Z</time>
      </trkpt>
      <trkpt lat="48.22196" lon="0.65586">
        <ele>92</ele>
        <time>2012-03-23T13:04:55Z</time>
      </trkpt>
      <trkpt lat="48.22196" lon="0.65592">
        <ele>92</ele>
        <time>2012-03-23T13:04:57Z</time>
      </trkpt>
      <trkpt lat="48.22195" lon="0.65596">
        <ele>92</ele>
        <time>2012-03-23T13:05:00Z</time>
      </trkpt>
      <trkpt lat="48.22195" lon="0.65602">
        <ele>92</ele>
        <time>2012-03-23T13:05:03Z</time>
      </trkpt>
      <trkpt lat="48.22194" lon="0.65608">
        <ele>92</ele>
        <time>2012-03-23T13:05:06Z</time>
      </trkpt>
      <trkpt lat="48.22193" lon="0.65612">
        <ele>92</ele>
        <time>2012-03-23T13:05:08Z</time>
      </trkpt>
      <trkpt lat="48.22192" lon="0.65618">
        <ele>92</ele>
        <time>2012-03-23T13:05:11Z</time>
      </trkpt>
      <trkpt lat="48.22191" lon="0.65623">
        <ele>92</ele>
        <time>2012-03-23T13:05:13Z</time>
      </trkpt>
      <trkpt lat="48.2219" lon="0.65628">
        <ele>92</ele>
        <time>2012-03-23T13:05:17Z</time>
      </trkpt>
      <trkpt lat="48.22187" lon="0.65634">
        <ele>92</ele>
        <time>2012-03-23T13:05:20Z</time>
      </trkpt>
      <trkpt lat="48.22184" lon="0.65639">
        <ele>92</ele>
        <time>2012-03-23T13:05:25Z</time>
      </trkpt>
      <trkpt lat="48.22179" lon="0.65641">
        <ele>92</ele>
        <time>2012-03-23T13:05:29Z</time>
      </trkpt>
      <trkpt lat="48.22176" lon="0.65643">
        <ele>92</ele>
        <time>2012-03-23T13:05:31Z</time>
      </trkpt>
      <trkpt lat="48.22173" lon="0.65644">
        <ele>92</ele>
        <time>2012-03-23T13:05:34Z</time>
      </trkpt>
      <trkpt lat="48.2217" lon="0.65644">
        <ele>92</ele>
        <time>2012-03-23T13:05:37Z</time>
      </trkpt>
      <trkpt lat="48.22166" lon="0.65643">
        <ele>92</ele>
        <time>2012-03-23T13:05:40Z</time>
      </trkpt>
      <trkpt lat="48.22162" lon="0.65642">
        <ele>92</ele>
        <time>2012-03-23T13:05:42Z</time>
      </trkpt>
      <trkpt lat="48.22159" lon="0.65641">
        <ele>92</ele>
        <time>2012-03-23T13:05:46Z</time>
      </trkpt>
      <trkpt lat="48.22154" lon="0.65639">
        <ele>92</ele>
        <time>2012-03-23T13:05:49Z</time>
      </trkpt>
      <trkpt lat="48.22152" lon="0.65638">
        <ele>92</ele>
        <time>2012-03-23T13:05:51Z</time>
      </trkpt>
      <trkpt lat="48.22149" lon="0.65637">
        <ele>92</ele>
        <time>2012-03-23T13:05:54Z</time>
      </trkpt>
      <trkpt lat="48.22145" lon="0.65636">
        <ele>92</ele>
        <time>2012-03-23T13:05:57Z</time>
      </trkpt>
      <trkpt lat="48.22142" lon="0.65634">
        <ele>92</ele>
        <time>2012-03-23T13:06:00Z</time>
      </trkpt>
      <trkpt lat="48.22139" lon="0.65633">
        <ele>92</ele>
        <time>2012-03-23T13:06:02Z</time>
      </trkpt>
      <trkpt lat="48.22135" lon="0.65631">
        <ele>92</ele>
        <time>2012-03-23T13:06:05Z</time>
      </trkpt>
      <trkpt lat="48.22131" lon="0.65629">
        <ele>92</ele>
        <time>2012-03-23T13:06:09Z</time>
      </trkpt>
      <trkpt lat="48.22127" lon="0.65627">
        <ele>92</ele>
        <time>2012-03-23T13:06:11Z</time>
      </trkpt>
      <trkpt lat="48.22124" lon="0.65626">
        <ele>92</ele>
        <time>2012-03-23T13:06:14Z</time>
      </trkpt>
      <trkpt lat="48.22121" lon="0.65624">
        <ele>92</ele>
        <time>2012-03-23T13:06:16Z</time>
      </trkpt>
      <trkpt lat="48.22117" lon="0.65622">
        <ele>92</ele>
        <time>2012-03-23T13:06:19Z</time>
      </trkpt>
      <trkpt lat="48.22113" lon="0.6562">
        <ele>92</ele>
        <time>2012-03-23T13:06:22Z</time>
      </trkpt>
      <trkpt lat="48.22111" lon="0.65618">
        <ele>92</ele>
        <time>2012-03-23T13:06:25Z</time>
      </trkpt>
      <trkpt lat="48.22108" lon="0.65617">
        <ele>92</ele>
        <time>2012-03-23T13:06:27Z</time>
      </trkpt>
      <trkpt lat="48.22104" lon="0.65615">
        <ele>92</ele>
        <time>2012-03-23T13:06:31Z</time>
      </trkpt>
      <trkpt lat="48.221" lon="0.65613">
        <ele>92</ele>
        <time>2012-03-23T13:06:34Z</time>
      </trkpt>
      <trkpt lat="48.22097" lon="0.65612">
        <ele>92</ele>
        <time>2012-03-23T13:06:37Z</time>
      </trkpt>
      <trkpt lat="48.22094" lon="0.6561">
        <ele>92</ele>
        <time>2012-03-23T13:06:39Z</time>
      </trkpt>
      <trkpt lat="48.22089" lon="0.65608">
        <ele>92</ele>
        <time>2012-03-23T13:06:44Z</time>
      </trkpt>
      <trkpt lat="48.22085" lon="0.65607">
        <ele>92</ele>
        <time>2012-03-23T13:06:47Z</time>
      </trkpt>
      <trkpt lat="48.22081" lon="0.65606">
        <ele>92</ele>
        <time>2012-03-23T13:06:49Z</time>
      </trkpt>
      <trkpt lat="48.22078" lon="0.65606">
        <ele>92</ele>
        <time>2012-03-23T13:06:52Z</time>
      </trkpt>
      <trkpt lat="48.22074" lon="0.65605">
        <ele>92</ele>
        <time>2012-03-23T13:06:54Z</time>
      </trkpt>
      <trkpt lat="48.2207" lon="0.65604">
        <ele>92</ele>
        <time>2012-03-23T13:06:57Z</time>
      </trkpt>
      <trkpt lat="48.22067" lon="0.65604">
        <ele>92</ele>
        <time>2012-03-23T13:07:00Z</time>
      </trkpt>
      <trkpt lat="48.22064" lon="0.65603">
        <ele>92</ele>
        <time>2012-03-23T13:07:02Z</time>
      </trkpt>
      <trkpt lat="48.2206" lon="0.65602">
        <ele>92</ele>
        <time>2012-03-23T13:07:05Z</time>
      </trkpt>
      <trkpt lat="48.22057" lon="0.656">
        <ele>92</ele>
        <time>2012-03-23T13:07:07Z</time>
      </trkpt>
      <trkpt lat="48.22053" lon="0.65599">
        <ele>92</ele>
        <time>2012-03-23T13:07:11Z</time>
      </trkpt>
      <trkpt lat="48.22048" lon="0.65598">
        <ele>92</ele>
        <time>2012-03-23T13:07:13Z</time>
      </trkpt>
      <trkpt lat="48.22046" lon="0.65597">
        <ele>92</ele>
        <time>2012-03-23T13:07:16Z</time>
      </trkpt>
      <trkpt lat="48.2204" lon="0.65596">
        <ele>92</ele>
        <time>2012-03-23T13:07:19Z</time>
      </trkpt>
      <trkpt lat="48.22036" lon="0.65595">
        <ele>92</ele>
        <time>2012-03-23T13:07:23Z</time>
      </trkpt>
      <trkpt lat="48.22034" lon="0.65594">
        <ele>92</ele>
        <time>2012-03-23T13:07:25Z</time>
      </trkpt>
      <trkpt lat="48.22032" lon="0.65593">
        <ele>92</ele>
        <time>2012-03-23T13:07:27Z</time>
      </trkpt>
      <trkpt lat="48.22028" lon="0.65592">
        <ele>92</ele>
        <time>2012-03-23T13:07:30Z</time>
      </trkpt>
      <trkpt lat="48.22023" lon="0.6559">
        <ele>92</ele>
        <time>2012-03-23T13:07:33Z</time>
      </trkpt>
      <trkpt lat="48.2202" lon="0.6559">
        <ele>92</ele>
        <time>2012-03-23T13:07:36Z</time>
      </trkpt>
      <trkpt lat="48.22015" lon="0.65588">
        <ele>92</ele>
        <time>2012-03-23T13:07:40Z</time>
      </trkpt>
      <trkpt lat="48.22012" lon="0.65587">
        <ele>92</ele>
        <time>2012-03-23T13:07:43Z</time>
      </trkpt>
      <trkpt lat="48.22009" lon="0.65586">
        <ele>92</ele>
        <time>2012-03-23T13:07:45Z</time>
      </trkpt>
      <trkpt lat="48.22004" lon="0.65584">
        <ele>92</ele>
        <time>2012-03-23T13:07:49Z</time>
      </trkpt>
      <trkpt lat="48.22" lon="0.65583">
        <ele>92</ele>
        <time>2012-03-23T13:07:51Z</time>
      </trkpt>
      <trkpt lat="48.21997" lon="0.65582">
        <ele>92</ele>
        <time>2012-03-23T13:07:54Z</time>
      </trkpt>
      <trkpt lat="48.21994" lon="0.6558">
        <ele>92</ele>
        <time>2012-03-23T13:07:57Z</time>
      </trkpt>
      <trkpt lat="48.2199" lon="0.65579">
        <ele>92</ele>
        <time>2012-03-23T13:07:59Z</time>
      </trkpt>
      <trkpt lat="48.21988" lon="0.65578">
        <ele>92</ele>
        <time>2012-03-23T13:08:01Z</time>
      </trkpt>
      <trkpt lat="48.21985" lon="0.65578">
        <ele>92</ele>
        <time>2012-03-23T13:08:04Z</time>
      </trkpt>
      <trkpt lat="48.21981" lon="0.65576">
        <ele>91</ele>
        <time>2012-03-23T13:08:07Z</time>
      </trkpt>
      <trkpt lat="48.21979" lon="0.65575">
        <ele>91</ele>
        <time>2012-03-23T13:08:09Z</time>
      </trkpt>
      <trkpt lat="48.21975" lon="0.65574">
        <ele>91</ele>
        <time>2012-03-23T13:08:11Z</time>
      </trkpt>
      <trkpt lat="48.21971" lon="0.65573">
        <ele>91</ele>
        <time>2012-03-23T13:08:15Z</time>
      </trkpt>
      <trkpt lat="48.21967" lon="0.65572">
        <ele>91</ele>
        <time>2012-03-23T13:08:18Z</time>
      </trkpt>
      <trkpt lat="48.21964" lon="0.65571">
        <ele>91</ele>
        <time>2012-03-23T13:08:20Z</time>
      </trkpt>
      <trkpt lat="48.21961" lon="0.6557">
        <ele>91</ele>
        <time>2012-03-23T13:08:23Z</time>
      </trkpt>
      <trkpt lat="48.21957" lon="0.65569">
        <ele>91</ele>
        <time>2012-03-23T13:08:25Z</time>
      </trkpt>
      <trkpt lat="48.21954" lon="0.65568">
        <ele>91</ele>
        <time>2012-03-23T13:08:27Z</time>
      </trkpt>
      <trkpt lat="48.2195" lon="0.65567">
        <ele>91</ele>
        <time>2012-03-23T13:08:30Z</time>
      </trkpt>
      <trkpt lat="48.21947" lon="0.65565">
        <ele>91</ele>
        <time>2012-03-23T13:08:33Z</time>
      </trkpt>
      <trkpt lat="48.21944" lon="0.65564">
        <ele>91</ele>
        <time>2012-03-23T13:08:36Z</time>
      </trkpt>
      <trkpt lat="48.2194" lon="0.65563">
        <ele>91</ele>
        <time>2012-03-23T13:08:38Z</time>
      </trkpt>
      <trkpt lat="48.21938" lon="0.65562">
        <ele>91</ele>
        <time>2012-03-23T13:08:41Z</time>
      </trkpt>
      <trkpt lat="48.21933" lon="0.6556">
        <ele>91</ele>
        <time>2012-03-23T13:08:45Z</time>
      </trkpt>
      <trkpt lat="48.21929" lon="0.65559">
        <ele>91</ele>
        <time>2012-03-23T13:08:47Z</time>
      </trkpt>
      <trkpt lat="48.21926" lon="0.65558">
        <ele>91</ele>
        <time>2012-03-23T13:08:49Z</time>
      </trkpt>
      <trkpt lat="48.21924" lon="0.65557">
        <ele>91</ele>
        <time>2012-03-23T13:08:52Z</time>
      </trkpt>
      <trkpt lat="48.2192" lon="0.65556">
        <ele>91</ele>
        <time>2012-03-23T13:08:54Z</time>
      </trkpt>
      <trkpt lat="48.21916" lon="0.65555">
        <ele>91</ele>
        <time>2012-03-23T13:08:58Z</time>
      </trkpt>
      <trkpt lat="48.21912" lon="0.65554">
        <ele>91</ele>
        <time>2012-03-23T13:09:01Z</time>
      </trkpt>
      <trkpt lat="48.21908" lon="0.65553">
        <ele>91</ele>
        <time>2012-03-23T13:09:04Z</time>
      </trkpt>
      <trkpt lat="48.21905" lon="0.65551">
        <ele>91</ele>
        <time>2012-03-23T13:09:07Z</time>
      </trkpt>
      <trkpt lat="48.21899" lon="0.6555">
        <ele>91</ele>
        <time>2012-03-23T13:09:10Z</time>
      </trkpt>
      <trkpt lat="48.21897" lon="0.65549">
        <ele>91</ele>
        <time>2012-03-23T13:09:13Z</time>
      </trkpt>
      <trkpt lat="48.21893" lon="0.65547">
        <ele>91</ele>
        <time>2012-03-23T13:09:16Z</time>
      </trkpt>
      <trkpt lat="48.21888" lon="0.65546">
        <ele>91</ele>
        <time>2012-03-23T13:09:18Z</time>
      </trkpt>
      <trkpt lat="48.21886" lon="0.65545">
        <ele>91</ele>
        <time>2012-03-23T13:09:21Z</time>
      </trkpt>
      <trkpt lat="48.21881" lon="0.65544">
        <ele>91</ele>
        <time>2012-03-23T13:09:25Z</time>
      </trkpt>
      <trkpt lat="48.21876" lon="0.65542">
        <ele>91</ele>
        <time>2012-03-23T13:09:29Z</time>
      </trkpt>
      <trkpt lat="48.21872" lon="0.65541">
        <ele>91</ele>
        <time>2012-03-23T13:09:31Z</time>
      </trkpt>
      <trkpt lat="48.21868" lon="0.65539">
        <ele>91</ele>
        <time>2012-03-23T13:09:35Z</time>
      </trkpt>
      <trkpt lat="48.21864" lon="0.65539">
        <ele>91</ele>
        <time>2012-03-23T13:09:38Z</time>
      </trkpt>
      <trkpt lat="48.21859" lon="0.65537">
        <ele>91</ele>
        <time>2012-03-23T13:09:41Z</time>
      </trkpt>
      <trkpt lat="48.21857" lon="0.65536">
        <ele>91</ele>
        <time>2012-03-23T13:09:44Z</time>
      </trkpt>
      <trkpt lat="48.21853" lon="0.65534">
        <ele>91</ele>
        <time>2012-03-23T13:09:46Z</time>
      </trkpt>
      <trkpt lat="48.2185" lon="0.65533">
        <ele>91</ele>
        <time>2012-03-23T13:09:49Z</time>
      </trkpt>
      <trkpt lat="48.21848" lon="0.65532">
        <ele>91</ele>
        <time>2012-03-23T13:09:51Z</time>
      </trkpt>
      <trkpt lat="48.21844" lon="0.65531">
        <ele>91</ele>
        <time>2012-03-23T13:09:54Z</time>
      </trkpt>
      <trkpt lat="48.2184" lon="0.6553">
        <ele>91</ele>
        <time>2012-03-23T13:09:57Z</time>
      </trkpt>
      <trkpt lat="48.21836" lon="0.65528">
        <ele>91</ele>
        <time>2012-03-23T13:09:59Z</time>
      </trkpt>
      <trkpt lat="48.21832" lon="0.65527">
        <ele>91</ele>
        <time>2012-03-23T13:10:02Z</time>
      </trkpt>
      <trkpt lat="48.2183" lon="0.65526">
        <ele>91</ele>
        <time>2012-03-23T13:10:05Z</time>
      </trkpt>
      <trkpt lat="48.21825" lon="0.65524">
        <ele>91</ele>
        <time>2012-03-23T13:10:08Z</time>
      </trkpt>
      <trkpt lat="48.21821" lon="0.65522">
        <ele>91</ele>
        <time>2012-03-23T13:10:12Z</time>
      </trkpt>
      <trkpt lat="48.21817" lon="0.65521">
        <ele>91</ele>
        <time>2012-03-23T13:10:14Z</time>
      </trkpt>
      <trkpt lat="48.21815" lon="0.6552">
        <ele>91</ele>
        <time>2012-03-23T13:10:17Z</time>
      </trkpt>
      <trkpt lat="48.21812" lon="0.65519">
        <ele>91</ele>
        <time>2012-03-23T13:10:20Z</time>
      </trkpt>
      <trkpt lat="48.21809" lon="0.65518">
        <ele>91</ele>
        <time>2012-03-23T13:10:24Z</time>
      </trkpt>
      <trkpt lat="48.21806" lon="0.65516">
        <ele>91</ele>
        <time>2012-03-23T13:10:28Z</time>
      </trkpt>
      <trkpt lat="48.21802" lon="0.65511">
        <ele>91</ele>
        <time>2012-03-23T13:10:31Z</time>
      </trkpt>
      <trkpt lat="48.21799" lon="0.65506">
        <ele>91</ele>
        <time>2012-03-23T13:10:35Z</time>
      </trkpt>
      <trkpt lat="48.21796" lon="0.65502">
        <ele>91</ele>
        <time>2012-03-23T13:10:39Z</time>
      </trkpt>
      <trkpt lat="48.21793" lon="0.65497">
        <ele>91</ele>
        <time>2012-03-23T13:10:42Z</time>
      </trkpt>
      <trkpt lat="48.2179" lon="0.65491">
        <ele>91</ele>
        <time>2012-03-23T13:10:46Z</time>
      </trkpt>
      <trkpt lat="48.21786" lon="0.65487">
        <ele>91</ele>
        <time>2012-03-23T13:10:51Z</time>
      </trkpt>
      <trkpt lat="48.21783" lon="0.65481">
        <ele>91</ele>
        <time>2012-03-23T13:10:54Z</time>
      </trkpt>
      <trkpt lat="48.21781" lon="0.65476">
        <ele>91</ele>
        <time>2012-03-23T13:10:58Z</time>
      </trkpt>
      <trkpt lat="48.21778" lon="0.65471">
        <ele>91</ele>
        <time>2012-03-23T13:11:03Z</time>
      </trkpt>
      <trkpt lat="48.21775" lon="0.65466">
        <ele>91</ele>
        <time>2012-03-23T13:11:06Z</time>
      </trkpt>
      <trkpt lat="48.21772" lon="0.65461">
        <ele>91</ele>
        <time>2012-03-23T13:11:10Z</time>
      </trkpt>
      <trkpt lat="48.21769" lon="0.65456">
        <ele>92</ele>
        <time>2012-03-23T13:11:15Z</time>
      </trkpt>
      <trkpt lat="48.21766" lon="0.65452">
        <ele>92</ele>
        <time>2012-03-23T13:11:18Z</time>
      </trkpt>
      <trkpt lat="48.21763" lon="0.65447">
        <ele>92</ele>
        <time>2012-03-23T13:11:22Z</time>
      </trkpt>
      <trkpt lat="48.2176" lon="0.65442">
        <ele>92</ele>
        <time>2012-03-23T13:11:27Z</time>
      </trkpt>
      <trkpt lat="48.21757" lon="0.65437">
        <ele>92</ele>
        <time>2012-03-23T13:11:30Z</time>
      </trkpt>
      <trkpt lat="48.21754" lon="0.65432">
        <ele>92</ele>
        <time>2012-03-23T13:11:34Z</time>
      </trkpt>
      <trkpt lat="48.21751" lon="0.65427">
        <ele>92</ele>
        <time>2012-03-23T13:11:39Z</time>
      </trkpt>
      <trkpt lat="48.21748" lon="0.65422">
        <ele>92</ele>
        <time>2012-03-23T13:11:43Z</time>
      </trkpt>
      <trkpt lat="48.21745" lon="0.65417">
        <ele>92</ele>
        <time>2012-03-23T13:11:46Z</time>
      </trkpt>
      <trkpt lat="48.21742" lon="0.65412">
        <ele>92</ele>
        <time>2012-03-23T13:11:51Z</time>
      </trkpt>
      <trkpt lat="48.21739" lon="0.65407">
        <ele>92</ele>
        <time>2012-03-23T13:11:54Z</time>
      </trkpt>
      <trkpt lat="48.21736" lon="0.65402">
        <ele>92</ele>
        <time>2012-03-23T13:11:58Z</time>
      </trkpt>
      <trkpt lat="48.21733" lon="0.65397">
        <ele>92</ele>
        <time>2012-03-23T13:12:03Z</time>
      </trkpt>
      <trkpt lat="48.2173" lon="0.65392">
        <ele>92</ele>
        <time>2012-03-23T13:12:06Z</time>
      </trkpt>
      <trkpt lat="48.21726" lon="0.65386">
        <ele>92</ele>
        <time>2012-03-23T13:12:10Z</time>
      </trkpt>
      <trkpt lat="48.21724" lon="0.65381">
        <ele>92</ele>
        <time>2012-03-23T13:12:14Z</time>
      </trkpt>
      <trkpt lat="48.2172" lon="0.65375">
        <ele>92</ele>
        <time>2012-03-23T13:12:17Z</time>
      </trkpt>
      <trkpt lat="48.21717" lon="0.65369">
        <ele>92</ele>
        <time>2012-03-23T13:12:21Z</time>
      </trkpt>
      <trkpt lat="48.21714" lon="0.65364">
        <ele>92</ele>
        <time>2012-03-23T13:12:26Z</time>
      </trkpt>
      <trkpt lat="48.21711" lon="0.65358">
        <ele>92</ele>
        <time>2012-03-23T13:12:29Z</time>
      </trkpt>
      <trkpt lat="48.21708" lon="0.65353">
        <ele>92</ele>
        <time>2012-03-23T13:12:33Z</time>
      </trkpt>
      <trkpt lat="48.21704" lon="0.65348">
        <ele>92</ele>
        <time>2012-03-23T13:12:38Z</time>
      </trkpt>
      <trkpt lat="48.21701" lon="0.65342">
        <ele>92</ele>
        <time>2012-03-23T13:12:41Z</time>
      </trkpt>
      <trkpt lat="48.21698" lon="0.65337">
        <ele>92</ele>
        <time>2012-03-23T13:12:45Z</time>
      </trkpt>
      <trkpt lat="48.21695" lon="0.65331">
        <ele>93</ele>
        <time>2012-03-23T13:12:50Z</time>
      </trkpt>
      <trkpt lat="48.21691" lon="0.65326">
        <ele>93</ele>
        <time>2012-03-23T13:12:53Z</time>
      </trkpt>
      <trkpt lat="48.21688" lon="0.65321">
        <ele>94</ele>
        <time>2012-03-23T13:12:57Z</time>
      </trkpt>
      <trkpt lat="48.21685" lon="0.65317">
        <ele>94</ele>
        <time>2012-03-23T13:13:02Z</time>
      </trkpt>
      <trkpt lat="48.21684" lon="0.65312">
        <ele>94</ele>
        <time>2012-03-23T13:13:06Z</time>
      </trkpt>
      <trkpt lat="48.21685" lon="0.65307">
        <ele>95</ele>
        <time>2012-03-23T13:13:09Z</time>
      </trkpt>
      <trkpt lat="48.21688" lon="0.65303">
        <ele>95</ele>
        <time>2012-03-23T13:13:14Z</time>
      </trkpt>
      <trkpt lat="48.21691" lon="0.65299">
        <ele>95</ele>
        <time>2012-03-23T13:13:17Z</time>
      </trkpt>
      <trkpt lat="48.21694" lon="0.65295">
        <ele>95</ele>
        <time>2012-03-23T13:13:21Z</time>
      </trkpt>
      <trkpt lat="48.21698" lon="0.65291">
        <ele>95</ele>
        <time>2012-03-23T13:13:26Z</time>
      </trkpt>
      <trkpt lat="48.21701" lon="0.65287">
        <ele>95</ele>
        <time>2012-03-23T13:13:29Z</time>
      </trkpt>
      <trkpt lat="48.21705" lon="0.65284">
        <ele>95</ele>
        <time>2012-03-23T13:13:33Z</time>
      </trkpt>
      <trkpt lat="48.21708" lon="0.65281">
        <ele>95</ele>
        <time>2012-03-23T13:13:37Z</time>
      </trkpt>
      <trkpt lat="48.21712" lon="0.65277">
        <ele>95</ele>
        <time>2012-03-23T13:13:41Z</time>
      </trkpt>
      <trkpt lat="48.21716" lon="0.65273">
        <ele>95</ele>
        <time>2012-03-23T13:13:44Z</time>
      </trkpt>
      <trkpt lat="48.21719" lon="0.65269">
        <ele>95</ele>
        <time>2012-03-23T13:13:49Z</time>
      </trkpt>
      <trkpt lat="48.21723" lon="0.65266">
        <ele>95</ele>
        <time>2012-03-23T13:13:51Z</time>
      </trkpt>
      <trkpt lat="48.21725" lon="0.65263">
        <ele>95</ele>
        <time>2012-03-23T13:13:54Z</time>
      </trkpt>
      <trkpt lat="48.21729" lon="0.65258">
        <ele>95</ele>
        <time>2012-03-23T13:13:57Z</time>
      </trkpt>
      <trkpt lat="48.21732" lon="0.65253">
        <ele>95</ele>
        <time>2012-03-23T13:14:01Z</time>
      </trkpt>
      <trkpt lat="48.21735" lon="0.65249">
        <ele>95</ele>
        <time>2012-03-23T13:14:04Z</time>
      </trkpt>
      <trkpt lat="48.21738" lon="0.65245">
        <ele>95</ele>
        <time>2012-03-23T13:14:08Z</time>
      </trkpt>
      <trkpt lat="48.21742" lon="0.65241">
        <ele>95</ele>
        <time>2012-03-23T13:14:13Z</time>
      </trkpt>
      <trkpt lat="48.21746" lon="0.65237">
        <ele>95</ele>
        <time>2012-03-23T13:14:16Z</time>
      </trkpt>
      <trkpt lat="48.21749" lon="0.65232">
        <ele>96</ele>
        <time>2012-03-23T13:14:20Z</time>
      </trkpt>
      <trkpt lat="48.21751" lon="0.65228">
        <ele>97</ele>
        <time>2012-03-23T13:14:24Z</time>
      </trkpt>
      <trkpt lat="48.21754" lon="0.65223">
        <ele>99</ele>
        <time>2012-03-23T13:14:27Z</time>
      </trkpt>
      <trkpt lat="48.21757" lon="0.65219">
        <ele>99</ele>
        <time>2012-03-23T13:14:32Z</time>
      </trkpt>
      <trkpt lat="48.2176" lon="0.65214">
        <ele>99</ele>
        <time>2012-03-23T13:14:36Z</time>
      </trkpt>
      <trkpt lat="48.21764" lon="0.65209">
        <ele>99</ele>
        <time>2012-03-23T13:14:40Z</time>
      </trkpt>
      <trkpt lat="48.21766" lon="0.65204">
        <ele>99</ele>
        <time>2012-03-23T13:14:44Z</time>
      </trkpt>
      <trkpt lat="48.21769" lon="0.65199">
        <ele>99</ele>
        <time>2012-03-23T13:14:48Z</time>
      </trkpt>
      <trkpt lat="48.21772" lon="0.65194">
        <ele>99</ele>
        <time>2012-03-23T13:14:51Z</time>
      </trkpt>
      <trkpt lat="48.21775" lon="0.65189">
        <ele>99</ele>
        <time>2012-03-23T13:14:56Z</time>
      </trkpt>
      <trkpt lat="48.21778" lon="0.65184">
        <ele>99</ele>
        <time>2012-03-23T13:15:00Z</time>
      </trkpt>
      <trkpt lat="48.2178" lon="0.6518">
        <ele>99</ele>
        <time>2012-03-23T13:15:03Z</time>
      </trkpt>
      <trkpt lat="48.21783" lon="0.65175">
        <ele>99</ele>
        <time>2012-03-23T13:15:07Z</time>
      </trkpt>
      <trkpt lat="48.21786" lon="0.6517">
        <ele>99</ele>
        <time>2012-03-23T13:15:12Z</time>
      </trkpt>
      <trkpt lat="48.21788" lon="0.65165">
        <ele>99</ele>
        <time>2012-03-23T13:15:15Z</time>
      </trkpt>
      <trkpt lat="48.2179" lon="0.65156">
        <ele>100</ele>
        <time>2012-03-23T13:15:20Z</time>
      </trkpt>
      <trkpt lat="48.21792" lon="0.65151">
        <ele>104</ele>
        <time>2012-03-23T13:15:24Z</time>
      </trkpt>
      <trkpt lat="48.21796" lon="0.65145">
        <ele>104</ele>
        <time>2012-03-23T13:15:27Z</time>
      </trkpt>
      <trkpt lat="48.21798" lon="0.6514">
        <ele>105</ele>
        <time>2012-03-23T13:15:32Z</time>
      </trkpt>
      <trkpt lat="48.218" lon="0.65134">
        <ele>106</ele>
        <time>2012-03-23T13:15:36Z</time>
      </trkpt>
      <trkpt lat="48.21803" lon="0.65129">
        <ele>106</ele>
        <time>2012-03-23T13:15:39Z</time>
      </trkpt>
      <trkpt lat="48.21806" lon="0.65124">
        <ele>106</ele>
        <time>2012-03-23T13:15:43Z</time>
      </trkpt>
      <trkpt lat="48.21809" lon="0.65119">
        <ele>106</ele>
        <time>2012-03-23T13:15:48Z</time>
      </trkpt>
      <trkpt lat="48.21812" lon="0.65113">
        <ele>107</ele>
        <time>2012-03-23T13:15:52Z</time>
      </trkpt>
      <trkpt lat="48.21815" lon="0.65106">
        <ele>107</ele>
        <time>2012-03-23T13:15:59Z</time>
      </trkpt>
      <trkpt lat="48.2182" lon="0.65099">
        <ele>107</ele>
        <time>2012-03-23T13:16:04Z</time>
      </trkpt>
      <trkpt lat="48.21823" lon="0.65093">
        <ele>107</ele>
        <time>2012-03-23T13:16:08Z</time>
      </trkpt>
      <trkpt lat="48.21826" lon="0.65088">
        <ele>107</ele>
        <time>2012-03-23T13:16:11Z</time>
      </trkpt>
      <trkpt lat="48.21828" lon="0.65082">
        <ele>107</ele>
        <time>2012-03-23T13:16:16Z</time>
      </trkpt>
      <trkpt lat="48.2183" lon="0.65075">
        <ele>108</ele>
        <time>2012-03-23T13:16:19Z</time>
      </trkpt>
      <trkpt lat="48.21832" lon="0.65071">
        <ele>109</ele>
        <time>2012-03-23T13:16:22Z</time>
      </trkpt>
      <trkpt lat="48.21834" lon="0.65066">
        <ele>109</ele>
        <time>2012-03-23T13:16:26Z</time>
      </trkpt>
      <trkpt lat="48.21836" lon="0.65061">
        <ele>110</ele>
        <time>2012-03-23T13:16:30Z</time>
      </trkpt>
      <trkpt lat="48.21838" lon="0.65056">
        <ele>110</ele>
        <time>2012-03-23T13:16:33Z</time>
      </trkpt>
      <trkpt lat="48.2184" lon="0.65051">
        <ele>110</ele>
        <time>2012-03-23T13:16:35Z</time>
      </trkpt>
      <trkpt lat="48.21842" lon="0.65047">
        <ele>110</ele>
        <time>2012-03-23T13:16:38Z</time>
      </trkpt>
      <trkpt lat="48.21845" lon="0.65041">
        <ele>110</ele>
        <time>2012-03-23T13:16:43Z</time>
      </trkpt>
      <trkpt lat="48.21847" lon="0.65035">
        <ele>110</ele>
        <time>2012-03-23T13:16:46Z</time>
      </trkpt>
      <trkpt lat="48.2185" lon="0.6503">
        <ele>110</ele>
        <time>2012-03-23T13:16:50Z</time>
      </trkpt>
      <trkpt lat="48.21851" lon="0.65026">
        <ele>110</ele>
        <time>2012-03-23T13:16:54Z</time>
      </trkpt>
      <trkpt lat="48.21855" lon="0.6502">
        <ele>110</ele>
        <time>2012-03-23T13:16:58Z</time>
      </trkpt>
      <trkpt lat="48.21858" lon="0.65014">
        <ele>110</ele>
        <time>2012-03-23T13:17:03Z</time>
      </trkpt>
      <trkpt lat="48.21862" lon="0.65009">
        <ele>110</ele>
        <time>2012-03-23T13:17:06Z</time>
      </trkpt>
      <trkpt lat="48.21864" lon="0.65003">
        <ele>110</ele>
        <time>2012-03-23T13:17:10Z</time>
      </trkpt>
      <trkpt lat="48.21865" lon="0.65">
        <ele>110</ele>
        <time>2012-03-23T13:17:12Z</time>
      </trkpt>
      <trkpt lat="48.21866" lon="0.64993">
        <ele>110</ele>
        <time>2012-03-23T13:17:16Z</time>
      </trkpt>
      <trkpt lat="48.21867" lon="0.64989">
        <ele>110</ele>
        <time>2012-03-23T13:17:20Z</time>
      </trkpt>
      <trkpt lat="48.2187" lon="0.64984">
        <ele>110</ele>
        <time>2012-03-23T13:17:23Z</time>
      </trkpt>
      <trkpt lat="48.21871" lon="0.64979">
        <ele>110</ele>
        <time>2012-03-23T13:17:27Z</time>
      </trkpt>
      <trkpt lat="48.21873" lon="0.64974">
        <ele>110</ele>
        <time>2012-03-23T13:17:31Z</time>
      </trkpt>
      <trkpt lat="48.21874" lon="0.64969">
        <ele>110</ele>
        <time>2012-03-23T13:17:34Z</time>
      </trkpt>
      <trkpt lat="48.21875" lon="0.64964">
        <ele>110</ele>
        <time>2012-03-23T13:17:37Z</time>
      </trkpt>
      <trkpt lat="48.21877" lon="0.64957">
        <ele>111</ele>
        <time>2012-03-23T13:17:42Z</time>
      </trkpt>
      <trkpt lat="48.21878" lon="0.64954">
        <ele>111</ele>
        <time>2012-03-23T13:17:46Z</time>
      </trkpt>
      <trkpt lat="48.21879" lon="0.64949">
        <ele>111</ele>
        <time>2012-03-23T13:17:50Z</time>
      </trkpt>
      <trkpt lat="48.2188" lon="0.64944">
        <ele>111</ele>
        <time>2012-03-23T13:17:54Z</time>
      </trkpt>
      <trkpt lat="48.21881" lon="0.64939">
        <ele>111</ele>
        <time>2012-03-23T13:17:58Z</time>
      </trkpt>
      <trkpt lat="48.2188" lon="0.64935">
        <ele>111</ele>
        <time>2012-03-23T13:18:00Z</time>
      </trkpt>
      <trkpt lat="48.21881" lon="0.6493">
        <ele>111</ele>
        <time>2012-03-23T13:18:04Z</time>
      </trkpt>
      <trkpt lat="48.21881" lon="0.64926">
        <ele>111</ele>
        <time>2012-03-23T13:18:08Z</time>
      </trkpt>
      <trkpt lat="48.21882" lon="0.64922">
        <ele>113</ele>
        <time>2012-03-23T13:18:12Z</time>
      </trkpt>
      <trkpt lat="48.21881" lon="0.64917">
        <ele>118</ele>
        <time>2012-03-23T13:18:17Z</time>
      </trkpt>
      <trkpt lat="48.21882" lon="0.64912">
        <ele>119</ele>
        <time>2012-03-23T13:18:22Z</time>
      </trkpt>
      <trkpt lat="48.21884" lon="0.64908">
        <ele>119</ele>
        <time>2012-03-23T13:18:25Z</time>
      </trkpt>
      <trkpt lat="48.21888" lon="0.64903">
        <ele>119</ele>
        <time>2012-03-23T13:18:29Z</time>
      </trkpt>
      <trkpt lat="48.21891" lon="0.649">
        <ele>119</ele>
        <time>2012-03-23T13:18:32Z</time>
      </trkpt>
      <trkpt lat="48.21893" lon="0.64899">
        <ele>119</ele>
        <time>2012-03-23T13:18:36Z</time>
      </trkpt>
      <trkpt lat="48.21897" lon="0.64898">
        <ele>119</ele>
        <time>2012-03-23T13:18:39Z</time>
      </trkpt>
      <trkpt lat="48.21899" lon="0.64898">
        <ele>119</ele>
        <time>2012-03-23T13:18:41Z</time>
      </trkpt>
      <trkpt lat="48.21902" lon="0.64898">
        <ele>119</ele>
        <time>2012-03-23T13:18:44Z</time>
      </trkpt>
      <trkpt lat="48.21906" lon="0.64896">
        <ele>119</ele>
        <time>2012-03-23T13:18:49Z</time>
      </trkpt>
      <trkpt lat="48.21909" lon="0.64897">
        <ele>121</ele>
        <time>2012-03-23T13:18:52Z</time>
      </trkpt>
      <trkpt lat="48.21912" lon="0.64898">
        <ele>121</ele>
        <time>2012-03-23T13:18:56Z</time>
      </trkpt>
      <trkpt lat="48.21914" lon="0.64897">
        <ele>122</ele>
        <time>2012-03-23T13:19:03Z</time>
      </trkpt>
      <trkpt lat="48.21912" lon="0.649">
        <ele>125</ele>
        <time>2012-03-23T13:19:06Z</time>
      </trkpt>
      <trkpt lat="48.21914" lon="0.64904">
        <ele>126</ele>
        <time>2012-03-23T13:19:10Z</time>
      </trkpt>
      <trkpt lat="48.21912" lon="0.64907">
        <ele>126</ele>
        <time>2012-03-23T13:19:17Z</time>
      </trkpt>
      <trkpt lat="48.21915" lon="0.64906">
        <ele>126</ele>
        <time>2012-03-23T13:19:25Z</time>
      </trkpt>
      <trkpt lat="48.21915" lon="0.64902">
        <ele>126</ele>
        <time>2012-03-23T13:19:30Z</time>
      </trkpt>
      <trkpt lat="48.21915" lon="0.64897">
        <ele>126</ele>
        <time>2012-03-23T13:19:36Z</time>
      </trkpt>
      <trkpt lat="48.21915" lon="0.64894">
        <ele>125</ele>
        <time>2012-03-23T13:19:38Z</time>
      </trkpt>
      <trkpt lat="48.21916" lon="0.64889">
        <ele>124</ele>
        <time>2012-03-23T13:19:41Z</time>
      </trkpt>
      <trkpt lat="48.21917" lon="0.64885">
        <ele>124</ele>
        <time>2012-03-23T13:19:45Z</time>
      </trkpt>
      <trkpt lat="48.21919" lon="0.64882">
        <ele>124</ele>
        <time>2012-03-23T13:19:50Z</time>
      </trkpt>
      <trkpt lat="48.2192" lon="0.64877">
        <ele>124</ele>
        <time>2012-03-23T13:19:55Z</time>
      </trkpt>
      <trkpt lat="48.21919" lon="0.64873">
        <ele>124</ele>
        <time>2012-03-23T13:19:58Z</time>
      </trkpt>
      <trkpt lat="48.2192" lon="0.64869">
        <ele>125</ele>
        <time>2012-03-23T13:20:05Z</time>
      </trkpt>
      <trkpt lat="48.21923" lon="0.64867">
        <ele>125</ele>
        <time>2012-03-23T13:20:13Z</time>
      </trkpt>
      <trkpt lat="48.21923" lon="0.64864">
        <ele>125</ele>
        <time>2012-03-23T13:20:18Z</time>
      </trkpt>
      <trkpt lat="48.21922" lon="0.64861">
        <ele>128</ele>
        <time>2012-03-23T13:20:24Z</time>
      </trkpt>
      <trkpt lat="48.21921" lon="0.64859">
        <ele>128</ele>
        <time>2012-03-23T13:20:37Z</time>
      </trkpt>
      <trkpt lat="48.21923" lon="0.64855">
        <ele>130</ele>
        <time>2012-03-23T13:20:43Z</time>
      </trkpt>
      <trkpt lat="48.21924" lon="0.64851">
        <ele>130</ele>
        <time>2012-03-23T13:20:49Z</time>
      </trkpt>
      <trkpt lat="48.21925" lon="0.64847">
        <ele>130</ele>
        <time>2012-03-23T13:20:53Z</time>
      </trkpt>
      <trkpt lat="48.21924" lon="0.64843">
        <ele>130</ele>
        <time>2012-03-23T13:20:58Z</time>
      </trkpt>
      <trkpt lat="48.21925" lon="0.64838">
        <ele>132</ele>
        <time>2012-03-23T13:21:02Z</time>
      </trkpt>
      <trkpt lat="48.21928" lon="0.64837">
        <ele>132</ele>
        <time>2012-03-23T13:21:07Z</time>
      </trkpt>
      <trkpt lat="48.2193" lon="0.64839">
        <ele>132</ele>
        <time>2012-03-23T13:21:13Z</time>
      </trkpt>
      <trkpt lat="48.21931" lon="0.64838">
        <ele>132</ele>
        <time>2012-03-23T13:21:22Z</time>
      </trkpt>
      <trkpt lat="48.21933" lon="0.64839">
        <ele>132</ele>
        <time>2012-03-23T13:21:26Z</time>
      </trkpt>
      <trkpt lat="48.21936" lon="0.6484">
        <ele>132</ele>
        <time>2012-03-23T13:21:30Z</time>
      </trkpt>
      <trkpt lat="48.21939" lon="0.64841">
        <ele>132</ele>
        <time>2012-03-23T13:21:34Z</time>
      </trkpt>
      <trkpt lat="48.21939" lon="0.64844">
        <ele>132</ele>
        <time>2012-03-23T13:21:41Z</time>
      </trkpt>
      <trkpt lat="48.21941" lon="0.64845">
        <ele>130</ele>
        <time>2012-03-23T13:21:50Z</time>
      </trkpt>
      <trkpt lat="48.21944" lon="0.64846">
        <ele>127</ele>
        <time>2012-03-23T13:22:06Z</time>
      </trkpt>
      <trkpt lat="48.21947" lon="0.64846">
        <ele>127</ele>
        <time>2012-03-23T13:22:10Z</time>
      </trkpt>
      <trkpt lat="48.21951" lon="0.64845">
        <ele>127</ele>
        <time>2012-03-23T13:22:14Z</time>
      </trkpt>
      <trkpt lat="48.21954" lon="0.64844">
        <ele>127</ele>
        <time>2012-03-23T13:22:18Z</time>
      </trkpt>
      <trkpt lat="48.21957" lon="0.64844">
        <ele>127</ele>
        <time>2012-03-23T13:22:21Z</time>
      </trkpt>
      <trkpt lat="48.21959" lon="0.64845">
        <ele>127</ele>
        <time>2012-03-23T13:22:24Z</time>
      </trkpt>
      <trkpt lat="48.21962" lon="0.64845">
        <ele>127</ele>
        <time>2012-03-23T13:22:27Z</time>
      </trkpt>
      <trkpt lat="48.21965" lon="0.64846">
        <ele>127</ele>
        <time>2012-03-23T13:22:30Z</time>
      </trkpt>
      <trkpt lat="48.21968" lon="0.64847">
        <ele>131</ele>
        <time>2012-03-23T13:22:48Z</time>
      </trkpt>
      <trkpt lat="48.2197" lon="0.64844">
        <ele>132</ele>
        <time>2012-03-23T13:22:59Z</time>
      </trkpt>
      <trkpt lat="48.21973" lon="0.64845">
        <ele>132</ele>
        <time>2012-03-23T13:23:09Z</time>
      </trkpt>
      <trkpt lat="48.21975" lon="0.64846">
        <ele>132</ele>
        <time>2012-03-23T13:23:13Z</time>
      </trkpt>
      <trkpt lat="48.21978" lon="0.64846">
        <ele>132</ele>
        <time>2012-03-23T13:23:16Z</time>
      </trkpt>
      <trkpt lat="48.21981" lon="0.64846">
        <ele>132</ele>
        <time>2012-03-23T13:23:19Z</time>
      </trkpt>
      <trkpt lat="48.21984" lon="0.64848">
        <ele>132</ele>
        <time>2012-03-23T13:23:23Z</time>
      </trkpt>
      <trkpt lat="48.21988" lon="0.64849">
        <ele>132</ele>
        <time>2012-03-23T13:23:26Z</time>
      </trkpt>
      <trkpt lat="48.21991" lon="0.6485">
        <ele>132</ele>
        <time>2012-03-23T13:23:29Z</time>
      </trkpt>
      <trkpt lat="48.21994" lon="0.64851">
        <ele>132</ele>
        <time>2012-03-23T13:23:32Z</time>
      </trkpt>
      <trkpt lat="48.21997" lon="0.6485">
        <ele>132</ele>
        <time>2012-03-23T13:23:36Z</time>
      </trkpt>
      <trkpt lat="48.22" lon="0.64851">
        <ele>132</ele>
        <time>2012-03-23T13:23:38Z</time>
      </trkpt>
      <trkpt lat="48.22002" lon="0.64851">
        <ele>132</ele>
        <time>2012-03-23T13:23:41Z</time>
      </trkpt>
      <trkpt lat="48.22005" lon="0.64851">
        <ele>132</ele>
        <time>2012-03-23T13:23:43Z</time>
      </trkpt>
      <trkpt lat="48.22009" lon="0.64851">
        <ele>132</ele>
        <time>2012-03-23T13:23:45Z</time>
      </trkpt>
      <trkpt lat="48.22012" lon="0.64851">
        <ele>132</ele>
        <time>2012-03-23T13:23:49Z</time>
      </trkpt>
      <trkpt lat="48.22015" lon="0.64852">
        <ele>132</ele>
        <time>2012-03-23T13:23:53Z</time>
      </trkpt>
      <trkpt lat="48.22018" lon="0.64853">
        <ele>132</ele>
        <time>2012-03-23T13:23:57Z</time>
      </trkpt>
      <trkpt lat="48.22021" lon="0.64852">
        <ele>131</ele>
        <time>2012-03-23T13:24:01Z</time>
      </trkpt>
      <trkpt lat="48.22024" lon="0.64853">
        <ele>131</ele>
        <time>2012-03-23T13:24:03Z</time>
      </trkpt>
      <trkpt lat="48.22027" lon="0.64854">
        <ele>131</ele>
        <time>2012-03-23T13:24:06Z</time>
      </trkpt>
      <trkpt lat="48.2203" lon="0.64856">
        <ele>131</ele>
        <time>2012-03-23T13:24:11Z</time>
      </trkpt>
      <trkpt lat="48.22033" lon="0.64857">
        <ele>131</ele>
        <time>2012-03-23T13:24:15Z</time>
      </trkpt>
      <trkpt lat="48.22036" lon="0.64858">
        <ele>131</ele>
        <time>2012-03-23T13:24:18Z</time>
      </trkpt>
      <trkpt lat="48.2204" lon="0.6486">
        <ele>131</ele>
        <time>2012-03-23T13:24:22Z</time>
      </trkpt>
      <trkpt lat="48.22043" lon="0.64862">
        <ele>131</ele>
        <time>2012-03-23T13:24:26Z</time>
      </trkpt>
      <trkpt lat="48.22047" lon="0.64862">
        <ele>131</ele>
        <time>2012-03-23T13:24:30Z</time>
      </trkpt>
      <trkpt lat="48.2205" lon="0.64863">
        <ele>132</ele>
        <time>2012-03-23T13:24:35Z</time>
      </trkpt>
      <trkpt lat="48.22054" lon="0.64864">
        <ele>133</ele>
        <time>2012-03-23T13:24:39Z</time>
      </trkpt>
      <trkpt lat="48.22058" lon="0.64866">
        <ele>133</ele>
        <time>2012-03-23T13:24:42Z</time>
      </trkpt>
      <trkpt lat="48.2206" lon="0.64866">
        <ele>133</ele>
        <time>2012-03-23T13:24:44Z</time>
      </trkpt>
      <trkpt lat="48.22064" lon="0.64867">
        <ele>133</ele>
        <time>2012-03-23T13:24:47Z</time>
      </trkpt>
      <trkpt lat="48.22066" lon="0.64868">
        <ele>133</ele>
        <time>2012-03-23T13:24:50Z</time>
      </trkpt>
      <trkpt lat="48.2207" lon="0.64868">
        <ele>133</ele>
        <time>2012-03-23T13:24:54Z</time>
      </trkpt>
      <trkpt lat="48.22072" lon="0.64869">
        <ele>132</ele>
        <time>2012-03-23T13:24:59Z</time>
      </trkpt>
      <trkpt lat="48.22075" lon="0.64871">
        <ele>132</ele>
        <time>2012-03-23T13:25:03Z</time>
      </trkpt>
      <trkpt lat="48.22078" lon="0.64872">
        <ele>132</ele>
        <time>2012-03-23T13:25:07Z</time>
      </trkpt>
      <trkpt lat="48.22082" lon="0.64872">
        <ele>132</ele>
        <time>2012-03-23T13:25:11Z</time>
      </trkpt>
      <trkpt lat="48.22084" lon="0.64873">
        <ele>132</ele>
        <time>2012-03-23T13:25:13Z</time>
      </trkpt>
      <trkpt lat="48.22087" lon="0.64874">
        <ele>132</ele>
        <time>2012-03-23T13:25:15Z</time>
      </trkpt>
      <trkpt lat="48.2209" lon="0.64875">
        <ele>132</ele>
        <time>2012-03-23T13:25:19Z</time>
      </trkpt>
      <trkpt lat="48.22094" lon="0.64876">
        <ele>132</ele>
        <time>2012-03-23T13:25:24Z</time>
      </trkpt>
      <trkpt lat="48.22097" lon="0.64878">
        <ele>132</ele>
        <time>2012-03-23T13:25:27Z</time>
      </trkpt>
      <trkpt lat="48.221" lon="0.64879">
        <ele>132</ele>
        <time>2012-03-23T13:25:29Z</time>
      </trkpt>
      <trkpt lat="48.22102" lon="0.6488">
        <ele>131</ele>
        <time>2012-03-23T13:25:31Z</time>
      </trkpt>
      <trkpt lat="48.22105" lon="0.64882">
        <ele>131</ele>
        <time>2012-03-23T13:25:33Z</time>
      </trkpt>
      <trkpt lat="48.22108" lon="0.64882">
        <ele>130</ele>
        <time>2012-03-23T13:25:35Z</time>
      </trkpt>
      <trkpt lat="48.2211" lon="0.64882">
        <ele>129</ele>
        <time>2012-03-23T13:25:39Z</time>
      </trkpt>
      <trkpt lat="48.22114" lon="0.64881">
        <ele>129</ele>
        <time>2012-03-23T13:25:43Z</time>
      </trkpt>
      <trkpt lat="48.22117" lon="0.64879">
        <ele>129</ele>
        <time>2012-03-23T13:25:49Z</time>
      </trkpt>
      <trkpt lat="48.22115" lon="0.64875">
        <ele>129</ele>
        <time>2012-03-23T13:25:53Z</time>
      </trkpt>
      <trkpt lat="48.22113" lon="0.64873">
        <ele>129</ele>
        <time>2012-03-23T13:25:58Z</time>
      </trkpt>
      <trkpt lat="48.22112" lon="0.6487">
        <ele>129</ele>
        <time>2012-03-23T13:26:02Z</time>
      </trkpt>
      <trkpt lat="48.22111" lon="0.64865">
        <ele>129</ele>
        <time>2012-03-23T13:26:05Z</time>
      </trkpt>
      <trkpt lat="48.22109" lon="0.6486">
        <ele>129</ele>
        <time>2012-03-23T13:26:09Z</time>
      </trkpt>
      <trkpt lat="48.22107" lon="0.64858">
        <ele>130</ele>
        <time>2012-03-23T13:26:14Z</time>
      </trkpt>
      <trkpt lat="48.22105" lon="0.64854">
        <ele>131</ele>
        <time>2012-03-23T13:26:17Z</time>
      </trkpt>
      <trkpt lat="48.22101" lon="0.64849">
        <ele>132</ele>
        <time>2012-03-23T13:26:21Z</time>
      </trkpt>
      <trkpt lat="48.22099" lon="0.64844">
        <ele>136</ele>
        <time>2012-03-23T13:26:25Z</time>
      </trkpt>
      <trkpt lat="48.22096" lon="0.6484">
        <ele>137</ele>
        <time>2012-03-23T13:26:29Z</time>
      </trkpt>
      <trkpt lat="48.22094" lon="0.64836">
        <ele>138</ele>
        <time>2012-03-23T13:26:33Z</time>
      </trkpt>
      <trkpt lat="48.22091" lon="0.64832">
        <ele>138</ele>
        <time>2012-03-23T13:26:37Z</time>
      </trkpt>
      <trkpt lat="48.22089" lon="0.64827">
        <ele>140</ele>
        <time>2012-03-23T13:26:42Z</time>
      </trkpt>
      <trkpt lat="48.22086" lon="0.64824">
        <ele>141</ele>
        <time>2012-03-23T13:26:45Z</time>
      </trkpt>
      <trkpt lat="48.22083" lon="0.6482">
        <ele>142</ele>
        <time>2012-03-23T13:26:50Z</time>
      </trkpt>
      <trkpt lat="48.22082" lon="0.64816">
        <ele>142</ele>
        <time>2012-03-23T13:26:53Z</time>
      </trkpt>
      <trkpt lat="48.2208" lon="0.64811">
        <ele>142</ele>
        <time>2012-03-23T13:26:57Z</time>
      </trkpt>
      <trkpt lat="48.22078" lon="0.64806">
        <ele>142</ele>
        <time>2012-03-23T13:27:01Z</time>
      </trkpt>
      <trkpt lat="48.22077" lon="0.64802">
        <ele>143</ele>
        <time>2012-03-23T13:27:05Z</time>
      </trkpt>
      <trkpt lat="48.22075" lon="0.64798">
        <ele>143</ele>
        <time>2012-03-23T13:27:09Z</time>
      </trkpt>
      <trkpt lat="48.22074" lon="0.64793">
        <ele>143</ele>
        <time>2012-03-23T13:27:13Z</time>
      </trkpt>
      <trkpt lat="48.22072" lon="0.64789">
        <ele>143</ele>
        <time>2012-03-23T13:27:17Z</time>
      </trkpt>
      <trkpt lat="48.22071" lon="0.64785">
        <ele>143</ele>
        <time>2012-03-23T13:27:22Z</time>
      </trkpt>
      <trkpt lat="48.22069" lon="0.64779">
        <ele>143</ele>
        <time>2012-03-23T13:27:26Z</time>
      </trkpt>
      <trkpt lat="48.22066" lon="0.64773">
        <ele>143</ele>
        <time>2012-03-23T13:27:30Z</time>
      </trkpt>
      <trkpt lat="48.22063" lon="0.64768">
        <ele>143</ele>
        <time>2012-03-23T13:27:34Z</time>
      </trkpt>
      <trkpt lat="48.22061" lon="0.64763">
        <ele>143</ele>
        <time>2012-03-23T13:27:36Z</time>
      </trkpt>
      <trkpt lat="48.22059" lon="0.64758">
        <ele>143</ele>
        <time>2012-03-23T13:27:40Z</time>
      </trkpt>
      <trkpt lat="48.22057" lon="0.64752">
        <ele>143</ele>
        <time>2012-03-23T13:27:44Z</time>
      </trkpt>
      <trkpt lat="48.22056" lon="0.64747">
        <ele>143</ele>
        <time>2012-03-23T13:27:47Z</time>
      </trkpt>
      <trkpt lat="48.22054" lon="0.64741">
        <ele>143</ele>
        <time>2012-03-23T13:27:51Z</time>
      </trkpt>
      <trkpt lat="48.22053" lon="0.64736">
        <ele>143</ele>
        <time>2012-03-23T13:27:55Z</time>
      </trkpt>
      <trkpt lat="48.2205" lon="0.6473">
        <ele>143</ele>
        <time>2012-03-23T13:27:59Z</time>
      </trkpt>
      <trkpt lat="48.22048" lon="0.64724">
        <ele>143</ele>
        <time>2012-03-23T13:28:03Z</time>
      </trkpt>
      <trkpt lat="48.22046" lon="0.64719">
        <ele>143</ele>
        <time>2012-03-23T13:28:07Z</time>
      </trkpt>
      <trkpt lat="48.22044" lon="0.64714">
        <ele>144</ele>
        <time>2012-03-23T13:28:11Z</time>
      </trkpt>
      <trkpt lat="48.22044" lon="0.64709">
        <ele>144</ele>
        <time>2012-03-23T13:28:15Z</time>
      </trkpt>
      <trkpt lat="48.22044" lon="0.64704">
        <ele>144</ele>
        <time>2012-03-23T13:28:30Z</time>
      </trkpt>
      <trkpt lat="48.22045" lon="0.64701">
        <ele>144</ele>
        <time>2012-03-23T13:28:45Z</time>
      </trkpt>
      <trkpt lat="48.22047" lon="0.64698">
        <ele>144</ele>
        <time>2012-03-23T13:28:58Z</time>
      </trkpt>
      <trkpt lat="48.22044" lon="0.64695">
        <ele>145</ele>
        <time>2012-03-23T13:29:18Z</time>
      </trkpt>
      <trkpt lat="48.22043" lon="0.64691">
        <ele>147</ele>
        <time>2012-03-23T13:29:28Z</time>
      </trkpt>
      <trkpt lat="48.22043" lon="0.64687">
        <ele>148</ele>
        <time>2012-03-23T13:29:45Z</time>
      </trkpt>
      <trkpt lat="48.22043" lon="0.64683">
        <ele>148</ele>
        <time>2012-03-23T13:29:59Z</time>
      </trkpt>
      <trkpt lat="48.22044" lon="0.64679">
        <ele>148</ele>
        <time>2012-03-23T13:30:07Z</time>
      </trkpt>
      <trkpt lat="48.22045" lon="0.64676">
        <ele>148</ele>
        <time>2012-03-23T13:30:13Z</time>
      </trkpt>
      <trkpt lat="48.22048" lon="0.64677">
        <ele>149</ele>
        <time>2012-03-23T13:30:27Z</time>
      </trkpt>
      <trkpt lat="48.2205" lon="0.64676">
        <ele>150</ele>
        <time>2012-03-23T13:30:36Z</time>
      </trkpt>
      <trkpt lat="48.22052" lon="0.64679">
        <ele>152</ele>
        <time>2012-03-23T13:31:22Z</time>
      </trkpt>
      <trkpt lat="48.22053" lon="0.64681">
        <ele>154</ele>
        <time>2012-03-23T13:32:27Z</time>
      </trkpt>
      <trkpt lat="48.22053" lon="0.6468">
        <ele>156</ele>
        <time>2012-03-23T13:32:44Z</time>
      </trkpt>
      <trkpt lat="48.22052" lon="0.6468">
        <ele>160</ele>
        <time>2012-03-23T13:33:22Z</time>
      </trkpt>
      <trkpt lat="48.22055" lon="0.64679">
        <ele>159</ele>
        <time>2012-03-23T13:33:49Z</time>
      </trkpt>
      <trkpt lat="48.22056" lon="0.64681">
        <ele>159</ele>
        <time>2012-03-23T13:34:07Z</time>
      </trkpt>
      <trkpt lat="48.22057" lon="0.64685">
        <ele>160</ele>
        <time>2012-03-23T13:34:30Z</time>
      </trkpt>
      <trkpt lat="48.2206" lon="0.64687">
        <ele>161</ele>
        <time>2012-03-23T13:34:47Z</time>
      </trkpt>
      <trkpt lat="48.22063" lon="0.64685">
        <ele>161</ele>
        <time>2012-03-23T13:34:53Z</time>
      </trkpt>
      <trkpt lat="48.22066" lon="0.64684">
        <ele>155</ele>
        <time>2012-03-23T13:35:07Z</time>
      </trkpt>
      <trkpt lat="48.22069" lon="0.64684">
        <ele>155</ele>
        <time>2012-03-23T13:35:12Z</time>
      </trkpt>
      <trkpt lat="48.22073" lon="0.64686">
        <ele>155</ele>
        <time>2012-03-23T13:35:17Z</time>
      </trkpt>
      <trkpt lat="48.22076" lon="0.64688">
        <ele>155</ele>
        <time>2012-03-23T13:35:21Z</time>
      </trkpt>
      <trkpt lat="48.2208" lon="0.6469">
        <ele>155</ele>
        <time>2012-03-23T13:35:25Z</time>
      </trkpt>
      <trkpt lat="48.22083" lon="0.64691">
        <ele>155</ele>
        <time>2012-03-23T13:35:28Z</time>
      </trkpt>
      <trkpt lat="48.22086" lon="0.64692">
        <ele>155</ele>
        <time>2012-03-23T13:35:32Z</time>
      </trkpt>
      <trkpt lat="48.22089" lon="0.64693">
        <ele>155</ele>
        <time>2012-03-23T13:35:34Z</time>
      </trkpt>
      <trkpt lat="48.22092" lon="0.64693">
        <ele>155</ele>
        <time>2012-03-23T13:35:38Z</time>
      </trkpt>
      <trkpt lat="48.22095" lon="0.64696">
        <ele>155</ele>
        <time>2012-03-23T13:35:42Z</time>
      </trkpt>
      <trkpt lat="48.22099" lon="0.64696">
        <ele>155</ele>
        <time>2012-03-23T13:35:46Z</time>
      </trkpt>
      <trkpt lat="48.22102" lon="0.64696">
        <ele>155</ele>
        <time>2012-03-23T13:35:49Z</time>
      </trkpt>
      <trkpt lat="48.22105" lon="0.64696">
        <ele>155</ele>
        <time>2012-03-23T13:35:52Z</time>
      </trkpt>
      <trkpt lat="48.22108" lon="0.64697">
        <ele>155</ele>
        <time>2012-03-23T13:35:56Z</time>
      </trkpt>
      <trkpt lat="48.22111" lon="0.64697">
        <ele>155</ele>
        <time>2012-03-23T13:35:58Z</time>
      </trkpt>
      <trkpt lat="48.22114" lon="0.64697">
        <ele>155</ele>
        <time>2012-03-23T13:36:00Z</time>
      </trkpt>
      <trkpt lat="48.22117" lon="0.64697">
        <ele>155</ele>
        <time>2012-03-23T13:36:02Z</time>
      </trkpt>
      <trkpt lat="48.2212" lon="0.64696">
        <ele>155</ele>
        <time>2012-03-23T13:36:06Z</time>
      </trkpt>
      <trkpt lat="48.22124" lon="0.64696">
        <ele>155</ele>
        <time>2012-03-23T13:36:10Z</time>
      </trkpt>
      <trkpt lat="48.22127" lon="0.64694">
        <ele>155</ele>
        <time>2012-03-23T13:36:12Z</time>
      </trkpt>
      <trkpt lat="48.22131" lon="0.64693">
        <ele>154</ele>
        <time>2012-03-23T13:36:15Z</time>
      </trkpt>
      <trkpt lat="48.22134" lon="0.64692">
        <ele>154</ele>
        <time>2012-03-23T13:36:17Z</time>
      </trkpt>
      <trkpt lat="48.22136" lon="0.64693">
        <ele>154</ele>
        <time>2012-03-23T13:36:19Z</time>
      </trkpt>
      <trkpt lat="48.22139" lon="0.64694">
        <ele>154</ele>
        <time>2012-03-23T13:36:21Z</time>
      </trkpt>
      <trkpt lat="48.22142" lon="0.64694">
        <ele>154</ele>
        <time>2012-03-23T13:36:24Z</time>
      </trkpt>
      <trkpt lat="48.22147" lon="0.64694">
        <ele>154</ele>
        <time>2012-03-23T13:36:28Z</time>
      </trkpt>
      <trkpt lat="48.22149" lon="0.64693">
        <ele>154</ele>
        <time>2012-03-23T13:36:30Z</time>
      </trkpt>
      <trkpt lat="48.22152" lon="0.64692">
        <ele>154</ele>
        <time>2012-03-23T13:36:32Z</time>
      </trkpt>
      <trkpt lat="48.22155" lon="0.64692">
        <ele>154</ele>
        <time>2012-03-23T13:36:35Z</time>
      </trkpt>
      <trkpt lat="48.22158" lon="0.64692">
        <ele>154</ele>
        <time>2012-03-23T13:36:38Z</time>
      </trkpt>
      <trkpt lat="48.2216" lon="0.64692">
        <ele>154</ele>
        <time>2012-03-23T13:36:40Z</time>
      </trkpt>
      <trkpt lat="48.22164" lon="0.64692">
        <ele>154</ele>
        <time>2012-03-23T13:36:43Z</time>
      </trkpt>
      <trkpt lat="48.22168" lon="0.64693">
        <ele>154</ele>
        <time>2012-03-23T13:36:47Z</time>
      </trkpt>
      <trkpt lat="48.22173" lon="0.64694">
        <ele>154</ele>
        <time>2012-03-23T13:36:51Z</time>
      </trkpt>
      <trkpt lat="48.22175" lon="0.64695">
        <ele>154</ele>
        <time>2012-03-23T13:36:53Z</time>
      </trkpt>
      <trkpt lat="48.22179" lon="0.64698">
        <ele>154</ele>
        <time>2012-03-23T13:36:57Z</time>
      </trkpt>
      <trkpt lat="48.22181" lon="0.64701">
        <ele>154</ele>
        <time>2012-03-23T13:36:59Z</time>
      </trkpt>
      <trkpt lat="48.22185" lon="0.64703">
        <ele>154</ele>
        <time>2012-03-23T13:37:03Z</time>
      </trkpt>
      <trkpt lat="48.22188" lon="0.64704">
        <ele>154</ele>
        <time>2012-03-23T13:37:07Z</time>
      </trkpt>
      <trkpt lat="48.22192" lon="0.64706">
        <ele>154</ele>
        <time>2012-03-23T13:37:11Z</time>
      </trkpt>
      <trkpt lat="48.22195" lon="0.64707">
        <ele>154</ele>
        <time>2012-03-23T13:37:13Z</time>
      </trkpt>
      <trkpt lat="48.222" lon="0.64709">
        <ele>154</ele>
        <time>2012-03-23T13:37:17Z</time>
      </trkpt>
      <trkpt lat="48.22204" lon="0.64709">
        <ele>154</ele>
        <time>2012-03-23T13:37:20Z</time>
      </trkpt>
      <trkpt lat="48.22207" lon="0.6471">
        <ele>154</ele>
        <time>2012-03-23T13:37:23Z</time>
      </trkpt>
      <trkpt lat="48.22211" lon="0.6471">
        <ele>154</ele>
        <time>2012-03-23T13:37:26Z</time>
      </trkpt>
      <trkpt lat="48.22214" lon="0.64712">
        <ele>155</ele>
        <time>2012-03-23T13:37:29Z</time>
      </trkpt>
      <trkpt lat="48.22218" lon="0.64714">
        <ele>155</ele>
        <time>2012-03-23T13:37:32Z</time>
      </trkpt>
      <trkpt lat="48.22221" lon="0.64715">
        <ele>156</ele>
        <time>2012-03-23T13:37:36Z</time>
      </trkpt>
      <trkpt lat="48.22224" lon="0.64716">
        <ele>158</ele>
        <time>2012-03-23T13:37:39Z</time>
      </trkpt>
      <trkpt lat="48.22226" lon="0.64719">
        <ele>161</ele>
        <time>2012-03-23T13:37:43Z</time>
      </trkpt>
      <trkpt lat="48.22232" lon="0.64719">
        <ele>162</ele>
        <time>2012-03-23T13:37:47Z</time>
      </trkpt>
      <trkpt lat="48.22235" lon="0.64721">
        <ele>163</ele>
        <time>2012-03-23T13:37:50Z</time>
      </trkpt>
      <trkpt lat="48.2224" lon="0.64721">
        <ele>164</ele>
        <time>2012-03-23T13:37:53Z</time>
      </trkpt>
      <trkpt lat="48.22243" lon="0.64724">
        <ele>164</ele>
        <time>2012-03-23T13:37:57Z</time>
      </trkpt>
      <trkpt lat="48.22245" lon="0.64725">
        <ele>164</ele>
        <time>2012-03-23T13:37:59Z</time>
      </trkpt>
      <trkpt lat="48.22249" lon="0.64727">
        <ele>164</ele>
        <time>2012-03-23T13:38:02Z</time>
      </trkpt>
      <trkpt lat="48.22252" lon="0.64727">
        <ele>164</ele>
        <time>2012-03-23T13:38:04Z</time>
      </trkpt>
      <trkpt lat="48.22257" lon="0.64729">
        <ele>164</ele>
        <time>2012-03-23T13:38:07Z</time>
      </trkpt>
      <trkpt lat="48.22261" lon="0.64731">
        <ele>162</ele>
        <time>2012-03-23T13:38:10Z</time>
      </trkpt>
      <trkpt lat="48.22264" lon="0.64732">
        <ele>162</ele>
        <time>2012-03-23T13:38:13Z</time>
      </trkpt>
      <trkpt lat="48.22267" lon="0.64733">
        <ele>162</ele>
        <time>2012-03-23T13:38:16Z</time>
      </trkpt>
      <trkpt lat="48.22269" lon="0.64733">
        <ele>162</ele>
        <time>2012-03-23T13:38:18Z</time>
      </trkpt>
      <trkpt lat="48.22272" lon="0.64734">
        <ele>162</ele>
        <time>2012-03-23T13:38:20Z</time>
      </trkpt>
      <trkpt lat="48.22275" lon="0.64735">
        <ele>162</ele>
        <time>2012-03-23T13:38:22Z</time>
      </trkpt>
      <trkpt lat="48.22277" lon="0.64736">
        <ele>162</ele>
        <time>2012-03-23T13:38:24Z</time>
      </trkpt>
      <trkpt lat="48.2228" lon="0.64737">
        <ele>162</ele>
        <time>2012-03-23T13:38:27Z</time>
      </trkpt>
      <trkpt lat="48.22283" lon="0.64738">
        <ele>162</ele>
        <time>2012-03-23T13:38:29Z</time>
      </trkpt>
      <trkpt lat="48.22286" lon="0.64739">
        <ele>162</ele>
        <time>2012-03-23T13:38:31Z</time>
      </trkpt>
      <trkpt lat="48.2229" lon="0.64742">
        <ele>161</ele>
        <time>2012-03-23T13:38:35Z</time>
      </trkpt>
      <trkpt lat="48.22293" lon="0.64741">
        <ele>161</ele>
        <time>2012-03-23T13:38:40Z</time>
      </trkpt>
      <trkpt lat="48.22296" lon="0.64739">
        <ele>161</ele>
        <time>2012-03-23T13:38:44Z</time>
      </trkpt>
      <trkpt lat="48.22299" lon="0.64735">
        <ele>161</ele>
        <time>2012-03-23T13:38:49Z</time>
      </trkpt>
      <trkpt lat="48.223" lon="0.64731">
        <ele>161</ele>
        <time>2012-03-23T13:38:53Z</time>
      </trkpt>
      <trkpt lat="48.22303" lon="0.64732">
        <ele>161</ele>
        <time>2012-03-23T13:38:57Z</time>
      </trkpt>
      <trkpt lat="48.22304" lon="0.64731">
        <ele>161</ele>
        <time>2012-03-23T13:39:07Z</time>
      </trkpt>
      <trkpt lat="48.22305" lon="0.64727">
        <ele>161</ele>
        <time>2012-03-23T13:39:14Z</time>
      </trkpt>
      <trkpt lat="48.22301" lon="0.64723">
        <ele>161</ele>
        <time>2012-03-23T13:39:20Z</time>
      </trkpt>
      <trkpt lat="48.22303" lon="0.64722">
        <ele>162</ele>
        <time>2012-03-23T13:39:36Z</time>
      </trkpt>
      <trkpt lat="48.22301" lon="0.64721">
        <ele>162</ele>
        <time>2012-03-23T13:39:46Z</time>
      </trkpt>
      <trkpt lat="48.22302" lon="0.64719">
        <ele>163</ele>
        <time>2012-03-23T13:39:55Z</time>
      </trkpt>
      <trkpt lat="48.22303" lon="0.64718">
        <ele>163</ele>
        <time>2012-03-23T13:40:04Z</time>
      </trkpt>
      <trkpt lat="48.22302" lon="0.64713">
        <ele>162</ele>
        <time>2012-03-23T13:40:25Z</time>
      </trkpt>
      <trkpt lat="48.22303" lon="0.64709">
        <ele>162</ele>
        <time>2012-03-23T13:40:31Z</time>
      </trkpt>
      <trkpt lat="48.22303" lon="0.64707">
        <ele>162</ele>
        <time>2012-03-23T13:40:41Z</time>
      </trkpt>
      <trkpt lat="48.22302" lon="0.64705">
        <ele>164</ele>
        <time>2012-03-23T13:40:57Z</time>
      </trkpt>
      <trkpt lat="48.22304" lon="0.64702">
        <ele>164</ele>
        <time>2012-03-23T13:41:04Z</time>
      </trkpt>
      <trkpt lat="48.22304" lon="0.647">
        <ele>164</ele>
        <time>2012-03-23T13:41:14Z</time>
      </trkpt>
      <trkpt lat="48.22303" lon="0.64704">
        <ele>165</ele>
        <time>2012-03-23T13:41:38Z</time>
      </trkpt>
      <trkpt lat="48.22304" lon="0.64703">
        <ele>165</ele>
        <time>2012-03-23T13:41:57Z</time>
      </trkpt>
      <trkpt lat="48.22302" lon="0.647">
        <ele>165</ele>
        <time>2012-03-23T13:42:09Z</time>
      </trkpt>
      <trkpt lat="48.22301" lon="0.64696">
        <ele>165</ele>
        <time>2012-03-23T13:42:13Z</time>
      </trkpt>
      <trkpt lat="48.223" lon="0.64692">
        <ele>165</ele>
        <time>2012-03-23T13:42:17Z</time>
      </trkpt>
      <trkpt lat="48.22299" lon="0.64687">
        <ele>165</ele>
        <time>2012-03-23T13:42:21Z</time>
      </trkpt>
      <trkpt lat="48.22298" lon="0.64681">
        <ele>165</ele>
        <time>2012-03-23T13:42:25Z</time>
      </trkpt>
      <trkpt lat="48.22297" lon="0.64677">
        <ele>165</ele>
        <time>2012-03-23T13:42:28Z</time>
      </trkpt>
      <trkpt lat="48.22296" lon="0.64672">
        <ele>165</ele>
        <time>2012-03-23T13:42:31Z</time>
      </trkpt>
      <trkpt lat="48.22296" lon="0.64667">
        <ele>165</ele>
        <time>2012-03-23T13:42:34Z</time>
      </trkpt>
      <trkpt lat="48.22296" lon="0.64662">
        <ele>165</ele>
        <time>2012-03-23T13:42:38Z</time>
      </trkpt>
      <trkpt lat="48.22295" lon="0.64657">
        <ele>165</ele>
        <time>2012-03-23T13:42:41Z</time>
      </trkpt>
      <trkpt lat="48.22294" lon="0.64652">
        <ele>165</ele>
        <time>2012-03-23T13:42:44Z</time>
      </trkpt>
      <trkpt lat="48.22294" lon="0.64648">
        <ele>165</ele>
        <time>2012-03-23T13:42:46Z</time>
      </trkpt>
      <trkpt lat="48.22294" lon="0.64644">
        <ele>165</ele>
        <time>2012-03-23T13:42:48Z</time>
      </trkpt>
      <trkpt lat="48.22294" lon="0.6464">
        <ele>165</ele>
        <time>2012-03-23T13:42:50Z</time>
      </trkpt>
      <trkpt lat="48.22293" lon="0.64637">
        <ele>165</ele>
        <time>2012-03-23T13:42:52Z</time>
      </trkpt>
      <trkpt lat="48.22293" lon="0.64633">
        <ele>165</ele>
        <time>2012-03-23T13:42:54Z</time>
      </trkpt>
      <trkpt lat="48.22293" lon="0.64629">
        <ele>165</ele>
        <time>2012-03-23T13:42:56Z</time>
      </trkpt>
      <trkpt lat="48.22292" lon="0.64626">
        <ele>165</ele>
        <time>2012-03-23T13:42:58Z</time>
      </trkpt>
      <trkpt lat="48.22292" lon="0.64621">
        <ele>165</ele>
        <time>2012-03-23T13:43:01Z</time>
      </trkpt>
      <trkpt lat="48.22291" lon="0.64618">
        <ele>165</ele>
        <time>2012-03-23T13:43:03Z</time>
      </trkpt>
      <trkpt lat="48.2229" lon="0.64614">
        <ele>164</ele>
        <time>2012-03-23T13:43:05Z</time>
      </trkpt>
      <trkpt lat="48.22291" lon="0.64609">
        <ele>164</ele>
        <time>2012-03-23T13:43:08Z</time>
      </trkpt>
      <trkpt lat="48.22292" lon="0.64604">
        <ele>163</ele>
        <time>2012-03-23T13:43:12Z</time>
      </trkpt>
      <trkpt lat="48.22296" lon="0.646">
        <ele>162</ele>
        <time>2012-03-23T13:43:16Z</time>
      </trkpt>
      <trkpt lat="48.22298" lon="0.64598">
        <ele>161</ele>
        <time>2012-03-23T13:43:20Z</time>
      </trkpt>
      <trkpt lat="48.22302" lon="0.64597">
        <ele>160</ele>
        <time>2012-03-23T13:43:24Z</time>
      </trkpt>
      <trkpt lat="48.22305" lon="0.64597">
        <ele>160</ele>
        <time>2012-03-23T13:43:26Z</time>
      </trkpt>
      <trkpt lat="48.22308" lon="0.64596">
        <ele>159</ele>
        <time>2012-03-23T13:43:29Z</time>
      </trkpt>
      <trkpt lat="48.22311" lon="0.64596">
        <ele>159</ele>
        <time>2012-03-23T13:43:31Z</time>
      </trkpt>
      <trkpt lat="48.22315" lon="0.64595">
        <ele>158</ele>
        <time>2012-03-23T13:43:35Z</time>
      </trkpt>
      <trkpt lat="48.22319" lon="0.64595">
        <ele>157</ele>
        <time>2012-03-23T13:43:38Z</time>
      </trkpt>
      <trkpt lat="48.22322" lon="0.64595">
        <ele>157</ele>
        <time>2012-03-23T13:43:41Z</time>
      </trkpt>
      <trkpt lat="48.22326" lon="0.64593">
        <ele>157</ele>
        <time>2012-03-23T13:43:45Z</time>
      </trkpt>
      <trkpt lat="48.22329" lon="0.64592">
        <ele>157</ele>
        <time>2012-03-23T13:43:48Z</time>
      </trkpt>
      <trkpt lat="48.22332" lon="0.64591">
        <ele>157</ele>
        <time>2012-03-23T13:43:51Z</time>
      </trkpt>
      <trkpt lat="48.22335" lon="0.64589">
        <ele>157</ele>
        <time>2012-03-23T13:43:53Z</time>
      </trkpt>
      <trkpt lat="48.22338" lon="0.64588">
        <ele>157</ele>
        <time>2012-03-23T13:43:55Z</time>
      </trkpt>
      <trkpt lat="48.2234" lon="0.64587">
        <ele>157</ele>
        <time>2012-03-23T13:43:57Z</time>
      </trkpt>
      <trkpt lat="48.22343" lon="0.64585">
        <ele>157</ele>
        <time>2012-03-23T13:44:00Z</time>
      </trkpt>
      <trkpt lat="48.22346" lon="0.64584">
        <ele>157</ele>
        <time>2012-03-23T13:44:03Z</time>
      </trkpt>
      <trkpt lat="48.2235" lon="0.64583">
        <ele>157</ele>
        <time>2012-03-23T13:44:06Z</time>
      </trkpt>
      <trkpt lat="48.22353" lon="0.64582">
        <ele>157</ele>
        <time>2012-03-23T13:44:10Z</time>
      </trkpt>
      <trkpt lat="48.22356" lon="0.64581">
        <ele>157</ele>
        <time>2012-03-23T13:44:12Z</time>
      </trkpt>
      <trkpt lat="48.22359" lon="0.6458">
        <ele>157</ele>
        <time>2012-03-23T13:44:15Z</time>
      </trkpt>
      <trkpt lat="48.22363" lon="0.6458">
        <ele>157</ele>
        <time>2012-03-23T13:44:17Z</time>
      </trkpt>
      <trkpt lat="48.22365" lon="0.64579">
        <ele>157</ele>
        <time>2012-03-23T13:44:19Z</time>
      </trkpt>
      <trkpt lat="48.22369" lon="0.64579">
        <ele>157</ele>
        <time>2012-03-23T13:44:23Z</time>
      </trkpt>
      <trkpt lat="48.22373" lon="0.64578">
        <ele>157</ele>
        <time>2012-03-23T13:44:26Z</time>
      </trkpt>
      <trkpt lat="48.22377" lon="0.64577">
        <ele>157</ele>
        <time>2012-03-23T13:44:30Z</time>
      </trkpt>
      <trkpt lat="48.2238" lon="0.64576">
        <ele>157</ele>
        <time>2012-03-23T13:44:32Z</time>
      </trkpt>
      <trkpt lat="48.22383" lon="0.64574">
        <ele>157</ele>
        <time>2012-03-23T13:44:35Z</time>
      </trkpt>
      <trkpt lat="48.22386" lon="0.64572">
        <ele>157</ele>
        <time>2012-03-23T13:44:38Z</time>
      </trkpt>
      <trkpt lat="48.2239" lon="0.64571">
        <ele>157</ele>
        <time>2012-03-23T13:44:42Z</time>
      </trkpt>
      <trkpt lat="48.22393" lon="0.6457">
        <ele>157</ele>
        <time>2012-03-23T13:44:45Z</time>
      </trkpt>
      <trkpt lat="48.22396" lon="0.64569">
        <ele>157</ele>
        <time>2012-03-23T13:44:47Z</time>
      </trkpt>
      <trkpt lat="48.224" lon="0.64568">
        <ele>157</ele>
        <time>2012-03-23T13:44:51Z</time>
      </trkpt>
      <trkpt lat="48.22403" lon="0.64567">
        <ele>157</ele>
        <time>2012-03-23T13:44:53Z</time>
      </trkpt>
      <trkpt lat="48.22407" lon="0.64566">
        <ele>157</ele>
        <time>2012-03-23T13:44:56Z</time>
      </trkpt>
      <trkpt lat="48.2241" lon="0.64566">
        <ele>157</ele>
        <time>2012-03-23T13:44:59Z</time>
      </trkpt>
      <trkpt lat="48.22412" lon="0.64565">
        <ele>157</ele>
        <time>2012-03-23T13:45:02Z</time>
      </trkpt>
      <trkpt lat="48.22415" lon="0.64564">
        <ele>157</ele>
        <time>2012-03-23T13:45:04Z</time>
      </trkpt>
      <trkpt lat="48.22419" lon="0.64562">
        <ele>156</ele>
        <time>2012-03-23T13:45:08Z</time>
      </trkpt>
      <trkpt lat="48.22421" lon="0.6456">
        <ele>156</ele>
        <time>2012-03-23T13:45:10Z</time>
      </trkpt>
      <trkpt lat="48.22425" lon="0.64554">
        <ele>155</ele>
        <time>2012-03-23T13:45:14Z</time>
      </trkpt>
      <trkpt lat="48.22426" lon="0.6455">
        <ele>155</ele>
        <time>2012-03-23T13:45:17Z</time>
      </trkpt>
      <trkpt lat="48.22426" lon="0.64546">
        <ele>155</ele>
        <time>2012-03-23T13:45:19Z</time>
      </trkpt>
      <trkpt lat="48.22425" lon="0.64539">
        <ele>154</ele>
        <time>2012-03-23T13:45:23Z</time>
      </trkpt>
      <trkpt lat="48.22425" lon="0.64535">
        <ele>154</ele>
        <time>2012-03-23T13:45:26Z</time>
      </trkpt>
      <trkpt lat="48.22425" lon="0.6453">
        <ele>154</ele>
        <time>2012-03-23T13:45:29Z</time>
      </trkpt>
      <trkpt lat="48.22424" lon="0.64527">
        <ele>154</ele>
        <time>2012-03-23T13:45:31Z</time>
      </trkpt>
      <trkpt lat="48.22426" lon="0.64521">
        <ele>154</ele>
        <time>2012-03-23T13:45:35Z</time>
      </trkpt>
      <trkpt lat="48.22429" lon="0.64517">
        <ele>153</ele>
        <time>2012-03-23T13:45:39Z</time>
      </trkpt>
      <trkpt lat="48.22433" lon="0.64515">
        <ele>151</ele>
        <time>2012-03-23T13:45:44Z</time>
      </trkpt>
      <trkpt lat="48.22437" lon="0.64513">
        <ele>150</ele>
        <time>2012-03-23T13:45:47Z</time>
      </trkpt>
      <trkpt lat="48.2244" lon="0.64512">
        <ele>148</ele>
        <time>2012-03-23T13:45:50Z</time>
      </trkpt>
      <trkpt lat="48.22443" lon="0.64511">
        <ele>147</ele>
        <time>2012-03-23T13:45:53Z</time>
      </trkpt>
      <trkpt lat="48.22445" lon="0.6451">
        <ele>147</ele>
        <time>2012-03-23T13:45:55Z</time>
      </trkpt>
      <trkpt lat="48.22448" lon="0.64509">
        <ele>145</ele>
        <time>2012-03-23T13:45:58Z</time>
      </trkpt>
      <trkpt lat="48.22452" lon="0.64508">
        <ele>144</ele>
        <time>2012-03-23T13:46:01Z</time>
      </trkpt>
      <trkpt lat="48.22456" lon="0.64507">
        <ele>144</ele>
        <time>2012-03-23T13:46:04Z</time>
      </trkpt>
      <trkpt lat="48.22459" lon="0.64507">
        <ele>143</ele>
        <time>2012-03-23T13:46:06Z</time>
      </trkpt>
      <trkpt lat="48.22462" lon="0.64506">
        <ele>143</ele>
        <time>2012-03-23T13:46:08Z</time>
      </trkpt>
      <trkpt lat="48.22465" lon="0.64505">
        <ele>142</ele>
        <time>2012-03-23T13:46:11Z</time>
      </trkpt>
      <trkpt lat="48.22469" lon="0.64504">
        <ele>142</ele>
        <time>2012-03-23T13:46:14Z</time>
      </trkpt>
      <trkpt lat="48.22472" lon="0.64503">
        <ele>142</ele>
        <time>2012-03-23T13:46:16Z</time>
      </trkpt>
      <trkpt lat="48.22474" lon="0.64502">
        <ele>142</ele>
        <time>2012-03-23T13:46:18Z</time>
      </trkpt>
      <trkpt lat="48.22476" lon="0.64501">
        <ele>142</ele>
        <time>2012-03-23T13:46:20Z</time>
      </trkpt>
      <trkpt lat="48.22479" lon="0.645">
        <ele>141</ele>
        <time>2012-03-23T13:46:22Z</time>
      </trkpt>
      <trkpt lat="48.22482" lon="0.64499">
        <ele>141</ele>
        <time>2012-03-23T13:46:25Z</time>
      </trkpt>
      <trkpt lat="48.22486" lon="0.64498">
        <ele>141</ele>
        <time>2012-03-23T13:46:28Z</time>
      </trkpt>
      <trkpt lat="48.22489" lon="0.64498">
        <ele>141</ele>
        <time>2012-03-23T13:46:31Z</time>
      </trkpt>
      <trkpt lat="48.22493" lon="0.64497">
        <ele>141</ele>
        <time>2012-03-23T13:46:34Z</time>
      </trkpt>
      <trkpt lat="48.22496" lon="0.64496">
        <ele>140</ele>
        <time>2012-03-23T13:46:36Z</time>
      </trkpt>
      <trkpt lat="48.22498" lon="0.64495">
        <ele>140</ele>
        <time>2012-03-23T13:46:38Z</time>
      </trkpt>
      <trkpt lat="48.22501" lon="0.64495">
        <ele>140</ele>
        <time>2012-03-23T13:46:40Z</time>
      </trkpt>
      <trkpt lat="48.22504" lon="0.64494">
        <ele>140</ele>
        <time>2012-03-23T13:46:43Z</time>
      </trkpt>
      <trkpt lat="48.22507" lon="0.64493">
        <ele>140</ele>
        <time>2012-03-23T13:46:46Z</time>
      </trkpt>
      <trkpt lat="48.2251" lon="0.64494">
        <ele>140</ele>
        <time>2012-03-23T13:46:48Z</time>
      </trkpt>
      <trkpt lat="48.22515" lon="0.64493">
        <ele>140</ele>
        <time>2012-03-23T13:46:52Z</time>
      </trkpt>
      <trkpt lat="48.22518" lon="0.6449">
        <ele>140</ele>
        <time>2012-03-23T13:46:56Z</time>
      </trkpt>
      <trkpt lat="48.2252" lon="0.64486">
        <ele>140</ele>
        <time>2012-03-23T13:47:00Z</time>
      </trkpt>
      <trkpt lat="48.22519" lon="0.64482">
        <ele>140</ele>
        <time>2012-03-23T13:47:03Z</time>
      </trkpt>
      <trkpt lat="48.22516" lon="0.64478">
        <ele>140</ele>
        <time>2012-03-23T13:47:08Z</time>
      </trkpt>
      <trkpt lat="48.22514" lon="0.64474">
        <ele>141</ele>
        <time>2012-03-23T13:47:13Z</time>
      </trkpt>
      <trkpt lat="48.22511" lon="0.6447">
        <ele>142</ele>
        <time>2012-03-23T13:47:18Z</time>
      </trkpt>
      <trkpt lat="48.22509" lon="0.64467">
        <ele>143</ele>
        <time>2012-03-23T13:47:22Z</time>
      </trkpt>
      <trkpt lat="48.22506" lon="0.64463">
        <ele>144</ele>
        <time>2012-03-23T13:47:26Z</time>
      </trkpt>
      <trkpt lat="48.22503" lon="0.64459">
        <ele>144</ele>
        <time>2012-03-23T13:47:30Z</time>
      </trkpt>
      <trkpt lat="48.225" lon="0.64455">
        <ele>145</ele>
        <time>2012-03-23T13:47:34Z</time>
      </trkpt>
      <trkpt lat="48.22497" lon="0.64451">
        <ele>145</ele>
        <time>2012-03-23T13:47:40Z</time>
      </trkpt>
      <trkpt lat="48.22495" lon="0.64447">
        <ele>145</ele>
        <time>2012-03-23T13:47:45Z</time>
      </trkpt>
      <trkpt lat="48.22493" lon="0.64443">
        <ele>145</ele>
        <time>2012-03-23T13:47:49Z</time>
      </trkpt>
      <trkpt lat="48.22491" lon="0.64439">
        <ele>145</ele>
        <time>2012-03-23T13:47:55Z</time>
      </trkpt>
      <trkpt lat="48.22488" lon="0.64435">
        <ele>145</ele>
        <time>2012-03-23T13:48:00Z</time>
      </trkpt>
      <trkpt lat="48.22486" lon="0.64431">
        <ele>145</ele>
        <time>2012-03-23T13:48:05Z</time>
      </trkpt>
      <trkpt lat="48.22483" lon="0.64426">
        <ele>145</ele>
        <time>2012-03-23T13:48:09Z</time>
      </trkpt>
      <trkpt lat="48.2248" lon="0.64422">
        <ele>145</ele>
        <time>2012-03-23T13:48:13Z</time>
      </trkpt>
      <trkpt lat="48.22477" lon="0.64418">
        <ele>146</ele>
        <time>2012-03-23T13:48:17Z</time>
      </trkpt>
      <trkpt lat="48.22475" lon="0.64414">
        <ele>147</ele>
        <time>2012-03-23T13:48:21Z</time>
      </trkpt>
      <trkpt lat="48.22472" lon="0.6441">
        <ele>147</ele>
        <time>2012-03-23T13:48:25Z</time>
      </trkpt>
      <trkpt lat="48.22469" lon="0.64407">
        <ele>147</ele>
        <time>2012-03-23T13:48:28Z</time>
      </trkpt>
      <trkpt lat="48.22467" lon="0.64403">
        <ele>148</ele>
        <time>2012-03-23T13:48:30Z</time>
      </trkpt>
      <trkpt lat="48.22465" lon="0.64399">
        <ele>148</ele>
        <time>2012-03-23T13:48:34Z</time>
      </trkpt>
      <trkpt lat="48.22461" lon="0.64393">
        <ele>148</ele>
        <time>2012-03-23T13:48:38Z</time>
      </trkpt>
      <trkpt lat="48.22458" lon="0.64388">
        <ele>148</ele>
        <time>2012-03-23T13:48:42Z</time>
      </trkpt>
      <trkpt lat="48.22455" lon="0.64383">
        <ele>148</ele>
        <time>2012-03-23T13:48:46Z</time>
      </trkpt>
      <trkpt lat="48.22453" lon="0.64378">
        <ele>148</ele>
        <time>2012-03-23T13:48:50Z</time>
      </trkpt>
      <trkpt lat="48.22451" lon="0.64373">
        <ele>148</ele>
        <time>2012-03-23T13:48:54Z</time>
      </trkpt>
      <trkpt lat="48.22449" lon="0.64368">
        <ele>148</ele>
        <time>2012-03-23T13:48:58Z</time>
      </trkpt>
      <trkpt lat="48.22446" lon="0.64363">
        <ele>148</ele>
        <time>2012-03-23T13:49:02Z</time>
      </trkpt>
      <trkpt lat="48.22444" lon="0.64359">
        <ele>148</ele>
        <time>2012-03-23T13:49:06Z</time>
      </trkpt>
      <trkpt lat="48.22441" lon="0.64354">
        <ele>148</ele>
        <time>2012-03-23T13:49:10Z</time>
      </trkpt>
      <trkpt lat="48.22438" lon="0.6435">
        <ele>148</ele>
        <time>2012-03-23T13:49:13Z</time>
      </trkpt>
      <trkpt lat="48.22436" lon="0.64346">
        <ele>148</ele>
        <time>2012-03-23T13:49:17Z</time>
      </trkpt>
      <trkpt lat="48.22434" lon="0.64342">
        <ele>148</ele>
        <time>2012-03-23T13:49:21Z</time>
      </trkpt>
      <trkpt lat="48.22431" lon="0.64339">
        <ele>148</ele>
        <time>2012-03-23T13:49:26Z</time>
      </trkpt>
      <trkpt lat="48.22429" lon="0.64336">
        <ele>148</ele>
        <time>2012-03-23T13:49:31Z</time>
      </trkpt>
      <trkpt lat="48.22426" lon="0.64332">
        <ele>148</ele>
        <time>2012-03-23T13:49:36Z</time>
      </trkpt>
      <trkpt lat="48.22424" lon="0.64328">
        <ele>148</ele>
        <time>2012-03-23T13:49:40Z</time>
      </trkpt>
      <trkpt lat="48.22421" lon="0.64324">
        <ele>148</ele>
        <time>2012-03-23T13:49:44Z</time>
      </trkpt>
      <trkpt lat="48.22418" lon="0.64319">
        <ele>148</ele>
        <time>2012-03-23T13:49:48Z</time>
      </trkpt>
      <trkpt lat="48.22416" lon="0.64315">
        <ele>148</ele>
        <time>2012-03-23T13:49:52Z</time>
      </trkpt>
      <trkpt lat="48.22413" lon="0.64312">
        <ele>148</ele>
        <time>2012-03-23T13:49:56Z</time>
      </trkpt>
      <trkpt lat="48.22411" lon="0.64309">
        <ele>148</ele>
        <time>2012-03-23T13:50:00Z</time>
      </trkpt>
      <trkpt lat="48.22408" lon="0.64304">
        <ele>148</ele>
        <time>2012-03-23T13:50:04Z</time>
      </trkpt>
      <trkpt lat="48.22406" lon="0.64301">
        <ele>148</ele>
        <time>2012-03-23T13:50:08Z</time>
      </trkpt>
      <trkpt lat="48.22404" lon="0.64297">
        <ele>148</ele>
        <time>2012-03-23T13:50:12Z</time>
      </trkpt>
      <trkpt lat="48.22401" lon="0.64293">
        <ele>148</ele>
        <time>2012-03-23T13:50:16Z</time>
      </trkpt>
      <trkpt lat="48.22398" lon="0.64289">
        <ele>148</ele>
        <time>2012-03-23T13:50:20Z</time>
      </trkpt>
      <trkpt lat="48.22396" lon="0.64285">
        <ele>148</ele>
        <time>2012-03-23T13:50:24Z</time>
      </trkpt>
      <trkpt lat="48.22394" lon="0.64281">
        <ele>148</ele>
        <time>2012-03-23T13:50:31Z</time>
      </trkpt>
      <trkpt lat="48.22394" lon="0.64276">
        <ele>148</ele>
        <time>2012-03-23T13:50:36Z</time>
      </trkpt>
      <trkpt lat="48.22393" lon="0.64272">
        <ele>148</ele>
        <time>2012-03-23T13:50:40Z</time>
      </trkpt>
      <trkpt lat="48.22392" lon="0.64268">
        <ele>148</ele>
        <time>2012-03-23T13:50:43Z</time>
      </trkpt>
      <trkpt lat="48.2239" lon="0.64263">
        <ele>148</ele>
        <time>2012-03-23T13:50:47Z</time>
      </trkpt>
      <trkpt lat="48.22387" lon="0.64262">
        <ele>148</ele>
        <time>2012-03-23T13:50:50Z</time>
      </trkpt>
      <trkpt lat="48.22385" lon="0.6426">
        <ele>148</ele>
        <time>2012-03-23T13:50:53Z</time>
      </trkpt>
      <trkpt lat="48.22382" lon="0.64257">
        <ele>148</ele>
        <time>2012-03-23T13:50:57Z</time>
      </trkpt>
      <trkpt lat="48.22379" lon="0.64255">
        <ele>148</ele>
        <time>2012-03-23T13:51:00Z</time>
      </trkpt>
      <trkpt lat="48.22377" lon="0.64251">
        <ele>149</ele>
        <time>2012-03-23T13:51:05Z</time>
      </trkpt>
      <trkpt lat="48.22374" lon="0.64252">
        <ele>149</ele>
        <time>2012-03-23T13:51:13Z</time>
      </trkpt>
      <trkpt lat="48.22376" lon="0.64251">
        <ele>150</ele>
        <time>2012-03-23T13:52:24Z</time>
      </trkpt>
      <trkpt lat="48.22374" lon="0.64252">
        <ele>152</ele>
        <time>2012-03-23T13:53:02Z</time>
      </trkpt>
      <trkpt lat="48.22371" lon="0.64253">
        <ele>152</ele>
        <time>2012-03-23T13:53:06Z</time>
      </trkpt>
      <trkpt lat="48.22367" lon="0.64253">
        <ele>152</ele>
        <time>2012-03-23T13:53:09Z</time>
      </trkpt>
      <trkpt lat="48.22364" lon="0.64253">
        <ele>152</ele>
        <time>2012-03-23T13:53:13Z</time>
      </trkpt>
      <trkpt lat="48.22361" lon="0.64252">
        <ele>152</ele>
        <time>2012-03-23T13:53:17Z</time>
      </trkpt>
      <trkpt lat="48.22357" lon="0.64252">
        <ele>152</ele>
        <time>2012-03-23T13:53:21Z</time>
      </trkpt>
      <trkpt lat="48.22353" lon="0.64251">
        <ele>152</ele>
        <time>2012-03-23T13:53:24Z</time>
      </trkpt>
      <trkpt lat="48.22351" lon="0.64251">
        <ele>152</ele>
        <time>2012-03-23T13:53:26Z</time>
      </trkpt>
      <trkpt lat="48.22348" lon="0.64249">
        <ele>152</ele>
        <time>2012-03-23T13:53:29Z</time>
      </trkpt>
      <trkpt lat="48.22345" lon="0.64249">
        <ele>152</ele>
        <time>2012-03-23T13:53:31Z</time>
      </trkpt>
      <trkpt lat="48.22343" lon="0.64249">
        <ele>152</ele>
        <time>2012-03-23T13:53:33Z</time>
      </trkpt>
      <trkpt lat="48.22339" lon="0.64249">
        <ele>152</ele>
        <time>2012-03-23T13:53:37Z</time>
      </trkpt>
      <trkpt lat="48.22336" lon="0.64248">
        <ele>152</ele>
        <time>2012-03-23T13:53:39Z</time>
      </trkpt>
      <trkpt lat="48.22334" lon="0.64248">
        <ele>152</ele>
        <time>2012-03-23T13:53:41Z</time>
      </trkpt>
      <trkpt lat="48.22331" lon="0.64248">
        <ele>152</ele>
        <time>2012-03-23T13:53:43Z</time>
      </trkpt>
      <trkpt lat="48.22329" lon="0.64248">
        <ele>152</ele>
        <time>2012-03-23T13:53:45Z</time>
      </trkpt>
      <trkpt lat="48.22327" lon="0.64248">
        <ele>152</ele>
        <time>2012-03-23T13:53:47Z</time>
      </trkpt>
      <trkpt lat="48.22324" lon="0.64249">
        <ele>152</ele>
        <time>2012-03-23T13:53:49Z</time>
      </trkpt>
      <trkpt lat="48.22321" lon="0.64249">
        <ele>152</ele>
        <time>2012-03-23T13:53:51Z</time>
      </trkpt>
      <trkpt lat="48.22319" lon="0.64249">
        <ele>152</ele>
        <time>2012-03-23T13:53:53Z</time>
      </trkpt>
      <trkpt lat="48.22316" lon="0.6425">
        <ele>152</ele>
        <time>2012-03-23T13:53:55Z</time>
      </trkpt>
      <trkpt lat="48.22314" lon="0.6425">
        <ele>152</ele>
        <time>2012-03-23T13:53:57Z</time>
      </trkpt>
      <trkpt lat="48.22311" lon="0.64249">
        <ele>152</ele>
        <time>2012-03-23T13:53:59Z</time>
      </trkpt>
      <trkpt lat="48.22308" lon="0.64249">
        <ele>152</ele>
        <time>2012-03-23T13:54:01Z</time>
      </trkpt>
      <trkpt lat="48.22306" lon="0.64249">
        <ele>152</ele>
        <time>2012-03-23T13:54:03Z</time>
      </trkpt>
      <trkpt lat="48.22303" lon="0.64248">
        <ele>152</ele>
        <time>2012-03-23T13:54:05Z</time>
      </trkpt>
      <trkpt lat="48.223" lon="0.64248">
        <ele>152</ele>
        <time>2012-03-23T13:54:07Z</time>
      </trkpt>
      <trkpt lat="48.22298" lon="0.64248">
        <ele>152</ele>
        <time>2012-03-23T13:54:09Z</time>
      </trkpt>
      <trkpt lat="48.22295" lon="0.64247">
        <ele>152</ele>
        <time>2012-03-23T13:54:11Z</time>
      </trkpt>
      <trkpt lat="48.22293" lon="0.64247">
        <ele>152</ele>
        <time>2012-03-23T13:54:13Z</time>
      </trkpt>
      <trkpt lat="48.2229" lon="0.64246">
        <ele>152</ele>
        <time>2012-03-23T13:54:15Z</time>
      </trkpt>
      <trkpt lat="48.22288" lon="0.64245">
        <ele>152</ele>
        <time>2012-03-23T13:54:17Z</time>
      </trkpt>
      <trkpt lat="48.22285" lon="0.64245">
        <ele>152</ele>
        <time>2012-03-23T13:54:19Z</time>
      </trkpt>
      <trkpt lat="48.22282" lon="0.64244">
        <ele>152</ele>
        <time>2012-03-23T13:54:22Z</time>
      </trkpt>
      <trkpt lat="48.2228" lon="0.64244">
        <ele>152</ele>
        <time>2012-03-23T13:54:26Z</time>
      </trkpt>
      <trkpt lat="48.22276" lon="0.64244">
        <ele>152</ele>
        <time>2012-03-23T13:54:30Z</time>
      </trkpt>
      <trkpt lat="48.22273" lon="0.64244">
        <ele>152</ele>
        <time>2012-03-23T13:54:32Z</time>
      </trkpt>
      <trkpt lat="48.22271" lon="0.64244">
        <ele>152</ele>
        <time>2012-03-23T13:54:35Z</time>
      </trkpt>
      <trkpt lat="48.22266" lon="0.64242">
        <ele>152</ele>
        <time>2012-03-23T13:54:39Z</time>
      </trkpt>
      <trkpt lat="48.22263" lon="0.64242">
        <ele>152</ele>
        <time>2012-03-23T13:54:42Z</time>
      </trkpt>
      <trkpt lat="48.2226" lon="0.64242">
        <ele>152</ele>
        <time>2012-03-23T13:54:45Z</time>
      </trkpt>
      <trkpt lat="48.22257" lon="0.64241">
        <ele>152</ele>
        <time>2012-03-23T13:54:47Z</time>
      </trkpt>
      <trkpt lat="48.22255" lon="0.6424">
        <ele>152</ele>
        <time>2012-03-23T13:54:49Z</time>
      </trkpt>
      <trkpt lat="48.22251" lon="0.6424">
        <ele>152</ele>
        <time>2012-03-23T13:54:52Z</time>
      </trkpt>
      <trkpt lat="48.22247" lon="0.64239">
        <ele>152</ele>
        <time>2012-03-23T13:54:55Z</time>
      </trkpt>
      <trkpt lat="48.22244" lon="0.64237">
        <ele>152</ele>
        <time>2012-03-23T13:54:58Z</time>
      </trkpt>
      <trkpt lat="48.22242" lon="0.64237">
        <ele>152</ele>
        <time>2012-03-23T13:55:00Z</time>
      </trkpt>
      <trkpt lat="48.22239" lon="0.64237">
        <ele>152</ele>
        <time>2012-03-23T13:55:02Z</time>
      </trkpt>
      <trkpt lat="48.22236" lon="0.64236">
        <ele>152</ele>
        <time>2012-03-23T13:55:05Z</time>
      </trkpt>
      <trkpt lat="48.22233" lon="0.64236">
        <ele>152</ele>
        <time>2012-03-23T13:55:08Z</time>
      </trkpt>
      <trkpt lat="48.2223" lon="0.64235">
        <ele>152</ele>
        <time>2012-03-23T13:55:11Z</time>
      </trkpt>
      <trkpt lat="48.22227" lon="0.64234">
        <ele>152</ele>
        <time>2012-03-23T13:55:14Z</time>
      </trkpt>
      <trkpt lat="48.22223" lon="0.64233">
        <ele>152</ele>
        <time>2012-03-23T13:55:17Z</time>
      </trkpt>
      <trkpt lat="48.2222" lon="0.64232">
        <ele>152</ele>
        <time>2012-03-23T13:55:20Z</time>
      </trkpt>
      <trkpt lat="48.22217" lon="0.64232">
        <ele>152</ele>
        <time>2012-03-23T13:55:22Z</time>
      </trkpt>
      <trkpt lat="48.22214" lon="0.6423">
        <ele>152</ele>
        <time>2012-03-23T13:55:26Z</time>
      </trkpt>
      <trkpt lat="48.2221" lon="0.64228">
        <ele>152</ele>
        <time>2012-03-23T13:55:28Z</time>
      </trkpt>
      <trkpt lat="48.22208" lon="0.64228">
        <ele>152</ele>
        <time>2012-03-23T13:55:30Z</time>
      </trkpt>
      <trkpt lat="48.22204" lon="0.64227">
        <ele>152</ele>
        <time>2012-03-23T13:55:33Z</time>
      </trkpt>
      <trkpt lat="48.22202" lon="0.64227">
        <ele>152</ele>
        <time>2012-03-23T13:55:35Z</time>
      </trkpt>
      <trkpt lat="48.22198" lon="0.64226">
        <ele>152</ele>
        <time>2012-03-23T13:55:38Z</time>
      </trkpt>
      <trkpt lat="48.22195" lon="0.64226">
        <ele>152</ele>
        <time>2012-03-23T13:55:41Z</time>
      </trkpt>
      <trkpt lat="48.22192" lon="0.64225">
        <ele>152</ele>
        <time>2012-03-23T13:55:44Z</time>
      </trkpt>
      <trkpt lat="48.22188" lon="0.64225">
        <ele>152</ele>
        <time>2012-03-23T13:55:48Z</time>
      </trkpt>
      <trkpt lat="48.22185" lon="0.64224">
        <ele>152</ele>
        <time>2012-03-23T13:55:50Z</time>
      </trkpt>
      <trkpt lat="48.22182" lon="0.64223">
        <ele>152</ele>
        <time>2012-03-23T13:55:53Z</time>
      </trkpt>
      <trkpt lat="48.22178" lon="0.64223">
        <ele>152</ele>
        <time>2012-03-23T13:55:57Z</time>
      </trkpt>
      <trkpt lat="48.22174" lon="0.64222">
        <ele>152</ele>
        <time>2012-03-23T13:56:00Z</time>
      </trkpt>
      <trkpt lat="48.22171" lon="0.64221">
        <ele>152</ele>
        <time>2012-03-23T13:56:04Z</time>
      </trkpt>
      <trkpt lat="48.22168" lon="0.64221">
        <ele>152</ele>
        <time>2012-03-23T13:56:06Z</time>
      </trkpt>
      <trkpt lat="48.22165" lon="0.64222">
        <ele>152</ele>
        <time>2012-03-23T13:56:09Z</time>
      </trkpt>
      <trkpt lat="48.22162" lon="0.64221">
        <ele>152</ele>
        <time>2012-03-23T13:56:11Z</time>
      </trkpt>
      <trkpt lat="48.22159" lon="0.64221">
        <ele>152</ele>
        <time>2012-03-23T13:56:13Z</time>
      </trkpt>
      <trkpt lat="48.22157" lon="0.64221">
        <ele>152</ele>
        <time>2012-03-23T13:56:15Z</time>
      </trkpt>
      <trkpt lat="48.22153" lon="0.64222">
        <ele>152</ele>
        <time>2012-03-23T13:56:18Z</time>
      </trkpt>
      <trkpt lat="48.2215" lon="0.64223">
        <ele>152</ele>
        <time>2012-03-23T13:56:22Z</time>
      </trkpt>
      <trkpt lat="48.22146" lon="0.64225">
        <ele>152</ele>
        <time>2012-03-23T13:56:26Z</time>
      </trkpt>
      <trkpt lat="48.22143" lon="0.64225">
        <ele>152</ele>
        <time>2012-03-23T13:56:28Z</time>
      </trkpt>
      <trkpt lat="48.2214" lon="0.64225">
        <ele>151</ele>
        <time>2012-03-23T13:56:32Z</time>
      </trkpt>
      <trkpt lat="48.22137" lon="0.64228">
        <ele>149</ele>
        <time>2012-03-23T13:56:37Z</time>
      </trkpt>
      <trkpt lat="48.22135" lon="0.6423">
        <ele>149</ele>
        <time>2012-03-23T13:56:42Z</time>
      </trkpt>
      <trkpt lat="48.22134" lon="0.64232">
        <ele>149</ele>
        <time>2012-03-23T13:56:59Z</time>
      </trkpt>
      <trkpt lat="48.22131" lon="0.64232">
        <ele>149</ele>
        <time>2012-03-23T13:57:07Z</time>
      </trkpt>
      <trkpt lat="48.22128" lon="0.64231">
        <ele>149</ele>
        <time>2012-03-23T13:57:10Z</time>
      </trkpt>
      <trkpt lat="48.22126" lon="0.6423">
        <ele>149</ele>
        <time>2012-03-23T13:57:13Z</time>
      </trkpt>
      <trkpt lat="48.22123" lon="0.64227">
        <ele>149</ele>
        <time>2012-03-23T13:57:17Z</time>
      </trkpt>
      <trkpt lat="48.2212" lon="0.64226">
        <ele>149</ele>
        <time>2012-03-23T13:57:20Z</time>
      </trkpt>
      <trkpt lat="48.22116" lon="0.64227">
        <ele>149</ele>
        <time>2012-03-23T13:57:22Z</time>
      </trkpt>
      <trkpt lat="48.22114" lon="0.64225">
        <ele>149</ele>
        <time>2012-03-23T13:57:24Z</time>
      </trkpt>
      <trkpt lat="48.22112" lon="0.64223">
        <ele>149</ele>
        <time>2012-03-23T13:57:26Z</time>
      </trkpt>
      <trkpt lat="48.22108" lon="0.64222">
        <ele>149</ele>
        <time>2012-03-23T13:57:29Z</time>
      </trkpt>
      <trkpt lat="48.22105" lon="0.6422">
        <ele>149</ele>
        <time>2012-03-23T13:57:33Z</time>
      </trkpt>
      <trkpt lat="48.22101" lon="0.64218">
        <ele>149</ele>
        <time>2012-03-23T13:57:36Z</time>
      </trkpt>
      <trkpt lat="48.22098" lon="0.64217">
        <ele>149</ele>
        <time>2012-03-23T13:57:38Z</time>
      </trkpt>
      <trkpt lat="48.22095" lon="0.64214">
        <ele>149</ele>
        <time>2012-03-23T13:57:40Z</time>
      </trkpt>
      <trkpt lat="48.22092" lon="0.64213">
        <ele>149</ele>
        <time>2012-03-23T13:57:42Z</time>
      </trkpt>
      <trkpt lat="48.22089" lon="0.6421">
        <ele>149</ele>
        <time>2012-03-23T13:57:46Z</time>
      </trkpt>
      <trkpt lat="48.22085" lon="0.64206">
        <ele>149</ele>
        <time>2012-03-23T13:57:50Z</time>
      </trkpt>
      <trkpt lat="48.22082" lon="0.64205">
        <ele>149</ele>
        <time>2012-03-23T13:57:53Z</time>
      </trkpt>
      <trkpt lat="48.22078" lon="0.64204">
        <ele>149</ele>
        <time>2012-03-23T13:57:57Z</time>
      </trkpt>
      <trkpt lat="48.22076" lon="0.64203">
        <ele>149</ele>
        <time>2012-03-23T13:57:59Z</time>
      </trkpt>
      <trkpt lat="48.22071" lon="0.642">
        <ele>148</ele>
        <time>2012-03-23T13:58:03Z</time>
      </trkpt>
      <trkpt lat="48.22068" lon="0.64198">
        <ele>148</ele>
        <time>2012-03-23T13:58:06Z</time>
      </trkpt>
      <trkpt lat="48.22065" lon="0.64195">
        <ele>147</ele>
        <time>2012-03-23T13:58:10Z</time>
      </trkpt>
      <trkpt lat="48.22062" lon="0.64192">
        <ele>145</ele>
        <time>2012-03-23T13:58:13Z</time>
      </trkpt>
      <trkpt lat="48.22058" lon="0.6419">
        <ele>145</ele>
        <time>2012-03-23T13:58:15Z</time>
      </trkpt>
      <trkpt lat="48.22055" lon="0.64189">
        <ele>145</ele>
        <time>2012-03-23T13:58:17Z</time>
      </trkpt>
      <trkpt lat="48.22052" lon="0.64184">
        <ele>145</ele>
        <time>2012-03-23T13:58:21Z</time>
      </trkpt>
      <trkpt lat="48.2205" lon="0.6418">
        <ele>145</ele>
        <time>2012-03-23T13:58:24Z</time>
      </trkpt>
      <trkpt lat="48.22048" lon="0.64175">
        <ele>145</ele>
        <time>2012-03-23T13:58:27Z</time>
      </trkpt>
      <trkpt lat="48.22044" lon="0.64171">
        <ele>145</ele>
        <time>2012-03-23T13:58:30Z</time>
      </trkpt>
      <trkpt lat="48.22041" lon="0.64168">
        <ele>145</ele>
        <time>2012-03-23T13:58:33Z</time>
      </trkpt>
      <trkpt lat="48.22038" lon="0.64164">
        <ele>145</ele>
        <time>2012-03-23T13:58:37Z</time>
      </trkpt>
      <trkpt lat="48.22034" lon="0.64159">
        <ele>143</ele>
        <time>2012-03-23T13:58:41Z</time>
      </trkpt>
      <trkpt lat="48.22031" lon="0.64154">
        <ele>142</ele>
        <time>2012-03-23T13:58:45Z</time>
      </trkpt>
      <trkpt lat="48.22028" lon="0.64149">
        <ele>140</ele>
        <time>2012-03-23T13:58:49Z</time>
      </trkpt>
      <trkpt lat="48.22025" lon="0.64145">
        <ele>140</ele>
        <time>2012-03-23T13:58:51Z</time>
      </trkpt>
      <trkpt lat="48.22022" lon="0.6414">
        <ele>140</ele>
        <time>2012-03-23T13:58:55Z</time>
      </trkpt>
      <trkpt lat="48.2202" lon="0.64135">
        <ele>140</ele>
        <time>2012-03-23T13:58:59Z</time>
      </trkpt>
      <trkpt lat="48.22019" lon="0.64132">
        <ele>140</ele>
        <time>2012-03-23T13:59:03Z</time>
      </trkpt>
      <trkpt lat="48.22017" lon="0.64127">
        <ele>140</ele>
        <time>2012-03-23T13:59:07Z</time>
      </trkpt>
      <trkpt lat="48.22014" lon="0.64122">
        <ele>140</ele>
        <time>2012-03-23T13:59:11Z</time>
      </trkpt>
      <trkpt lat="48.22012" lon="0.64117">
        <ele>140</ele>
        <time>2012-03-23T13:59:14Z</time>
      </trkpt>
      <trkpt lat="48.2201" lon="0.64111">
        <ele>140</ele>
        <time>2012-03-23T13:59:18Z</time>
      </trkpt>
      <trkpt lat="48.22007" lon="0.64107">
        <ele>139</ele>
        <time>2012-03-23T13:59:21Z</time>
      </trkpt>
      <trkpt lat="48.22005" lon="0.64102">
        <ele>138</ele>
        <time>2012-03-23T13:59:24Z</time>
      </trkpt>
      <trkpt lat="48.22004" lon="0.64097">
        <ele>138</ele>
        <time>2012-03-23T13:59:27Z</time>
      </trkpt>
      <trkpt lat="48.22003" lon="0.64094">
        <ele>138</ele>
        <time>2012-03-23T13:59:29Z</time>
      </trkpt>
      <trkpt lat="48.22001" lon="0.6409">
        <ele>138</ele>
        <time>2012-03-23T13:59:31Z</time>
      </trkpt>
      <trkpt lat="48.22002" lon="0.64086">
        <ele>138</ele>
        <time>2012-03-23T13:59:35Z</time>
      </trkpt>
      <trkpt lat="48.22002" lon="0.64081">
        <ele>138</ele>
        <time>2012-03-23T13:59:38Z</time>
      </trkpt>
      <trkpt lat="48.22001" lon="0.64076">
        <ele>138</ele>
        <time>2012-03-23T13:59:41Z</time>
      </trkpt>
      <trkpt lat="48.22" lon="0.6407">
        <ele>136</ele>
        <time>2012-03-23T13:59:45Z</time>
      </trkpt>
      <trkpt lat="48.21998" lon="0.64065">
        <ele>136</ele>
        <time>2012-03-23T13:59:47Z</time>
      </trkpt>
      <trkpt lat="48.21998" lon="0.64062">
        <ele>136</ele>
        <time>2012-03-23T13:59:49Z</time>
      </trkpt>
      <trkpt lat="48.21997" lon="0.64057">
        <ele>136</ele>
        <time>2012-03-23T13:59:52Z</time>
      </trkpt>
      <trkpt lat="48.21996" lon="0.64053">
        <ele>135</ele>
        <time>2012-03-23T13:59:54Z</time>
      </trkpt>
      <trkpt lat="48.21997" lon="0.64048">
        <ele>135</ele>
        <time>2012-03-23T13:59:57Z</time>
      </trkpt>
      <trkpt lat="48.21996" lon="0.64044">
        <ele>134</ele>
        <time>2012-03-23T14:00:00Z</time>
      </trkpt>
      <trkpt lat="48.21996" lon="0.64038">
        <ele>132</ele>
        <time>2012-03-23T14:00:04Z</time>
      </trkpt>
      <trkpt lat="48.21995" lon="0.64033">
        <ele>131</ele>
        <time>2012-03-23T14:00:08Z</time>
      </trkpt>
      <trkpt lat="48.21994" lon="0.64028">
        <ele>130</ele>
        <time>2012-03-23T14:00:11Z</time>
      </trkpt>
      <trkpt lat="48.21993" lon="0.64024">
        <ele>128</ele>
        <time>2012-03-23T14:00:14Z</time>
      </trkpt>
      <trkpt lat="48.21991" lon="0.64018">
        <ele>127</ele>
        <time>2012-03-23T14:00:17Z</time>
      </trkpt>
      <trkpt lat="48.21989" lon="0.64012">
        <ele>126</ele>
        <time>2012-03-23T14:00:21Z</time>
      </trkpt>
      <trkpt lat="48.21988" lon="0.64007">
        <ele>124</ele>
        <time>2012-03-23T14:00:25Z</time>
      </trkpt>
      <trkpt lat="48.21986" lon="0.64001">
        <ele>123</ele>
        <time>2012-03-23T14:00:29Z</time>
      </trkpt>
      <trkpt lat="48.21985" lon="0.63996">
        <ele>121</ele>
        <time>2012-03-23T14:00:33Z</time>
      </trkpt>
      <trkpt lat="48.21983" lon="0.6399">
        <ele>119</ele>
        <time>2012-03-23T14:00:37Z</time>
      </trkpt>
      <trkpt lat="48.21981" lon="0.63985">
        <ele>118</ele>
        <time>2012-03-23T14:00:41Z</time>
      </trkpt>
      <trkpt lat="48.21979" lon="0.6398">
        <ele>118</ele>
        <time>2012-03-23T14:00:44Z</time>
      </trkpt>
      <trkpt lat="48.21976" lon="0.63974">
        <ele>118</ele>
        <time>2012-03-23T14:00:48Z</time>
      </trkpt>
      <trkpt lat="48.21975" lon="0.63969">
        <ele>118</ele>
        <time>2012-03-23T14:00:51Z</time>
      </trkpt>
      <trkpt lat="48.21973" lon="0.63964">
        <ele>118</ele>
        <time>2012-03-23T14:00:55Z</time>
      </trkpt>
      <trkpt lat="48.21971" lon="0.63959">
        <ele>117</ele>
        <time>2012-03-23T14:00:58Z</time>
      </trkpt>
      <trkpt lat="48.21969" lon="0.63954">
        <ele>117</ele>
        <time>2012-03-23T14:01:01Z</time>
      </trkpt>
      <trkpt lat="48.21967" lon="0.63949">
        <ele>117</ele>
        <time>2012-03-23T14:01:04Z</time>
      </trkpt>
      <trkpt lat="48.21965" lon="0.63945">
        <ele>117</ele>
        <time>2012-03-23T14:01:07Z</time>
      </trkpt>
      <trkpt lat="48.21964" lon="0.63941">
        <ele>117</ele>
        <time>2012-03-23T14:01:09Z</time>
      </trkpt>
      <trkpt lat="48.21962" lon="0.63938">
        <ele>117</ele>
        <time>2012-03-23T14:01:11Z</time>
      </trkpt>
      <trkpt lat="48.21961" lon="0.63933">
        <ele>117</ele>
        <time>2012-03-23T14:01:14Z</time>
      </trkpt>
      <trkpt lat="48.21959" lon="0.63929">
        <ele>117</ele>
        <time>2012-03-23T14:01:16Z</time>
      </trkpt>
      <trkpt lat="48.21957" lon="0.63924">
        <ele>117</ele>
        <time>2012-03-23T14:01:19Z</time>
      </trkpt>
      <trkpt lat="48.21954" lon="0.63919">
        <ele>116</ele>
        <time>2012-03-23T14:01:23Z</time>
      </trkpt>
      <trkpt lat="48.21952" lon="0.63915">
        <ele>116</ele>
        <time>2012-03-23T14:01:27Z</time>
      </trkpt>
      <trkpt lat="48.2195" lon="0.63911">
        <ele>115</ele>
        <time>2012-03-23T14:01:31Z</time>
      </trkpt>
      <trkpt lat="48.21948" lon="0.63906">
        <ele>114</ele>
        <time>2012-03-23T14:01:35Z</time>
      </trkpt>
      <trkpt lat="48.21946" lon="0.63901">
        <ele>112</ele>
        <time>2012-03-23T14:01:39Z</time>
      </trkpt>
      <trkpt lat="48.21944" lon="0.63896">
        <ele>111</ele>
        <time>2012-03-23T14:01:43Z</time>
      </trkpt>
      <trkpt lat="48.21943" lon="0.63891">
        <ele>109</ele>
        <time>2012-03-23T14:01:47Z</time>
      </trkpt>
      <trkpt lat="48.21941" lon="0.63886">
        <ele>108</ele>
        <time>2012-03-23T14:01:51Z</time>
      </trkpt>
      <trkpt lat="48.21939" lon="0.63881">
        <ele>108</ele>
        <time>2012-03-23T14:01:55Z</time>
      </trkpt>
      <trkpt lat="48.21937" lon="0.63877">
        <ele>108</ele>
        <time>2012-03-23T14:01:59Z</time>
      </trkpt>
      <trkpt lat="48.21934" lon="0.63872">
        <ele>107</ele>
        <time>2012-03-23T14:02:03Z</time>
      </trkpt>
      <trkpt lat="48.2193" lon="0.63869">
        <ele>107</ele>
        <time>2012-03-23T14:02:06Z</time>
      </trkpt>
      <trkpt lat="48.21927" lon="0.63864">
        <ele>107</ele>
        <time>2012-03-23T14:02:10Z</time>
      </trkpt>
      <trkpt lat="48.21923" lon="0.6386">
        <ele>107</ele>
        <time>2012-03-23T14:02:14Z</time>
      </trkpt>
      <trkpt lat="48.21919" lon="0.63856">
        <ele>107</ele>
        <time>2012-03-23T14:02:18Z</time>
      </trkpt>
      <trkpt lat="48.21915" lon="0.63852">
        <ele>107</ele>
        <time>2012-03-23T14:02:22Z</time>
      </trkpt>
      <trkpt lat="48.21912" lon="0.63849">
        <ele>107</ele>
        <time>2012-03-23T14:02:25Z</time>
      </trkpt>
      <trkpt lat="48.21909" lon="0.63846">
        <ele>106</ele>
        <time>2012-03-23T14:02:28Z</time>
      </trkpt>
      <trkpt lat="48.21906" lon="0.63843">
        <ele>105</ele>
        <time>2012-03-23T14:02:32Z</time>
      </trkpt>
      <trkpt lat="48.21904" lon="0.63837">
        <ele>104</ele>
        <time>2012-03-23T14:02:36Z</time>
      </trkpt>
      <trkpt lat="48.21904" lon="0.63834">
        <ele>103</ele>
        <time>2012-03-23T14:02:38Z</time>
      </trkpt>
      <trkpt lat="48.21904" lon="0.6383">
        <ele>103</ele>
        <time>2012-03-23T14:02:40Z</time>
      </trkpt>
      <trkpt lat="48.21904" lon="0.63825">
        <ele>103</ele>
        <time>2012-03-23T14:02:42Z</time>
      </trkpt>
      <trkpt lat="48.21907" lon="0.63822">
        <ele>103</ele>
        <time>2012-03-23T14:02:45Z</time>
      </trkpt>
      <trkpt lat="48.2191" lon="0.63822">
        <ele>103</ele>
        <time>2012-03-23T14:02:50Z</time>
      </trkpt>
      <trkpt lat="48.21913" lon="0.63819">
        <ele>103</ele>
        <time>2012-03-23T14:02:52Z</time>
      </trkpt>
      <trkpt lat="48.21916" lon="0.63817">
        <ele>103</ele>
        <time>2012-03-23T14:02:54Z</time>
      </trkpt>
      <trkpt lat="48.2192" lon="0.63814">
        <ele>103</ele>
        <time>2012-03-23T14:02:57Z</time>
      </trkpt>
      <trkpt lat="48.21923" lon="0.63813">
        <ele>103</ele>
        <time>2012-03-23T14:03:00Z</time>
      </trkpt>
      <trkpt lat="48.21927" lon="0.6381">
        <ele>103</ele>
        <time>2012-03-23T14:03:04Z</time>
      </trkpt>
      <trkpt lat="48.2193" lon="0.63808">
        <ele>102</ele>
        <time>2012-03-23T14:03:08Z</time>
      </trkpt>
      <trkpt lat="48.21934" lon="0.63806">
        <ele>101</ele>
        <time>2012-03-23T14:03:11Z</time>
      </trkpt>
      <trkpt lat="48.21936" lon="0.63805">
        <ele>101</ele>
        <time>2012-03-23T14:03:13Z</time>
      </trkpt>
      <trkpt lat="48.2194" lon="0.63802">
        <ele>98</ele>
        <time>2012-03-23T14:03:17Z</time>
      </trkpt>
      <trkpt lat="48.21942" lon="0.63797">
        <ele>97</ele>
        <time>2012-03-23T14:03:20Z</time>
      </trkpt>
      <trkpt lat="48.21944" lon="0.63792">
        <ele>97</ele>
        <time>2012-03-23T14:03:24Z</time>
      </trkpt>
      <trkpt lat="48.21945" lon="0.63788">
        <ele>97</ele>
        <time>2012-03-23T14:03:27Z</time>
      </trkpt>
      <trkpt lat="48.21944" lon="0.63784">
        <ele>97</ele>
        <time>2012-03-23T14:03:29Z</time>
      </trkpt>
      <trkpt lat="48.21944" lon="0.6378">
        <ele>97</ele>
        <time>2012-03-23T14:03:31Z</time>
      </trkpt>
      <trkpt lat="48.21944" lon="0.63774">
        <ele>97</ele>
        <time>2012-03-23T14:03:35Z</time>
      </trkpt>
      <trkpt lat="48.21945" lon="0.63769">
        <ele>97</ele>
        <time>2012-03-23T14:03:38Z</time>
      </trkpt>
      <trkpt lat="48.21944" lon="0.63766">
        <ele>97</ele>
        <time>2012-03-23T14:03:40Z</time>
      </trkpt>
      <trkpt lat="48.21944" lon="0.63759">
        <ele>97</ele>
        <time>2012-03-23T14:03:44Z</time>
      </trkpt>
      <trkpt lat="48.21943" lon="0.63754">
        <ele>97</ele>
        <time>2012-03-23T14:03:48Z</time>
      </trkpt>
      <trkpt lat="48.21942" lon="0.6375">
        <ele>97</ele>
        <time>2012-03-23T14:03:50Z</time>
      </trkpt>
      <trkpt lat="48.21942" lon="0.63745">
        <ele>97</ele>
        <time>2012-03-23T14:03:53Z</time>
      </trkpt>
      <trkpt lat="48.2194" lon="0.6374">
        <ele>97</ele>
        <time>2012-03-23T14:03:56Z</time>
      </trkpt>
      <trkpt lat="48.21938" lon="0.63736">
        <ele>97</ele>
        <time>2012-03-23T14:03:59Z</time>
      </trkpt>
      <trkpt lat="48.21935" lon="0.6373">
        <ele>97</ele>
        <time>2012-03-23T14:04:03Z</time>
      </trkpt>
      <trkpt lat="48.21933" lon="0.63724">
        <ele>97</ele>
        <time>2012-03-23T14:04:07Z</time>
      </trkpt>
      <trkpt lat="48.21931" lon="0.6372">
        <ele>97</ele>
        <time>2012-03-23T14:04:10Z</time>
      </trkpt>
      <trkpt lat="48.2193" lon="0.63716">
        <ele>97</ele>
        <time>2012-03-23T14:04:12Z</time>
      </trkpt>
      <trkpt lat="48.21929" lon="0.63712">
        <ele>97</ele>
        <time>2012-03-23T14:04:15Z</time>
      </trkpt>
      <trkpt lat="48.21927" lon="0.63707">
        <ele>97</ele>
        <time>2012-03-23T14:04:18Z</time>
      </trkpt>
      <trkpt lat="48.21926" lon="0.63702">
        <ele>97</ele>
        <time>2012-03-23T14:04:22Z</time>
      </trkpt>
      <trkpt lat="48.21923" lon="0.63697">
        <ele>97</ele>
        <time>2012-03-23T14:04:26Z</time>
      </trkpt>
      <trkpt lat="48.21921" lon="0.63695">
        <ele>97</ele>
        <time>2012-03-23T14:04:29Z</time>
      </trkpt>
      <trkpt lat="48.21918" lon="0.63685">
        <ele>99</ele>
        <time>2012-03-23T14:04:34Z</time>
      </trkpt>
    </trkseg>
  </trk>
</gpx>